<?xml version="1.0" encoding="UTF-8"?>
<gpx version="1.1" creator="https://www.youtrack.es" xsi:schemaLocation="http://www.topografix.com/GPX/1/1 http://www.topografix.com/GPX/1/1/gpx.xsd http://www.garmin.com/xmlschemas/GpxExtensions/v3 http://www.garmin.com/xmlschemas/GpxExtensionsv3.xsd http://www.garmin.com/xmlschemas/TrackPointExtension/v1 http://www.garmin.com/xmlschemas/TrackPointExtensionv1.xsd" xmlns:gpxtpx="http://www.garmin.com/xmlschemas/TrackPointExtension/v1" xmlns:gpxx="http://www.garmin.com/xmlschemas/GpxExtensions/v3" xmlns:xsi="http://www.w3.org/2001/XMLSchema-instance">
  <metadata>
    <link href="https://www.youtrack.es">
      <text>YouTrack.es</text>
    </link>
    <time>2026-05-08T04:12:15Z</time>
  </metadata>
  <trk>
    <src>https://www.youtrack.es</src>
    <link href="https://www.youtrack.es/ruta/39332-solius">
      <text>YouTrack.es</text>
    </link>
    <trkseg>
      <trkpt lat="41.7879490" lon="3.0282970">
        <ele>70.4</ele>
        <time>2023-01-02T07:18:55Z</time>
      </trkpt>
      <trkpt lat="41.7879490" lon="3.0282970">
        <ele>70.8</ele>
        <time>2023-01-02T07:18:56Z</time>
      </trkpt>
      <trkpt lat="41.7879490" lon="3.0282970">
        <ele>71.2</ele>
        <time>2023-01-02T07:18:59Z</time>
      </trkpt>
      <trkpt lat="41.7879490" lon="3.0282970">
        <ele>71.2</ele>
        <time>2023-01-02T07:19:00Z</time>
      </trkpt>
      <trkpt lat="41.7879490" lon="3.0282970">
        <ele>71.4</ele>
        <time>2023-01-02T07:19:03Z</time>
      </trkpt>
      <trkpt lat="41.7879490" lon="3.0282970">
        <ele>71.4</ele>
        <time>2023-01-02T07:19:04Z</time>
      </trkpt>
      <trkpt lat="41.7879600" lon="3.0282930">
        <ele>71.4</ele>
        <time>2023-01-02T07:19:05Z</time>
      </trkpt>
      <trkpt lat="41.7879850" lon="3.0282870">
        <ele>71.4</ele>
        <time>2023-01-02T07:19:08Z</time>
      </trkpt>
      <trkpt lat="41.7880520" lon="3.0282610">
        <ele>71.6</ele>
        <time>2023-01-02T07:19:12Z</time>
      </trkpt>
      <trkpt lat="41.7881970" lon="3.0281950">
        <ele>71.8</ele>
        <time>2023-01-02T07:19:19Z</time>
      </trkpt>
      <trkpt lat="41.7882170" lon="3.0281910">
        <ele>71.8</ele>
        <time>2023-01-02T07:19:20Z</time>
      </trkpt>
      <trkpt lat="41.7882360" lon="3.0281860">
        <ele>71.8</ele>
        <time>2023-01-02T07:19:21Z</time>
      </trkpt>
      <trkpt lat="41.7883120" lon="3.0281680">
        <ele>72.0</ele>
        <time>2023-01-02T07:19:24Z</time>
      </trkpt>
      <trkpt lat="41.7884730" lon="3.0281050">
        <ele>72.4</ele>
        <time>2023-01-02T07:19:30Z</time>
      </trkpt>
      <trkpt lat="41.7885620" lon="3.0280800">
        <ele>72.4</ele>
        <time>2023-01-02T07:19:33Z</time>
      </trkpt>
      <trkpt lat="41.7885900" lon="3.0280650">
        <ele>72.6</ele>
        <time>2023-01-02T07:19:34Z</time>
      </trkpt>
      <trkpt lat="41.7886780" lon="3.0280180">
        <ele>72.8</ele>
        <time>2023-01-02T07:19:37Z</time>
      </trkpt>
      <trkpt lat="41.7888900" lon="3.0279240">
        <ele>73.2</ele>
        <time>2023-01-02T07:19:44Z</time>
      </trkpt>
      <trkpt lat="41.7889210" lon="3.0279110">
        <ele>73.4</ele>
        <time>2023-01-02T07:19:45Z</time>
      </trkpt>
      <trkpt lat="41.7889910" lon="3.0278830">
        <ele>73.6</ele>
        <time>2023-01-02T07:19:47Z</time>
      </trkpt>
      <trkpt lat="41.7890940" lon="3.0278320">
        <ele>73.8</ele>
        <time>2023-01-02T07:19:50Z</time>
      </trkpt>
      <trkpt lat="41.7892320" lon="3.0278480">
        <ele>73.8</ele>
        <time>2023-01-02T07:19:54Z</time>
      </trkpt>
      <trkpt lat="41.7892750" lon="3.0279570">
        <ele>73.6</ele>
        <time>2023-01-02T07:19:56Z</time>
      </trkpt>
      <trkpt lat="41.7892890" lon="3.0280330">
        <ele>73.4</ele>
        <time>2023-01-02T07:19:57Z</time>
      </trkpt>
      <trkpt lat="41.7893030" lon="3.0281130">
        <ele>72.6</ele>
        <time>2023-01-02T07:19:58Z</time>
      </trkpt>
      <trkpt lat="41.7893330" lon="3.0282820">
        <ele>71.0</ele>
        <time>2023-01-02T07:20:00Z</time>
      </trkpt>
      <trkpt lat="41.7893440" lon="3.0283720">
        <ele>69.6</ele>
        <time>2023-01-02T07:20:01Z</time>
      </trkpt>
      <trkpt lat="41.7893710" lon="3.0285320">
        <ele>68.2</ele>
        <time>2023-01-02T07:20:03Z</time>
      </trkpt>
      <trkpt lat="41.7893840" lon="3.0285980">
        <ele>67.2</ele>
        <time>2023-01-02T07:20:04Z</time>
      </trkpt>
      <trkpt lat="41.7893960" lon="3.0286590">
        <ele>65.8</ele>
        <time>2023-01-02T07:20:05Z</time>
      </trkpt>
      <trkpt lat="41.7893960" lon="3.0287240">
        <ele>64.6</ele>
        <time>2023-01-02T07:20:06Z</time>
      </trkpt>
      <trkpt lat="41.7893960" lon="3.0287880">
        <ele>63.6</ele>
        <time>2023-01-02T07:20:07Z</time>
      </trkpt>
      <trkpt lat="41.7894090" lon="3.0288430">
        <ele>62.6</ele>
        <time>2023-01-02T07:20:08Z</time>
      </trkpt>
      <trkpt lat="41.7894420" lon="3.0288710">
        <ele>62.2</ele>
        <time>2023-01-02T07:20:09Z</time>
      </trkpt>
      <trkpt lat="41.7894840" lon="3.0288690">
        <ele>61.8</ele>
        <time>2023-01-02T07:20:10Z</time>
      </trkpt>
      <trkpt lat="41.7895310" lon="3.0288340">
        <ele>61.6</ele>
        <time>2023-01-02T07:20:11Z</time>
      </trkpt>
      <trkpt lat="41.7895830" lon="3.0287520">
        <ele>61.4</ele>
        <time>2023-01-02T07:20:13Z</time>
      </trkpt>
      <trkpt lat="41.7896870" lon="3.0286440">
        <ele>61.6</ele>
        <time>2023-01-02T07:20:18Z</time>
      </trkpt>
      <trkpt lat="41.7897140" lon="3.0286300">
        <ele>61.6</ele>
        <time>2023-01-02T07:20:19Z</time>
      </trkpt>
      <trkpt lat="41.7898880" lon="3.0285220">
        <ele>62.4</ele>
        <time>2023-01-02T07:20:25Z</time>
      </trkpt>
      <trkpt lat="41.7900720" lon="3.0284270">
        <ele>63.0</ele>
        <time>2023-01-02T07:20:31Z</time>
      </trkpt>
      <trkpt lat="41.7901210" lon="3.0283970">
        <ele>63.2</ele>
        <time>2023-01-02T07:20:33Z</time>
      </trkpt>
      <trkpt lat="41.7902360" lon="3.0283630">
        <ele>64.0</ele>
        <time>2023-01-02T07:20:37Z</time>
      </trkpt>
      <trkpt lat="41.7904670" lon="3.0282500">
        <ele>64.2</ele>
        <time>2023-01-02T07:20:43Z</time>
      </trkpt>
      <trkpt lat="41.7905070" lon="3.0282310">
        <ele>64.2</ele>
        <time>2023-01-02T07:20:44Z</time>
      </trkpt>
      <trkpt lat="41.7906950" lon="3.0281450">
        <ele>64.8</ele>
        <time>2023-01-02T07:20:49Z</time>
      </trkpt>
      <trkpt lat="41.7907750" lon="3.0281160">
        <ele>65.2</ele>
        <time>2023-01-02T07:20:51Z</time>
      </trkpt>
      <trkpt lat="41.7908580" lon="3.0280770">
        <ele>65.4</ele>
        <time>2023-01-02T07:20:53Z</time>
      </trkpt>
      <trkpt lat="41.7910180" lon="3.0279790">
        <ele>65.4</ele>
        <time>2023-01-02T07:20:57Z</time>
      </trkpt>
      <trkpt lat="41.7912860" lon="3.0278200">
        <ele>65.6</ele>
        <time>2023-01-02T07:21:04Z</time>
      </trkpt>
      <trkpt lat="41.7914140" lon="3.0276760">
        <ele>66.0</ele>
        <time>2023-01-02T07:21:09Z</time>
      </trkpt>
      <trkpt lat="41.7914420" lon="3.0275840">
        <ele>66.6</ele>
        <time>2023-01-02T07:21:12Z</time>
      </trkpt>
      <trkpt lat="41.7914690" lon="3.0275250">
        <ele>67.0</ele>
        <time>2023-01-02T07:21:14Z</time>
      </trkpt>
      <trkpt lat="41.7915260" lon="3.0273780">
        <ele>67.6</ele>
        <time>2023-01-02T07:21:19Z</time>
      </trkpt>
      <trkpt lat="41.7915720" lon="3.0272560">
        <ele>68.4</ele>
        <time>2023-01-02T07:21:23Z</time>
      </trkpt>
      <trkpt lat="41.7915950" lon="3.0271960">
        <ele>68.8</ele>
        <time>2023-01-02T07:21:25Z</time>
      </trkpt>
      <trkpt lat="41.7916610" lon="3.0270300">
        <ele>69.6</ele>
        <time>2023-01-02T07:21:31Z</time>
      </trkpt>
      <trkpt lat="41.7916750" lon="3.0269970">
        <ele>70.0</ele>
        <time>2023-01-02T07:21:32Z</time>
      </trkpt>
      <trkpt lat="41.7917160" lon="3.0269020">
        <ele>70.2</ele>
        <time>2023-01-02T07:21:35Z</time>
      </trkpt>
      <trkpt lat="41.7917570" lon="3.0268130">
        <ele>70.4</ele>
        <time>2023-01-02T07:21:38Z</time>
      </trkpt>
      <trkpt lat="41.7918100" lon="3.0267130">
        <ele>71.2</ele>
        <time>2023-01-02T07:21:42Z</time>
      </trkpt>
      <trkpt lat="41.7918440" lon="3.0266380">
        <ele>71.8</ele>
        <time>2023-01-02T07:21:45Z</time>
      </trkpt>
      <trkpt lat="41.7918820" lon="3.0265450">
        <ele>72.2</ele>
        <time>2023-01-02T07:21:48Z</time>
      </trkpt>
      <trkpt lat="41.7919410" lon="3.0263790">
        <ele>73.0</ele>
        <time>2023-01-02T07:21:53Z</time>
      </trkpt>
      <trkpt lat="41.7919620" lon="3.0263140">
        <ele>73.2</ele>
        <time>2023-01-02T07:21:55Z</time>
      </trkpt>
      <trkpt lat="41.7920490" lon="3.0260630">
        <ele>74.2</ele>
        <time>2023-01-02T07:22:02Z</time>
      </trkpt>
      <trkpt lat="41.7920630" lon="3.0260210">
        <ele>74.4</ele>
        <time>2023-01-02T07:22:03Z</time>
      </trkpt>
      <trkpt lat="41.7921370" lon="3.0258310">
        <ele>75.4</ele>
        <time>2023-01-02T07:22:09Z</time>
      </trkpt>
      <trkpt lat="41.7921520" lon="3.0258030">
        <ele>75.6</ele>
        <time>2023-01-02T07:22:10Z</time>
      </trkpt>
      <trkpt lat="41.7922270" lon="3.0256460">
        <ele>76.4</ele>
        <time>2023-01-02T07:22:15Z</time>
      </trkpt>
      <trkpt lat="41.7923110" lon="3.0254930">
        <ele>76.8</ele>
        <time>2023-01-02T07:22:20Z</time>
      </trkpt>
      <trkpt lat="41.7923210" lon="3.0254550">
        <ele>77.0</ele>
        <time>2023-01-02T07:22:21Z</time>
      </trkpt>
      <trkpt lat="41.7923600" lon="3.0252860">
        <ele>77.8</ele>
        <time>2023-01-02T07:22:26Z</time>
      </trkpt>
      <trkpt lat="41.7924530" lon="3.0251360">
        <ele>78.6</ele>
        <time>2023-01-02T07:22:32Z</time>
      </trkpt>
      <trkpt lat="41.7925010" lon="3.0250700">
        <ele>78.8</ele>
        <time>2023-01-02T07:22:35Z</time>
      </trkpt>
      <trkpt lat="41.7925630" lon="3.0250150">
        <ele>79.6</ele>
        <time>2023-01-02T07:22:38Z</time>
      </trkpt>
      <trkpt lat="41.7926040" lon="3.0249730">
        <ele>80.0</ele>
        <time>2023-01-02T07:22:40Z</time>
      </trkpt>
      <trkpt lat="41.7926230" lon="3.0249490">
        <ele>80.2</ele>
        <time>2023-01-02T07:22:41Z</time>
      </trkpt>
      <trkpt lat="41.7926960" lon="3.0248380">
        <ele>81.0</ele>
        <time>2023-01-02T07:22:46Z</time>
      </trkpt>
      <trkpt lat="41.7927360" lon="3.0247610">
        <ele>82.0</ele>
        <time>2023-01-02T07:22:49Z</time>
      </trkpt>
      <trkpt lat="41.7927760" lon="3.0246920">
        <ele>82.4</ele>
        <time>2023-01-02T07:22:52Z</time>
      </trkpt>
      <trkpt lat="41.7928810" lon="3.0245630">
        <ele>83.2</ele>
        <time>2023-01-02T07:22:58Z</time>
      </trkpt>
      <trkpt lat="41.7929630" lon="3.0244160">
        <ele>84.4</ele>
        <time>2023-01-02T07:23:03Z</time>
      </trkpt>
      <trkpt lat="41.7929930" lon="3.0243490">
        <ele>84.8</ele>
        <time>2023-01-02T07:23:05Z</time>
      </trkpt>
      <trkpt lat="41.7930450" lon="3.0242300">
        <ele>85.6</ele>
        <time>2023-01-02T07:23:09Z</time>
      </trkpt>
      <trkpt lat="41.7931000" lon="3.0241100">
        <ele>86.2</ele>
        <time>2023-01-02T07:23:13Z</time>
      </trkpt>
      <trkpt lat="41.7931580" lon="3.0240200">
        <ele>86.6</ele>
        <time>2023-01-02T07:23:17Z</time>
      </trkpt>
      <trkpt lat="41.7931800" lon="3.0239740">
        <ele>87.2</ele>
        <time>2023-01-02T07:23:19Z</time>
      </trkpt>
      <trkpt lat="41.7932090" lon="3.0238960">
        <ele>87.8</ele>
        <time>2023-01-02T07:23:22Z</time>
      </trkpt>
      <trkpt lat="41.7932470" lon="3.0238140">
        <ele>88.2</ele>
        <time>2023-01-02T07:23:25Z</time>
      </trkpt>
      <trkpt lat="41.7933180" lon="3.0237340">
        <ele>88.8</ele>
        <time>2023-01-02T07:23:29Z</time>
      </trkpt>
      <trkpt lat="41.7933560" lon="3.0236990">
        <ele>89.0</ele>
        <time>2023-01-02T07:23:31Z</time>
      </trkpt>
      <trkpt lat="41.7934030" lon="3.0236260">
        <ele>89.4</ele>
        <time>2023-01-02T07:23:34Z</time>
      </trkpt>
      <trkpt lat="41.7934430" lon="3.0235760">
        <ele>89.4</ele>
        <time>2023-01-02T07:23:36Z</time>
      </trkpt>
      <trkpt lat="41.7934780" lon="3.0235240">
        <ele>90.0</ele>
        <time>2023-01-02T07:23:38Z</time>
      </trkpt>
      <trkpt lat="41.7935660" lon="3.0233890">
        <ele>90.6</ele>
        <time>2023-01-02T07:23:43Z</time>
      </trkpt>
      <trkpt lat="41.7936070" lon="3.0233380">
        <ele>90.6</ele>
        <time>2023-01-02T07:23:45Z</time>
      </trkpt>
      <trkpt lat="41.7936510" lon="3.0232840">
        <ele>91.0</ele>
        <time>2023-01-02T07:23:47Z</time>
      </trkpt>
      <trkpt lat="41.7936870" lon="3.0232300">
        <ele>91.2</ele>
        <time>2023-01-02T07:23:49Z</time>
      </trkpt>
      <trkpt lat="41.7937660" lon="3.0231260">
        <ele>92.0</ele>
        <time>2023-01-02T07:23:53Z</time>
      </trkpt>
      <trkpt lat="41.7938170" lon="3.0230490">
        <ele>92.2</ele>
        <time>2023-01-02T07:23:56Z</time>
      </trkpt>
      <trkpt lat="41.7938490" lon="3.0228630">
        <ele>92.8</ele>
        <time>2023-01-02T07:24:01Z</time>
      </trkpt>
      <trkpt lat="41.7938340" lon="3.0226810">
        <ele>93.2</ele>
        <time>2023-01-02T07:24:05Z</time>
      </trkpt>
      <trkpt lat="41.7938330" lon="3.0224460">
        <ele>93.6</ele>
        <time>2023-01-02T07:24:10Z</time>
      </trkpt>
      <trkpt lat="41.7938280" lon="3.0221580">
        <ele>94.0</ele>
        <time>2023-01-02T07:24:17Z</time>
      </trkpt>
      <trkpt lat="41.7938050" lon="3.0218980">
        <ele>94.2</ele>
        <time>2023-01-02T07:24:23Z</time>
      </trkpt>
      <trkpt lat="41.7938090" lon="3.0217670">
        <ele>94.4</ele>
        <time>2023-01-02T07:24:26Z</time>
      </trkpt>
      <trkpt lat="41.7938650" lon="3.0215690">
        <ele>95.0</ele>
        <time>2023-01-02T07:24:31Z</time>
      </trkpt>
      <trkpt lat="41.7938860" lon="3.0215350">
        <ele>95.2</ele>
        <time>2023-01-02T07:24:32Z</time>
      </trkpt>
      <trkpt lat="41.7939940" lon="3.0214680">
        <ele>95.8</ele>
        <time>2023-01-02T07:24:36Z</time>
      </trkpt>
      <trkpt lat="41.7941450" lon="3.0214570">
        <ele>96.4</ele>
        <time>2023-01-02T07:24:41Z</time>
      </trkpt>
      <trkpt lat="41.7942340" lon="3.0214460">
        <ele>96.6</ele>
        <time>2023-01-02T07:24:44Z</time>
      </trkpt>
      <trkpt lat="41.7942640" lon="3.0214420">
        <ele>96.8</ele>
        <time>2023-01-02T07:24:45Z</time>
      </trkpt>
      <trkpt lat="41.7945370" lon="3.0213940">
        <ele>97.4</ele>
        <time>2023-01-02T07:24:54Z</time>
      </trkpt>
      <trkpt lat="41.7947970" lon="3.0213580">
        <ele>98.4</ele>
        <time>2023-01-02T07:25:03Z</time>
      </trkpt>
      <trkpt lat="41.7948230" lon="3.0213550">
        <ele>98.6</ele>
        <time>2023-01-02T07:25:04Z</time>
      </trkpt>
      <trkpt lat="41.7949520" lon="3.0213190">
        <ele>99.6</ele>
        <time>2023-01-02T07:25:09Z</time>
      </trkpt>
      <trkpt lat="41.7949990" lon="3.0213020">
        <ele>99.8</ele>
        <time>2023-01-02T07:25:11Z</time>
      </trkpt>
      <trkpt lat="41.7950970" lon="3.0212880">
        <ele>100.6</ele>
        <time>2023-01-02T07:25:15Z</time>
      </trkpt>
      <trkpt lat="41.7952350" lon="3.0212710">
        <ele>101.8</ele>
        <time>2023-01-02T07:25:21Z</time>
      </trkpt>
      <trkpt lat="41.7953970" lon="3.0212590">
        <ele>102.8</ele>
        <time>2023-01-02T07:25:28Z</time>
      </trkpt>
      <trkpt lat="41.7954420" lon="3.0212640">
        <ele>103.0</ele>
        <time>2023-01-02T07:25:30Z</time>
      </trkpt>
      <trkpt lat="41.7955310" lon="3.0212700">
        <ele>104.0</ele>
        <time>2023-01-02T07:25:34Z</time>
      </trkpt>
      <trkpt lat="41.7956610" lon="3.0213000">
        <ele>105.0</ele>
        <time>2023-01-02T07:25:40Z</time>
      </trkpt>
      <trkpt lat="41.7956710" lon="3.0213100">
        <ele>105.2</ele>
        <time>2023-01-02T07:25:41Z</time>
      </trkpt>
      <trkpt lat="41.7956990" lon="3.0213640">
        <ele>105.6</ele>
        <time>2023-01-02T07:25:45Z</time>
      </trkpt>
      <trkpt lat="41.7957080" lon="3.0213700">
        <ele>105.6</ele>
        <time>2023-01-02T07:25:46Z</time>
      </trkpt>
      <trkpt lat="41.7957970" lon="3.0213770">
        <ele>105.8</ele>
        <time>2023-01-02T07:25:50Z</time>
      </trkpt>
      <trkpt lat="41.7958290" lon="3.0213590">
        <ele>106.0</ele>
        <time>2023-01-02T07:25:51Z</time>
      </trkpt>
      <trkpt lat="41.7959020" lon="3.0212670">
        <ele>106.6</ele>
        <time>2023-01-02T07:25:54Z</time>
      </trkpt>
      <trkpt lat="41.7959430" lon="3.0211270">
        <ele>107.0</ele>
        <time>2023-01-02T07:25:59Z</time>
      </trkpt>
      <trkpt lat="41.7959420" lon="3.0211120">
        <ele>107.2</ele>
        <time>2023-01-02T07:26:00Z</time>
      </trkpt>
      <trkpt lat="41.7959050" lon="3.0210270">
        <ele>107.4</ele>
        <time>2023-01-02T07:26:06Z</time>
      </trkpt>
      <trkpt lat="41.7958930" lon="3.0209620">
        <ele>107.2</ele>
        <time>2023-01-02T07:26:08Z</time>
      </trkpt>
      <trkpt lat="41.7959180" lon="3.0208760">
        <ele>106.8</ele>
        <time>2023-01-02T07:26:10Z</time>
      </trkpt>
      <trkpt lat="41.7959810" lon="3.0206360">
        <ele>106.4</ele>
        <time>2023-01-02T07:26:15Z</time>
      </trkpt>
      <trkpt lat="41.7959540" lon="3.0205160">
        <ele>106.0</ele>
        <time>2023-01-02T07:26:17Z</time>
      </trkpt>
      <trkpt lat="41.7959020" lon="3.0203020">
        <ele>105.4</ele>
        <time>2023-01-02T07:26:20Z</time>
      </trkpt>
      <trkpt lat="41.7958330" lon="3.0201720">
        <ele>105.0</ele>
        <time>2023-01-02T07:26:22Z</time>
      </trkpt>
      <trkpt lat="41.7957550" lon="3.0200320">
        <ele>104.2</ele>
        <time>2023-01-02T07:26:24Z</time>
      </trkpt>
      <trkpt lat="41.7957530" lon="3.0198630">
        <ele>103.8</ele>
        <time>2023-01-02T07:26:26Z</time>
      </trkpt>
      <trkpt lat="41.7957820" lon="3.0197980">
        <ele>103.8</ele>
        <time>2023-01-02T07:26:27Z</time>
      </trkpt>
      <trkpt lat="41.7958210" lon="3.0197410">
        <ele>103.8</ele>
        <time>2023-01-02T07:26:28Z</time>
      </trkpt>
      <trkpt lat="41.7959480" lon="3.0196140">
        <ele>104.0</ele>
        <time>2023-01-02T07:26:31Z</time>
      </trkpt>
      <trkpt lat="41.7961100" lon="3.0194630">
        <ele>104.0</ele>
        <time>2023-01-02T07:26:36Z</time>
      </trkpt>
      <trkpt lat="41.7962430" lon="3.0193850">
        <ele>104.6</ele>
        <time>2023-01-02T07:26:42Z</time>
      </trkpt>
      <trkpt lat="41.7963450" lon="3.0193320">
        <ele>105.0</ele>
        <time>2023-01-02T07:26:47Z</time>
      </trkpt>
      <trkpt lat="41.7963680" lon="3.0193200">
        <ele>104.8</ele>
        <time>2023-01-02T07:26:48Z</time>
      </trkpt>
      <trkpt lat="41.7965720" lon="3.0192250">
        <ele>105.4</ele>
        <time>2023-01-02T07:26:56Z</time>
      </trkpt>
      <trkpt lat="41.7967420" lon="3.0191490">
        <ele>106.0</ele>
        <time>2023-01-02T07:27:03Z</time>
      </trkpt>
      <trkpt lat="41.7967910" lon="3.0191320">
        <ele>106.2</ele>
        <time>2023-01-02T07:27:05Z</time>
      </trkpt>
      <trkpt lat="41.7969470" lon="3.0190850">
        <ele>106.8</ele>
        <time>2023-01-02T07:27:11Z</time>
      </trkpt>
      <trkpt lat="41.7970020" lon="3.0190570">
        <ele>107.0</ele>
        <time>2023-01-02T07:27:13Z</time>
      </trkpt>
      <trkpt lat="41.7970850" lon="3.0189530">
        <ele>107.2</ele>
        <time>2023-01-02T07:27:17Z</time>
      </trkpt>
      <trkpt lat="41.7971290" lon="3.0188670">
        <ele>107.2</ele>
        <time>2023-01-02T07:27:20Z</time>
      </trkpt>
      <trkpt lat="41.7971680" lon="3.0188370">
        <ele>107.2</ele>
        <time>2023-01-02T07:27:22Z</time>
      </trkpt>
      <trkpt lat="41.7972930" lon="3.0187890">
        <ele>107.8</ele>
        <time>2023-01-02T07:27:27Z</time>
      </trkpt>
      <trkpt lat="41.7973520" lon="3.0187700">
        <ele>108.0</ele>
        <time>2023-01-02T07:27:29Z</time>
      </trkpt>
      <trkpt lat="41.7974750" lon="3.0187270">
        <ele>108.2</ele>
        <time>2023-01-02T07:27:32Z</time>
      </trkpt>
      <trkpt lat="41.7976400" lon="3.0186340">
        <ele>108.0</ele>
        <time>2023-01-02T07:27:37Z</time>
      </trkpt>
      <trkpt lat="41.7977810" lon="3.0185650">
        <ele>107.8</ele>
        <time>2023-01-02T07:27:42Z</time>
      </trkpt>
      <trkpt lat="41.7978490" lon="3.0185430">
        <ele>107.8</ele>
        <time>2023-01-02T07:27:44Z</time>
      </trkpt>
      <trkpt lat="41.7980440" lon="3.0184640">
        <ele>107.6</ele>
        <time>2023-01-02T07:27:49Z</time>
      </trkpt>
      <trkpt lat="41.7981810" lon="3.0184220">
        <ele>107.0</ele>
        <time>2023-01-02T07:27:53Z</time>
      </trkpt>
      <trkpt lat="41.7982790" lon="3.0183880">
        <ele>106.8</ele>
        <time>2023-01-02T07:27:55Z</time>
      </trkpt>
      <trkpt lat="41.7983860" lon="3.0183480">
        <ele>106.4</ele>
        <time>2023-01-02T07:27:58Z</time>
      </trkpt>
      <trkpt lat="41.7985380" lon="3.0182930">
        <ele>106.2</ele>
        <time>2023-01-02T07:28:02Z</time>
      </trkpt>
      <trkpt lat="41.7985640" lon="3.0182830">
        <ele>106.0</ele>
        <time>2023-01-02T07:28:03Z</time>
      </trkpt>
      <trkpt lat="41.7985820" lon="3.0182750">
        <ele>105.6</ele>
        <time>2023-01-02T07:28:04Z</time>
      </trkpt>
      <trkpt lat="41.7986250" lon="3.0182450">
        <ele>104.8</ele>
        <time>2023-01-02T07:28:09Z</time>
      </trkpt>
      <trkpt lat="41.7986690" lon="3.0182410">
        <ele>104.8</ele>
        <time>2023-01-02T07:28:20Z</time>
      </trkpt>
      <trkpt lat="41.7986670" lon="3.0182500">
        <ele>104.6</ele>
        <time>2023-01-02T07:28:26Z</time>
      </trkpt>
      <trkpt lat="41.7986640" lon="3.0182520">
        <ele>104.8</ele>
        <time>2023-01-02T07:28:29Z</time>
      </trkpt>
      <trkpt lat="41.7986750" lon="3.0182440">
        <ele>104.4</ele>
        <time>2023-01-02T07:28:34Z</time>
      </trkpt>
      <trkpt lat="41.7986730" lon="3.0182480">
        <ele>104.2</ele>
        <time>2023-01-02T07:28:38Z</time>
      </trkpt>
      <trkpt lat="41.7986810" lon="3.0182640">
        <ele>104.6</ele>
        <time>2023-01-02T07:28:47Z</time>
      </trkpt>
      <trkpt lat="41.7986880" lon="3.0182650">
        <ele>104.4</ele>
        <time>2023-01-02T07:28:56Z</time>
      </trkpt>
      <trkpt lat="41.7986870" lon="3.0182670">
        <ele>104.4</ele>
        <time>2023-01-02T07:29:06Z</time>
      </trkpt>
      <trkpt lat="41.7986870" lon="3.0182750">
        <ele>104.4</ele>
        <time>2023-01-02T07:29:12Z</time>
      </trkpt>
      <trkpt lat="41.7986870" lon="3.0182750">
        <ele>104.4</ele>
        <time>2023-01-02T07:29:13Z</time>
      </trkpt>
      <trkpt lat="41.7986940" lon="3.0182720">
        <ele>104.4</ele>
        <time>2023-01-02T07:29:22Z</time>
      </trkpt>
      <trkpt lat="41.7986930" lon="3.0183110">
        <ele>104.4</ele>
        <time>2023-01-02T07:29:32Z</time>
      </trkpt>
      <trkpt lat="41.7987040" lon="3.0183380">
        <ele>104.2</ele>
        <time>2023-01-02T07:29:41Z</time>
      </trkpt>
      <trkpt lat="41.7987140" lon="3.0183290">
        <ele>104.2</ele>
        <time>2023-01-02T07:29:47Z</time>
      </trkpt>
      <trkpt lat="41.7987250" lon="3.0183280">
        <ele>104.2</ele>
        <time>2023-01-02T07:29:52Z</time>
      </trkpt>
      <trkpt lat="41.7987260" lon="3.0183160">
        <ele>104.2</ele>
        <time>2023-01-02T07:30:02Z</time>
      </trkpt>
      <trkpt lat="41.7987320" lon="3.0183340">
        <ele>104.4</ele>
        <time>2023-01-02T07:30:11Z</time>
      </trkpt>
      <trkpt lat="41.7987090" lon="3.0183000">
        <ele>104.0</ele>
        <time>2023-01-02T07:30:19Z</time>
      </trkpt>
      <trkpt lat="41.7987390" lon="3.0182630">
        <ele>104.0</ele>
        <time>2023-01-02T07:30:28Z</time>
      </trkpt>
      <trkpt lat="41.7987450" lon="3.0182510">
        <ele>104.0</ele>
        <time>2023-01-02T07:30:29Z</time>
      </trkpt>
      <trkpt lat="41.7988230" lon="3.0182070">
        <ele>104.0</ele>
        <time>2023-01-02T07:30:34Z</time>
      </trkpt>
      <trkpt lat="41.7988590" lon="3.0182040">
        <ele>104.0</ele>
        <time>2023-01-02T07:30:36Z</time>
      </trkpt>
      <trkpt lat="41.7989660" lon="3.0181900">
        <ele>104.0</ele>
        <time>2023-01-02T07:30:40Z</time>
      </trkpt>
      <trkpt lat="41.7991420" lon="3.0181320">
        <ele>103.6</ele>
        <time>2023-01-02T07:30:46Z</time>
      </trkpt>
      <trkpt lat="41.7992500" lon="3.0181000">
        <ele>103.4</ele>
        <time>2023-01-02T07:30:49Z</time>
      </trkpt>
      <trkpt lat="41.7993740" lon="3.0180780">
        <ele>103.2</ele>
        <time>2023-01-02T07:30:52Z</time>
      </trkpt>
      <trkpt lat="41.7996350" lon="3.0180500">
        <ele>102.2</ele>
        <time>2023-01-02T07:30:58Z</time>
      </trkpt>
      <trkpt lat="41.7996830" lon="3.0180540">
        <ele>102.2</ele>
        <time>2023-01-02T07:30:59Z</time>
      </trkpt>
      <trkpt lat="41.7999150" lon="3.0180870">
        <ele>101.4</ele>
        <time>2023-01-02T07:31:04Z</time>
      </trkpt>
      <trkpt lat="41.7999750" lon="3.0181010">
        <ele>101.2</ele>
        <time>2023-01-02T07:31:05Z</time>
      </trkpt>
      <trkpt lat="41.8000320" lon="3.0181180">
        <ele>101.2</ele>
        <time>2023-01-02T07:31:06Z</time>
      </trkpt>
      <trkpt lat="41.8001530" lon="3.0181560">
        <ele>101.0</ele>
        <time>2023-01-02T07:31:08Z</time>
      </trkpt>
      <trkpt lat="41.8002300" lon="3.0181690">
        <ele>100.8</ele>
        <time>2023-01-02T07:31:09Z</time>
      </trkpt>
      <trkpt lat="41.8003080" lon="3.0181690">
        <ele>100.8</ele>
        <time>2023-01-02T07:31:10Z</time>
      </trkpt>
      <trkpt lat="41.8004880" lon="3.0181230">
        <ele>100.6</ele>
        <time>2023-01-02T07:31:12Z</time>
      </trkpt>
      <trkpt lat="41.8006550" lon="3.0180220">
        <ele>100.2</ele>
        <time>2023-01-02T07:31:14Z</time>
      </trkpt>
      <trkpt lat="41.8007810" lon="3.0178820">
        <ele>99.6</ele>
        <time>2023-01-02T07:31:16Z</time>
      </trkpt>
      <trkpt lat="41.8008410" lon="3.0177990">
        <ele>99.4</ele>
        <time>2023-01-02T07:31:17Z</time>
      </trkpt>
      <trkpt lat="41.8009380" lon="3.0176160">
        <ele>99.0</ele>
        <time>2023-01-02T07:31:19Z</time>
      </trkpt>
      <trkpt lat="41.8009700" lon="3.0175130">
        <ele>98.8</ele>
        <time>2023-01-02T07:31:20Z</time>
      </trkpt>
      <trkpt lat="41.8009960" lon="3.0174090">
        <ele>98.6</ele>
        <time>2023-01-02T07:31:21Z</time>
      </trkpt>
      <trkpt lat="41.8010100" lon="3.0173010">
        <ele>98.4</ele>
        <time>2023-01-02T07:31:22Z</time>
      </trkpt>
      <trkpt lat="41.8010180" lon="3.0171920">
        <ele>98.2</ele>
        <time>2023-01-02T07:31:23Z</time>
      </trkpt>
      <trkpt lat="41.8010210" lon="3.0170800">
        <ele>97.8</ele>
        <time>2023-01-02T07:31:24Z</time>
      </trkpt>
      <trkpt lat="41.8010190" lon="3.0169710">
        <ele>97.6</ele>
        <time>2023-01-02T07:31:25Z</time>
      </trkpt>
      <trkpt lat="41.8009950" lon="3.0167620">
        <ele>96.8</ele>
        <time>2023-01-02T07:31:27Z</time>
      </trkpt>
      <trkpt lat="41.8009710" lon="3.0166710">
        <ele>96.4</ele>
        <time>2023-01-02T07:31:28Z</time>
      </trkpt>
      <trkpt lat="41.8009420" lon="3.0165860">
        <ele>96.2</ele>
        <time>2023-01-02T07:31:29Z</time>
      </trkpt>
      <trkpt lat="41.8008660" lon="3.0164400">
        <ele>95.0</ele>
        <time>2023-01-02T07:31:31Z</time>
      </trkpt>
      <trkpt lat="41.8008320" lon="3.0163690">
        <ele>94.6</ele>
        <time>2023-01-02T07:31:32Z</time>
      </trkpt>
      <trkpt lat="41.8007580" lon="3.0162250">
        <ele>93.6</ele>
        <time>2023-01-02T07:31:34Z</time>
      </trkpt>
      <trkpt lat="41.8006960" lon="3.0160610">
        <ele>92.8</ele>
        <time>2023-01-02T07:31:36Z</time>
      </trkpt>
      <trkpt lat="41.8006780" lon="3.0159730">
        <ele>92.6</ele>
        <time>2023-01-02T07:31:37Z</time>
      </trkpt>
      <trkpt lat="41.8006650" lon="3.0158840">
        <ele>92.4</ele>
        <time>2023-01-02T07:31:38Z</time>
      </trkpt>
      <trkpt lat="41.8006650" lon="3.0157060">
        <ele>91.8</ele>
        <time>2023-01-02T07:31:40Z</time>
      </trkpt>
      <trkpt lat="41.8006810" lon="3.0156230">
        <ele>91.6</ele>
        <time>2023-01-02T07:31:41Z</time>
      </trkpt>
      <trkpt lat="41.8007320" lon="3.0154540">
        <ele>91.2</ele>
        <time>2023-01-02T07:31:43Z</time>
      </trkpt>
      <trkpt lat="41.8008050" lon="3.0152950">
        <ele>90.6</ele>
        <time>2023-01-02T07:31:45Z</time>
      </trkpt>
      <trkpt lat="41.8008560" lon="3.0152230">
        <ele>90.2</ele>
        <time>2023-01-02T07:31:46Z</time>
      </trkpt>
      <trkpt lat="41.8009740" lon="3.0150840">
        <ele>89.4</ele>
        <time>2023-01-02T07:31:48Z</time>
      </trkpt>
      <trkpt lat="41.8010400" lon="3.0150370">
        <ele>89.2</ele>
        <time>2023-01-02T07:31:49Z</time>
      </trkpt>
      <trkpt lat="41.8011140" lon="3.0150000">
        <ele>88.6</ele>
        <time>2023-01-02T07:31:50Z</time>
      </trkpt>
      <trkpt lat="41.8012830" lon="3.0149750">
        <ele>88.2</ele>
        <time>2023-01-02T07:31:52Z</time>
      </trkpt>
      <trkpt lat="41.8014480" lon="3.0149560">
        <ele>87.6</ele>
        <time>2023-01-02T07:31:54Z</time>
      </trkpt>
      <trkpt lat="41.8017160" lon="3.0149150">
        <ele>86.4</ele>
        <time>2023-01-02T07:31:57Z</time>
      </trkpt>
      <trkpt lat="41.8018070" lon="3.0149010">
        <ele>85.8</ele>
        <time>2023-01-02T07:31:58Z</time>
      </trkpt>
      <trkpt lat="41.8019000" lon="3.0148890">
        <ele>85.4</ele>
        <time>2023-01-02T07:31:59Z</time>
      </trkpt>
      <trkpt lat="41.8022720" lon="3.0148360">
        <ele>84.0</ele>
        <time>2023-01-02T07:32:03Z</time>
      </trkpt>
      <trkpt lat="41.8023610" lon="3.0148060">
        <ele>83.8</ele>
        <time>2023-01-02T07:32:04Z</time>
      </trkpt>
      <trkpt lat="41.8024450" lon="3.0147670">
        <ele>83.4</ele>
        <time>2023-01-02T07:32:05Z</time>
      </trkpt>
      <trkpt lat="41.8025190" lon="3.0147100">
        <ele>82.8</ele>
        <time>2023-01-02T07:32:06Z</time>
      </trkpt>
      <trkpt lat="41.8025830" lon="3.0146370">
        <ele>82.6</ele>
        <time>2023-01-02T07:32:07Z</time>
      </trkpt>
      <trkpt lat="41.8026600" lon="3.0144430">
        <ele>81.4</ele>
        <time>2023-01-02T07:32:09Z</time>
      </trkpt>
      <trkpt lat="41.8026740" lon="3.0143370">
        <ele>80.8</ele>
        <time>2023-01-02T07:32:10Z</time>
      </trkpt>
      <trkpt lat="41.8026800" lon="3.0142480">
        <ele>80.2</ele>
        <time>2023-01-02T07:32:11Z</time>
      </trkpt>
      <trkpt lat="41.8026900" lon="3.0141830">
        <ele>79.2</ele>
        <time>2023-01-02T07:32:12Z</time>
      </trkpt>
      <trkpt lat="41.8027050" lon="3.0141460">
        <ele>78.0</ele>
        <time>2023-01-02T07:32:13Z</time>
      </trkpt>
      <trkpt lat="41.8027280" lon="3.0141320">
        <ele>77.0</ele>
        <time>2023-01-02T07:32:14Z</time>
      </trkpt>
      <trkpt lat="41.8028000" lon="3.0141390">
        <ele>75.4</ele>
        <time>2023-01-02T07:32:16Z</time>
      </trkpt>
      <trkpt lat="41.8028500" lon="3.0141320">
        <ele>75.0</ele>
        <time>2023-01-02T07:32:17Z</time>
      </trkpt>
      <trkpt lat="41.8028940" lon="3.0141130">
        <ele>74.6</ele>
        <time>2023-01-02T07:32:18Z</time>
      </trkpt>
      <trkpt lat="41.8029310" lon="3.0140820">
        <ele>74.0</ele>
        <time>2023-01-02T07:32:19Z</time>
      </trkpt>
      <trkpt lat="41.8029560" lon="3.0140300">
        <ele>73.0</ele>
        <time>2023-01-02T07:32:20Z</time>
      </trkpt>
      <trkpt lat="41.8029720" lon="3.0139610">
        <ele>72.4</ele>
        <time>2023-01-02T07:32:21Z</time>
      </trkpt>
      <trkpt lat="41.8029830" lon="3.0138810">
        <ele>71.8</ele>
        <time>2023-01-02T07:32:22Z</time>
      </trkpt>
      <trkpt lat="41.8030030" lon="3.0137970">
        <ele>71.6</ele>
        <time>2023-01-02T07:32:23Z</time>
      </trkpt>
      <trkpt lat="41.8030340" lon="3.0137130">
        <ele>71.0</ele>
        <time>2023-01-02T07:32:24Z</time>
      </trkpt>
      <trkpt lat="41.8030600" lon="3.0136320">
        <ele>70.6</ele>
        <time>2023-01-02T07:32:25Z</time>
      </trkpt>
      <trkpt lat="41.8030740" lon="3.0134770">
        <ele>69.4</ele>
        <time>2023-01-02T07:32:27Z</time>
      </trkpt>
      <trkpt lat="41.8030580" lon="3.0133950">
        <ele>68.0</ele>
        <time>2023-01-02T07:32:28Z</time>
      </trkpt>
      <trkpt lat="41.8030130" lon="3.0132370">
        <ele>66.4</ele>
        <time>2023-01-02T07:32:30Z</time>
      </trkpt>
      <trkpt lat="41.8029870" lon="3.0131590">
        <ele>66.0</ele>
        <time>2023-01-02T07:32:31Z</time>
      </trkpt>
      <trkpt lat="41.8029520" lon="3.0130920">
        <ele>65.0</ele>
        <time>2023-01-02T07:32:32Z</time>
      </trkpt>
      <trkpt lat="41.8029130" lon="3.0130270">
        <ele>64.0</ele>
        <time>2023-01-02T07:32:33Z</time>
      </trkpt>
      <trkpt lat="41.8028710" lon="3.0129510">
        <ele>63.2</ele>
        <time>2023-01-02T07:32:34Z</time>
      </trkpt>
      <trkpt lat="41.8028280" lon="3.0128630">
        <ele>62.2</ele>
        <time>2023-01-02T07:32:35Z</time>
      </trkpt>
      <trkpt lat="41.8027780" lon="3.0127790">
        <ele>61.2</ele>
        <time>2023-01-02T07:32:36Z</time>
      </trkpt>
      <trkpt lat="41.8027290" lon="3.0126960">
        <ele>60.0</ele>
        <time>2023-01-02T07:32:37Z</time>
      </trkpt>
      <trkpt lat="41.8026970" lon="3.0126230">
        <ele>59.2</ele>
        <time>2023-01-02T07:32:38Z</time>
      </trkpt>
      <trkpt lat="41.8026880" lon="3.0125660">
        <ele>58.8</ele>
        <time>2023-01-02T07:32:39Z</time>
      </trkpt>
      <trkpt lat="41.8026910" lon="3.0125050">
        <ele>58.2</ele>
        <time>2023-01-02T07:32:40Z</time>
      </trkpt>
      <trkpt lat="41.8027020" lon="3.0124480">
        <ele>57.2</ele>
        <time>2023-01-02T07:32:41Z</time>
      </trkpt>
      <trkpt lat="41.8027170" lon="3.0123970">
        <ele>56.6</ele>
        <time>2023-01-02T07:32:42Z</time>
      </trkpt>
      <trkpt lat="41.8027370" lon="3.0123560">
        <ele>56.2</ele>
        <time>2023-01-02T07:32:43Z</time>
      </trkpt>
      <trkpt lat="41.8027790" lon="3.0123240">
        <ele>56.0</ele>
        <time>2023-01-02T07:32:44Z</time>
      </trkpt>
      <trkpt lat="41.8028890" lon="3.0122510">
        <ele>55.0</ele>
        <time>2023-01-02T07:32:47Z</time>
      </trkpt>
      <trkpt lat="41.8029290" lon="3.0122280">
        <ele>54.6</ele>
        <time>2023-01-02T07:32:48Z</time>
      </trkpt>
      <trkpt lat="41.8029650" lon="3.0121960">
        <ele>54.2</ele>
        <time>2023-01-02T07:32:49Z</time>
      </trkpt>
      <trkpt lat="41.8030370" lon="3.0121180">
        <ele>54.0</ele>
        <time>2023-01-02T07:32:51Z</time>
      </trkpt>
      <trkpt lat="41.8031070" lon="3.0120480">
        <ele>53.6</ele>
        <time>2023-01-02T07:32:53Z</time>
      </trkpt>
      <trkpt lat="41.8031890" lon="3.0120230">
        <ele>53.0</ele>
        <time>2023-01-02T07:32:55Z</time>
      </trkpt>
      <trkpt lat="41.8032330" lon="3.0120130">
        <ele>52.6</ele>
        <time>2023-01-02T07:32:56Z</time>
      </trkpt>
      <trkpt lat="41.8033260" lon="3.0119890">
        <ele>51.4</ele>
        <time>2023-01-02T07:32:58Z</time>
      </trkpt>
      <trkpt lat="41.8033680" lon="3.0119580">
        <ele>50.8</ele>
        <time>2023-01-02T07:32:59Z</time>
      </trkpt>
      <trkpt lat="41.8034110" lon="3.0119170">
        <ele>50.4</ele>
        <time>2023-01-02T07:33:00Z</time>
      </trkpt>
      <trkpt lat="41.8034620" lon="3.0118800">
        <ele>50.2</ele>
        <time>2023-01-02T07:33:01Z</time>
      </trkpt>
      <trkpt lat="41.8035880" lon="3.0117990">
        <ele>49.8</ele>
        <time>2023-01-02T07:33:03Z</time>
      </trkpt>
      <trkpt lat="41.8036520" lon="3.0117470">
        <ele>49.4</ele>
        <time>2023-01-02T07:33:04Z</time>
      </trkpt>
      <trkpt lat="41.8037110" lon="3.0116860">
        <ele>49.2</ele>
        <time>2023-01-02T07:33:05Z</time>
      </trkpt>
      <trkpt lat="41.8037910" lon="3.0115490">
        <ele>49.2</ele>
        <time>2023-01-02T07:33:07Z</time>
      </trkpt>
      <trkpt lat="41.8039610" lon="3.0111960">
        <ele>48.2</ele>
        <time>2023-01-02T07:33:12Z</time>
      </trkpt>
      <trkpt lat="41.8040020" lon="3.0111310">
        <ele>48.0</ele>
        <time>2023-01-02T07:33:13Z</time>
      </trkpt>
      <trkpt lat="41.8040970" lon="3.0109450">
        <ele>47.6</ele>
        <time>2023-01-02T07:33:16Z</time>
      </trkpt>
      <trkpt lat="41.8041540" lon="3.0108370">
        <ele>47.6</ele>
        <time>2023-01-02T07:33:18Z</time>
      </trkpt>
      <trkpt lat="41.8041510" lon="3.0107570">
        <ele>47.2</ele>
        <time>2023-01-02T07:33:20Z</time>
      </trkpt>
      <trkpt lat="41.8041390" lon="3.0107280">
        <ele>47.0</ele>
        <time>2023-01-02T07:33:21Z</time>
      </trkpt>
      <trkpt lat="41.8040740" lon="3.0106110">
        <ele>47.0</ele>
        <time>2023-01-02T07:33:24Z</time>
      </trkpt>
      <trkpt lat="41.8040690" lon="3.0105340">
        <ele>47.0</ele>
        <time>2023-01-02T07:33:25Z</time>
      </trkpt>
      <trkpt lat="41.8041130" lon="3.0104490">
        <ele>46.6</ele>
        <time>2023-01-02T07:33:28Z</time>
      </trkpt>
      <trkpt lat="41.8042480" lon="3.0102850">
        <ele>46.2</ele>
        <time>2023-01-02T07:33:32Z</time>
      </trkpt>
      <trkpt lat="41.8043290" lon="3.0101800">
        <ele>46.0</ele>
        <time>2023-01-02T07:33:34Z</time>
      </trkpt>
      <trkpt lat="41.8044030" lon="3.0100820">
        <ele>46.0</ele>
        <time>2023-01-02T07:33:36Z</time>
      </trkpt>
      <trkpt lat="41.8044790" lon="3.0099890">
        <ele>46.2</ele>
        <time>2023-01-02T07:33:38Z</time>
      </trkpt>
      <trkpt lat="41.8045100" lon="3.0099290">
        <ele>46.0</ele>
        <time>2023-01-02T07:33:39Z</time>
      </trkpt>
      <trkpt lat="41.8045360" lon="3.0097890">
        <ele>46.0</ele>
        <time>2023-01-02T07:33:41Z</time>
      </trkpt>
      <trkpt lat="41.8045320" lon="3.0095990">
        <ele>45.8</ele>
        <time>2023-01-02T07:33:44Z</time>
      </trkpt>
      <trkpt lat="41.8045470" lon="3.0095450">
        <ele>45.6</ele>
        <time>2023-01-02T07:33:45Z</time>
      </trkpt>
      <trkpt lat="41.8046060" lon="3.0094630">
        <ele>45.4</ele>
        <time>2023-01-02T07:33:47Z</time>
      </trkpt>
      <trkpt lat="41.8046660" lon="3.0093810">
        <ele>45.0</ele>
        <time>2023-01-02T07:33:49Z</time>
      </trkpt>
      <trkpt lat="41.8046950" lon="3.0093390">
        <ele>45.0</ele>
        <time>2023-01-02T07:33:50Z</time>
      </trkpt>
      <trkpt lat="41.8048410" lon="3.0091670">
        <ele>44.8</ele>
        <time>2023-01-02T07:33:55Z</time>
      </trkpt>
      <trkpt lat="41.8048710" lon="3.0091270">
        <ele>44.8</ele>
        <time>2023-01-02T07:33:56Z</time>
      </trkpt>
      <trkpt lat="41.8049450" lon="3.0089860">
        <ele>44.8</ele>
        <time>2023-01-02T07:33:59Z</time>
      </trkpt>
      <trkpt lat="41.8049390" lon="3.0089360">
        <ele>45.0</ele>
        <time>2023-01-02T07:34:00Z</time>
      </trkpt>
      <trkpt lat="41.8048720" lon="3.0088260">
        <ele>45.0</ele>
        <time>2023-01-02T07:34:03Z</time>
      </trkpt>
      <trkpt lat="41.8048490" lon="3.0087930">
        <ele>45.0</ele>
        <time>2023-01-02T07:34:04Z</time>
      </trkpt>
      <trkpt lat="41.8046680" lon="3.0085560">
        <ele>45.6</ele>
        <time>2023-01-02T07:34:11Z</time>
      </trkpt>
      <trkpt lat="41.8045680" lon="3.0084880">
        <ele>46.0</ele>
        <time>2023-01-02T07:34:14Z</time>
      </trkpt>
      <trkpt lat="41.8044920" lon="3.0084450">
        <ele>46.0</ele>
        <time>2023-01-02T07:34:16Z</time>
      </trkpt>
      <trkpt lat="41.8042360" lon="3.0083570">
        <ele>46.4</ele>
        <time>2023-01-02T07:34:22Z</time>
      </trkpt>
      <trkpt lat="41.8042020" lon="3.0083240">
        <ele>46.4</ele>
        <time>2023-01-02T07:34:23Z</time>
      </trkpt>
      <trkpt lat="41.8041770" lon="3.0082360">
        <ele>46.4</ele>
        <time>2023-01-02T07:34:25Z</time>
      </trkpt>
      <trkpt lat="41.8042450" lon="3.0080920">
        <ele>46.4</ele>
        <time>2023-01-02T07:34:29Z</time>
      </trkpt>
      <trkpt lat="41.8043820" lon="3.0078260">
        <ele>46.2</ele>
        <time>2023-01-02T07:34:35Z</time>
      </trkpt>
      <trkpt lat="41.8045720" lon="3.0074770">
        <ele>46.4</ele>
        <time>2023-01-02T07:34:42Z</time>
      </trkpt>
      <trkpt lat="41.8047350" lon="3.0071220">
        <ele>46.4</ele>
        <time>2023-01-02T07:34:48Z</time>
      </trkpt>
      <trkpt lat="41.8048480" lon="3.0066460">
        <ele>46.6</ele>
        <time>2023-01-02T07:34:56Z</time>
      </trkpt>
      <trkpt lat="41.8048430" lon="3.0065330">
        <ele>46.4</ele>
        <time>2023-01-02T07:34:58Z</time>
      </trkpt>
      <trkpt lat="41.8048020" lon="3.0064290">
        <ele>46.2</ele>
        <time>2023-01-02T07:35:00Z</time>
      </trkpt>
      <trkpt lat="41.8047350" lon="3.0062720">
        <ele>46.4</ele>
        <time>2023-01-02T07:35:03Z</time>
      </trkpt>
      <trkpt lat="41.8047160" lon="3.0061640">
        <ele>46.6</ele>
        <time>2023-01-02T07:35:05Z</time>
      </trkpt>
      <trkpt lat="41.8047350" lon="3.0059010">
        <ele>46.8</ele>
        <time>2023-01-02T07:35:10Z</time>
      </trkpt>
      <trkpt lat="41.8047330" lon="3.0058510">
        <ele>47.0</ele>
        <time>2023-01-02T07:35:11Z</time>
      </trkpt>
      <trkpt lat="41.8047060" lon="3.0056330">
        <ele>47.6</ele>
        <time>2023-01-02T07:35:16Z</time>
      </trkpt>
      <trkpt lat="41.8046220" lon="3.0053700">
        <ele>48.0</ele>
        <time>2023-01-02T07:35:22Z</time>
      </trkpt>
      <trkpt lat="41.8046140" lon="3.0053220">
        <ele>48.4</ele>
        <time>2023-01-02T07:35:23Z</time>
      </trkpt>
      <trkpt lat="41.8045970" lon="3.0050470">
        <ele>49.0</ele>
        <time>2023-01-02T07:35:28Z</time>
      </trkpt>
      <trkpt lat="41.8046340" lon="3.0047000">
        <ele>49.2</ele>
        <time>2023-01-02T07:35:34Z</time>
      </trkpt>
      <trkpt lat="41.8046490" lon="3.0046460">
        <ele>49.2</ele>
        <time>2023-01-02T07:35:35Z</time>
      </trkpt>
      <trkpt lat="41.8047560" lon="3.0042340">
        <ele>49.4</ele>
        <time>2023-01-02T07:35:42Z</time>
      </trkpt>
      <trkpt lat="41.8047780" lon="3.0041760">
        <ele>49.4</ele>
        <time>2023-01-02T07:35:43Z</time>
      </trkpt>
      <trkpt lat="41.8049060" lon="3.0038610">
        <ele>49.4</ele>
        <time>2023-01-02T07:35:49Z</time>
      </trkpt>
      <trkpt lat="41.8049720" lon="3.0037640">
        <ele>49.4</ele>
        <time>2023-01-02T07:35:51Z</time>
      </trkpt>
      <trkpt lat="41.8050900" lon="3.0036290">
        <ele>49.4</ele>
        <time>2023-01-02T07:35:54Z</time>
      </trkpt>
      <trkpt lat="41.8051250" lon="3.0035810">
        <ele>49.4</ele>
        <time>2023-01-02T07:35:55Z</time>
      </trkpt>
      <trkpt lat="41.8051550" lon="3.0035280">
        <ele>49.4</ele>
        <time>2023-01-02T07:35:56Z</time>
      </trkpt>
      <trkpt lat="41.8051700" lon="3.0034080">
        <ele>49.6</ele>
        <time>2023-01-02T07:35:58Z</time>
      </trkpt>
      <trkpt lat="41.8051840" lon="3.0031060">
        <ele>50.2</ele>
        <time>2023-01-02T07:36:03Z</time>
      </trkpt>
      <trkpt lat="41.8052040" lon="3.0029820">
        <ele>50.6</ele>
        <time>2023-01-02T07:36:05Z</time>
      </trkpt>
      <trkpt lat="41.8052360" lon="3.0028640">
        <ele>50.6</ele>
        <time>2023-01-02T07:36:07Z</time>
      </trkpt>
      <trkpt lat="41.8052720" lon="3.0027590">
        <ele>50.8</ele>
        <time>2023-01-02T07:36:09Z</time>
      </trkpt>
      <trkpt lat="41.8052940" lon="3.0027070">
        <ele>50.8</ele>
        <time>2023-01-02T07:36:10Z</time>
      </trkpt>
      <trkpt lat="41.8053210" lon="3.0026560">
        <ele>50.8</ele>
        <time>2023-01-02T07:36:11Z</time>
      </trkpt>
      <trkpt lat="41.8054800" lon="3.0024000">
        <ele>50.8</ele>
        <time>2023-01-02T07:36:16Z</time>
      </trkpt>
      <trkpt lat="41.8057920" lon="3.0021020">
        <ele>51.0</ele>
        <time>2023-01-02T07:36:24Z</time>
      </trkpt>
      <trkpt lat="41.8061970" lon="3.0018200">
        <ele>50.8</ele>
        <time>2023-01-02T07:36:33Z</time>
      </trkpt>
      <trkpt lat="41.8063440" lon="3.0016280">
        <ele>50.6</ele>
        <time>2023-01-02T07:36:37Z</time>
      </trkpt>
      <trkpt lat="41.8063950" lon="3.0015130">
        <ele>50.8</ele>
        <time>2023-01-02T07:36:39Z</time>
      </trkpt>
      <trkpt lat="41.8064660" lon="3.0012100">
        <ele>50.8</ele>
        <time>2023-01-02T07:36:44Z</time>
      </trkpt>
      <trkpt lat="41.8064740" lon="3.0010830">
        <ele>51.0</ele>
        <time>2023-01-02T07:36:46Z</time>
      </trkpt>
      <trkpt lat="41.8064630" lon="3.0009570">
        <ele>50.8</ele>
        <time>2023-01-02T07:36:48Z</time>
      </trkpt>
      <trkpt lat="41.8064460" lon="3.0008960">
        <ele>50.8</ele>
        <time>2023-01-02T07:36:49Z</time>
      </trkpt>
      <trkpt lat="41.8063350" lon="3.0005960">
        <ele>50.8</ele>
        <time>2023-01-02T07:36:54Z</time>
      </trkpt>
      <trkpt lat="41.8063200" lon="3.0004670">
        <ele>50.8</ele>
        <time>2023-01-02T07:36:56Z</time>
      </trkpt>
      <trkpt lat="41.8063360" lon="3.0003300">
        <ele>50.8</ele>
        <time>2023-01-02T07:36:58Z</time>
      </trkpt>
      <trkpt lat="41.8063500" lon="3.0002630">
        <ele>50.8</ele>
        <time>2023-01-02T07:36:59Z</time>
      </trkpt>
      <trkpt lat="41.8064310" lon="3.0000210">
        <ele>51.2</ele>
        <time>2023-01-02T07:37:03Z</time>
      </trkpt>
      <trkpt lat="41.8064550" lon="2.9999670">
        <ele>51.2</ele>
        <time>2023-01-02T07:37:04Z</time>
      </trkpt>
      <trkpt lat="41.8065720" lon="2.9997740">
        <ele>51.0</ele>
        <time>2023-01-02T07:37:08Z</time>
      </trkpt>
      <trkpt lat="41.8066780" lon="2.9994800">
        <ele>51.0</ele>
        <time>2023-01-02T07:37:13Z</time>
      </trkpt>
      <trkpt lat="41.8067740" lon="2.9990480">
        <ele>51.0</ele>
        <time>2023-01-02T07:37:19Z</time>
      </trkpt>
      <trkpt lat="41.8068030" lon="2.9989890">
        <ele>51.0</ele>
        <time>2023-01-02T07:37:20Z</time>
      </trkpt>
      <trkpt lat="41.8070180" lon="2.9986100">
        <ele>51.0</ele>
        <time>2023-01-02T07:37:27Z</time>
      </trkpt>
      <trkpt lat="41.8071950" lon="2.9982950">
        <ele>51.2</ele>
        <time>2023-01-02T07:37:33Z</time>
      </trkpt>
      <trkpt lat="41.8072120" lon="2.9982360">
        <ele>51.4</ele>
        <time>2023-01-02T07:37:34Z</time>
      </trkpt>
      <trkpt lat="41.8072230" lon="2.9981750">
        <ele>51.4</ele>
        <time>2023-01-02T07:37:35Z</time>
      </trkpt>
      <trkpt lat="41.8072110" lon="2.9980510">
        <ele>51.2</ele>
        <time>2023-01-02T07:37:37Z</time>
      </trkpt>
      <trkpt lat="41.8071930" lon="2.9979900">
        <ele>51.2</ele>
        <time>2023-01-02T07:37:38Z</time>
      </trkpt>
      <trkpt lat="41.8070270" lon="2.9976340">
        <ele>51.4</ele>
        <time>2023-01-02T07:37:45Z</time>
      </trkpt>
      <trkpt lat="41.8069820" lon="2.9975310">
        <ele>51.6</ele>
        <time>2023-01-02T07:37:47Z</time>
      </trkpt>
      <trkpt lat="41.8068290" lon="2.9971650">
        <ele>52.2</ele>
        <time>2023-01-02T07:37:54Z</time>
      </trkpt>
      <trkpt lat="41.8068270" lon="2.9971010">
        <ele>52.2</ele>
        <time>2023-01-02T07:37:55Z</time>
      </trkpt>
      <trkpt lat="41.8068410" lon="2.9970420">
        <ele>52.2</ele>
        <time>2023-01-02T07:37:56Z</time>
      </trkpt>
      <trkpt lat="41.8068930" lon="2.9969430">
        <ele>52.4</ele>
        <time>2023-01-02T07:37:58Z</time>
      </trkpt>
      <trkpt lat="41.8070630" lon="2.9966470">
        <ele>52.6</ele>
        <time>2023-01-02T07:38:04Z</time>
      </trkpt>
      <trkpt lat="41.8071490" lon="2.9964950">
        <ele>52.6</ele>
        <time>2023-01-02T07:38:07Z</time>
      </trkpt>
      <trkpt lat="41.8074440" lon="2.9960520">
        <ele>53.0</ele>
        <time>2023-01-02T07:38:16Z</time>
      </trkpt>
      <trkpt lat="41.8077440" lon="2.9957080">
        <ele>53.6</ele>
        <time>2023-01-02T07:38:23Z</time>
      </trkpt>
      <trkpt lat="41.8077830" lon="2.9956530">
        <ele>53.6</ele>
        <time>2023-01-02T07:38:24Z</time>
      </trkpt>
      <trkpt lat="41.8079580" lon="2.9953600">
        <ele>53.6</ele>
        <time>2023-01-02T07:38:29Z</time>
      </trkpt>
      <trkpt lat="41.8080000" lon="2.9953070">
        <ele>53.6</ele>
        <time>2023-01-02T07:38:30Z</time>
      </trkpt>
      <trkpt lat="41.8080980" lon="2.9952230">
        <ele>53.6</ele>
        <time>2023-01-02T07:38:32Z</time>
      </trkpt>
      <trkpt lat="41.8081540" lon="2.9951940">
        <ele>53.6</ele>
        <time>2023-01-02T07:38:33Z</time>
      </trkpt>
      <trkpt lat="41.8083900" lon="2.9951030">
        <ele>53.2</ele>
        <time>2023-01-02T07:38:37Z</time>
      </trkpt>
      <trkpt lat="41.8084480" lon="2.9950960">
        <ele>53.2</ele>
        <time>2023-01-02T07:38:38Z</time>
      </trkpt>
      <trkpt lat="41.8085010" lon="2.9951100">
        <ele>53.2</ele>
        <time>2023-01-02T07:38:39Z</time>
      </trkpt>
      <trkpt lat="41.8086000" lon="2.9951210">
        <ele>53.0</ele>
        <time>2023-01-02T07:38:41Z</time>
      </trkpt>
      <trkpt lat="41.8088630" lon="2.9949800">
        <ele>53.2</ele>
        <time>2023-01-02T07:38:46Z</time>
      </trkpt>
      <trkpt lat="41.8091540" lon="2.9948250">
        <ele>52.8</ele>
        <time>2023-01-02T07:38:51Z</time>
      </trkpt>
      <trkpt lat="41.8092160" lon="2.9948130">
        <ele>52.6</ele>
        <time>2023-01-02T07:38:52Z</time>
      </trkpt>
      <trkpt lat="41.8092740" lon="2.9948170">
        <ele>52.4</ele>
        <time>2023-01-02T07:38:53Z</time>
      </trkpt>
      <trkpt lat="41.8094280" lon="2.9948640">
        <ele>52.0</ele>
        <time>2023-01-02T07:38:56Z</time>
      </trkpt>
      <trkpt lat="41.8094810" lon="2.9948560">
        <ele>52.0</ele>
        <time>2023-01-02T07:38:57Z</time>
      </trkpt>
      <trkpt lat="41.8095210" lon="2.9948130">
        <ele>51.8</ele>
        <time>2023-01-02T07:38:58Z</time>
      </trkpt>
      <trkpt lat="41.8095500" lon="2.9947480">
        <ele>51.4</ele>
        <time>2023-01-02T07:38:59Z</time>
      </trkpt>
      <trkpt lat="41.8095710" lon="2.9946630">
        <ele>51.2</ele>
        <time>2023-01-02T07:39:00Z</time>
      </trkpt>
      <trkpt lat="41.8096170" lon="2.9944920">
        <ele>50.8</ele>
        <time>2023-01-02T07:39:02Z</time>
      </trkpt>
      <trkpt lat="41.8097060" lon="2.9944030">
        <ele>50.4</ele>
        <time>2023-01-02T07:39:04Z</time>
      </trkpt>
      <trkpt lat="41.8097610" lon="2.9943780">
        <ele>50.4</ele>
        <time>2023-01-02T07:39:05Z</time>
      </trkpt>
      <trkpt lat="41.8098160" lon="2.9943590">
        <ele>50.2</ele>
        <time>2023-01-02T07:39:06Z</time>
      </trkpt>
      <trkpt lat="41.8099370" lon="2.9943700">
        <ele>50.2</ele>
        <time>2023-01-02T07:39:09Z</time>
      </trkpt>
      <trkpt lat="41.8101020" lon="2.9944230">
        <ele>50.4</ele>
        <time>2023-01-02T07:39:13Z</time>
      </trkpt>
      <trkpt lat="41.8101440" lon="2.9944490">
        <ele>50.4</ele>
        <time>2023-01-02T07:39:14Z</time>
      </trkpt>
      <trkpt lat="41.8102370" lon="2.9944940">
        <ele>50.6</ele>
        <time>2023-01-02T07:39:16Z</time>
      </trkpt>
      <trkpt lat="41.8103320" lon="2.9944640">
        <ele>50.6</ele>
        <time>2023-01-02T07:39:18Z</time>
      </trkpt>
      <trkpt lat="41.8104790" lon="2.9942390">
        <ele>50.6</ele>
        <time>2023-01-02T07:39:22Z</time>
      </trkpt>
      <trkpt lat="41.8105510" lon="2.9941180">
        <ele>50.6</ele>
        <time>2023-01-02T07:39:24Z</time>
      </trkpt>
      <trkpt lat="41.8106500" lon="2.9940260">
        <ele>50.0</ele>
        <time>2023-01-02T07:39:27Z</time>
      </trkpt>
      <trkpt lat="41.8107390" lon="2.9940120">
        <ele>49.4</ele>
        <time>2023-01-02T07:39:30Z</time>
      </trkpt>
      <trkpt lat="41.8108830" lon="2.9941270">
        <ele>48.8</ele>
        <time>2023-01-02T07:39:35Z</time>
      </trkpt>
      <trkpt lat="41.8110650" lon="2.9943430">
        <ele>49.8</ele>
        <time>2023-01-02T07:39:41Z</time>
      </trkpt>
      <trkpt lat="41.8113270" lon="2.9946070">
        <ele>49.8</ele>
        <time>2023-01-02T07:39:49Z</time>
      </trkpt>
      <trkpt lat="41.8113710" lon="2.9946170">
        <ele>49.8</ele>
        <time>2023-01-02T07:39:50Z</time>
      </trkpt>
      <trkpt lat="41.8114730" lon="2.9946050">
        <ele>49.4</ele>
        <time>2023-01-02T07:39:52Z</time>
      </trkpt>
      <trkpt lat="41.8117210" lon="2.9946090">
        <ele>48.8</ele>
        <time>2023-01-02T07:39:57Z</time>
      </trkpt>
      <trkpt lat="41.8117670" lon="2.9946070">
        <ele>49.0</ele>
        <time>2023-01-02T07:39:58Z</time>
      </trkpt>
      <trkpt lat="41.8120980" lon="2.9945500">
        <ele>50.4</ele>
        <time>2023-01-02T07:40:05Z</time>
      </trkpt>
      <trkpt lat="41.8121840" lon="2.9944890">
        <ele>50.4</ele>
        <time>2023-01-02T07:40:07Z</time>
      </trkpt>
      <trkpt lat="41.8122570" lon="2.9944010">
        <ele>50.6</ele>
        <time>2023-01-02T07:40:09Z</time>
      </trkpt>
      <trkpt lat="41.8122870" lon="2.9943490">
        <ele>50.6</ele>
        <time>2023-01-02T07:40:10Z</time>
      </trkpt>
      <trkpt lat="41.8124640" lon="2.9940310">
        <ele>51.0</ele>
        <time>2023-01-02T07:40:16Z</time>
      </trkpt>
      <trkpt lat="41.8125020" lon="2.9939880">
        <ele>51.0</ele>
        <time>2023-01-02T07:40:17Z</time>
      </trkpt>
      <trkpt lat="41.8125430" lon="2.9939520">
        <ele>51.0</ele>
        <time>2023-01-02T07:40:18Z</time>
      </trkpt>
      <trkpt lat="41.8126350" lon="2.9939060">
        <ele>51.2</ele>
        <time>2023-01-02T07:40:20Z</time>
      </trkpt>
      <trkpt lat="41.8126810" lon="2.9939060">
        <ele>51.2</ele>
        <time>2023-01-02T07:40:21Z</time>
      </trkpt>
      <trkpt lat="41.8127250" lon="2.9939230">
        <ele>51.0</ele>
        <time>2023-01-02T07:40:22Z</time>
      </trkpt>
      <trkpt lat="41.8128390" lon="2.9939740">
        <ele>51.0</ele>
        <time>2023-01-02T07:40:25Z</time>
      </trkpt>
      <trkpt lat="41.8129130" lon="2.9939340">
        <ele>51.0</ele>
        <time>2023-01-02T07:40:27Z</time>
      </trkpt>
      <trkpt lat="41.8129390" lon="2.9938910">
        <ele>51.0</ele>
        <time>2023-01-02T07:40:28Z</time>
      </trkpt>
      <trkpt lat="41.8130030" lon="2.9937330">
        <ele>51.4</ele>
        <time>2023-01-02T07:40:31Z</time>
      </trkpt>
      <trkpt lat="41.8130980" lon="2.9935150">
        <ele>51.8</ele>
        <time>2023-01-02T07:40:35Z</time>
      </trkpt>
      <trkpt lat="41.8131150" lon="2.9934590">
        <ele>51.8</ele>
        <time>2023-01-02T07:40:36Z</time>
      </trkpt>
      <trkpt lat="41.8131150" lon="2.9933310">
        <ele>51.8</ele>
        <time>2023-01-02T07:40:38Z</time>
      </trkpt>
      <trkpt lat="41.8130470" lon="2.9932710">
        <ele>51.6</ele>
        <time>2023-01-02T07:40:40Z</time>
      </trkpt>
      <trkpt lat="41.8129630" lon="2.9932670">
        <ele>51.8</ele>
        <time>2023-01-02T07:40:42Z</time>
      </trkpt>
      <trkpt lat="41.8128670" lon="2.9932340">
        <ele>51.6</ele>
        <time>2023-01-02T07:40:44Z</time>
      </trkpt>
      <trkpt lat="41.8127230" lon="2.9930990">
        <ele>51.2</ele>
        <time>2023-01-02T07:40:48Z</time>
      </trkpt>
      <trkpt lat="41.8127390" lon="2.9930310">
        <ele>51.0</ele>
        <time>2023-01-02T07:40:50Z</time>
      </trkpt>
      <trkpt lat="41.8127610" lon="2.9930100">
        <ele>51.0</ele>
        <time>2023-01-02T07:40:51Z</time>
      </trkpt>
      <trkpt lat="41.8129530" lon="2.9927840">
        <ele>51.6</ele>
        <time>2023-01-02T07:40:58Z</time>
      </trkpt>
      <trkpt lat="41.8130400" lon="2.9926440">
        <ele>51.6</ele>
        <time>2023-01-02T07:41:02Z</time>
      </trkpt>
      <trkpt lat="41.8131620" lon="2.9924260">
        <ele>52.2</ele>
        <time>2023-01-02T07:41:07Z</time>
      </trkpt>
      <trkpt lat="41.8131780" lon="2.9923690">
        <ele>52.0</ele>
        <time>2023-01-02T07:41:08Z</time>
      </trkpt>
      <trkpt lat="41.8132010" lon="2.9922040">
        <ele>52.4</ele>
        <time>2023-01-02T07:41:11Z</time>
      </trkpt>
      <trkpt lat="41.8132530" lon="2.9919920">
        <ele>52.4</ele>
        <time>2023-01-02T07:41:15Z</time>
      </trkpt>
      <trkpt lat="41.8132760" lon="2.9918920">
        <ele>52.6</ele>
        <time>2023-01-02T07:41:17Z</time>
      </trkpt>
      <trkpt lat="41.8133070" lon="2.9916690">
        <ele>52.6</ele>
        <time>2023-01-02T07:41:21Z</time>
      </trkpt>
      <trkpt lat="41.8133220" lon="2.9916040">
        <ele>52.4</ele>
        <time>2023-01-02T07:41:22Z</time>
      </trkpt>
      <trkpt lat="41.8133840" lon="2.9914290">
        <ele>51.8</ele>
        <time>2023-01-02T07:41:25Z</time>
      </trkpt>
      <trkpt lat="41.8133740" lon="2.9912750">
        <ele>51.8</ele>
        <time>2023-01-02T07:41:28Z</time>
      </trkpt>
      <trkpt lat="41.8133310" lon="2.9911550">
        <ele>51.6</ele>
        <time>2023-01-02T07:41:30Z</time>
      </trkpt>
      <trkpt lat="41.8133210" lon="2.9910030">
        <ele>51.6</ele>
        <time>2023-01-02T07:41:32Z</time>
      </trkpt>
      <trkpt lat="41.8133180" lon="2.9907680">
        <ele>51.2</ele>
        <time>2023-01-02T07:41:35Z</time>
      </trkpt>
      <trkpt lat="41.8133000" lon="2.9907140">
        <ele>51.0</ele>
        <time>2023-01-02T07:41:36Z</time>
      </trkpt>
      <trkpt lat="41.8132640" lon="2.9906830">
        <ele>50.2</ele>
        <time>2023-01-02T07:41:37Z</time>
      </trkpt>
      <trkpt lat="41.8132250" lon="2.9906560">
        <ele>49.6</ele>
        <time>2023-01-02T07:41:38Z</time>
      </trkpt>
      <trkpt lat="41.8131900" lon="2.9906310">
        <ele>49.2</ele>
        <time>2023-01-02T07:41:39Z</time>
      </trkpt>
      <trkpt lat="41.8131530" lon="2.9906020">
        <ele>49.0</ele>
        <time>2023-01-02T07:41:40Z</time>
      </trkpt>
      <trkpt lat="41.8130890" lon="2.9904890">
        <ele>48.8</ele>
        <time>2023-01-02T07:41:42Z</time>
      </trkpt>
      <trkpt lat="41.8130820" lon="2.9903950">
        <ele>48.6</ele>
        <time>2023-01-02T07:41:43Z</time>
      </trkpt>
      <trkpt lat="41.8130920" lon="2.9902920">
        <ele>48.6</ele>
        <time>2023-01-02T07:41:44Z</time>
      </trkpt>
      <trkpt lat="41.8131500" lon="2.9901860">
        <ele>49.0</ele>
        <time>2023-01-02T07:41:46Z</time>
      </trkpt>
      <trkpt lat="41.8133150" lon="2.9899220">
        <ele>50.4</ele>
        <time>2023-01-02T07:41:52Z</time>
      </trkpt>
      <trkpt lat="41.8133480" lon="2.9898780">
        <ele>50.6</ele>
        <time>2023-01-02T07:41:53Z</time>
      </trkpt>
      <trkpt lat="41.8133800" lon="2.9898350">
        <ele>50.6</ele>
        <time>2023-01-02T07:41:54Z</time>
      </trkpt>
      <trkpt lat="41.8135060" lon="2.9896280">
        <ele>51.0</ele>
        <time>2023-01-02T07:41:59Z</time>
      </trkpt>
      <trkpt lat="41.8135050" lon="2.9895000">
        <ele>51.0</ele>
        <time>2023-01-02T07:42:03Z</time>
      </trkpt>
      <trkpt lat="41.8135160" lon="2.9892660">
        <ele>50.8</ele>
        <time>2023-01-02T07:42:08Z</time>
      </trkpt>
      <trkpt lat="41.8135730" lon="2.9891740">
        <ele>51.4</ele>
        <time>2023-01-02T07:42:11Z</time>
      </trkpt>
      <trkpt lat="41.8136010" lon="2.9891500">
        <ele>51.4</ele>
        <time>2023-01-02T07:42:12Z</time>
      </trkpt>
      <trkpt lat="41.8136570" lon="2.9890360">
        <ele>51.8</ele>
        <time>2023-01-02T07:42:15Z</time>
      </trkpt>
      <trkpt lat="41.8136760" lon="2.9889840">
        <ele>51.8</ele>
        <time>2023-01-02T07:42:16Z</time>
      </trkpt>
      <trkpt lat="41.8137270" lon="2.9888210">
        <ele>51.8</ele>
        <time>2023-01-02T07:42:19Z</time>
      </trkpt>
      <trkpt lat="41.8137880" lon="2.9886660">
        <ele>52.2</ele>
        <time>2023-01-02T07:42:22Z</time>
      </trkpt>
      <trkpt lat="41.8137960" lon="2.9884610">
        <ele>52.2</ele>
        <time>2023-01-02T07:42:26Z</time>
      </trkpt>
      <trkpt lat="41.8137560" lon="2.9883120">
        <ele>52.0</ele>
        <time>2023-01-02T07:42:30Z</time>
      </trkpt>
      <trkpt lat="41.8138240" lon="2.9879280">
        <ele>51.8</ele>
        <time>2023-01-02T07:42:37Z</time>
      </trkpt>
      <trkpt lat="41.8138870" lon="2.9877400">
        <ele>52.0</ele>
        <time>2023-01-02T07:42:41Z</time>
      </trkpt>
      <trkpt lat="41.8140250" lon="2.9875310">
        <ele>52.4</ele>
        <time>2023-01-02T07:42:46Z</time>
      </trkpt>
      <trkpt lat="41.8140850" lon="2.9873280">
        <ele>52.4</ele>
        <time>2023-01-02T07:42:50Z</time>
      </trkpt>
      <trkpt lat="41.8141640" lon="2.9870780">
        <ele>52.6</ele>
        <time>2023-01-02T07:42:55Z</time>
      </trkpt>
      <trkpt lat="41.8142080" lon="2.9868570">
        <ele>52.4</ele>
        <time>2023-01-02T07:43:00Z</time>
      </trkpt>
      <trkpt lat="41.8142270" lon="2.9866410">
        <ele>52.4</ele>
        <time>2023-01-02T07:43:06Z</time>
      </trkpt>
      <trkpt lat="41.8142850" lon="2.9864060">
        <ele>52.6</ele>
        <time>2023-01-02T07:43:11Z</time>
      </trkpt>
      <trkpt lat="41.8143130" lon="2.9862090">
        <ele>52.6</ele>
        <time>2023-01-02T07:43:16Z</time>
      </trkpt>
      <trkpt lat="41.8142840" lon="2.9859690">
        <ele>52.6</ele>
        <time>2023-01-02T07:43:21Z</time>
      </trkpt>
      <trkpt lat="41.8142990" lon="2.9857380">
        <ele>52.6</ele>
        <time>2023-01-02T07:43:25Z</time>
      </trkpt>
      <trkpt lat="41.8143140" lon="2.9856800">
        <ele>52.8</ele>
        <time>2023-01-02T07:43:26Z</time>
      </trkpt>
      <trkpt lat="41.8143490" lon="2.9854440">
        <ele>53.0</ele>
        <time>2023-01-02T07:43:31Z</time>
      </trkpt>
      <trkpt lat="41.8143110" lon="2.9851480">
        <ele>53.0</ele>
        <time>2023-01-02T07:43:37Z</time>
      </trkpt>
      <trkpt lat="41.8143110" lon="2.9850480">
        <ele>53.0</ele>
        <time>2023-01-02T07:43:39Z</time>
      </trkpt>
      <trkpt lat="41.8143390" lon="2.9849510">
        <ele>53.0</ele>
        <time>2023-01-02T07:43:41Z</time>
      </trkpt>
      <trkpt lat="41.8144480" lon="2.9847800">
        <ele>53.2</ele>
        <time>2023-01-02T07:43:46Z</time>
      </trkpt>
      <trkpt lat="41.8145390" lon="2.9846750">
        <ele>53.2</ele>
        <time>2023-01-02T07:43:50Z</time>
      </trkpt>
      <trkpt lat="41.8145450" lon="2.9846400">
        <ele>53.2</ele>
        <time>2023-01-02T07:43:51Z</time>
      </trkpt>
      <trkpt lat="41.8145390" lon="2.9846010">
        <ele>53.0</ele>
        <time>2023-01-02T07:43:52Z</time>
      </trkpt>
      <trkpt lat="41.8144890" lon="2.9845060">
        <ele>53.0</ele>
        <time>2023-01-02T07:43:55Z</time>
      </trkpt>
      <trkpt lat="41.8144670" lon="2.9844900">
        <ele>52.8</ele>
        <time>2023-01-02T07:43:56Z</time>
      </trkpt>
      <trkpt lat="41.8143730" lon="2.9844210">
        <ele>52.4</ele>
        <time>2023-01-02T07:43:59Z</time>
      </trkpt>
      <trkpt lat="41.8142490" lon="2.9842500">
        <ele>51.8</ele>
        <time>2023-01-02T07:44:02Z</time>
      </trkpt>
      <trkpt lat="41.8141510" lon="2.9841340">
        <ele>52.2</ele>
        <time>2023-01-02T07:44:06Z</time>
      </trkpt>
      <trkpt lat="41.8141370" lon="2.9841010">
        <ele>53.0</ele>
        <time>2023-01-02T07:44:07Z</time>
      </trkpt>
      <trkpt lat="41.8140570" lon="2.9839970">
        <ele>54.0</ele>
        <time>2023-01-02T07:44:11Z</time>
      </trkpt>
      <trkpt lat="41.8139410" lon="2.9838800">
        <ele>54.4</ele>
        <time>2023-01-02T07:44:15Z</time>
      </trkpt>
      <trkpt lat="41.8139060" lon="2.9838200">
        <ele>54.6</ele>
        <time>2023-01-02T07:44:17Z</time>
      </trkpt>
      <trkpt lat="41.8138850" lon="2.9837370">
        <ele>54.8</ele>
        <time>2023-01-02T07:44:19Z</time>
      </trkpt>
      <trkpt lat="41.8138770" lon="2.9836060">
        <ele>55.0</ele>
        <time>2023-01-02T07:44:22Z</time>
      </trkpt>
      <trkpt lat="41.8138760" lon="2.9834590">
        <ele>55.4</ele>
        <time>2023-01-02T07:44:25Z</time>
      </trkpt>
      <trkpt lat="41.8139000" lon="2.9831880">
        <ele>55.4</ele>
        <time>2023-01-02T07:44:31Z</time>
      </trkpt>
      <trkpt lat="41.8140090" lon="2.9829100">
        <ele>55.4</ele>
        <time>2023-01-02T07:44:38Z</time>
      </trkpt>
      <trkpt lat="41.8141950" lon="2.9825120">
        <ele>55.8</ele>
        <time>2023-01-02T07:44:47Z</time>
      </trkpt>
      <trkpt lat="41.8142620" lon="2.9823610">
        <ele>56.0</ele>
        <time>2023-01-02T07:44:51Z</time>
      </trkpt>
      <trkpt lat="41.8142780" lon="2.9823200">
        <ele>56.0</ele>
        <time>2023-01-02T07:44:52Z</time>
      </trkpt>
      <trkpt lat="41.8142920" lon="2.9822730">
        <ele>56.0</ele>
        <time>2023-01-02T07:44:53Z</time>
      </trkpt>
      <trkpt lat="41.8144010" lon="2.9819970">
        <ele>56.2</ele>
        <time>2023-01-02T07:44:59Z</time>
      </trkpt>
      <trkpt lat="41.8145680" lon="2.9815410">
        <ele>57.0</ele>
        <time>2023-01-02T07:45:09Z</time>
      </trkpt>
      <trkpt lat="41.8146320" lon="2.9813550">
        <ele>57.0</ele>
        <time>2023-01-02T07:45:13Z</time>
      </trkpt>
      <trkpt lat="41.8146670" lon="2.9811820">
        <ele>57.2</ele>
        <time>2023-01-02T07:45:17Z</time>
      </trkpt>
      <trkpt lat="41.8147360" lon="2.9809440">
        <ele>57.4</ele>
        <time>2023-01-02T07:45:23Z</time>
      </trkpt>
      <trkpt lat="41.8148520" lon="2.9807140">
        <ele>57.6</ele>
        <time>2023-01-02T07:45:29Z</time>
      </trkpt>
      <trkpt lat="41.8149030" lon="2.9806150">
        <ele>57.6</ele>
        <time>2023-01-02T07:45:31Z</time>
      </trkpt>
      <trkpt lat="41.8149410" lon="2.9804950">
        <ele>57.6</ele>
        <time>2023-01-02T07:45:33Z</time>
      </trkpt>
      <trkpt lat="41.8149580" lon="2.9803500">
        <ele>57.6</ele>
        <time>2023-01-02T07:45:35Z</time>
      </trkpt>
      <trkpt lat="41.8149810" lon="2.9801130">
        <ele>57.4</ele>
        <time>2023-01-02T07:45:38Z</time>
      </trkpt>
      <trkpt lat="41.8149980" lon="2.9798080">
        <ele>57.4</ele>
        <time>2023-01-02T07:45:42Z</time>
      </trkpt>
      <trkpt lat="41.8149850" lon="2.9796010">
        <ele>57.4</ele>
        <time>2023-01-02T07:45:45Z</time>
      </trkpt>
      <trkpt lat="41.8149650" lon="2.9792640">
        <ele>57.6</ele>
        <time>2023-01-02T07:45:51Z</time>
      </trkpt>
      <trkpt lat="41.8149970" lon="2.9790590">
        <ele>57.8</ele>
        <time>2023-01-02T07:45:56Z</time>
      </trkpt>
      <trkpt lat="41.8150300" lon="2.9788520">
        <ele>58.2</ele>
        <time>2023-01-02T07:46:01Z</time>
      </trkpt>
      <trkpt lat="41.8150090" lon="2.9785330">
        <ele>58.6</ele>
        <time>2023-01-02T07:46:07Z</time>
      </trkpt>
      <trkpt lat="41.8149400" lon="2.9782900">
        <ele>58.8</ele>
        <time>2023-01-02T07:46:12Z</time>
      </trkpt>
      <trkpt lat="41.8149220" lon="2.9782320">
        <ele>58.8</ele>
        <time>2023-01-02T07:46:13Z</time>
      </trkpt>
      <trkpt lat="41.8148420" lon="2.9780440">
        <ele>59.0</ele>
        <time>2023-01-02T07:46:17Z</time>
      </trkpt>
      <trkpt lat="41.8147930" lon="2.9779550">
        <ele>59.2</ele>
        <time>2023-01-02T07:46:19Z</time>
      </trkpt>
      <trkpt lat="41.8147210" lon="2.9778420">
        <ele>59.6</ele>
        <time>2023-01-02T07:46:21Z</time>
      </trkpt>
      <trkpt lat="41.8146850" lon="2.9777880">
        <ele>59.6</ele>
        <time>2023-01-02T07:46:22Z</time>
      </trkpt>
      <trkpt lat="41.8145760" lon="2.9776410">
        <ele>59.8</ele>
        <time>2023-01-02T07:46:25Z</time>
      </trkpt>
      <trkpt lat="41.8144910" lon="2.9775190">
        <ele>59.8</ele>
        <time>2023-01-02T07:46:27Z</time>
      </trkpt>
      <trkpt lat="41.8142440" lon="2.9771490">
        <ele>59.8</ele>
        <time>2023-01-02T07:46:33Z</time>
      </trkpt>
      <trkpt lat="41.8141430" lon="2.9770170">
        <ele>59.8</ele>
        <time>2023-01-02T07:46:36Z</time>
      </trkpt>
      <trkpt lat="41.8140900" lon="2.9769180">
        <ele>60.0</ele>
        <time>2023-01-02T07:46:38Z</time>
      </trkpt>
      <trkpt lat="41.8140440" lon="2.9768070">
        <ele>60.0</ele>
        <time>2023-01-02T07:46:40Z</time>
      </trkpt>
      <trkpt lat="41.8139280" lon="2.9765960">
        <ele>60.4</ele>
        <time>2023-01-02T07:46:44Z</time>
      </trkpt>
      <trkpt lat="41.8137330" lon="2.9762640">
        <ele>60.8</ele>
        <time>2023-01-02T07:46:50Z</time>
      </trkpt>
      <trkpt lat="41.8137080" lon="2.9762000">
        <ele>60.8</ele>
        <time>2023-01-02T07:46:51Z</time>
      </trkpt>
      <trkpt lat="41.8136550" lon="2.9760010">
        <ele>61.0</ele>
        <time>2023-01-02T07:46:54Z</time>
      </trkpt>
      <trkpt lat="41.8136460" lon="2.9759360">
        <ele>61.2</ele>
        <time>2023-01-02T07:46:55Z</time>
      </trkpt>
      <trkpt lat="41.8136250" lon="2.9758030">
        <ele>61.4</ele>
        <time>2023-01-02T07:46:57Z</time>
      </trkpt>
      <trkpt lat="41.8135900" lon="2.9756410">
        <ele>61.6</ele>
        <time>2023-01-02T07:47:00Z</time>
      </trkpt>
      <trkpt lat="41.8134840" lon="2.9753750">
        <ele>61.8</ele>
        <time>2023-01-02T07:47:05Z</time>
      </trkpt>
      <trkpt lat="41.8133500" lon="2.9752520">
        <ele>62.0</ele>
        <time>2023-01-02T07:47:10Z</time>
      </trkpt>
      <trkpt lat="41.8132460" lon="2.9751580">
        <ele>62.6</ele>
        <time>2023-01-02T07:47:14Z</time>
      </trkpt>
      <trkpt lat="41.8132240" lon="2.9751230">
        <ele>63.0</ele>
        <time>2023-01-02T07:47:15Z</time>
      </trkpt>
      <trkpt lat="41.8131680" lon="2.9750200">
        <ele>63.6</ele>
        <time>2023-01-02T07:47:18Z</time>
      </trkpt>
      <trkpt lat="41.8131150" lon="2.9748900">
        <ele>64.0</ele>
        <time>2023-01-02T07:47:21Z</time>
      </trkpt>
      <trkpt lat="41.8130130" lon="2.9746150">
        <ele>64.6</ele>
        <time>2023-01-02T07:47:27Z</time>
      </trkpt>
      <trkpt lat="41.8129290" lon="2.9744130">
        <ele>64.6</ele>
        <time>2023-01-02T07:47:31Z</time>
      </trkpt>
      <trkpt lat="41.8129100" lon="2.9743690">
        <ele>64.8</ele>
        <time>2023-01-02T07:47:32Z</time>
      </trkpt>
      <trkpt lat="41.8128780" lon="2.9742850">
        <ele>64.8</ele>
        <time>2023-01-02T07:47:36Z</time>
      </trkpt>
      <trkpt lat="41.8128870" lon="2.9742420">
        <ele>64.0</ele>
        <time>2023-01-02T07:47:43Z</time>
      </trkpt>
      <trkpt lat="41.8128880" lon="2.9742420">
        <ele>64.4</ele>
        <time>2023-01-02T07:47:49Z</time>
      </trkpt>
      <trkpt lat="41.8129110" lon="2.9742430">
        <ele>64.4</ele>
        <time>2023-01-02T07:47:55Z</time>
      </trkpt>
      <trkpt lat="41.8129210" lon="2.9742430">
        <ele>64.2</ele>
        <time>2023-01-02T07:48:00Z</time>
      </trkpt>
      <trkpt lat="41.8129210" lon="2.9742400">
        <ele>64.0</ele>
        <time>2023-01-02T07:48:04Z</time>
      </trkpt>
      <trkpt lat="41.8129200" lon="2.9742390">
        <ele>64.0</ele>
        <time>2023-01-02T07:48:07Z</time>
      </trkpt>
      <trkpt lat="41.8129190" lon="2.9742340">
        <ele>64.0</ele>
        <time>2023-01-02T07:48:12Z</time>
      </trkpt>
      <trkpt lat="41.8129170" lon="2.9742300">
        <ele>64.0</ele>
        <time>2023-01-02T07:48:20Z</time>
      </trkpt>
      <trkpt lat="41.8129160" lon="2.9742210">
        <ele>64.0</ele>
        <time>2023-01-02T07:48:31Z</time>
      </trkpt>
      <trkpt lat="41.8129190" lon="2.9742210">
        <ele>64.0</ele>
        <time>2023-01-02T07:48:36Z</time>
      </trkpt>
      <trkpt lat="41.8129190" lon="2.9742250">
        <ele>64.2</ele>
        <time>2023-01-02T07:48:43Z</time>
      </trkpt>
      <trkpt lat="41.8129180" lon="2.9742220">
        <ele>64.2</ele>
        <time>2023-01-02T07:48:59Z</time>
      </trkpt>
      <trkpt lat="41.8128720" lon="2.9741570">
        <ele>64.2</ele>
        <time>2023-01-02T07:49:03Z</time>
      </trkpt>
      <trkpt lat="41.8128550" lon="2.9741260">
        <ele>64.2</ele>
        <time>2023-01-02T07:49:04Z</time>
      </trkpt>
      <trkpt lat="41.8128060" lon="2.9740330">
        <ele>63.6</ele>
        <time>2023-01-02T07:49:07Z</time>
      </trkpt>
      <trkpt lat="41.8127160" lon="2.9738800">
        <ele>63.4</ele>
        <time>2023-01-02T07:49:11Z</time>
      </trkpt>
      <trkpt lat="41.8125360" lon="2.9737560">
        <ele>63.2</ele>
        <time>2023-01-02T07:49:16Z</time>
      </trkpt>
      <trkpt lat="41.8122040" lon="2.9736050">
        <ele>63.2</ele>
        <time>2023-01-02T07:49:24Z</time>
      </trkpt>
      <trkpt lat="41.8119320" lon="2.9734520">
        <ele>63.6</ele>
        <time>2023-01-02T07:49:31Z</time>
      </trkpt>
      <trkpt lat="41.8117480" lon="2.9733310">
        <ele>63.8</ele>
        <time>2023-01-02T07:49:36Z</time>
      </trkpt>
      <trkpt lat="41.8117070" lon="2.9733110">
        <ele>63.8</ele>
        <time>2023-01-02T07:49:37Z</time>
      </trkpt>
      <trkpt lat="41.8116220" lon="2.9732640">
        <ele>63.8</ele>
        <time>2023-01-02T07:49:39Z</time>
      </trkpt>
      <trkpt lat="41.8114600" lon="2.9731670">
        <ele>64.0</ele>
        <time>2023-01-02T07:49:43Z</time>
      </trkpt>
      <trkpt lat="41.8112440" lon="2.9730350">
        <ele>64.2</ele>
        <time>2023-01-02T07:49:48Z</time>
      </trkpt>
      <trkpt lat="41.8111570" lon="2.9729810">
        <ele>64.4</ele>
        <time>2023-01-02T07:49:50Z</time>
      </trkpt>
      <trkpt lat="41.8108880" lon="2.9728030">
        <ele>64.6</ele>
        <time>2023-01-02T07:49:57Z</time>
      </trkpt>
      <trkpt lat="41.8108540" lon="2.9727780">
        <ele>64.8</ele>
        <time>2023-01-02T07:49:58Z</time>
      </trkpt>
      <trkpt lat="41.8107740" lon="2.9726440">
        <ele>65.4</ele>
        <time>2023-01-02T07:50:02Z</time>
      </trkpt>
      <trkpt lat="41.8107650" lon="2.9725490">
        <ele>65.8</ele>
        <time>2023-01-02T07:50:05Z</time>
      </trkpt>
      <trkpt lat="41.8107720" lon="2.9724900">
        <ele>65.8</ele>
        <time>2023-01-02T07:50:07Z</time>
      </trkpt>
      <trkpt lat="41.8108030" lon="2.9722970">
        <ele>66.6</ele>
        <time>2023-01-02T07:50:13Z</time>
      </trkpt>
      <trkpt lat="41.8108070" lon="2.9722570">
        <ele>66.8</ele>
        <time>2023-01-02T07:50:14Z</time>
      </trkpt>
      <trkpt lat="41.8108190" lon="2.9720430">
        <ele>67.0</ele>
        <time>2023-01-02T07:50:19Z</time>
      </trkpt>
      <trkpt lat="41.8108330" lon="2.9717070">
        <ele>67.4</ele>
        <time>2023-01-02T07:50:26Z</time>
      </trkpt>
      <trkpt lat="41.8108430" lon="2.9714880">
        <ele>67.8</ele>
        <time>2023-01-02T07:50:31Z</time>
      </trkpt>
      <trkpt lat="41.8108430" lon="2.9714440">
        <ele>67.8</ele>
        <time>2023-01-02T07:50:32Z</time>
      </trkpt>
      <trkpt lat="41.8108270" lon="2.9712110">
        <ele>68.6</ele>
        <time>2023-01-02T07:50:38Z</time>
      </trkpt>
      <trkpt lat="41.8108040" lon="2.9710940">
        <ele>68.8</ele>
        <time>2023-01-02T07:50:41Z</time>
      </trkpt>
      <trkpt lat="41.8107770" lon="2.9709830">
        <ele>69.2</ele>
        <time>2023-01-02T07:50:44Z</time>
      </trkpt>
      <trkpt lat="41.8107330" lon="2.9708490">
        <ele>70.0</ele>
        <time>2023-01-02T07:50:48Z</time>
      </trkpt>
      <trkpt lat="41.8106980" lon="2.9707550">
        <ele>70.2</ele>
        <time>2023-01-02T07:50:51Z</time>
      </trkpt>
      <trkpt lat="41.8106100" lon="2.9705980">
        <ele>70.8</ele>
        <time>2023-01-02T07:50:56Z</time>
      </trkpt>
      <trkpt lat="41.8105630" lon="2.9705450">
        <ele>71.0</ele>
        <time>2023-01-02T07:50:58Z</time>
      </trkpt>
      <trkpt lat="41.8104370" lon="2.9704090">
        <ele>71.6</ele>
        <time>2023-01-02T07:51:03Z</time>
      </trkpt>
      <trkpt lat="41.8103360" lon="2.9702560">
        <ele>72.0</ele>
        <time>2023-01-02T07:51:08Z</time>
      </trkpt>
      <trkpt lat="41.8103010" lon="2.9701940">
        <ele>72.2</ele>
        <time>2023-01-02T07:51:10Z</time>
      </trkpt>
      <trkpt lat="41.8102010" lon="2.9699660">
        <ele>72.6</ele>
        <time>2023-01-02T07:51:16Z</time>
      </trkpt>
      <trkpt lat="41.8100870" lon="2.9697270">
        <ele>72.8</ele>
        <time>2023-01-02T07:51:23Z</time>
      </trkpt>
      <trkpt lat="41.8099970" lon="2.9696200">
        <ele>73.4</ele>
        <time>2023-01-02T07:51:27Z</time>
      </trkpt>
      <trkpt lat="41.8099370" lon="2.9695430">
        <ele>73.6</ele>
        <time>2023-01-02T07:51:30Z</time>
      </trkpt>
      <trkpt lat="41.8097630" lon="2.9692940">
        <ele>74.6</ele>
        <time>2023-01-02T07:51:39Z</time>
      </trkpt>
      <trkpt lat="41.8096420" lon="2.9690700">
        <ele>75.6</ele>
        <time>2023-01-02T07:51:47Z</time>
      </trkpt>
      <trkpt lat="41.8096320" lon="2.9690400">
        <ele>75.8</ele>
        <time>2023-01-02T07:51:48Z</time>
      </trkpt>
      <trkpt lat="41.8095470" lon="2.9688050">
        <ele>76.4</ele>
        <time>2023-01-02T07:51:55Z</time>
      </trkpt>
      <trkpt lat="41.8094810" lon="2.9686080">
        <ele>76.8</ele>
        <time>2023-01-02T07:52:01Z</time>
      </trkpt>
      <trkpt lat="41.8094640" lon="2.9685780">
        <ele>77.0</ele>
        <time>2023-01-02T07:52:02Z</time>
      </trkpt>
      <trkpt lat="41.8093720" lon="2.9684040">
        <ele>77.4</ele>
        <time>2023-01-02T07:52:08Z</time>
      </trkpt>
      <trkpt lat="41.8093180" lon="2.9682710">
        <ele>78.0</ele>
        <time>2023-01-02T07:52:12Z</time>
      </trkpt>
      <trkpt lat="41.8092630" lon="2.9681540">
        <ele>77.8</ele>
        <time>2023-01-02T07:52:16Z</time>
      </trkpt>
      <trkpt lat="41.8091760" lon="2.9679740">
        <ele>78.4</ele>
        <time>2023-01-02T07:52:22Z</time>
      </trkpt>
      <trkpt lat="41.8091010" lon="2.9678550">
        <ele>79.0</ele>
        <time>2023-01-02T07:52:27Z</time>
      </trkpt>
      <trkpt lat="41.8090300" lon="2.9677550">
        <ele>79.4</ele>
        <time>2023-01-02T07:52:31Z</time>
      </trkpt>
      <trkpt lat="41.8089360" lon="2.9676010">
        <ele>80.0</ele>
        <time>2023-01-02T07:52:37Z</time>
      </trkpt>
      <trkpt lat="41.8088980" lon="2.9675550">
        <ele>80.0</ele>
        <time>2023-01-02T07:52:39Z</time>
      </trkpt>
      <trkpt lat="41.8087870" lon="2.9674650">
        <ele>80.8</ele>
        <time>2023-01-02T07:52:44Z</time>
      </trkpt>
      <trkpt lat="41.8086660" lon="2.9674200">
        <ele>81.2</ele>
        <time>2023-01-02T07:52:49Z</time>
      </trkpt>
      <trkpt lat="41.8086340" lon="2.9674140">
        <ele>81.2</ele>
        <time>2023-01-02T07:52:50Z</time>
      </trkpt>
      <trkpt lat="41.8084670" lon="2.9673540">
        <ele>80.4</ele>
        <time>2023-01-02T07:52:56Z</time>
      </trkpt>
      <trkpt lat="41.8083450" lon="2.9673330">
        <ele>80.2</ele>
        <time>2023-01-02T07:52:59Z</time>
      </trkpt>
      <trkpt lat="41.8082450" lon="2.9673240">
        <ele>80.0</ele>
        <time>2023-01-02T07:53:01Z</time>
      </trkpt>
      <trkpt lat="41.8081020" lon="2.9673100">
        <ele>79.6</ele>
        <time>2023-01-02T07:53:04Z</time>
      </trkpt>
      <trkpt lat="41.8079700" lon="2.9673020">
        <ele>79.6</ele>
        <time>2023-01-02T07:53:07Z</time>
      </trkpt>
      <trkpt lat="41.8078290" lon="2.9672390">
        <ele>79.6</ele>
        <time>2023-01-02T07:53:11Z</time>
      </trkpt>
      <trkpt lat="41.8077620" lon="2.9671070">
        <ele>79.8</ele>
        <time>2023-01-02T07:53:15Z</time>
      </trkpt>
      <trkpt lat="41.8076540" lon="2.9670170">
        <ele>80.8</ele>
        <time>2023-01-02T07:53:20Z</time>
      </trkpt>
      <trkpt lat="41.8075870" lon="2.9670070">
        <ele>81.2</ele>
        <time>2023-01-02T07:53:22Z</time>
      </trkpt>
      <trkpt lat="41.8074440" lon="2.9670000">
        <ele>81.2</ele>
        <time>2023-01-02T07:53:26Z</time>
      </trkpt>
      <trkpt lat="41.8073430" lon="2.9670010">
        <ele>80.8</ele>
        <time>2023-01-02T07:53:29Z</time>
      </trkpt>
      <trkpt lat="41.8072310" lon="2.9670190">
        <ele>80.4</ele>
        <time>2023-01-02T07:53:32Z</time>
      </trkpt>
      <trkpt lat="41.8071510" lon="2.9670400">
        <ele>80.0</ele>
        <time>2023-01-02T07:53:34Z</time>
      </trkpt>
      <trkpt lat="41.8069550" lon="2.9670940">
        <ele>79.4</ele>
        <time>2023-01-02T07:53:38Z</time>
      </trkpt>
      <trkpt lat="41.8068520" lon="2.9671010">
        <ele>79.0</ele>
        <time>2023-01-02T07:53:40Z</time>
      </trkpt>
      <trkpt lat="41.8068080" lon="2.9670960">
        <ele>78.8</ele>
        <time>2023-01-02T07:53:41Z</time>
      </trkpt>
      <trkpt lat="41.8067170" lon="2.9670790">
        <ele>78.4</ele>
        <time>2023-01-02T07:53:43Z</time>
      </trkpt>
      <trkpt lat="41.8064560" lon="2.9670190">
        <ele>77.6</ele>
        <time>2023-01-02T07:53:49Z</time>
      </trkpt>
      <trkpt lat="41.8063990" lon="2.9670130">
        <ele>77.4</ele>
        <time>2023-01-02T07:53:50Z</time>
      </trkpt>
      <trkpt lat="41.8061950" lon="2.9670260">
        <ele>77.0</ele>
        <time>2023-01-02T07:53:53Z</time>
      </trkpt>
      <trkpt lat="41.8060400" lon="2.9670090">
        <ele>76.2</ele>
        <time>2023-01-02T07:53:56Z</time>
      </trkpt>
      <trkpt lat="41.8059870" lon="2.9669950">
        <ele>76.2</ele>
        <time>2023-01-02T07:53:57Z</time>
      </trkpt>
      <trkpt lat="41.8058730" lon="2.9669460">
        <ele>76.0</ele>
        <time>2023-01-02T07:53:59Z</time>
      </trkpt>
      <trkpt lat="41.8056570" lon="2.9669780">
        <ele>76.2</ele>
        <time>2023-01-02T07:54:03Z</time>
      </trkpt>
      <trkpt lat="41.8055270" lon="2.9670300">
        <ele>76.4</ele>
        <time>2023-01-02T07:54:07Z</time>
      </trkpt>
      <trkpt lat="41.8054920" lon="2.9670150">
        <ele>76.6</ele>
        <time>2023-01-02T07:54:08Z</time>
      </trkpt>
      <trkpt lat="41.8053270" lon="2.9669050">
        <ele>76.6</ele>
        <time>2023-01-02T07:54:13Z</time>
      </trkpt>
      <trkpt lat="41.8052380" lon="2.9668470">
        <ele>77.2</ele>
        <time>2023-01-02T07:54:16Z</time>
      </trkpt>
      <trkpt lat="41.8052110" lon="2.9668300">
        <ele>77.6</ele>
        <time>2023-01-02T07:54:17Z</time>
      </trkpt>
      <trkpt lat="41.8050470" lon="2.9666860">
        <ele>78.4</ele>
        <time>2023-01-02T07:54:24Z</time>
      </trkpt>
      <trkpt lat="41.8050210" lon="2.9666710">
        <ele>78.6</ele>
        <time>2023-01-02T07:54:25Z</time>
      </trkpt>
      <trkpt lat="41.8048820" lon="2.9665870">
        <ele>79.2</ele>
        <time>2023-01-02T07:54:30Z</time>
      </trkpt>
      <trkpt lat="41.8047390" lon="2.9665130">
        <ele>79.8</ele>
        <time>2023-01-02T07:54:35Z</time>
      </trkpt>
      <trkpt lat="41.8045780" lon="2.9664430">
        <ele>80.0</ele>
        <time>2023-01-02T07:54:40Z</time>
      </trkpt>
      <trkpt lat="41.8044160" lon="2.9662620">
        <ele>79.4</ele>
        <time>2023-01-02T07:54:46Z</time>
      </trkpt>
      <trkpt lat="41.8042830" lon="2.9661060">
        <ele>79.4</ele>
        <time>2023-01-02T07:54:50Z</time>
      </trkpt>
      <trkpt lat="41.8042170" lon="2.9660350">
        <ele>79.4</ele>
        <time>2023-01-02T07:54:52Z</time>
      </trkpt>
      <trkpt lat="41.8040830" lon="2.9659670">
        <ele>79.4</ele>
        <time>2023-01-02T07:54:56Z</time>
      </trkpt>
      <trkpt lat="41.8039760" lon="2.9658980">
        <ele>79.6</ele>
        <time>2023-01-02T07:55:00Z</time>
      </trkpt>
      <trkpt lat="41.8038880" lon="2.9657710">
        <ele>81.0</ele>
        <time>2023-01-02T07:55:05Z</time>
      </trkpt>
      <trkpt lat="41.8038650" lon="2.9657590">
        <ele>81.2</ele>
        <time>2023-01-02T07:55:06Z</time>
      </trkpt>
      <trkpt lat="41.8037380" lon="2.9657420">
        <ele>82.0</ele>
        <time>2023-01-02T07:55:11Z</time>
      </trkpt>
      <trkpt lat="41.8037130" lon="2.9657400">
        <ele>82.2</ele>
        <time>2023-01-02T07:55:12Z</time>
      </trkpt>
      <trkpt lat="41.8035800" lon="2.9656910">
        <ele>83.0</ele>
        <time>2023-01-02T07:55:17Z</time>
      </trkpt>
      <trkpt lat="41.8034950" lon="2.9656560">
        <ele>83.4</ele>
        <time>2023-01-02T07:55:20Z</time>
      </trkpt>
      <trkpt lat="41.8033250" lon="2.9656010">
        <ele>84.2</ele>
        <time>2023-01-02T07:55:26Z</time>
      </trkpt>
      <trkpt lat="41.8032650" lon="2.9655780">
        <ele>84.4</ele>
        <time>2023-01-02T07:55:28Z</time>
      </trkpt>
      <trkpt lat="41.8031010" lon="2.9655380">
        <ele>85.2</ele>
        <time>2023-01-02T07:55:34Z</time>
      </trkpt>
      <trkpt lat="41.8030780" lon="2.9655250">
        <ele>85.2</ele>
        <time>2023-01-02T07:55:35Z</time>
      </trkpt>
      <trkpt lat="41.8029620" lon="2.9654840">
        <ele>86.0</ele>
        <time>2023-01-02T07:55:40Z</time>
      </trkpt>
      <trkpt lat="41.8028850" lon="2.9654700">
        <ele>86.4</ele>
        <time>2023-01-02T07:55:43Z</time>
      </trkpt>
      <trkpt lat="41.8028130" lon="2.9654130">
        <ele>86.8</ele>
        <time>2023-01-02T07:55:46Z</time>
      </trkpt>
      <trkpt lat="41.8027400" lon="2.9653230">
        <ele>87.4</ele>
        <time>2023-01-02T07:55:50Z</time>
      </trkpt>
      <trkpt lat="41.8027010" lon="2.9652580">
        <ele>88.0</ele>
        <time>2023-01-02T07:55:53Z</time>
      </trkpt>
      <trkpt lat="41.8026760" lon="2.9652190">
        <ele>88.6</ele>
        <time>2023-01-02T07:55:55Z</time>
      </trkpt>
      <trkpt lat="41.8026080" lon="2.9651330">
        <ele>89.6</ele>
        <time>2023-01-02T07:56:00Z</time>
      </trkpt>
      <trkpt lat="41.8025640" lon="2.9650930">
        <ele>90.0</ele>
        <time>2023-01-02T07:56:03Z</time>
      </trkpt>
      <trkpt lat="41.8025420" lon="2.9650590">
        <ele>90.6</ele>
        <time>2023-01-02T07:56:05Z</time>
      </trkpt>
      <trkpt lat="41.8025280" lon="2.9650440">
        <ele>90.8</ele>
        <time>2023-01-02T07:56:06Z</time>
      </trkpt>
      <trkpt lat="41.8024770" lon="2.9649860">
        <ele>91.8</ele>
        <time>2023-01-02T07:56:10Z</time>
      </trkpt>
      <trkpt lat="41.8024100" lon="2.9649180">
        <ele>92.6</ele>
        <time>2023-01-02T07:56:15Z</time>
      </trkpt>
      <trkpt lat="41.8023850" lon="2.9648870">
        <ele>92.8</ele>
        <time>2023-01-02T07:56:17Z</time>
      </trkpt>
      <trkpt lat="41.8023200" lon="2.9648300">
        <ele>94.0</ele>
        <time>2023-01-02T07:56:22Z</time>
      </trkpt>
      <trkpt lat="41.8022910" lon="2.9648150">
        <ele>94.6</ele>
        <time>2023-01-02T07:56:24Z</time>
      </trkpt>
      <trkpt lat="41.8022590" lon="2.9648070">
        <ele>95.0</ele>
        <time>2023-01-02T07:56:26Z</time>
      </trkpt>
      <trkpt lat="41.8021800" lon="2.9648060">
        <ele>96.0</ele>
        <time>2023-01-02T07:56:31Z</time>
      </trkpt>
      <trkpt lat="41.8021650" lon="2.9648040">
        <ele>96.2</ele>
        <time>2023-01-02T07:56:32Z</time>
      </trkpt>
      <trkpt lat="41.8021050" lon="2.9647720">
        <ele>97.2</ele>
        <time>2023-01-02T07:56:36Z</time>
      </trkpt>
      <trkpt lat="41.8020630" lon="2.9647350">
        <ele>98.0</ele>
        <time>2023-01-02T07:56:39Z</time>
      </trkpt>
      <trkpt lat="41.8020360" lon="2.9647110">
        <ele>98.6</ele>
        <time>2023-01-02T07:56:41Z</time>
      </trkpt>
      <trkpt lat="41.8019490" lon="2.9646260">
        <ele>99.8</ele>
        <time>2023-01-02T07:56:47Z</time>
      </trkpt>
      <trkpt lat="41.8019330" lon="2.9646130">
        <ele>100.0</ele>
        <time>2023-01-02T07:56:48Z</time>
      </trkpt>
      <trkpt lat="41.8018720" lon="2.9645770">
        <ele>100.8</ele>
        <time>2023-01-02T07:56:52Z</time>
      </trkpt>
      <trkpt lat="41.8017980" lon="2.9645410">
        <ele>101.6</ele>
        <time>2023-01-02T07:56:57Z</time>
      </trkpt>
      <trkpt lat="41.8017660" lon="2.9645280">
        <ele>102.0</ele>
        <time>2023-01-02T07:56:59Z</time>
      </trkpt>
      <trkpt lat="41.8016740" lon="2.9644830">
        <ele>103.0</ele>
        <time>2023-01-02T07:57:05Z</time>
      </trkpt>
      <trkpt lat="41.8016570" lon="2.9644730">
        <ele>103.2</ele>
        <time>2023-01-02T07:57:06Z</time>
      </trkpt>
      <trkpt lat="41.8015490" lon="2.9644030">
        <ele>104.2</ele>
        <time>2023-01-02T07:57:12Z</time>
      </trkpt>
      <trkpt lat="41.8015150" lon="2.9643810">
        <ele>104.4</ele>
        <time>2023-01-02T07:57:14Z</time>
      </trkpt>
      <trkpt lat="41.8014090" lon="2.9642790">
        <ele>105.4</ele>
        <time>2023-01-02T07:57:21Z</time>
      </trkpt>
      <trkpt lat="41.8013980" lon="2.9642570">
        <ele>105.4</ele>
        <time>2023-01-02T07:57:22Z</time>
      </trkpt>
      <trkpt lat="41.8013300" lon="2.9640640">
        <ele>106.4</ele>
        <time>2023-01-02T07:57:30Z</time>
      </trkpt>
      <trkpt lat="41.8012970" lon="2.9638900">
        <ele>107.6</ele>
        <time>2023-01-02T07:57:37Z</time>
      </trkpt>
      <trkpt lat="41.8012930" lon="2.9637670">
        <ele>108.2</ele>
        <time>2023-01-02T07:57:41Z</time>
      </trkpt>
      <trkpt lat="41.8012550" lon="2.9635730">
        <ele>108.6</ele>
        <time>2023-01-02T07:57:47Z</time>
      </trkpt>
      <trkpt lat="41.8012290" lon="2.9634030">
        <ele>109.4</ele>
        <time>2023-01-02T07:57:53Z</time>
      </trkpt>
      <trkpt lat="41.8012240" lon="2.9633500">
        <ele>109.8</ele>
        <time>2023-01-02T07:57:55Z</time>
      </trkpt>
      <trkpt lat="41.8012060" lon="2.9631630">
        <ele>111.0</ele>
        <time>2023-01-02T07:58:02Z</time>
      </trkpt>
      <trkpt lat="41.8012040" lon="2.9631120">
        <ele>111.2</ele>
        <time>2023-01-02T07:58:04Z</time>
      </trkpt>
      <trkpt lat="41.8011980" lon="2.9629640">
        <ele>112.2</ele>
        <time>2023-01-02T07:58:10Z</time>
      </trkpt>
      <trkpt lat="41.8012020" lon="2.9628910">
        <ele>113.0</ele>
        <time>2023-01-02T07:58:13Z</time>
      </trkpt>
      <trkpt lat="41.8012040" lon="2.9628660">
        <ele>113.2</ele>
        <time>2023-01-02T07:58:14Z</time>
      </trkpt>
      <trkpt lat="41.8012120" lon="2.9627160">
        <ele>114.2</ele>
        <time>2023-01-02T07:58:20Z</time>
      </trkpt>
      <trkpt lat="41.8012130" lon="2.9626640">
        <ele>114.4</ele>
        <time>2023-01-02T07:58:22Z</time>
      </trkpt>
      <trkpt lat="41.8012070" lon="2.9625260">
        <ele>115.4</ele>
        <time>2023-01-02T07:58:27Z</time>
      </trkpt>
      <trkpt lat="41.8011930" lon="2.9624000">
        <ele>116.0</ele>
        <time>2023-01-02T07:58:32Z</time>
      </trkpt>
      <trkpt lat="41.8011750" lon="2.9622850">
        <ele>116.4</ele>
        <time>2023-01-02T07:58:36Z</time>
      </trkpt>
      <trkpt lat="41.8011480" lon="2.9621640">
        <ele>117.2</ele>
        <time>2023-01-02T07:58:40Z</time>
      </trkpt>
      <trkpt lat="41.8011290" lon="2.9620810">
        <ele>117.4</ele>
        <time>2023-01-02T07:58:43Z</time>
      </trkpt>
      <trkpt lat="41.8010960" lon="2.9619710">
        <ele>117.8</ele>
        <time>2023-01-02T07:58:47Z</time>
      </trkpt>
      <trkpt lat="41.8010550" lon="2.9618060">
        <ele>118.4</ele>
        <time>2023-01-02T07:58:53Z</time>
      </trkpt>
      <trkpt lat="41.8010440" lon="2.9617790">
        <ele>118.6</ele>
        <time>2023-01-02T07:58:54Z</time>
      </trkpt>
      <trkpt lat="41.8009120" lon="2.9615470">
        <ele>119.6</ele>
        <time>2023-01-02T07:59:03Z</time>
      </trkpt>
      <trkpt lat="41.8007500" lon="2.9613290">
        <ele>120.2</ele>
        <time>2023-01-02T07:59:12Z</time>
      </trkpt>
      <trkpt lat="41.8006030" lon="2.9612140">
        <ele>120.8</ele>
        <time>2023-01-02T07:59:19Z</time>
      </trkpt>
      <trkpt lat="41.8005770" lon="2.9612040">
        <ele>120.8</ele>
        <time>2023-01-02T07:59:20Z</time>
      </trkpt>
      <trkpt lat="41.8003770" lon="2.9611350">
        <ele>121.4</ele>
        <time>2023-01-02T07:59:27Z</time>
      </trkpt>
      <trkpt lat="41.8003490" lon="2.9611240">
        <ele>121.4</ele>
        <time>2023-01-02T07:59:28Z</time>
      </trkpt>
      <trkpt lat="41.8001490" lon="2.9611050">
        <ele>121.8</ele>
        <time>2023-01-02T07:59:35Z</time>
      </trkpt>
      <trkpt lat="41.8000490" lon="2.9611360">
        <ele>122.8</ele>
        <time>2023-01-02T07:59:40Z</time>
      </trkpt>
      <trkpt lat="41.7999780" lon="2.9610940">
        <ele>124.0</ele>
        <time>2023-01-02T07:59:44Z</time>
      </trkpt>
      <trkpt lat="41.7999670" lon="2.9610700">
        <ele>124.2</ele>
        <time>2023-01-02T07:59:45Z</time>
      </trkpt>
      <trkpt lat="41.7999610" lon="2.9609510">
        <ele>125.2</ele>
        <time>2023-01-02T07:59:49Z</time>
      </trkpt>
      <trkpt lat="41.7999690" lon="2.9608930">
        <ele>125.6</ele>
        <time>2023-01-02T07:59:51Z</time>
      </trkpt>
      <trkpt lat="41.7999860" lon="2.9608380">
        <ele>126.2</ele>
        <time>2023-01-02T07:59:53Z</time>
      </trkpt>
      <trkpt lat="41.8000030" lon="2.9607620">
        <ele>127.0</ele>
        <time>2023-01-02T07:59:56Z</time>
      </trkpt>
      <trkpt lat="41.8000050" lon="2.9607340">
        <ele>127.4</ele>
        <time>2023-01-02T07:59:57Z</time>
      </trkpt>
      <trkpt lat="41.7999700" lon="2.9606280">
        <ele>128.2</ele>
        <time>2023-01-02T08:00:01Z</time>
      </trkpt>
      <trkpt lat="41.7999550" lon="2.9606060">
        <ele>128.4</ele>
        <time>2023-01-02T08:00:02Z</time>
      </trkpt>
      <trkpt lat="41.7998340" lon="2.9604690">
        <ele>129.4</ele>
        <time>2023-01-02T08:00:09Z</time>
      </trkpt>
      <trkpt lat="41.7997950" lon="2.9603960">
        <ele>130.0</ele>
        <time>2023-01-02T08:00:12Z</time>
      </trkpt>
      <trkpt lat="41.7998020" lon="2.9603410">
        <ele>130.0</ele>
        <time>2023-01-02T08:00:14Z</time>
      </trkpt>
      <trkpt lat="41.7998370" lon="2.9603200">
        <ele>130.4</ele>
        <time>2023-01-02T08:00:16Z</time>
      </trkpt>
      <trkpt lat="41.7998570" lon="2.9603240">
        <ele>130.6</ele>
        <time>2023-01-02T08:00:17Z</time>
      </trkpt>
      <trkpt lat="41.7998750" lon="2.9603300">
        <ele>130.8</ele>
        <time>2023-01-02T08:00:18Z</time>
      </trkpt>
      <trkpt lat="41.7999830" lon="2.9603730">
        <ele>131.2</ele>
        <time>2023-01-02T08:00:23Z</time>
      </trkpt>
      <trkpt lat="41.8001420" lon="2.9604110">
        <ele>131.6</ele>
        <time>2023-01-02T08:00:29Z</time>
      </trkpt>
      <trkpt lat="41.8001620" lon="2.9604190">
        <ele>132.0</ele>
        <time>2023-01-02T08:00:30Z</time>
      </trkpt>
      <trkpt lat="41.8002560" lon="2.9604470">
        <ele>132.6</ele>
        <time>2023-01-02T08:00:34Z</time>
      </trkpt>
      <trkpt lat="41.8003240" lon="2.9604740">
        <ele>133.0</ele>
        <time>2023-01-02T08:00:37Z</time>
      </trkpt>
      <trkpt lat="41.8005060" lon="2.9605370">
        <ele>133.6</ele>
        <time>2023-01-02T08:00:45Z</time>
      </trkpt>
      <trkpt lat="41.8005290" lon="2.9605430">
        <ele>134.0</ele>
        <time>2023-01-02T08:00:46Z</time>
      </trkpt>
      <trkpt lat="41.8007010" lon="2.9605530">
        <ele>135.0</ele>
        <time>2023-01-02T08:00:53Z</time>
      </trkpt>
      <trkpt lat="41.8008180" lon="2.9605060">
        <ele>135.2</ele>
        <time>2023-01-02T08:00:57Z</time>
      </trkpt>
      <trkpt lat="41.8008760" lon="2.9604560">
        <ele>135.2</ele>
        <time>2023-01-02T08:00:59Z</time>
      </trkpt>
      <trkpt lat="41.8009100" lon="2.9603400">
        <ele>135.6</ele>
        <time>2023-01-02T08:01:03Z</time>
      </trkpt>
      <trkpt lat="41.8009180" lon="2.9602420">
        <ele>136.0</ele>
        <time>2023-01-02T08:01:07Z</time>
      </trkpt>
      <trkpt lat="41.8009200" lon="2.9602130">
        <ele>136.2</ele>
        <time>2023-01-02T08:01:08Z</time>
      </trkpt>
      <trkpt lat="41.8009390" lon="2.9599990">
        <ele>137.4</ele>
        <time>2023-01-02T08:01:16Z</time>
      </trkpt>
      <trkpt lat="41.8009390" lon="2.9599500">
        <ele>137.8</ele>
        <time>2023-01-02T08:01:18Z</time>
      </trkpt>
      <trkpt lat="41.8009310" lon="2.9598790">
        <ele>138.2</ele>
        <time>2023-01-02T08:01:21Z</time>
      </trkpt>
      <trkpt lat="41.8009210" lon="2.9598570">
        <ele>138.6</ele>
        <time>2023-01-02T08:01:22Z</time>
      </trkpt>
      <trkpt lat="41.8008940" lon="2.9598190">
        <ele>138.8</ele>
        <time>2023-01-02T08:01:24Z</time>
      </trkpt>
      <trkpt lat="41.8008010" lon="2.9597260">
        <ele>139.8</ele>
        <time>2023-01-02T08:01:30Z</time>
      </trkpt>
      <trkpt lat="41.8007860" lon="2.9597110">
        <ele>139.8</ele>
        <time>2023-01-02T08:01:31Z</time>
      </trkpt>
      <trkpt lat="41.8006990" lon="2.9596030">
        <ele>140.8</ele>
        <time>2023-01-02T08:01:37Z</time>
      </trkpt>
      <trkpt lat="41.8006540" lon="2.9595520">
        <ele>141.2</ele>
        <time>2023-01-02T08:01:40Z</time>
      </trkpt>
      <trkpt lat="41.8005970" lon="2.9594810">
        <ele>141.8</ele>
        <time>2023-01-02T08:01:44Z</time>
      </trkpt>
      <trkpt lat="41.8005550" lon="2.9594280">
        <ele>142.6</ele>
        <time>2023-01-02T08:01:47Z</time>
      </trkpt>
      <trkpt lat="41.8005300" lon="2.9593950">
        <ele>142.8</ele>
        <time>2023-01-02T08:01:49Z</time>
      </trkpt>
      <trkpt lat="41.8004940" lon="2.9593200">
        <ele>143.4</ele>
        <time>2023-01-02T08:01:53Z</time>
      </trkpt>
      <trkpt lat="41.8004980" lon="2.9592940">
        <ele>143.4</ele>
        <time>2023-01-02T08:01:54Z</time>
      </trkpt>
      <trkpt lat="41.8005290" lon="2.9591510">
        <ele>144.0</ele>
        <time>2023-01-02T08:01:59Z</time>
      </trkpt>
      <trkpt lat="41.8005250" lon="2.9591230">
        <ele>144.2</ele>
        <time>2023-01-02T08:02:00Z</time>
      </trkpt>
      <trkpt lat="41.8004680" lon="2.9590310">
        <ele>145.0</ele>
        <time>2023-01-02T08:02:05Z</time>
      </trkpt>
      <trkpt lat="41.8004550" lon="2.9590200">
        <ele>145.2</ele>
        <time>2023-01-02T08:02:06Z</time>
      </trkpt>
      <trkpt lat="41.8003450" lon="2.9589420">
        <ele>146.4</ele>
        <time>2023-01-02T08:02:13Z</time>
      </trkpt>
      <trkpt lat="41.8002750" lon="2.9588670">
        <ele>147.4</ele>
        <time>2023-01-02T08:02:18Z</time>
      </trkpt>
      <trkpt lat="41.8002510" lon="2.9588300">
        <ele>147.8</ele>
        <time>2023-01-02T08:02:20Z</time>
      </trkpt>
      <trkpt lat="41.8001870" lon="2.9587420">
        <ele>148.6</ele>
        <time>2023-01-02T08:02:25Z</time>
      </trkpt>
      <trkpt lat="41.8001420" lon="2.9586710">
        <ele>149.6</ele>
        <time>2023-01-02T08:02:29Z</time>
      </trkpt>
      <trkpt lat="41.8001320" lon="2.9586530">
        <ele>149.6</ele>
        <time>2023-01-02T08:02:30Z</time>
      </trkpt>
      <trkpt lat="41.8000630" lon="2.9585480">
        <ele>150.6</ele>
        <time>2023-01-02T08:02:36Z</time>
      </trkpt>
      <trkpt lat="41.8000400" lon="2.9585100">
        <ele>151.2</ele>
        <time>2023-01-02T08:02:38Z</time>
      </trkpt>
      <trkpt lat="41.7999930" lon="2.9584350">
        <ele>152.0</ele>
        <time>2023-01-02T08:02:42Z</time>
      </trkpt>
      <trkpt lat="41.7999170" lon="2.9583280">
        <ele>153.0</ele>
        <time>2023-01-02T08:02:48Z</time>
      </trkpt>
      <trkpt lat="41.7998880" lon="2.9582950">
        <ele>153.2</ele>
        <time>2023-01-02T08:02:50Z</time>
      </trkpt>
      <trkpt lat="41.7997710" lon="2.9581970">
        <ele>154.4</ele>
        <time>2023-01-02T08:02:57Z</time>
      </trkpt>
      <trkpt lat="41.7997320" lon="2.9581890">
        <ele>154.6</ele>
        <time>2023-01-02T08:02:59Z</time>
      </trkpt>
      <trkpt lat="41.7996060" lon="2.9582500">
        <ele>155.0</ele>
        <time>2023-01-02T08:03:05Z</time>
      </trkpt>
      <trkpt lat="41.7994360" lon="2.9583530">
        <ele>154.8</ele>
        <time>2023-01-02T08:03:12Z</time>
      </trkpt>
      <trkpt lat="41.7992710" lon="2.9583460">
        <ele>155.2</ele>
        <time>2023-01-02T08:03:18Z</time>
      </trkpt>
      <trkpt lat="41.7992170" lon="2.9583390">
        <ele>155.2</ele>
        <time>2023-01-02T08:03:20Z</time>
      </trkpt>
      <trkpt lat="41.7991320" lon="2.9583270">
        <ele>155.4</ele>
        <time>2023-01-02T08:03:23Z</time>
      </trkpt>
      <trkpt lat="41.7989650" lon="2.9582800">
        <ele>155.6</ele>
        <time>2023-01-02T08:03:29Z</time>
      </trkpt>
      <trkpt lat="41.7987810" lon="2.9581710">
        <ele>155.8</ele>
        <time>2023-01-02T08:03:36Z</time>
      </trkpt>
      <trkpt lat="41.7985830" lon="2.9580410">
        <ele>156.2</ele>
        <time>2023-01-02T08:03:43Z</time>
      </trkpt>
      <trkpt lat="41.7985210" lon="2.9580350">
        <ele>156.4</ele>
        <time>2023-01-02T08:03:45Z</time>
      </trkpt>
      <trkpt lat="41.7983940" lon="2.9580590">
        <ele>156.4</ele>
        <time>2023-01-02T08:03:49Z</time>
      </trkpt>
      <trkpt lat="41.7982840" lon="2.9581090">
        <ele>156.2</ele>
        <time>2023-01-02T08:03:53Z</time>
      </trkpt>
      <trkpt lat="41.7982230" lon="2.9581930">
        <ele>156.2</ele>
        <time>2023-01-02T08:03:56Z</time>
      </trkpt>
      <trkpt lat="41.7981200" lon="2.9583360">
        <ele>156.6</ele>
        <time>2023-01-02T08:04:00Z</time>
      </trkpt>
      <trkpt lat="41.7980710" lon="2.9583150">
        <ele>156.6</ele>
        <time>2023-01-02T08:04:02Z</time>
      </trkpt>
      <trkpt lat="41.7980580" lon="2.9582860">
        <ele>156.6</ele>
        <time>2023-01-02T08:04:03Z</time>
      </trkpt>
      <trkpt lat="41.7979470" lon="2.9581170">
        <ele>156.6</ele>
        <time>2023-01-02T08:04:09Z</time>
      </trkpt>
      <trkpt lat="41.7978320" lon="2.9579590">
        <ele>157.4</ele>
        <time>2023-01-02T08:04:15Z</time>
      </trkpt>
      <trkpt lat="41.7978120" lon="2.9578460">
        <ele>157.6</ele>
        <time>2023-01-02T08:04:18Z</time>
      </trkpt>
      <trkpt lat="41.7977760" lon="2.9576840">
        <ele>157.8</ele>
        <time>2023-01-02T08:04:22Z</time>
      </trkpt>
      <trkpt lat="41.7976660" lon="2.9576360">
        <ele>158.0</ele>
        <time>2023-01-02T08:04:26Z</time>
      </trkpt>
      <trkpt lat="41.7975490" lon="2.9575690">
        <ele>158.6</ele>
        <time>2023-01-02T08:04:31Z</time>
      </trkpt>
      <trkpt lat="41.7975440" lon="2.9575320">
        <ele>158.6</ele>
        <time>2023-01-02T08:04:32Z</time>
      </trkpt>
      <trkpt lat="41.7975310" lon="2.9574230">
        <ele>158.8</ele>
        <time>2023-01-02T08:04:35Z</time>
      </trkpt>
      <trkpt lat="41.7975120" lon="2.9573950">
        <ele>158.8</ele>
        <time>2023-01-02T08:04:36Z</time>
      </trkpt>
      <trkpt lat="41.7974580" lon="2.9573660">
        <ele>158.8</ele>
        <time>2023-01-02T08:04:38Z</time>
      </trkpt>
      <trkpt lat="41.7972890" lon="2.9573150">
        <ele>159.0</ele>
        <time>2023-01-02T08:04:44Z</time>
      </trkpt>
      <trkpt lat="41.7972790" lon="2.9572880">
        <ele>158.8</ele>
        <time>2023-01-02T08:04:45Z</time>
      </trkpt>
      <trkpt lat="41.7972840" lon="2.9572310">
        <ele>158.8</ele>
        <time>2023-01-02T08:04:47Z</time>
      </trkpt>
      <trkpt lat="41.7972990" lon="2.9572040">
        <ele>158.8</ele>
        <time>2023-01-02T08:04:48Z</time>
      </trkpt>
      <trkpt lat="41.7973760" lon="2.9570640">
        <ele>159.0</ele>
        <time>2023-01-02T08:04:52Z</time>
      </trkpt>
      <trkpt lat="41.7973460" lon="2.9569120">
        <ele>159.2</ele>
        <time>2023-01-02T08:04:56Z</time>
      </trkpt>
      <trkpt lat="41.7972370" lon="2.9568070">
        <ele>159.2</ele>
        <time>2023-01-02T08:05:01Z</time>
      </trkpt>
      <trkpt lat="41.7970700" lon="2.9566680">
        <ele>159.2</ele>
        <time>2023-01-02T08:05:08Z</time>
      </trkpt>
      <trkpt lat="41.7969130" lon="2.9565190">
        <ele>159.8</ele>
        <time>2023-01-02T08:05:15Z</time>
      </trkpt>
      <trkpt lat="41.7968930" lon="2.9564950">
        <ele>160.0</ele>
        <time>2023-01-02T08:05:16Z</time>
      </trkpt>
      <trkpt lat="41.7967600" lon="2.9564170">
        <ele>160.2</ele>
        <time>2023-01-02T08:05:22Z</time>
      </trkpt>
      <trkpt lat="41.7966840" lon="2.9563890">
        <ele>160.4</ele>
        <time>2023-01-02T08:05:25Z</time>
      </trkpt>
      <trkpt lat="41.7966760" lon="2.9563610">
        <ele>160.6</ele>
        <time>2023-01-02T08:05:26Z</time>
      </trkpt>
      <trkpt lat="41.7967020" lon="2.9563020">
        <ele>160.8</ele>
        <time>2023-01-02T08:05:28Z</time>
      </trkpt>
      <trkpt lat="41.7967480" lon="2.9562540">
        <ele>160.8</ele>
        <time>2023-01-02T08:05:30Z</time>
      </trkpt>
      <trkpt lat="41.7967840" lon="2.9562120">
        <ele>160.8</ele>
        <time>2023-01-02T08:05:32Z</time>
      </trkpt>
      <trkpt lat="41.7968200" lon="2.9561390">
        <ele>161.0</ele>
        <time>2023-01-02T08:05:35Z</time>
      </trkpt>
      <trkpt lat="41.7968050" lon="2.9559900">
        <ele>161.6</ele>
        <time>2023-01-02T08:05:40Z</time>
      </trkpt>
      <trkpt lat="41.7967890" lon="2.9558910">
        <ele>162.0</ele>
        <time>2023-01-02T08:05:43Z</time>
      </trkpt>
      <trkpt lat="41.7968030" lon="2.9557860">
        <ele>162.4</ele>
        <time>2023-01-02T08:05:46Z</time>
      </trkpt>
      <trkpt lat="41.7968010" lon="2.9555530">
        <ele>163.0</ele>
        <time>2023-01-02T08:05:54Z</time>
      </trkpt>
      <trkpt lat="41.7967870" lon="2.9554970">
        <ele>163.2</ele>
        <time>2023-01-02T08:05:56Z</time>
      </trkpt>
      <trkpt lat="41.7967440" lon="2.9553720">
        <ele>163.4</ele>
        <time>2023-01-02T08:06:00Z</time>
      </trkpt>
      <trkpt lat="41.7966570" lon="2.9552480">
        <ele>164.4</ele>
        <time>2023-01-02T08:06:06Z</time>
      </trkpt>
      <trkpt lat="41.7966370" lon="2.9552310">
        <ele>164.4</ele>
        <time>2023-01-02T08:06:07Z</time>
      </trkpt>
      <trkpt lat="41.7965010" lon="2.9551200">
        <ele>165.4</ele>
        <time>2023-01-02T08:06:14Z</time>
      </trkpt>
      <trkpt lat="41.7964790" lon="2.9551100">
        <ele>165.4</ele>
        <time>2023-01-02T08:06:15Z</time>
      </trkpt>
      <trkpt lat="41.7963110" lon="2.9550170">
        <ele>166.4</ele>
        <time>2023-01-02T08:06:23Z</time>
      </trkpt>
      <trkpt lat="41.7962920" lon="2.9549980">
        <ele>166.4</ele>
        <time>2023-01-02T08:06:24Z</time>
      </trkpt>
      <trkpt lat="41.7961600" lon="2.9548710">
        <ele>166.8</ele>
        <time>2023-01-02T08:06:30Z</time>
      </trkpt>
      <trkpt lat="41.7960340" lon="2.9548110">
        <ele>167.4</ele>
        <time>2023-01-02T08:06:35Z</time>
      </trkpt>
      <trkpt lat="41.7960100" lon="2.9548020">
        <ele>167.6</ele>
        <time>2023-01-02T08:06:36Z</time>
      </trkpt>
      <trkpt lat="41.7958360" lon="2.9547570">
        <ele>168.8</ele>
        <time>2023-01-02T08:06:43Z</time>
      </trkpt>
      <trkpt lat="41.7957840" lon="2.9547470">
        <ele>169.2</ele>
        <time>2023-01-02T08:06:45Z</time>
      </trkpt>
      <trkpt lat="41.7957370" lon="2.9547480">
        <ele>169.8</ele>
        <time>2023-01-02T08:06:47Z</time>
      </trkpt>
      <trkpt lat="41.7956440" lon="2.9547690">
        <ele>170.8</ele>
        <time>2023-01-02T08:06:52Z</time>
      </trkpt>
      <trkpt lat="41.7956260" lon="2.9547790">
        <ele>171.2</ele>
        <time>2023-01-02T08:06:53Z</time>
      </trkpt>
      <trkpt lat="41.7955720" lon="2.9548130">
        <ele>171.8</ele>
        <time>2023-01-02T08:06:56Z</time>
      </trkpt>
      <trkpt lat="41.7955050" lon="2.9548540">
        <ele>172.8</ele>
        <time>2023-01-02T08:07:00Z</time>
      </trkpt>
      <trkpt lat="41.7954690" lon="2.9548680">
        <ele>173.6</ele>
        <time>2023-01-02T08:07:02Z</time>
      </trkpt>
      <trkpt lat="41.7954310" lon="2.9548750">
        <ele>174.0</ele>
        <time>2023-01-02T08:07:04Z</time>
      </trkpt>
      <trkpt lat="41.7953410" lon="2.9549150">
        <ele>175.0</ele>
        <time>2023-01-02T08:07:09Z</time>
      </trkpt>
      <trkpt lat="41.7953240" lon="2.9549260">
        <ele>175.2</ele>
        <time>2023-01-02T08:07:10Z</time>
      </trkpt>
      <trkpt lat="41.7952260" lon="2.9550150">
        <ele>176.2</ele>
        <time>2023-01-02T08:07:16Z</time>
      </trkpt>
      <trkpt lat="41.7952140" lon="2.9550340">
        <ele>176.2</ele>
        <time>2023-01-02T08:07:17Z</time>
      </trkpt>
      <trkpt lat="41.7951750" lon="2.9551750">
        <ele>177.2</ele>
        <time>2023-01-02T08:07:23Z</time>
      </trkpt>
      <trkpt lat="41.7951250" lon="2.9552880">
        <ele>178.2</ele>
        <time>2023-01-02T08:07:28Z</time>
      </trkpt>
      <trkpt lat="41.7951200" lon="2.9553090">
        <ele>178.4</ele>
        <time>2023-01-02T08:07:29Z</time>
      </trkpt>
      <trkpt lat="41.7950790" lon="2.9553940">
        <ele>179.4</ele>
        <time>2023-01-02T08:07:33Z</time>
      </trkpt>
      <trkpt lat="41.7950370" lon="2.9554410">
        <ele>180.0</ele>
        <time>2023-01-02T08:07:36Z</time>
      </trkpt>
      <trkpt lat="41.7950070" lon="2.9554810">
        <ele>180.4</ele>
        <time>2023-01-02T08:07:39Z</time>
      </trkpt>
      <trkpt lat="41.7949760" lon="2.9555010">
        <ele>180.8</ele>
        <time>2023-01-02T08:07:41Z</time>
      </trkpt>
      <trkpt lat="41.7949330" lon="2.9555340">
        <ele>181.4</ele>
        <time>2023-01-02T08:07:44Z</time>
      </trkpt>
      <trkpt lat="41.7949180" lon="2.9555460">
        <ele>181.6</ele>
        <time>2023-01-02T08:07:45Z</time>
      </trkpt>
      <trkpt lat="41.7947660" lon="2.9555880">
        <ele>182.4</ele>
        <time>2023-01-02T08:07:53Z</time>
      </trkpt>
      <trkpt lat="41.7947400" lon="2.9555850">
        <ele>182.6</ele>
        <time>2023-01-02T08:07:54Z</time>
      </trkpt>
      <trkpt lat="41.7946660" lon="2.9554940">
        <ele>182.8</ele>
        <time>2023-01-02T08:07:58Z</time>
      </trkpt>
      <trkpt lat="41.7946670" lon="2.9553760">
        <ele>183.0</ele>
        <time>2023-01-02T08:08:02Z</time>
      </trkpt>
      <trkpt lat="41.7946540" lon="2.9552220">
        <ele>183.6</ele>
        <time>2023-01-02T08:08:07Z</time>
      </trkpt>
      <trkpt lat="41.7946390" lon="2.9551540">
        <ele>184.0</ele>
        <time>2023-01-02T08:08:10Z</time>
      </trkpt>
      <trkpt lat="41.7946620" lon="2.9550390">
        <ele>184.8</ele>
        <time>2023-01-02T08:08:15Z</time>
      </trkpt>
      <trkpt lat="41.7946830" lon="2.9549910">
        <ele>185.0</ele>
        <time>2023-01-02T08:08:17Z</time>
      </trkpt>
      <trkpt lat="41.7946880" lon="2.9548640">
        <ele>185.6</ele>
        <time>2023-01-02T08:08:22Z</time>
      </trkpt>
      <trkpt lat="41.7946430" lon="2.9548120">
        <ele>185.8</ele>
        <time>2023-01-02T08:08:25Z</time>
      </trkpt>
      <trkpt lat="41.7946050" lon="2.9547910">
        <ele>186.0</ele>
        <time>2023-01-02T08:08:27Z</time>
      </trkpt>
      <trkpt lat="41.7945680" lon="2.9547800">
        <ele>186.0</ele>
        <time>2023-01-02T08:08:29Z</time>
      </trkpt>
      <trkpt lat="41.7945120" lon="2.9547660">
        <ele>186.8</ele>
        <time>2023-01-02T08:08:32Z</time>
      </trkpt>
      <trkpt lat="41.7944940" lon="2.9547580">
        <ele>187.0</ele>
        <time>2023-01-02T08:08:33Z</time>
      </trkpt>
      <trkpt lat="41.7943950" lon="2.9547000">
        <ele>187.8</ele>
        <time>2023-01-02T08:08:39Z</time>
      </trkpt>
      <trkpt lat="41.7943690" lon="2.9546780">
        <ele>188.2</ele>
        <time>2023-01-02T08:08:41Z</time>
      </trkpt>
      <trkpt lat="41.7943290" lon="2.9546500">
        <ele>189.0</ele>
        <time>2023-01-02T08:08:44Z</time>
      </trkpt>
      <trkpt lat="41.7942700" lon="2.9546230">
        <ele>189.4</ele>
        <time>2023-01-02T08:08:48Z</time>
      </trkpt>
      <trkpt lat="41.7942270" lon="2.9546030">
        <ele>190.0</ele>
        <time>2023-01-02T08:08:51Z</time>
      </trkpt>
      <trkpt lat="41.7941520" lon="2.9545610">
        <ele>190.8</ele>
        <time>2023-01-02T08:08:56Z</time>
      </trkpt>
      <trkpt lat="41.7940900" lon="2.9545270">
        <ele>191.0</ele>
        <time>2023-01-02T08:09:00Z</time>
      </trkpt>
      <trkpt lat="41.7940450" lon="2.9544940">
        <ele>191.2</ele>
        <time>2023-01-02T08:09:03Z</time>
      </trkpt>
      <trkpt lat="41.7940360" lon="2.9544660">
        <ele>191.2</ele>
        <time>2023-01-02T08:09:05Z</time>
      </trkpt>
      <trkpt lat="41.7940420" lon="2.9544000">
        <ele>191.2</ele>
        <time>2023-01-02T08:09:08Z</time>
      </trkpt>
      <trkpt lat="41.7940560" lon="2.9543790">
        <ele>191.2</ele>
        <time>2023-01-02T08:09:09Z</time>
      </trkpt>
      <trkpt lat="41.7941230" lon="2.9543300">
        <ele>191.2</ele>
        <time>2023-01-02T08:09:12Z</time>
      </trkpt>
      <trkpt lat="41.7942780" lon="2.9542500">
        <ele>191.6</ele>
        <time>2023-01-02T08:09:18Z</time>
      </trkpt>
      <trkpt lat="41.7943800" lon="2.9542920">
        <ele>191.8</ele>
        <time>2023-01-02T08:09:23Z</time>
      </trkpt>
      <trkpt lat="41.7944710" lon="2.9543010">
        <ele>192.2</ele>
        <time>2023-01-02T08:09:27Z</time>
      </trkpt>
      <trkpt lat="41.7945320" lon="2.9542970">
        <ele>192.6</ele>
        <time>2023-01-02T08:09:30Z</time>
      </trkpt>
      <trkpt lat="41.7946510" lon="2.9542200">
        <ele>193.0</ele>
        <time>2023-01-02T08:09:36Z</time>
      </trkpt>
      <trkpt lat="41.7947070" lon="2.9541850">
        <ele>193.2</ele>
        <time>2023-01-02T08:09:39Z</time>
      </trkpt>
      <trkpt lat="41.7947900" lon="2.9541390">
        <ele>194.0</ele>
        <time>2023-01-02T08:09:43Z</time>
      </trkpt>
      <trkpt lat="41.7948260" lon="2.9541190">
        <ele>194.4</ele>
        <time>2023-01-02T08:09:45Z</time>
      </trkpt>
      <trkpt lat="41.7949270" lon="2.9540360">
        <ele>195.0</ele>
        <time>2023-01-02T08:09:51Z</time>
      </trkpt>
      <trkpt lat="41.7949800" lon="2.9539650">
        <ele>195.4</ele>
        <time>2023-01-02T08:09:55Z</time>
      </trkpt>
      <trkpt lat="41.7950260" lon="2.9539160">
        <ele>196.0</ele>
        <time>2023-01-02T08:09:58Z</time>
      </trkpt>
      <trkpt lat="41.7951220" lon="2.9538130">
        <ele>196.4</ele>
        <time>2023-01-02T08:10:05Z</time>
      </trkpt>
      <trkpt lat="41.7951450" lon="2.9537940">
        <ele>196.6</ele>
        <time>2023-01-02T08:10:07Z</time>
      </trkpt>
      <trkpt lat="41.7952150" lon="2.9537200">
        <ele>197.0</ele>
        <time>2023-01-02T08:10:12Z</time>
      </trkpt>
      <trkpt lat="41.7952780" lon="2.9536620">
        <ele>197.8</ele>
        <time>2023-01-02T08:10:16Z</time>
      </trkpt>
      <trkpt lat="41.7953150" lon="2.9536360">
        <ele>198.0</ele>
        <time>2023-01-02T08:10:18Z</time>
      </trkpt>
      <trkpt lat="41.7953900" lon="2.9535810">
        <ele>198.8</ele>
        <time>2023-01-02T08:10:22Z</time>
      </trkpt>
      <trkpt lat="41.7954260" lon="2.9534970">
        <ele>199.6</ele>
        <time>2023-01-02T08:10:26Z</time>
      </trkpt>
      <trkpt lat="41.7954280" lon="2.9534710">
        <ele>200.0</ele>
        <time>2023-01-02T08:10:27Z</time>
      </trkpt>
      <trkpt lat="41.7953920" lon="2.9533250">
        <ele>200.6</ele>
        <time>2023-01-02T08:10:33Z</time>
      </trkpt>
      <trkpt lat="41.7953500" lon="2.9532520">
        <ele>201.0</ele>
        <time>2023-01-02T08:10:37Z</time>
      </trkpt>
      <trkpt lat="41.7953260" lon="2.9531860">
        <ele>201.6</ele>
        <time>2023-01-02T08:10:40Z</time>
      </trkpt>
      <trkpt lat="41.7953120" lon="2.9531240">
        <ele>202.0</ele>
        <time>2023-01-02T08:10:43Z</time>
      </trkpt>
      <trkpt lat="41.7952910" lon="2.9530140">
        <ele>203.2</ele>
        <time>2023-01-02T08:10:48Z</time>
      </trkpt>
      <trkpt lat="41.7952860" lon="2.9528480">
        <ele>204.4</ele>
        <time>2023-01-02T08:10:55Z</time>
      </trkpt>
      <trkpt lat="41.7952920" lon="2.9528230">
        <ele>204.8</ele>
        <time>2023-01-02T08:10:56Z</time>
      </trkpt>
      <trkpt lat="41.7953180" lon="2.9527500">
        <ele>205.2</ele>
        <time>2023-01-02T08:10:59Z</time>
      </trkpt>
      <trkpt lat="41.7953220" lon="2.9526960">
        <ele>205.6</ele>
        <time>2023-01-02T08:11:01Z</time>
      </trkpt>
      <trkpt lat="41.7953220" lon="2.9526680">
        <ele>205.6</ele>
        <time>2023-01-02T08:11:02Z</time>
      </trkpt>
      <trkpt lat="41.7952850" lon="2.9525140">
        <ele>206.6</ele>
        <time>2023-01-02T08:11:08Z</time>
      </trkpt>
      <trkpt lat="41.7952790" lon="2.9524870">
        <ele>206.8</ele>
        <time>2023-01-02T08:11:09Z</time>
      </trkpt>
      <trkpt lat="41.7952510" lon="2.9523390">
        <ele>208.0</ele>
        <time>2023-01-02T08:11:14Z</time>
      </trkpt>
      <trkpt lat="41.7952480" lon="2.9523020">
        <ele>208.0</ele>
        <time>2023-01-02T08:11:15Z</time>
      </trkpt>
      <trkpt lat="41.7951890" lon="2.9520820">
        <ele>208.8</ele>
        <time>2023-01-02T08:11:22Z</time>
      </trkpt>
      <trkpt lat="41.7951530" lon="2.9520320">
        <ele>209.0</ele>
        <time>2023-01-02T08:11:24Z</time>
      </trkpt>
      <trkpt lat="41.7950920" lon="2.9519490">
        <ele>209.6</ele>
        <time>2023-01-02T08:11:28Z</time>
      </trkpt>
      <trkpt lat="41.7950230" lon="2.9517950">
        <ele>210.0</ele>
        <time>2023-01-02T08:11:34Z</time>
      </trkpt>
      <trkpt lat="41.7949600" lon="2.9516980">
        <ele>211.0</ele>
        <time>2023-01-02T08:11:38Z</time>
      </trkpt>
      <trkpt lat="41.7949150" lon="2.9516180">
        <ele>211.6</ele>
        <time>2023-01-02T08:11:41Z</time>
      </trkpt>
      <trkpt lat="41.7948870" lon="2.9515460">
        <ele>212.4</ele>
        <time>2023-01-02T08:11:44Z</time>
      </trkpt>
      <trkpt lat="41.7948480" lon="2.9514540">
        <ele>213.0</ele>
        <time>2023-01-02T08:11:48Z</time>
      </trkpt>
      <trkpt lat="41.7948360" lon="2.9514340">
        <ele>213.4</ele>
        <time>2023-01-02T08:11:49Z</time>
      </trkpt>
      <trkpt lat="41.7947670" lon="2.9513330">
        <ele>214.4</ele>
        <time>2023-01-02T08:11:54Z</time>
      </trkpt>
      <trkpt lat="41.7947520" lon="2.9513170">
        <ele>214.8</ele>
        <time>2023-01-02T08:11:55Z</time>
      </trkpt>
      <trkpt lat="41.7947060" lon="2.9512710">
        <ele>215.6</ele>
        <time>2023-01-02T08:11:58Z</time>
      </trkpt>
      <trkpt lat="41.7946450" lon="2.9512050">
        <ele>216.6</ele>
        <time>2023-01-02T08:12:02Z</time>
      </trkpt>
      <trkpt lat="41.7946360" lon="2.9511850">
        <ele>216.6</ele>
        <time>2023-01-02T08:12:03Z</time>
      </trkpt>
      <trkpt lat="41.7946110" lon="2.9510840">
        <ele>217.8</ele>
        <time>2023-01-02T08:12:08Z</time>
      </trkpt>
      <trkpt lat="41.7945830" lon="2.9509430">
        <ele>218.8</ele>
        <time>2023-01-02T08:12:14Z</time>
      </trkpt>
      <trkpt lat="41.7945830" lon="2.9509110">
        <ele>219.0</ele>
        <time>2023-01-02T08:12:15Z</time>
      </trkpt>
      <trkpt lat="41.7945790" lon="2.9508280">
        <ele>220.0</ele>
        <time>2023-01-02T08:12:18Z</time>
      </trkpt>
      <trkpt lat="41.7945680" lon="2.9507460">
        <ele>221.0</ele>
        <time>2023-01-02T08:12:21Z</time>
      </trkpt>
      <trkpt lat="41.7945620" lon="2.9507220">
        <ele>221.2</ele>
        <time>2023-01-02T08:12:22Z</time>
      </trkpt>
      <trkpt lat="41.7945250" lon="2.9506290">
        <ele>222.0</ele>
        <time>2023-01-02T08:12:26Z</time>
      </trkpt>
      <trkpt lat="41.7944940" lon="2.9505720">
        <ele>222.4</ele>
        <time>2023-01-02T08:12:29Z</time>
      </trkpt>
      <trkpt lat="41.7944800" lon="2.9505610">
        <ele>222.6</ele>
        <time>2023-01-02T08:12:30Z</time>
      </trkpt>
      <trkpt lat="41.7944500" lon="2.9505450">
        <ele>223.0</ele>
        <time>2023-01-02T08:12:32Z</time>
      </trkpt>
      <trkpt lat="41.7944060" lon="2.9505100">
        <ele>223.8</ele>
        <time>2023-01-02T08:12:35Z</time>
      </trkpt>
      <trkpt lat="41.7943790" lon="2.9504860">
        <ele>224.4</ele>
        <time>2023-01-02T08:12:37Z</time>
      </trkpt>
      <trkpt lat="41.7942950" lon="2.9504030">
        <ele>225.4</ele>
        <time>2023-01-02T08:12:43Z</time>
      </trkpt>
      <trkpt lat="41.7942300" lon="2.9503780">
        <ele>226.4</ele>
        <time>2023-01-02T08:12:47Z</time>
      </trkpt>
      <trkpt lat="41.7941780" lon="2.9503590">
        <ele>227.2</ele>
        <time>2023-01-02T08:12:50Z</time>
      </trkpt>
      <trkpt lat="41.7941240" lon="2.9503410">
        <ele>227.4</ele>
        <time>2023-01-02T08:12:53Z</time>
      </trkpt>
      <trkpt lat="41.7940560" lon="2.9503280">
        <ele>228.4</ele>
        <time>2023-01-02T08:12:57Z</time>
      </trkpt>
      <trkpt lat="41.7940370" lon="2.9503260">
        <ele>228.6</ele>
        <time>2023-01-02T08:12:58Z</time>
      </trkpt>
      <trkpt lat="41.7939230" lon="2.9503240">
        <ele>229.8</ele>
        <time>2023-01-02T08:13:04Z</time>
      </trkpt>
      <trkpt lat="41.7939040" lon="2.9503190">
        <ele>229.8</ele>
        <time>2023-01-02T08:13:05Z</time>
      </trkpt>
      <trkpt lat="41.7938570" lon="2.9502370">
        <ele>230.6</ele>
        <time>2023-01-02T08:13:10Z</time>
      </trkpt>
      <trkpt lat="41.7938740" lon="2.9501820">
        <ele>230.8</ele>
        <time>2023-01-02T08:13:12Z</time>
      </trkpt>
      <trkpt lat="41.7939230" lon="2.9501440">
        <ele>231.0</ele>
        <time>2023-01-02T08:13:15Z</time>
      </trkpt>
      <trkpt lat="41.7940600" lon="2.9500310">
        <ele>232.0</ele>
        <time>2023-01-02T08:13:22Z</time>
      </trkpt>
      <trkpt lat="41.7941360" lon="2.9499490">
        <ele>233.2</ele>
        <time>2023-01-02T08:13:27Z</time>
      </trkpt>
      <trkpt lat="41.7941660" lon="2.9499150">
        <ele>233.6</ele>
        <time>2023-01-02T08:13:29Z</time>
      </trkpt>
      <trkpt lat="41.7941970" lon="2.9498830">
        <ele>233.8</ele>
        <time>2023-01-02T08:13:31Z</time>
      </trkpt>
      <trkpt lat="41.7942310" lon="2.9498400">
        <ele>234.2</ele>
        <time>2023-01-02T08:13:33Z</time>
      </trkpt>
      <trkpt lat="41.7942470" lon="2.9497800">
        <ele>234.4</ele>
        <time>2023-01-02T08:13:35Z</time>
      </trkpt>
      <trkpt lat="41.7941980" lon="2.9496430">
        <ele>234.8</ele>
        <time>2023-01-02T08:13:40Z</time>
      </trkpt>
      <trkpt lat="41.7941580" lon="2.9495680">
        <ele>235.4</ele>
        <time>2023-01-02T08:13:43Z</time>
      </trkpt>
      <trkpt lat="41.7941230" lon="2.9494500">
        <ele>236.0</ele>
        <time>2023-01-02T08:13:47Z</time>
      </trkpt>
      <trkpt lat="41.7941120" lon="2.9493430">
        <ele>236.4</ele>
        <time>2023-01-02T08:13:50Z</time>
      </trkpt>
      <trkpt lat="41.7941060" lon="2.9492360">
        <ele>237.0</ele>
        <time>2023-01-02T08:13:53Z</time>
      </trkpt>
      <trkpt lat="41.7940950" lon="2.9491710">
        <ele>237.6</ele>
        <time>2023-01-02T08:13:55Z</time>
      </trkpt>
      <trkpt lat="41.7940910" lon="2.9490010">
        <ele>238.6</ele>
        <time>2023-01-02T08:14:01Z</time>
      </trkpt>
      <trkpt lat="41.7940490" lon="2.9487680">
        <ele>239.8</ele>
        <time>2023-01-02T08:14:09Z</time>
      </trkpt>
      <trkpt lat="41.7940950" lon="2.9486010">
        <ele>240.4</ele>
        <time>2023-01-02T08:14:14Z</time>
      </trkpt>
      <trkpt lat="41.7941520" lon="2.9485290">
        <ele>240.8</ele>
        <time>2023-01-02T08:14:17Z</time>
      </trkpt>
      <trkpt lat="41.7942010" lon="2.9484720">
        <ele>241.2</ele>
        <time>2023-01-02T08:14:20Z</time>
      </trkpt>
      <trkpt lat="41.7942670" lon="2.9483890">
        <ele>241.6</ele>
        <time>2023-01-02T08:14:25Z</time>
      </trkpt>
      <trkpt lat="41.7942800" lon="2.9483850">
        <ele>241.8</ele>
        <time>2023-01-02T08:14:26Z</time>
      </trkpt>
      <trkpt lat="41.7943490" lon="2.9483450">
        <ele>242.4</ele>
        <time>2023-01-02T08:14:32Z</time>
      </trkpt>
      <trkpt lat="41.7943320" lon="2.9483200">
        <ele>242.8</ele>
        <time>2023-01-02T08:14:34Z</time>
      </trkpt>
      <trkpt lat="41.7943030" lon="2.9482890">
        <ele>243.4</ele>
        <time>2023-01-02T08:14:36Z</time>
      </trkpt>
      <trkpt lat="41.7942750" lon="2.9482660">
        <ele>243.8</ele>
        <time>2023-01-02T08:14:38Z</time>
      </trkpt>
      <trkpt lat="41.7942330" lon="2.9482130">
        <ele>245.2</ele>
        <time>2023-01-02T08:14:42Z</time>
      </trkpt>
      <trkpt lat="41.7942190" lon="2.9481970">
        <ele>245.4</ele>
        <time>2023-01-02T08:14:43Z</time>
      </trkpt>
      <trkpt lat="41.7941690" lon="2.9481310">
        <ele>246.2</ele>
        <time>2023-01-02T08:14:47Z</time>
      </trkpt>
      <trkpt lat="41.7941100" lon="2.9480750">
        <ele>247.2</ele>
        <time>2023-01-02T08:14:51Z</time>
      </trkpt>
      <trkpt lat="41.7940960" lon="2.9480590">
        <ele>247.2</ele>
        <time>2023-01-02T08:14:52Z</time>
      </trkpt>
      <trkpt lat="41.7939820" lon="2.9479840">
        <ele>247.6</ele>
        <time>2023-01-02T08:14:59Z</time>
      </trkpt>
      <trkpt lat="41.7938790" lon="2.9478880">
        <ele>247.8</ele>
        <time>2023-01-02T08:15:04Z</time>
      </trkpt>
      <trkpt lat="41.7937200" lon="2.9476860">
        <ele>247.6</ele>
        <time>2023-01-02T08:15:11Z</time>
      </trkpt>
      <trkpt lat="41.7935900" lon="2.9475110">
        <ele>247.8</ele>
        <time>2023-01-02T08:15:17Z</time>
      </trkpt>
      <trkpt lat="41.7934780" lon="2.9474030">
        <ele>248.2</ele>
        <time>2023-01-02T08:15:21Z</time>
      </trkpt>
      <trkpt lat="41.7933770" lon="2.9473290">
        <ele>248.4</ele>
        <time>2023-01-02T08:15:24Z</time>
      </trkpt>
      <trkpt lat="41.7932340" lon="2.9471640">
        <ele>248.2</ele>
        <time>2023-01-02T08:15:29Z</time>
      </trkpt>
      <trkpt lat="41.7931690" lon="2.9470010">
        <ele>248.6</ele>
        <time>2023-01-02T08:15:35Z</time>
      </trkpt>
      <trkpt lat="41.7931540" lon="2.9469490">
        <ele>249.4</ele>
        <time>2023-01-02T08:15:37Z</time>
      </trkpt>
      <trkpt lat="41.7931080" lon="2.9467680">
        <ele>249.8</ele>
        <time>2023-01-02T08:15:42Z</time>
      </trkpt>
      <trkpt lat="41.7930620" lon="2.9464870">
        <ele>249.4</ele>
        <time>2023-01-02T08:15:47Z</time>
      </trkpt>
      <trkpt lat="41.7930090" lon="2.9462190">
        <ele>248.6</ele>
        <time>2023-01-02T08:15:52Z</time>
      </trkpt>
      <trkpt lat="41.7929840" lon="2.9461070">
        <ele>248.4</ele>
        <time>2023-01-02T08:15:54Z</time>
      </trkpt>
      <trkpt lat="41.7929390" lon="2.9459240">
        <ele>248.4</ele>
        <time>2023-01-02T08:15:58Z</time>
      </trkpt>
      <trkpt lat="41.7929110" lon="2.9458360">
        <ele>248.4</ele>
        <time>2023-01-02T08:16:00Z</time>
      </trkpt>
      <trkpt lat="41.7928130" lon="2.9456400">
        <ele>248.4</ele>
        <time>2023-01-02T08:16:05Z</time>
      </trkpt>
      <trkpt lat="41.7927050" lon="2.9454010">
        <ele>249.6</ele>
        <time>2023-01-02T08:16:13Z</time>
      </trkpt>
      <trkpt lat="41.7926190" lon="2.9451280">
        <ele>249.6</ele>
        <time>2023-01-02T08:16:20Z</time>
      </trkpt>
      <trkpt lat="41.7924580" lon="2.9447920">
        <ele>248.8</ele>
        <time>2023-01-02T08:16:27Z</time>
      </trkpt>
      <trkpt lat="41.7923780" lon="2.9445910">
        <ele>248.6</ele>
        <time>2023-01-02T08:16:31Z</time>
      </trkpt>
      <trkpt lat="41.7923690" lon="2.9445460">
        <ele>248.4</ele>
        <time>2023-01-02T08:16:32Z</time>
      </trkpt>
      <trkpt lat="41.7923240" lon="2.9442500">
        <ele>248.6</ele>
        <time>2023-01-02T08:16:38Z</time>
      </trkpt>
      <trkpt lat="41.7922170" lon="2.9439800">
        <ele>249.2</ele>
        <time>2023-01-02T08:16:44Z</time>
      </trkpt>
      <trkpt lat="41.7920770" lon="2.9437850">
        <ele>250.2</ele>
        <time>2023-01-02T08:16:50Z</time>
      </trkpt>
      <trkpt lat="41.7920260" lon="2.9437320">
        <ele>250.4</ele>
        <time>2023-01-02T08:16:52Z</time>
      </trkpt>
      <trkpt lat="41.7919050" lon="2.9435710">
        <ele>251.2</ele>
        <time>2023-01-02T08:16:57Z</time>
      </trkpt>
      <trkpt lat="41.7918240" lon="2.9434770">
        <ele>251.6</ele>
        <time>2023-01-02T08:17:00Z</time>
      </trkpt>
      <trkpt lat="41.7917230" lon="2.9433490">
        <ele>252.2</ele>
        <time>2023-01-02T08:17:04Z</time>
      </trkpt>
      <trkpt lat="41.7915660" lon="2.9431510">
        <ele>252.4</ele>
        <time>2023-01-02T08:17:11Z</time>
      </trkpt>
      <trkpt lat="41.7915000" lon="2.9430710">
        <ele>252.8</ele>
        <time>2023-01-02T08:17:14Z</time>
      </trkpt>
      <trkpt lat="41.7914130" lon="2.9429070">
        <ele>253.0</ele>
        <time>2023-01-02T08:17:19Z</time>
      </trkpt>
      <trkpt lat="41.7914610" lon="2.9427450">
        <ele>253.4</ele>
        <time>2023-01-02T08:17:23Z</time>
      </trkpt>
      <trkpt lat="41.7915450" lon="2.9426560">
        <ele>253.8</ele>
        <time>2023-01-02T08:17:26Z</time>
      </trkpt>
      <trkpt lat="41.7916350" lon="2.9425850">
        <ele>254.2</ele>
        <time>2023-01-02T08:17:29Z</time>
      </trkpt>
      <trkpt lat="41.7918760" lon="2.9424180">
        <ele>254.8</ele>
        <time>2023-01-02T08:17:37Z</time>
      </trkpt>
      <trkpt lat="41.7920070" lon="2.9423210">
        <ele>254.4</ele>
        <time>2023-01-02T08:17:41Z</time>
      </trkpt>
      <trkpt lat="41.7920890" lon="2.9422490">
        <ele>254.2</ele>
        <time>2023-01-02T08:17:44Z</time>
      </trkpt>
      <trkpt lat="41.7923240" lon="2.9419950">
        <ele>254.0</ele>
        <time>2023-01-02T08:17:52Z</time>
      </trkpt>
      <trkpt lat="41.7923960" lon="2.9418460">
        <ele>253.8</ele>
        <time>2023-01-02T08:17:56Z</time>
      </trkpt>
      <trkpt lat="41.7924140" lon="2.9417480">
        <ele>253.6</ele>
        <time>2023-01-02T08:17:58Z</time>
      </trkpt>
      <trkpt lat="41.7924010" lon="2.9415500">
        <ele>253.6</ele>
        <time>2023-01-02T08:18:02Z</time>
      </trkpt>
      <trkpt lat="41.7923840" lon="2.9415030">
        <ele>253.6</ele>
        <time>2023-01-02T08:18:03Z</time>
      </trkpt>
      <trkpt lat="41.7922460" lon="2.9413010">
        <ele>253.6</ele>
        <time>2023-01-02T08:18:08Z</time>
      </trkpt>
      <trkpt lat="41.7920610" lon="2.9410810">
        <ele>253.6</ele>
        <time>2023-01-02T08:18:14Z</time>
      </trkpt>
      <trkpt lat="41.7918540" lon="2.9408690">
        <ele>253.2</ele>
        <time>2023-01-02T08:18:20Z</time>
      </trkpt>
      <trkpt lat="41.7916970" lon="2.9406090">
        <ele>253.2</ele>
        <time>2023-01-02T08:18:26Z</time>
      </trkpt>
      <trkpt lat="41.7915520" lon="2.9403120">
        <ele>253.0</ele>
        <time>2023-01-02T08:18:32Z</time>
      </trkpt>
      <trkpt lat="41.7914910" lon="2.9402060">
        <ele>252.8</ele>
        <time>2023-01-02T08:18:34Z</time>
      </trkpt>
      <trkpt lat="41.7913230" lon="2.9399930">
        <ele>252.0</ele>
        <time>2023-01-02T08:18:38Z</time>
      </trkpt>
      <trkpt lat="41.7912230" lon="2.9399220">
        <ele>251.6</ele>
        <time>2023-01-02T08:18:40Z</time>
      </trkpt>
      <trkpt lat="41.7911470" lon="2.9398640">
        <ele>250.8</ele>
        <time>2023-01-02T08:18:42Z</time>
      </trkpt>
      <trkpt lat="41.7910820" lon="2.9398170">
        <ele>250.0</ele>
        <time>2023-01-02T08:18:44Z</time>
      </trkpt>
      <trkpt lat="41.7909990" lon="2.9398040">
        <ele>249.2</ele>
        <time>2023-01-02T08:18:46Z</time>
      </trkpt>
      <trkpt lat="41.7909630" lon="2.9398280">
        <ele>248.8</ele>
        <time>2023-01-02T08:18:47Z</time>
      </trkpt>
      <trkpt lat="41.7909300" lon="2.9398690">
        <ele>248.2</ele>
        <time>2023-01-02T08:18:48Z</time>
      </trkpt>
      <trkpt lat="41.7909010" lon="2.9399080">
        <ele>247.8</ele>
        <time>2023-01-02T08:18:49Z</time>
      </trkpt>
      <trkpt lat="41.7908760" lon="2.9399510">
        <ele>247.8</ele>
        <time>2023-01-02T08:18:50Z</time>
      </trkpt>
      <trkpt lat="41.7908490" lon="2.9400760">
        <ele>247.4</ele>
        <time>2023-01-02T08:18:52Z</time>
      </trkpt>
      <trkpt lat="41.7908240" lon="2.9402580">
        <ele>246.4</ele>
        <time>2023-01-02T08:18:55Z</time>
      </trkpt>
      <trkpt lat="41.7907980" lon="2.9404270">
        <ele>246.0</ele>
        <time>2023-01-02T08:18:58Z</time>
      </trkpt>
      <trkpt lat="41.7907650" lon="2.9405410">
        <ele>245.8</ele>
        <time>2023-01-02T08:19:00Z</time>
      </trkpt>
      <trkpt lat="41.7907100" lon="2.9406580">
        <ele>245.8</ele>
        <time>2023-01-02T08:19:02Z</time>
      </trkpt>
      <trkpt lat="41.7905460" lon="2.9409010">
        <ele>246.4</ele>
        <time>2023-01-02T08:19:07Z</time>
      </trkpt>
      <trkpt lat="41.7904940" lon="2.9409550">
        <ele>246.8</ele>
        <time>2023-01-02T08:19:09Z</time>
      </trkpt>
      <trkpt lat="41.7903230" lon="2.9410650">
        <ele>247.6</ele>
        <time>2023-01-02T08:19:15Z</time>
      </trkpt>
      <trkpt lat="41.7902110" lon="2.9410470">
        <ele>248.6</ele>
        <time>2023-01-02T08:19:20Z</time>
      </trkpt>
      <trkpt lat="41.7901900" lon="2.9410400">
        <ele>248.8</ele>
        <time>2023-01-02T08:19:21Z</time>
      </trkpt>
      <trkpt lat="41.7901050" lon="2.9410110">
        <ele>250.2</ele>
        <time>2023-01-02T08:19:25Z</time>
      </trkpt>
      <trkpt lat="41.7900670" lon="2.9410030">
        <ele>250.6</ele>
        <time>2023-01-02T08:19:27Z</time>
      </trkpt>
      <trkpt lat="41.7899910" lon="2.9409770">
        <ele>251.2</ele>
        <time>2023-01-02T08:19:31Z</time>
      </trkpt>
      <trkpt lat="41.7899290" lon="2.9409770">
        <ele>252.0</ele>
        <time>2023-01-02T08:19:34Z</time>
      </trkpt>
      <trkpt lat="41.7898830" lon="2.9409850">
        <ele>252.6</ele>
        <time>2023-01-02T08:19:36Z</time>
      </trkpt>
      <trkpt lat="41.7898030" lon="2.9409910">
        <ele>253.8</ele>
        <time>2023-01-02T08:19:40Z</time>
      </trkpt>
      <trkpt lat="41.7897650" lon="2.9409900">
        <ele>254.2</ele>
        <time>2023-01-02T08:19:42Z</time>
      </trkpt>
      <trkpt lat="41.7896540" lon="2.9410000">
        <ele>254.8</ele>
        <time>2023-01-02T08:19:48Z</time>
      </trkpt>
      <trkpt lat="41.7895680" lon="2.9410130">
        <ele>255.8</ele>
        <time>2023-01-02T08:19:53Z</time>
      </trkpt>
      <trkpt lat="41.7895520" lon="2.9410160">
        <ele>256.0</ele>
        <time>2023-01-02T08:19:54Z</time>
      </trkpt>
      <trkpt lat="41.7894470" lon="2.9410500">
        <ele>257.0</ele>
        <time>2023-01-02T08:20:01Z</time>
      </trkpt>
      <trkpt lat="41.7894300" lon="2.9410540">
        <ele>257.2</ele>
        <time>2023-01-02T08:20:02Z</time>
      </trkpt>
      <trkpt lat="41.7893480" lon="2.9410740">
        <ele>258.0</ele>
        <time>2023-01-02T08:20:07Z</time>
      </trkpt>
      <trkpt lat="41.7893170" lon="2.9410900">
        <ele>258.2</ele>
        <time>2023-01-02T08:20:09Z</time>
      </trkpt>
      <trkpt lat="41.7892220" lon="2.9411460">
        <ele>258.6</ele>
        <time>2023-01-02T08:20:15Z</time>
      </trkpt>
      <trkpt lat="41.7891670" lon="2.9412610">
        <ele>259.2</ele>
        <time>2023-01-02T08:20:21Z</time>
      </trkpt>
      <trkpt lat="41.7891590" lon="2.9413140">
        <ele>259.4</ele>
        <time>2023-01-02T08:20:23Z</time>
      </trkpt>
      <trkpt lat="41.7891500" lon="2.9414660">
        <ele>259.8</ele>
        <time>2023-01-02T08:20:29Z</time>
      </trkpt>
      <trkpt lat="41.7891790" lon="2.9416400">
        <ele>260.2</ele>
        <time>2023-01-02T08:20:37Z</time>
      </trkpt>
      <trkpt lat="41.7891900" lon="2.9416780">
        <ele>260.8</ele>
        <time>2023-01-02T08:20:39Z</time>
      </trkpt>
      <trkpt lat="41.7892280" lon="2.9417840">
        <ele>261.8</ele>
        <time>2023-01-02T08:20:45Z</time>
      </trkpt>
      <trkpt lat="41.7892240" lon="2.9418410">
        <ele>262.2</ele>
        <time>2023-01-02T08:20:48Z</time>
      </trkpt>
      <trkpt lat="41.7892120" lon="2.9418620">
        <ele>262.2</ele>
        <time>2023-01-02T08:20:49Z</time>
      </trkpt>
      <trkpt lat="41.7891650" lon="2.9419240">
        <ele>262.8</ele>
        <time>2023-01-02T08:20:53Z</time>
      </trkpt>
      <trkpt lat="41.7891170" lon="2.9419980">
        <ele>263.8</ele>
        <time>2023-01-02T08:20:57Z</time>
      </trkpt>
      <trkpt lat="41.7891070" lon="2.9420150">
        <ele>264.0</ele>
        <time>2023-01-02T08:20:58Z</time>
      </trkpt>
      <trkpt lat="41.7890750" lon="2.9421420">
        <ele>265.2</ele>
        <time>2023-01-02T08:21:04Z</time>
      </trkpt>
      <trkpt lat="41.7890160" lon="2.9422770">
        <ele>266.4</ele>
        <time>2023-01-02T08:21:11Z</time>
      </trkpt>
      <trkpt lat="41.7889500" lon="2.9424600">
        <ele>267.4</ele>
        <time>2023-01-02T08:21:19Z</time>
      </trkpt>
      <trkpt lat="41.7889410" lon="2.9424820">
        <ele>267.6</ele>
        <time>2023-01-02T08:21:20Z</time>
      </trkpt>
      <trkpt lat="41.7888980" lon="2.9425940">
        <ele>268.2</ele>
        <time>2023-01-02T08:21:25Z</time>
      </trkpt>
      <trkpt lat="41.7888380" lon="2.9427140">
        <ele>268.6</ele>
        <time>2023-01-02T08:21:31Z</time>
      </trkpt>
      <trkpt lat="41.7887970" lon="2.9427530">
        <ele>269.2</ele>
        <time>2023-01-02T08:21:34Z</time>
      </trkpt>
      <trkpt lat="41.7887490" lon="2.9428070">
        <ele>269.6</ele>
        <time>2023-01-02T08:21:38Z</time>
      </trkpt>
      <trkpt lat="41.7886960" lon="2.9428820">
        <ele>270.2</ele>
        <time>2023-01-02T08:21:43Z</time>
      </trkpt>
      <trkpt lat="41.7886430" lon="2.9429690">
        <ele>271.0</ele>
        <time>2023-01-02T08:21:48Z</time>
      </trkpt>
      <trkpt lat="41.7886060" lon="2.9430420">
        <ele>271.2</ele>
        <time>2023-01-02T08:21:52Z</time>
      </trkpt>
      <trkpt lat="41.7885670" lon="2.9431130">
        <ele>272.0</ele>
        <time>2023-01-02T08:21:56Z</time>
      </trkpt>
      <trkpt lat="41.7885270" lon="2.9431680">
        <ele>272.6</ele>
        <time>2023-01-02T08:22:00Z</time>
      </trkpt>
      <trkpt lat="41.7884990" lon="2.9432140">
        <ele>273.0</ele>
        <time>2023-01-02T08:22:03Z</time>
      </trkpt>
      <trkpt lat="41.7884840" lon="2.9432810">
        <ele>273.6</ele>
        <time>2023-01-02T08:22:07Z</time>
      </trkpt>
      <trkpt lat="41.7884840" lon="2.9433210">
        <ele>274.0</ele>
        <time>2023-01-02T08:22:09Z</time>
      </trkpt>
      <trkpt lat="41.7884840" lon="2.9434350">
        <ele>274.6</ele>
        <time>2023-01-02T08:22:14Z</time>
      </trkpt>
      <trkpt lat="41.7884740" lon="2.9435190">
        <ele>275.2</ele>
        <time>2023-01-02T08:22:18Z</time>
      </trkpt>
      <trkpt lat="41.7884250" lon="2.9436290">
        <ele>275.6</ele>
        <time>2023-01-02T08:22:22Z</time>
      </trkpt>
      <trkpt lat="41.7882670" lon="2.9437230">
        <ele>275.6</ele>
        <time>2023-01-02T08:22:28Z</time>
      </trkpt>
      <trkpt lat="41.7880690" lon="2.9437970">
        <ele>275.6</ele>
        <time>2023-01-02T08:22:35Z</time>
      </trkpt>
      <trkpt lat="41.7879310" lon="2.9438050">
        <ele>275.8</ele>
        <time>2023-01-02T08:22:40Z</time>
      </trkpt>
      <trkpt lat="41.7879060" lon="2.9438070">
        <ele>275.8</ele>
        <time>2023-01-02T08:22:41Z</time>
      </trkpt>
      <trkpt lat="41.7877570" lon="2.9438450">
        <ele>276.0</ele>
        <time>2023-01-02T08:22:47Z</time>
      </trkpt>
      <trkpt lat="41.7876940" lon="2.9438730">
        <ele>276.0</ele>
        <time>2023-01-02T08:22:50Z</time>
      </trkpt>
      <trkpt lat="41.7876120" lon="2.9440410">
        <ele>275.6</ele>
        <time>2023-01-02T08:22:56Z</time>
      </trkpt>
      <trkpt lat="41.7876440" lon="2.9441410">
        <ele>275.6</ele>
        <time>2023-01-02T08:22:59Z</time>
      </trkpt>
      <trkpt lat="41.7876640" lon="2.9441690">
        <ele>275.6</ele>
        <time>2023-01-02T08:23:00Z</time>
      </trkpt>
      <trkpt lat="41.7878190" lon="2.9443150">
        <ele>276.0</ele>
        <time>2023-01-02T08:23:06Z</time>
      </trkpt>
      <trkpt lat="41.7879780" lon="2.9443230">
        <ele>275.6</ele>
        <time>2023-01-02T08:23:11Z</time>
      </trkpt>
      <trkpt lat="41.7881360" lon="2.9443390">
        <ele>275.4</ele>
        <time>2023-01-02T08:23:16Z</time>
      </trkpt>
      <trkpt lat="41.7883020" lon="2.9444590">
        <ele>275.4</ele>
        <time>2023-01-02T08:23:22Z</time>
      </trkpt>
      <trkpt lat="41.7884420" lon="2.9446500">
        <ele>275.4</ele>
        <time>2023-01-02T08:23:28Z</time>
      </trkpt>
      <trkpt lat="41.7884880" lon="2.9448770">
        <ele>275.2</ele>
        <time>2023-01-02T08:23:33Z</time>
      </trkpt>
      <trkpt lat="41.7885850" lon="2.9451230">
        <ele>275.2</ele>
        <time>2023-01-02T08:23:39Z</time>
      </trkpt>
      <trkpt lat="41.7887190" lon="2.9452890">
        <ele>275.8</ele>
        <time>2023-01-02T08:23:45Z</time>
      </trkpt>
      <trkpt lat="41.7887820" lon="2.9453630">
        <ele>276.2</ele>
        <time>2023-01-02T08:23:48Z</time>
      </trkpt>
      <trkpt lat="41.7888660" lon="2.9454410">
        <ele>276.6</ele>
        <time>2023-01-02T08:23:52Z</time>
      </trkpt>
      <trkpt lat="41.7889650" lon="2.9454530">
        <ele>277.4</ele>
        <time>2023-01-02T08:23:56Z</time>
      </trkpt>
      <trkpt lat="41.7890160" lon="2.9454480">
        <ele>277.4</ele>
        <time>2023-01-02T08:23:58Z</time>
      </trkpt>
      <trkpt lat="41.7891690" lon="2.9454990">
        <ele>278.4</ele>
        <time>2023-01-02T08:24:05Z</time>
      </trkpt>
      <trkpt lat="41.7893430" lon="2.9456140">
        <ele>279.2</ele>
        <time>2023-01-02T08:24:13Z</time>
      </trkpt>
      <trkpt lat="41.7893600" lon="2.9456330">
        <ele>279.4</ele>
        <time>2023-01-02T08:24:14Z</time>
      </trkpt>
      <trkpt lat="41.7894020" lon="2.9457690">
        <ele>280.2</ele>
        <time>2023-01-02T08:24:19Z</time>
      </trkpt>
      <trkpt lat="41.7893880" lon="2.9458330">
        <ele>280.4</ele>
        <time>2023-01-02T08:24:21Z</time>
      </trkpt>
      <trkpt lat="41.7893390" lon="2.9459130">
        <ele>280.6</ele>
        <time>2023-01-02T08:24:24Z</time>
      </trkpt>
      <trkpt lat="41.7892130" lon="2.9460750">
        <ele>281.0</ele>
        <time>2023-01-02T08:24:31Z</time>
      </trkpt>
      <trkpt lat="41.7890660" lon="2.9462850">
        <ele>281.4</ele>
        <time>2023-01-02T08:24:39Z</time>
      </trkpt>
      <trkpt lat="41.7889340" lon="2.9464220">
        <ele>281.6</ele>
        <time>2023-01-02T08:24:46Z</time>
      </trkpt>
      <trkpt lat="41.7888790" lon="2.9465910">
        <ele>281.8</ele>
        <time>2023-01-02T08:24:52Z</time>
      </trkpt>
      <trkpt lat="41.7889050" lon="2.9467560">
        <ele>282.2</ele>
        <time>2023-01-02T08:24:58Z</time>
      </trkpt>
      <trkpt lat="41.7889520" lon="2.9469140">
        <ele>282.4</ele>
        <time>2023-01-02T08:25:04Z</time>
      </trkpt>
      <trkpt lat="41.7889890" lon="2.9469510">
        <ele>282.6</ele>
        <time>2023-01-02T08:25:06Z</time>
      </trkpt>
      <trkpt lat="41.7890880" lon="2.9470080">
        <ele>282.6</ele>
        <time>2023-01-02T08:25:10Z</time>
      </trkpt>
      <trkpt lat="41.7892120" lon="2.9471180">
        <ele>283.0</ele>
        <time>2023-01-02T08:25:16Z</time>
      </trkpt>
      <trkpt lat="41.7892330" lon="2.9472670">
        <ele>283.6</ele>
        <time>2023-01-02T08:25:21Z</time>
      </trkpt>
      <trkpt lat="41.7892300" lon="2.9472950">
        <ele>283.8</ele>
        <time>2023-01-02T08:25:22Z</time>
      </trkpt>
      <trkpt lat="41.7891790" lon="2.9475060">
        <ele>284.6</ele>
        <time>2023-01-02T08:25:29Z</time>
      </trkpt>
      <trkpt lat="41.7891540" lon="2.9475720">
        <ele>284.6</ele>
        <time>2023-01-02T08:25:32Z</time>
      </trkpt>
      <trkpt lat="41.7891360" lon="2.9476420">
        <ele>284.8</ele>
        <time>2023-01-02T08:25:35Z</time>
      </trkpt>
      <trkpt lat="41.7891090" lon="2.9478650">
        <ele>285.6</ele>
        <time>2023-01-02T08:25:42Z</time>
      </trkpt>
      <trkpt lat="41.7891080" lon="2.9478950">
        <ele>285.8</ele>
        <time>2023-01-02T08:25:43Z</time>
      </trkpt>
      <trkpt lat="41.7891050" lon="2.9481030">
        <ele>286.6</ele>
        <time>2023-01-02T08:25:49Z</time>
      </trkpt>
      <trkpt lat="41.7891330" lon="2.9483360">
        <ele>286.4</ele>
        <time>2023-01-02T08:25:55Z</time>
      </trkpt>
      <trkpt lat="41.7892440" lon="2.9486310">
        <ele>286.8</ele>
        <time>2023-01-02T08:26:04Z</time>
      </trkpt>
      <trkpt lat="41.7892720" lon="2.9486860">
        <ele>287.0</ele>
        <time>2023-01-02T08:26:06Z</time>
      </trkpt>
      <trkpt lat="41.7893590" lon="2.9488690">
        <ele>287.6</ele>
        <time>2023-01-02T08:26:12Z</time>
      </trkpt>
      <trkpt lat="41.7894050" lon="2.9490010">
        <ele>288.0</ele>
        <time>2023-01-02T08:26:16Z</time>
      </trkpt>
      <trkpt lat="41.7894530" lon="2.9491590">
        <ele>288.6</ele>
        <time>2023-01-02T08:26:21Z</time>
      </trkpt>
      <trkpt lat="41.7895210" lon="2.9493780">
        <ele>289.2</ele>
        <time>2023-01-02T08:26:28Z</time>
      </trkpt>
      <trkpt lat="41.7895290" lon="2.9494100">
        <ele>289.4</ele>
        <time>2023-01-02T08:26:29Z</time>
      </trkpt>
      <trkpt lat="41.7896020" lon="2.9496520">
        <ele>290.0</ele>
        <time>2023-01-02T08:26:37Z</time>
      </trkpt>
      <trkpt lat="41.7896150" lon="2.9497110">
        <ele>290.4</ele>
        <time>2023-01-02T08:26:39Z</time>
      </trkpt>
      <trkpt lat="41.7896300" lon="2.9499030">
        <ele>291.4</ele>
        <time>2023-01-02T08:26:46Z</time>
      </trkpt>
      <trkpt lat="41.7896240" lon="2.9501170">
        <ele>292.0</ele>
        <time>2023-01-02T08:26:53Z</time>
      </trkpt>
      <trkpt lat="41.7896290" lon="2.9502510">
        <ele>292.6</ele>
        <time>2023-01-02T08:26:57Z</time>
      </trkpt>
      <trkpt lat="41.7896650" lon="2.9503660">
        <ele>293.6</ele>
        <time>2023-01-02T08:27:01Z</time>
      </trkpt>
      <trkpt lat="41.7896810" lon="2.9503890">
        <ele>293.6</ele>
        <time>2023-01-02T08:27:02Z</time>
      </trkpt>
      <trkpt lat="41.7897850" lon="2.9504570">
        <ele>294.2</ele>
        <time>2023-01-02T08:27:07Z</time>
      </trkpt>
      <trkpt lat="41.7898790" lon="2.9504880">
        <ele>294.8</ele>
        <time>2023-01-02T08:27:11Z</time>
      </trkpt>
      <trkpt lat="41.7898960" lon="2.9505080">
        <ele>295.0</ele>
        <time>2023-01-02T08:27:12Z</time>
      </trkpt>
      <trkpt lat="41.7899950" lon="2.9506920">
        <ele>295.8</ele>
        <time>2023-01-02T08:27:19Z</time>
      </trkpt>
      <trkpt lat="41.7900680" lon="2.9508060">
        <ele>296.8</ele>
        <time>2023-01-02T08:27:24Z</time>
      </trkpt>
      <trkpt lat="41.7900910" lon="2.9508540">
        <ele>297.2</ele>
        <time>2023-01-02T08:27:26Z</time>
      </trkpt>
      <trkpt lat="41.7900930" lon="2.9508790">
        <ele>297.4</ele>
        <time>2023-01-02T08:27:27Z</time>
      </trkpt>
      <trkpt lat="41.7900740" lon="2.9509900">
        <ele>298.0</ele>
        <time>2023-01-02T08:27:31Z</time>
      </trkpt>
      <trkpt lat="41.7900770" lon="2.9510360">
        <ele>298.4</ele>
        <time>2023-01-02T08:27:33Z</time>
      </trkpt>
      <trkpt lat="41.7901100" lon="2.9510990">
        <ele>298.8</ele>
        <time>2023-01-02T08:27:36Z</time>
      </trkpt>
      <trkpt lat="41.7902490" lon="2.9511930">
        <ele>299.0</ele>
        <time>2023-01-02T08:27:42Z</time>
      </trkpt>
      <trkpt lat="41.7903220" lon="2.9513080">
        <ele>299.0</ele>
        <time>2023-01-02T08:27:46Z</time>
      </trkpt>
      <trkpt lat="41.7903230" lon="2.9513460">
        <ele>299.0</ele>
        <time>2023-01-02T08:27:47Z</time>
      </trkpt>
      <trkpt lat="41.7903180" lon="2.9513840">
        <ele>299.0</ele>
        <time>2023-01-02T08:27:48Z</time>
      </trkpt>
      <trkpt lat="41.7902970" lon="2.9515410">
        <ele>299.2</ele>
        <time>2023-01-02T08:27:52Z</time>
      </trkpt>
      <trkpt lat="41.7903530" lon="2.9517280">
        <ele>299.4</ele>
        <time>2023-01-02T08:27:57Z</time>
      </trkpt>
      <trkpt lat="41.7903630" lon="2.9517640">
        <ele>299.6</ele>
        <time>2023-01-02T08:27:58Z</time>
      </trkpt>
      <trkpt lat="41.7904010" lon="2.9519370">
        <ele>300.2</ele>
        <time>2023-01-02T08:28:03Z</time>
      </trkpt>
      <trkpt lat="41.7904200" lon="2.9520440">
        <ele>300.6</ele>
        <time>2023-01-02T08:28:06Z</time>
      </trkpt>
      <trkpt lat="41.7904960" lon="2.9522350">
        <ele>301.0</ele>
        <time>2023-01-02T08:28:12Z</time>
      </trkpt>
      <trkpt lat="41.7905080" lon="2.9522660">
        <ele>301.2</ele>
        <time>2023-01-02T08:28:13Z</time>
      </trkpt>
      <trkpt lat="41.7905600" lon="2.9524610">
        <ele>302.0</ele>
        <time>2023-01-02T08:28:19Z</time>
      </trkpt>
      <trkpt lat="41.7905770" lon="2.9525610">
        <ele>302.4</ele>
        <time>2023-01-02T08:28:22Z</time>
      </trkpt>
      <trkpt lat="41.7906000" lon="2.9527470">
        <ele>303.0</ele>
        <time>2023-01-02T08:28:27Z</time>
      </trkpt>
      <trkpt lat="41.7905630" lon="2.9529560">
        <ele>303.0</ele>
        <time>2023-01-02T08:28:33Z</time>
      </trkpt>
      <trkpt lat="41.7904320" lon="2.9530970">
        <ele>303.4</ele>
        <time>2023-01-02T08:28:39Z</time>
      </trkpt>
      <trkpt lat="41.7903770" lon="2.9531040">
        <ele>303.4</ele>
        <time>2023-01-02T08:28:41Z</time>
      </trkpt>
      <trkpt lat="41.7902430" lon="2.9531120">
        <ele>303.4</ele>
        <time>2023-01-02T08:28:45Z</time>
      </trkpt>
      <trkpt lat="41.7901250" lon="2.9532040">
        <ele>304.2</ele>
        <time>2023-01-02T08:28:50Z</time>
      </trkpt>
      <trkpt lat="41.7900860" lon="2.9532920">
        <ele>304.4</ele>
        <time>2023-01-02T08:28:53Z</time>
      </trkpt>
      <trkpt lat="41.7900600" lon="2.9533740">
        <ele>304.6</ele>
        <time>2023-01-02T08:28:56Z</time>
      </trkpt>
      <trkpt lat="41.7900390" lon="2.9535940">
        <ele>305.8</ele>
        <time>2023-01-02T08:29:03Z</time>
      </trkpt>
      <trkpt lat="41.7900310" lon="2.9536600">
        <ele>306.4</ele>
        <time>2023-01-02T08:29:05Z</time>
      </trkpt>
      <trkpt lat="41.7899870" lon="2.9537430">
        <ele>306.6</ele>
        <time>2023-01-02T08:29:08Z</time>
      </trkpt>
      <trkpt lat="41.7899360" lon="2.9537600">
        <ele>306.8</ele>
        <time>2023-01-02T08:29:10Z</time>
      </trkpt>
      <trkpt lat="41.7899110" lon="2.9537470">
        <ele>307.0</ele>
        <time>2023-01-02T08:29:11Z</time>
      </trkpt>
      <trkpt lat="41.7897740" lon="2.9535930">
        <ele>307.6</ele>
        <time>2023-01-02T08:29:17Z</time>
      </trkpt>
      <trkpt lat="41.7896060" lon="2.9533580">
        <ele>307.4</ele>
        <time>2023-01-02T08:29:24Z</time>
      </trkpt>
      <trkpt lat="41.7894580" lon="2.9531530">
        <ele>307.2</ele>
        <time>2023-01-02T08:29:31Z</time>
      </trkpt>
      <trkpt lat="41.7892970" lon="2.9530950">
        <ele>308.0</ele>
        <time>2023-01-02T08:29:38Z</time>
      </trkpt>
      <trkpt lat="41.7892730" lon="2.9530960">
        <ele>308.0</ele>
        <time>2023-01-02T08:29:39Z</time>
      </trkpt>
      <trkpt lat="41.7891510" lon="2.9531280">
        <ele>309.2</ele>
        <time>2023-01-02T08:29:44Z</time>
      </trkpt>
      <trkpt lat="41.7891260" lon="2.9531360">
        <ele>309.4</ele>
        <time>2023-01-02T08:29:45Z</time>
      </trkpt>
      <trkpt lat="41.7889470" lon="2.9531500">
        <ele>310.2</ele>
        <time>2023-01-02T08:29:51Z</time>
      </trkpt>
      <trkpt lat="41.7888940" lon="2.9531320">
        <ele>310.4</ele>
        <time>2023-01-02T08:29:53Z</time>
      </trkpt>
      <trkpt lat="41.7887630" lon="2.9530520">
        <ele>310.2</ele>
        <time>2023-01-02T08:29:59Z</time>
      </trkpt>
      <trkpt lat="41.7887040" lon="2.9530440">
        <ele>310.2</ele>
        <time>2023-01-02T08:30:01Z</time>
      </trkpt>
      <trkpt lat="41.7886360" lon="2.9530890">
        <ele>309.8</ele>
        <time>2023-01-02T08:30:03Z</time>
      </trkpt>
      <trkpt lat="41.7885050" lon="2.9532290">
        <ele>309.4</ele>
        <time>2023-01-02T08:30:07Z</time>
      </trkpt>
      <trkpt lat="41.7884660" lon="2.9532570">
        <ele>309.2</ele>
        <time>2023-01-02T08:30:08Z</time>
      </trkpt>
      <trkpt lat="41.7884230" lon="2.9532680">
        <ele>309.0</ele>
        <time>2023-01-02T08:30:09Z</time>
      </trkpt>
      <trkpt lat="41.7883420" lon="2.9532320">
        <ele>308.8</ele>
        <time>2023-01-02T08:30:11Z</time>
      </trkpt>
      <trkpt lat="41.7882670" lon="2.9531130">
        <ele>308.4</ele>
        <time>2023-01-02T08:30:13Z</time>
      </trkpt>
      <trkpt lat="41.7882360" lon="2.9530450">
        <ele>308.4</ele>
        <time>2023-01-02T08:30:14Z</time>
      </trkpt>
      <trkpt lat="41.7882020" lon="2.9529820">
        <ele>308.4</ele>
        <time>2023-01-02T08:30:15Z</time>
      </trkpt>
      <trkpt lat="41.7881150" lon="2.9528820">
        <ele>308.2</ele>
        <time>2023-01-02T08:30:17Z</time>
      </trkpt>
      <trkpt lat="41.7880650" lon="2.9528630">
        <ele>308.0</ele>
        <time>2023-01-02T08:30:18Z</time>
      </trkpt>
      <trkpt lat="41.7880160" lon="2.9528460">
        <ele>308.0</ele>
        <time>2023-01-02T08:30:19Z</time>
      </trkpt>
      <trkpt lat="41.7877540" lon="2.9527600">
        <ele>308.0</ele>
        <time>2023-01-02T08:30:24Z</time>
      </trkpt>
      <trkpt lat="41.7876220" lon="2.9527200">
        <ele>308.0</ele>
        <time>2023-01-02T08:30:27Z</time>
      </trkpt>
      <trkpt lat="41.7874970" lon="2.9526890">
        <ele>308.6</ele>
        <time>2023-01-02T08:30:30Z</time>
      </trkpt>
      <trkpt lat="41.7874070" lon="2.9526680">
        <ele>309.0</ele>
        <time>2023-01-02T08:30:32Z</time>
      </trkpt>
      <trkpt lat="41.7873650" lon="2.9526700">
        <ele>309.2</ele>
        <time>2023-01-02T08:30:33Z</time>
      </trkpt>
      <trkpt lat="41.7872870" lon="2.9526990">
        <ele>309.4</ele>
        <time>2023-01-02T08:30:35Z</time>
      </trkpt>
      <trkpt lat="41.7870620" lon="2.9528430">
        <ele>309.8</ele>
        <time>2023-01-02T08:30:41Z</time>
      </trkpt>
      <trkpt lat="41.7870250" lon="2.9528760">
        <ele>309.6</ele>
        <time>2023-01-02T08:30:42Z</time>
      </trkpt>
      <trkpt lat="41.7869720" lon="2.9529610">
        <ele>309.6</ele>
        <time>2023-01-02T08:30:44Z</time>
      </trkpt>
      <trkpt lat="41.7869550" lon="2.9530080">
        <ele>309.6</ele>
        <time>2023-01-02T08:30:45Z</time>
      </trkpt>
      <trkpt lat="41.7869420" lon="2.9532830">
        <ele>309.0</ele>
        <time>2023-01-02T08:30:50Z</time>
      </trkpt>
      <trkpt lat="41.7869460" lon="2.9534930">
        <ele>308.6</ele>
        <time>2023-01-02T08:30:53Z</time>
      </trkpt>
      <trkpt lat="41.7869170" lon="2.9536210">
        <ele>307.8</ele>
        <time>2023-01-02T08:30:55Z</time>
      </trkpt>
      <trkpt lat="41.7868530" lon="2.9537360">
        <ele>307.6</ele>
        <time>2023-01-02T08:30:57Z</time>
      </trkpt>
      <trkpt lat="41.7868000" lon="2.9537650">
        <ele>307.4</ele>
        <time>2023-01-02T08:30:58Z</time>
      </trkpt>
      <trkpt lat="41.7867370" lon="2.9537720">
        <ele>307.0</ele>
        <time>2023-01-02T08:30:59Z</time>
      </trkpt>
      <trkpt lat="41.7866770" lon="2.9537610">
        <ele>306.8</ele>
        <time>2023-01-02T08:31:00Z</time>
      </trkpt>
      <trkpt lat="41.7866150" lon="2.9537470">
        <ele>306.6</ele>
        <time>2023-01-02T08:31:01Z</time>
      </trkpt>
      <trkpt lat="41.7865510" lon="2.9537500">
        <ele>306.4</ele>
        <time>2023-01-02T08:31:02Z</time>
      </trkpt>
      <trkpt lat="41.7864340" lon="2.9537940">
        <ele>305.8</ele>
        <time>2023-01-02T08:31:04Z</time>
      </trkpt>
      <trkpt lat="41.7862640" lon="2.9539510">
        <ele>304.8</ele>
        <time>2023-01-02T08:31:07Z</time>
      </trkpt>
      <trkpt lat="41.7861910" lon="2.9539840">
        <ele>303.8</ele>
        <time>2023-01-02T08:31:08Z</time>
      </trkpt>
      <trkpt lat="41.7861190" lon="2.9539850">
        <ele>303.2</ele>
        <time>2023-01-02T08:31:09Z</time>
      </trkpt>
      <trkpt lat="41.7859930" lon="2.9539270">
        <ele>302.0</ele>
        <time>2023-01-02T08:31:11Z</time>
      </trkpt>
      <trkpt lat="41.7858210" lon="2.9538620">
        <ele>302.2</ele>
        <time>2023-01-02T08:31:15Z</time>
      </trkpt>
      <trkpt lat="41.7857310" lon="2.9538630">
        <ele>303.2</ele>
        <time>2023-01-02T08:31:18Z</time>
      </trkpt>
      <trkpt lat="41.7856530" lon="2.9538700">
        <ele>304.2</ele>
        <time>2023-01-02T08:31:21Z</time>
      </trkpt>
      <trkpt lat="41.7856370" lon="2.9538660">
        <ele>304.4</ele>
        <time>2023-01-02T08:31:22Z</time>
      </trkpt>
      <trkpt lat="41.7855610" lon="2.9538120">
        <ele>305.4</ele>
        <time>2023-01-02T08:31:27Z</time>
      </trkpt>
      <trkpt lat="41.7855140" lon="2.9537180">
        <ele>306.6</ele>
        <time>2023-01-02T08:31:31Z</time>
      </trkpt>
      <trkpt lat="41.7854880" lon="2.9536820">
        <ele>306.8</ele>
        <time>2023-01-02T08:31:33Z</time>
      </trkpt>
      <trkpt lat="41.7854420" lon="2.9536320">
        <ele>307.6</ele>
        <time>2023-01-02T08:31:36Z</time>
      </trkpt>
      <trkpt lat="41.7853790" lon="2.9535970">
        <ele>308.8</ele>
        <time>2023-01-02T08:31:39Z</time>
      </trkpt>
      <trkpt lat="41.7853360" lon="2.9535880">
        <ele>309.2</ele>
        <time>2023-01-02T08:31:41Z</time>
      </trkpt>
      <trkpt lat="41.7852710" lon="2.9535740">
        <ele>309.8</ele>
        <time>2023-01-02T08:31:44Z</time>
      </trkpt>
      <trkpt lat="41.7851960" lon="2.9535680">
        <ele>310.0</ele>
        <time>2023-01-02T08:31:47Z</time>
      </trkpt>
      <trkpt lat="41.7850340" lon="2.9536040">
        <ele>310.4</ele>
        <time>2023-01-02T08:31:53Z</time>
      </trkpt>
      <trkpt lat="41.7848820" lon="2.9536590">
        <ele>310.4</ele>
        <time>2023-01-02T08:31:59Z</time>
      </trkpt>
      <trkpt lat="41.7848050" lon="2.9537320">
        <ele>309.8</ele>
        <time>2023-01-02T08:32:04Z</time>
      </trkpt>
      <trkpt lat="41.7847850" lon="2.9538600">
        <ele>309.2</ele>
        <time>2023-01-02T08:32:09Z</time>
      </trkpt>
      <trkpt lat="41.7847710" lon="2.9539190">
        <ele>309.0</ele>
        <time>2023-01-02T08:32:10Z</time>
      </trkpt>
      <trkpt lat="41.7847510" lon="2.9539990">
        <ele>308.8</ele>
        <time>2023-01-02T08:32:11Z</time>
      </trkpt>
      <trkpt lat="41.7847230" lon="2.9540830">
        <ele>308.2</ele>
        <time>2023-01-02T08:32:12Z</time>
      </trkpt>
      <trkpt lat="41.7846940" lon="2.9541670">
        <ele>307.8</ele>
        <time>2023-01-02T08:32:13Z</time>
      </trkpt>
      <trkpt lat="41.7846710" lon="2.9542680">
        <ele>307.4</ele>
        <time>2023-01-02T08:32:14Z</time>
      </trkpt>
      <trkpt lat="41.7846530" lon="2.9543800">
        <ele>306.8</ele>
        <time>2023-01-02T08:32:15Z</time>
      </trkpt>
      <trkpt lat="41.7846460" lon="2.9544970">
        <ele>305.8</ele>
        <time>2023-01-02T08:32:16Z</time>
      </trkpt>
      <trkpt lat="41.7846510" lon="2.9546070">
        <ele>305.0</ele>
        <time>2023-01-02T08:32:17Z</time>
      </trkpt>
      <trkpt lat="41.7846600" lon="2.9547060">
        <ele>304.4</ele>
        <time>2023-01-02T08:32:18Z</time>
      </trkpt>
      <trkpt lat="41.7846770" lon="2.9547960">
        <ele>302.4</ele>
        <time>2023-01-02T08:32:19Z</time>
      </trkpt>
      <trkpt lat="41.7847110" lon="2.9548670">
        <ele>300.8</ele>
        <time>2023-01-02T08:32:20Z</time>
      </trkpt>
      <trkpt lat="41.7847630" lon="2.9549290">
        <ele>299.8</ele>
        <time>2023-01-02T08:32:21Z</time>
      </trkpt>
      <trkpt lat="41.7848210" lon="2.9549880">
        <ele>299.0</ele>
        <time>2023-01-02T08:32:22Z</time>
      </trkpt>
      <trkpt lat="41.7848790" lon="2.9550490">
        <ele>297.8</ele>
        <time>2023-01-02T08:32:23Z</time>
      </trkpt>
      <trkpt lat="41.7849360" lon="2.9551220">
        <ele>296.4</ele>
        <time>2023-01-02T08:32:24Z</time>
      </trkpt>
      <trkpt lat="41.7850550" lon="2.9552720">
        <ele>294.8</ele>
        <time>2023-01-02T08:32:26Z</time>
      </trkpt>
      <trkpt lat="41.7851900" lon="2.9554210">
        <ele>293.0</ele>
        <time>2023-01-02T08:32:28Z</time>
      </trkpt>
      <trkpt lat="41.7853750" lon="2.9556260">
        <ele>291.6</ele>
        <time>2023-01-02T08:32:31Z</time>
      </trkpt>
      <trkpt lat="41.7854130" lon="2.9556790">
        <ele>291.2</ele>
        <time>2023-01-02T08:32:32Z</time>
      </trkpt>
      <trkpt lat="41.7854820" lon="2.9557480">
        <ele>291.0</ele>
        <time>2023-01-02T08:32:34Z</time>
      </trkpt>
      <trkpt lat="41.7855510" lon="2.9558200">
        <ele>290.4</ele>
        <time>2023-01-02T08:32:36Z</time>
      </trkpt>
      <trkpt lat="41.7856680" lon="2.9558900">
        <ele>289.8</ele>
        <time>2023-01-02T08:32:39Z</time>
      </trkpt>
      <trkpt lat="41.7856980" lon="2.9559190">
        <ele>289.2</ele>
        <time>2023-01-02T08:32:40Z</time>
      </trkpt>
      <trkpt lat="41.7857070" lon="2.9559650">
        <ele>288.8</ele>
        <time>2023-01-02T08:32:41Z</time>
      </trkpt>
      <trkpt lat="41.7857060" lon="2.9560180">
        <ele>288.2</ele>
        <time>2023-01-02T08:32:42Z</time>
      </trkpt>
      <trkpt lat="41.7857220" lon="2.9561510">
        <ele>287.4</ele>
        <time>2023-01-02T08:32:44Z</time>
      </trkpt>
      <trkpt lat="41.7857480" lon="2.9562200">
        <ele>286.8</ele>
        <time>2023-01-02T08:32:45Z</time>
      </trkpt>
      <trkpt lat="41.7857840" lon="2.9562750">
        <ele>286.4</ele>
        <time>2023-01-02T08:32:46Z</time>
      </trkpt>
      <trkpt lat="41.7858650" lon="2.9563670">
        <ele>286.0</ele>
        <time>2023-01-02T08:32:48Z</time>
      </trkpt>
      <trkpt lat="41.7859020" lon="2.9563980">
        <ele>286.0</ele>
        <time>2023-01-02T08:32:49Z</time>
      </trkpt>
      <trkpt lat="41.7859880" lon="2.9565430">
        <ele>286.2</ele>
        <time>2023-01-02T08:32:53Z</time>
      </trkpt>
      <trkpt lat="41.7859820" lon="2.9566230">
        <ele>286.4</ele>
        <time>2023-01-02T08:32:55Z</time>
      </trkpt>
      <trkpt lat="41.7859640" lon="2.9566360">
        <ele>286.4</ele>
        <time>2023-01-02T08:32:56Z</time>
      </trkpt>
      <trkpt lat="41.7859110" lon="2.9566500">
        <ele>286.6</ele>
        <time>2023-01-02T08:32:58Z</time>
      </trkpt>
      <trkpt lat="41.7858670" lon="2.9566260">
        <ele>286.8</ele>
        <time>2023-01-02T08:33:00Z</time>
      </trkpt>
      <trkpt lat="41.7857960" lon="2.9565940">
        <ele>287.6</ele>
        <time>2023-01-02T08:33:03Z</time>
      </trkpt>
      <trkpt lat="41.7857350" lon="2.9565860">
        <ele>288.0</ele>
        <time>2023-01-02T08:33:05Z</time>
      </trkpt>
      <trkpt lat="41.7857030" lon="2.9565830">
        <ele>288.0</ele>
        <time>2023-01-02T08:33:06Z</time>
      </trkpt>
      <trkpt lat="41.7856550" lon="2.9565780">
        <ele>289.2</ele>
        <time>2023-01-02T08:33:08Z</time>
      </trkpt>
      <trkpt lat="41.7855680" lon="2.9565680">
        <ele>290.4</ele>
        <time>2023-01-02T08:33:12Z</time>
      </trkpt>
      <trkpt lat="41.7854100" lon="2.9565660">
        <ele>290.8</ele>
        <time>2023-01-02T08:33:18Z</time>
      </trkpt>
      <trkpt lat="41.7852340" lon="2.9565640">
        <ele>291.2</ele>
        <time>2023-01-02T08:33:25Z</time>
      </trkpt>
      <trkpt lat="41.7850780" lon="2.9565320">
        <ele>290.8</ele>
        <time>2023-01-02T08:33:30Z</time>
      </trkpt>
      <trkpt lat="41.7849520" lon="2.9565380">
        <ele>290.8</ele>
        <time>2023-01-02T08:33:36Z</time>
      </trkpt>
      <trkpt lat="41.7848970" lon="2.9565860">
        <ele>292.0</ele>
        <time>2023-01-02T08:33:39Z</time>
      </trkpt>
      <trkpt lat="41.7848820" lon="2.9566010">
        <ele>293.2</ele>
        <time>2023-01-02T08:33:41Z</time>
      </trkpt>
      <trkpt lat="41.7848740" lon="2.9566060">
        <ele>294.2</ele>
        <time>2023-01-02T08:33:44Z</time>
      </trkpt>
      <trkpt lat="41.7848590" lon="2.9566220">
        <ele>294.4</ele>
        <time>2023-01-02T08:33:48Z</time>
      </trkpt>
      <trkpt lat="41.7848470" lon="2.9566380">
        <ele>295.2</ele>
        <time>2023-01-02T08:33:50Z</time>
      </trkpt>
      <trkpt lat="41.7848130" lon="2.9566840">
        <ele>295.8</ele>
        <time>2023-01-02T08:33:54Z</time>
      </trkpt>
      <trkpt lat="41.7847600" lon="2.9567490">
        <ele>296.2</ele>
        <time>2023-01-02T08:33:58Z</time>
      </trkpt>
      <trkpt lat="41.7847120" lon="2.9567920">
        <ele>297.2</ele>
        <time>2023-01-02T08:34:02Z</time>
      </trkpt>
      <trkpt lat="41.7847000" lon="2.9568080">
        <ele>297.6</ele>
        <time>2023-01-02T08:34:03Z</time>
      </trkpt>
      <trkpt lat="41.7846430" lon="2.9568680">
        <ele>298.6</ele>
        <time>2023-01-02T08:34:08Z</time>
      </trkpt>
      <trkpt lat="41.7846300" lon="2.9568850">
        <ele>299.2</ele>
        <time>2023-01-02T08:34:09Z</time>
      </trkpt>
      <trkpt lat="41.7846100" lon="2.9569190">
        <ele>299.8</ele>
        <time>2023-01-02T08:34:11Z</time>
      </trkpt>
      <trkpt lat="41.7845690" lon="2.9570400">
        <ele>300.8</ele>
        <time>2023-01-02T08:34:17Z</time>
      </trkpt>
      <trkpt lat="41.7845860" lon="2.9571330">
        <ele>302.0</ele>
        <time>2023-01-02T08:34:21Z</time>
      </trkpt>
      <trkpt lat="41.7846030" lon="2.9571780">
        <ele>302.4</ele>
        <time>2023-01-02T08:34:23Z</time>
      </trkpt>
      <trkpt lat="41.7846220" lon="2.9572210">
        <ele>302.6</ele>
        <time>2023-01-02T08:34:25Z</time>
      </trkpt>
      <trkpt lat="41.7846460" lon="2.9572580">
        <ele>303.2</ele>
        <time>2023-01-02T08:34:27Z</time>
      </trkpt>
      <trkpt lat="41.7846740" lon="2.9573080">
        <ele>303.6</ele>
        <time>2023-01-02T08:34:30Z</time>
      </trkpt>
      <trkpt lat="41.7847060" lon="2.9573920">
        <ele>304.2</ele>
        <time>2023-01-02T08:34:34Z</time>
      </trkpt>
      <trkpt lat="41.7847290" lon="2.9574750">
        <ele>304.6</ele>
        <time>2023-01-02T08:34:38Z</time>
      </trkpt>
      <trkpt lat="41.7847420" lon="2.9575530">
        <ele>305.4</ele>
        <time>2023-01-02T08:34:41Z</time>
      </trkpt>
      <trkpt lat="41.7847470" lon="2.9576810">
        <ele>306.2</ele>
        <time>2023-01-02T08:34:46Z</time>
      </trkpt>
      <trkpt lat="41.7847450" lon="2.9577060">
        <ele>306.4</ele>
        <time>2023-01-02T08:34:47Z</time>
      </trkpt>
      <trkpt lat="41.7847430" lon="2.9578630">
        <ele>307.6</ele>
        <time>2023-01-02T08:34:53Z</time>
      </trkpt>
      <trkpt lat="41.7847090" lon="2.9580690">
        <ele>308.8</ele>
        <time>2023-01-02T08:35:01Z</time>
      </trkpt>
      <trkpt lat="41.7846910" lon="2.9581470">
        <ele>309.8</ele>
        <time>2023-01-02T08:35:05Z</time>
      </trkpt>
      <trkpt lat="41.7846680" lon="2.9581980">
        <ele>310.4</ele>
        <time>2023-01-02T08:35:08Z</time>
      </trkpt>
      <trkpt lat="41.7846480" lon="2.9582260">
        <ele>311.2</ele>
        <time>2023-01-02T08:35:10Z</time>
      </trkpt>
      <trkpt lat="41.7845890" lon="2.9582450">
        <ele>311.6</ele>
        <time>2023-01-02T08:35:14Z</time>
      </trkpt>
      <trkpt lat="41.7845410" lon="2.9582270">
        <ele>312.4</ele>
        <time>2023-01-02T08:35:17Z</time>
      </trkpt>
      <trkpt lat="41.7844800" lon="2.9581970">
        <ele>313.6</ele>
        <time>2023-01-02T08:35:21Z</time>
      </trkpt>
      <trkpt lat="41.7844030" lon="2.9581600">
        <ele>314.6</ele>
        <time>2023-01-02T08:35:26Z</time>
      </trkpt>
      <trkpt lat="41.7843770" lon="2.9581440">
        <ele>315.0</ele>
        <time>2023-01-02T08:35:28Z</time>
      </trkpt>
      <trkpt lat="41.7843380" lon="2.9581190">
        <ele>315.8</ele>
        <time>2023-01-02T08:35:31Z</time>
      </trkpt>
      <trkpt lat="41.7842990" lon="2.9581070">
        <ele>316.4</ele>
        <time>2023-01-02T08:35:34Z</time>
      </trkpt>
      <trkpt lat="41.7842590" lon="2.9580890">
        <ele>317.0</ele>
        <time>2023-01-02T08:35:37Z</time>
      </trkpt>
      <trkpt lat="41.7841940" lon="2.9580760">
        <ele>318.2</ele>
        <time>2023-01-02T08:35:41Z</time>
      </trkpt>
      <trkpt lat="41.7840710" lon="2.9580500">
        <ele>318.8</ele>
        <time>2023-01-02T08:35:47Z</time>
      </trkpt>
      <trkpt lat="41.7839550" lon="2.9580000">
        <ele>319.2</ele>
        <time>2023-01-02T08:35:52Z</time>
      </trkpt>
      <trkpt lat="41.7838980" lon="2.9579870">
        <ele>319.8</ele>
        <time>2023-01-02T08:35:55Z</time>
      </trkpt>
      <trkpt lat="41.7838520" lon="2.9579750">
        <ele>320.2</ele>
        <time>2023-01-02T08:35:57Z</time>
      </trkpt>
      <trkpt lat="41.7837470" lon="2.9579850">
        <ele>321.0</ele>
        <time>2023-01-02T08:36:02Z</time>
      </trkpt>
      <trkpt lat="41.7837280" lon="2.9579910">
        <ele>321.4</ele>
        <time>2023-01-02T08:36:03Z</time>
      </trkpt>
      <trkpt lat="41.7836640" lon="2.9580380">
        <ele>322.4</ele>
        <time>2023-01-02T08:36:07Z</time>
      </trkpt>
      <trkpt lat="41.7836330" lon="2.9580550">
        <ele>322.8</ele>
        <time>2023-01-02T08:36:09Z</time>
      </trkpt>
      <trkpt lat="41.7834860" lon="2.9581840">
        <ele>323.4</ele>
        <time>2023-01-02T08:36:16Z</time>
      </trkpt>
      <trkpt lat="41.7834270" lon="2.9582940">
        <ele>323.6</ele>
        <time>2023-01-02T08:36:20Z</time>
      </trkpt>
      <trkpt lat="41.7834120" lon="2.9583550">
        <ele>323.8</ele>
        <time>2023-01-02T08:36:22Z</time>
      </trkpt>
      <trkpt lat="41.7834140" lon="2.9585740">
        <ele>324.2</ele>
        <time>2023-01-02T08:36:28Z</time>
      </trkpt>
      <trkpt lat="41.7833920" lon="2.9586480">
        <ele>324.6</ele>
        <time>2023-01-02T08:36:30Z</time>
      </trkpt>
      <trkpt lat="41.7833700" lon="2.9586690">
        <ele>324.8</ele>
        <time>2023-01-02T08:36:31Z</time>
      </trkpt>
      <trkpt lat="41.7833500" lon="2.9586780">
        <ele>324.8</ele>
        <time>2023-01-02T08:36:32Z</time>
      </trkpt>
      <trkpt lat="41.7831880" lon="2.9586860">
        <ele>325.6</ele>
        <time>2023-01-02T08:36:38Z</time>
      </trkpt>
      <trkpt lat="41.7831170" lon="2.9587400">
        <ele>325.8</ele>
        <time>2023-01-02T08:36:41Z</time>
      </trkpt>
      <trkpt lat="41.7830890" lon="2.9587910">
        <ele>326.0</ele>
        <time>2023-01-02T08:36:43Z</time>
      </trkpt>
      <trkpt lat="41.7830160" lon="2.9589210">
        <ele>327.0</ele>
        <time>2023-01-02T08:36:48Z</time>
      </trkpt>
      <trkpt lat="41.7830000" lon="2.9589420">
        <ele>327.0</ele>
        <time>2023-01-02T08:36:49Z</time>
      </trkpt>
      <trkpt lat="41.7828740" lon="2.9590670">
        <ele>327.6</ele>
        <time>2023-01-02T08:36:55Z</time>
      </trkpt>
      <trkpt lat="41.7827900" lon="2.9589940">
        <ele>327.8</ele>
        <time>2023-01-02T08:36:59Z</time>
      </trkpt>
      <trkpt lat="41.7826940" lon="2.9588760">
        <ele>328.2</ele>
        <time>2023-01-02T08:37:04Z</time>
      </trkpt>
      <trkpt lat="41.7825960" lon="2.9587900">
        <ele>329.2</ele>
        <time>2023-01-02T08:37:09Z</time>
      </trkpt>
      <trkpt lat="41.7825610" lon="2.9587650">
        <ele>329.2</ele>
        <time>2023-01-02T08:37:11Z</time>
      </trkpt>
      <trkpt lat="41.7824720" lon="2.9586840">
        <ele>330.2</ele>
        <time>2023-01-02T08:37:15Z</time>
      </trkpt>
      <trkpt lat="41.7824250" lon="2.9586620">
        <ele>330.8</ele>
        <time>2023-01-02T08:37:17Z</time>
      </trkpt>
      <trkpt lat="41.7823780" lon="2.9586680">
        <ele>331.4</ele>
        <time>2023-01-02T08:37:19Z</time>
      </trkpt>
      <trkpt lat="41.7823260" lon="2.9587150">
        <ele>331.8</ele>
        <time>2023-01-02T08:37:22Z</time>
      </trkpt>
      <trkpt lat="41.7822980" lon="2.9587810">
        <ele>332.4</ele>
        <time>2023-01-02T08:37:25Z</time>
      </trkpt>
      <trkpt lat="41.7822570" lon="2.9588860">
        <ele>332.8</ele>
        <time>2023-01-02T08:37:29Z</time>
      </trkpt>
      <trkpt lat="41.7822240" lon="2.9590570">
        <ele>333.0</ele>
        <time>2023-01-02T08:37:35Z</time>
      </trkpt>
      <trkpt lat="41.7821790" lon="2.9593060">
        <ele>332.2</ele>
        <time>2023-01-02T08:37:42Z</time>
      </trkpt>
      <trkpt lat="41.7821390" lon="2.9595940">
        <ele>331.6</ele>
        <time>2023-01-02T08:37:48Z</time>
      </trkpt>
      <trkpt lat="41.7821170" lon="2.9597090">
        <ele>331.2</ele>
        <time>2023-01-02T08:37:50Z</time>
      </trkpt>
      <trkpt lat="41.7820490" lon="2.9597790">
        <ele>331.2</ele>
        <time>2023-01-02T08:37:52Z</time>
      </trkpt>
      <trkpt lat="41.7819680" lon="2.9598240">
        <ele>331.0</ele>
        <time>2023-01-02T08:37:54Z</time>
      </trkpt>
      <trkpt lat="41.7819070" lon="2.9598990">
        <ele>331.0</ele>
        <time>2023-01-02T08:37:56Z</time>
      </trkpt>
      <trkpt lat="41.7818960" lon="2.9600880">
        <ele>331.0</ele>
        <time>2023-01-02T08:38:00Z</time>
      </trkpt>
      <trkpt lat="41.7819250" lon="2.9604550">
        <ele>331.2</ele>
        <time>2023-01-02T08:38:07Z</time>
      </trkpt>
      <trkpt lat="41.7818650" lon="2.9605300">
        <ele>331.2</ele>
        <time>2023-01-02T08:38:09Z</time>
      </trkpt>
      <trkpt lat="41.7818250" lon="2.9605520">
        <ele>331.2</ele>
        <time>2023-01-02T08:38:10Z</time>
      </trkpt>
      <trkpt lat="41.7817850" lon="2.9605780">
        <ele>331.2</ele>
        <time>2023-01-02T08:38:11Z</time>
      </trkpt>
      <trkpt lat="41.7817060" lon="2.9607000">
        <ele>331.0</ele>
        <time>2023-01-02T08:38:14Z</time>
      </trkpt>
      <trkpt lat="41.7816830" lon="2.9608540">
        <ele>331.4</ele>
        <time>2023-01-02T08:38:17Z</time>
      </trkpt>
      <trkpt lat="41.7816890" lon="2.9609100">
        <ele>331.4</ele>
        <time>2023-01-02T08:38:18Z</time>
      </trkpt>
      <trkpt lat="41.7817000" lon="2.9609630">
        <ele>331.4</ele>
        <time>2023-01-02T08:38:19Z</time>
      </trkpt>
      <trkpt lat="41.7817190" lon="2.9610160">
        <ele>331.4</ele>
        <time>2023-01-02T08:38:20Z</time>
      </trkpt>
      <trkpt lat="41.7817450" lon="2.9610660">
        <ele>331.4</ele>
        <time>2023-01-02T08:38:21Z</time>
      </trkpt>
      <trkpt lat="41.7817710" lon="2.9611150">
        <ele>331.4</ele>
        <time>2023-01-02T08:38:22Z</time>
      </trkpt>
      <trkpt lat="41.7817950" lon="2.9611660">
        <ele>331.4</ele>
        <time>2023-01-02T08:38:23Z</time>
      </trkpt>
      <trkpt lat="41.7818090" lon="2.9613310">
        <ele>331.4</ele>
        <time>2023-01-02T08:38:26Z</time>
      </trkpt>
      <trkpt lat="41.7817140" lon="2.9615410">
        <ele>331.0</ele>
        <time>2023-01-02T08:38:30Z</time>
      </trkpt>
      <trkpt lat="41.7815750" lon="2.9618190">
        <ele>330.6</ele>
        <time>2023-01-02T08:38:35Z</time>
      </trkpt>
      <trkpt lat="41.7815410" lon="2.9618540">
        <ele>330.6</ele>
        <time>2023-01-02T08:38:36Z</time>
      </trkpt>
      <trkpt lat="41.7815020" lon="2.9618730">
        <ele>330.6</ele>
        <time>2023-01-02T08:38:37Z</time>
      </trkpt>
      <trkpt lat="41.7814200" lon="2.9618560">
        <ele>330.8</ele>
        <time>2023-01-02T08:38:39Z</time>
      </trkpt>
      <trkpt lat="41.7813030" lon="2.9618660">
        <ele>331.2</ele>
        <time>2023-01-02T08:38:42Z</time>
      </trkpt>
      <trkpt lat="41.7812690" lon="2.9619000">
        <ele>331.6</ele>
        <time>2023-01-02T08:38:43Z</time>
      </trkpt>
      <trkpt lat="41.7812380" lon="2.9619440">
        <ele>331.8</ele>
        <time>2023-01-02T08:38:44Z</time>
      </trkpt>
      <trkpt lat="41.7811100" lon="2.9621090">
        <ele>332.0</ele>
        <time>2023-01-02T08:38:48Z</time>
      </trkpt>
      <trkpt lat="41.7810630" lon="2.9621860">
        <ele>332.4</ele>
        <time>2023-01-02T08:38:50Z</time>
      </trkpt>
      <trkpt lat="41.7810350" lon="2.9622030">
        <ele>332.6</ele>
        <time>2023-01-02T08:38:51Z</time>
      </trkpt>
      <trkpt lat="41.7810070" lon="2.9621980">
        <ele>332.8</ele>
        <time>2023-01-02T08:38:52Z</time>
      </trkpt>
      <trkpt lat="41.7809820" lon="2.9621740">
        <ele>333.0</ele>
        <time>2023-01-02T08:38:53Z</time>
      </trkpt>
      <trkpt lat="41.7809390" lon="2.9621090">
        <ele>333.8</ele>
        <time>2023-01-02T08:38:55Z</time>
      </trkpt>
      <trkpt lat="41.7809130" lon="2.9620780">
        <ele>334.2</ele>
        <time>2023-01-02T08:38:56Z</time>
      </trkpt>
      <trkpt lat="41.7808380" lon="2.9620310">
        <ele>334.8</ele>
        <time>2023-01-02T08:38:59Z</time>
      </trkpt>
      <trkpt lat="41.7808120" lon="2.9620420">
        <ele>335.0</ele>
        <time>2023-01-02T08:39:00Z</time>
      </trkpt>
      <trkpt lat="41.7806530" lon="2.9621450">
        <ele>336.0</ele>
        <time>2023-01-02T08:39:05Z</time>
      </trkpt>
      <trkpt lat="41.7806230" lon="2.9621590">
        <ele>336.0</ele>
        <time>2023-01-02T08:39:06Z</time>
      </trkpt>
      <trkpt lat="41.7804770" lon="2.9622440">
        <ele>336.8</ele>
        <time>2023-01-02T08:39:11Z</time>
      </trkpt>
      <trkpt lat="41.7803740" lon="2.9624570">
        <ele>336.8</ele>
        <time>2023-01-02T08:39:16Z</time>
      </trkpt>
      <trkpt lat="41.7802660" lon="2.9625030">
        <ele>337.0</ele>
        <time>2023-01-02T08:39:20Z</time>
      </trkpt>
      <trkpt lat="41.7802430" lon="2.9624830">
        <ele>337.0</ele>
        <time>2023-01-02T08:39:21Z</time>
      </trkpt>
      <trkpt lat="41.7801770" lon="2.9624060">
        <ele>337.8</ele>
        <time>2023-01-02T08:39:24Z</time>
      </trkpt>
      <trkpt lat="41.7801190" lon="2.9623750">
        <ele>338.4</ele>
        <time>2023-01-02T08:39:26Z</time>
      </trkpt>
      <trkpt lat="41.7800120" lon="2.9623620">
        <ele>339.4</ele>
        <time>2023-01-02T08:39:29Z</time>
      </trkpt>
      <trkpt lat="41.7799750" lon="2.9623610">
        <ele>339.6</ele>
        <time>2023-01-02T08:39:30Z</time>
      </trkpt>
      <trkpt lat="41.7798040" lon="2.9624310">
        <ele>340.2</ele>
        <time>2023-01-02T08:39:35Z</time>
      </trkpt>
      <trkpt lat="41.7796280" lon="2.9626030">
        <ele>340.0</ele>
        <time>2023-01-02T08:39:40Z</time>
      </trkpt>
      <trkpt lat="41.7794960" lon="2.9626320">
        <ele>340.0</ele>
        <time>2023-01-02T08:39:44Z</time>
      </trkpt>
      <trkpt lat="41.7794170" lon="2.9625780">
        <ele>340.8</ele>
        <time>2023-01-02T08:39:47Z</time>
      </trkpt>
      <trkpt lat="41.7793580" lon="2.9625370">
        <ele>341.6</ele>
        <time>2023-01-02T08:39:49Z</time>
      </trkpt>
      <trkpt lat="41.7792550" lon="2.9624900">
        <ele>341.8</ele>
        <time>2023-01-02T08:39:52Z</time>
      </trkpt>
      <trkpt lat="41.7791800" lon="2.9624990">
        <ele>342.2</ele>
        <time>2023-01-02T08:39:54Z</time>
      </trkpt>
      <trkpt lat="41.7790410" lon="2.9625770">
        <ele>342.6</ele>
        <time>2023-01-02T08:39:58Z</time>
      </trkpt>
      <trkpt lat="41.7790080" lon="2.9625730">
        <ele>342.6</ele>
        <time>2023-01-02T08:39:59Z</time>
      </trkpt>
      <trkpt lat="41.7789450" lon="2.9625610">
        <ele>343.2</ele>
        <time>2023-01-02T08:40:01Z</time>
      </trkpt>
      <trkpt lat="41.7788330" lon="2.9625510">
        <ele>344.0</ele>
        <time>2023-01-02T08:40:05Z</time>
      </trkpt>
      <trkpt lat="41.7788070" lon="2.9625390">
        <ele>344.2</ele>
        <time>2023-01-02T08:40:06Z</time>
      </trkpt>
      <trkpt lat="41.7787250" lon="2.9625170">
        <ele>345.4</ele>
        <time>2023-01-02T08:40:10Z</time>
      </trkpt>
      <trkpt lat="41.7787080" lon="2.9625200">
        <ele>345.6</ele>
        <time>2023-01-02T08:40:11Z</time>
      </trkpt>
      <trkpt lat="41.7786650" lon="2.9625250">
        <ele>346.6</ele>
        <time>2023-01-02T08:40:14Z</time>
      </trkpt>
      <trkpt lat="41.7786550" lon="2.9625240">
        <ele>346.8</ele>
        <time>2023-01-02T08:40:17Z</time>
      </trkpt>
      <trkpt lat="41.7786200" lon="2.9625210">
        <ele>347.2</ele>
        <time>2023-01-02T08:40:23Z</time>
      </trkpt>
      <trkpt lat="41.7785860" lon="2.9625020">
        <ele>347.4</ele>
        <time>2023-01-02T08:40:29Z</time>
      </trkpt>
      <trkpt lat="41.7785760" lon="2.9624980">
        <ele>347.4</ele>
        <time>2023-01-02T08:40:30Z</time>
      </trkpt>
      <trkpt lat="41.7785620" lon="2.9624950">
        <ele>347.6</ele>
        <time>2023-01-02T08:40:31Z</time>
      </trkpt>
      <trkpt lat="41.7784840" lon="2.9625020">
        <ele>347.8</ele>
        <time>2023-01-02T08:40:35Z</time>
      </trkpt>
      <trkpt lat="41.7783400" lon="2.9624620">
        <ele>347.8</ele>
        <time>2023-01-02T08:40:41Z</time>
      </trkpt>
      <trkpt lat="41.7781790" lon="2.9624390">
        <ele>347.6</ele>
        <time>2023-01-02T08:40:46Z</time>
      </trkpt>
      <trkpt lat="41.7780920" lon="2.9624490">
        <ele>347.6</ele>
        <time>2023-01-02T08:40:49Z</time>
      </trkpt>
      <trkpt lat="41.7780570" lon="2.9625010">
        <ele>347.6</ele>
        <time>2023-01-02T08:40:51Z</time>
      </trkpt>
      <trkpt lat="41.7780290" lon="2.9625590">
        <ele>347.8</ele>
        <time>2023-01-02T08:40:54Z</time>
      </trkpt>
      <trkpt lat="41.7779930" lon="2.9625750">
        <ele>348.0</ele>
        <time>2023-01-02T08:40:56Z</time>
      </trkpt>
      <trkpt lat="41.7778630" lon="2.9625680">
        <ele>347.6</ele>
        <time>2023-01-02T08:41:00Z</time>
      </trkpt>
      <trkpt lat="41.7778410" lon="2.9625730">
        <ele>346.4</ele>
        <time>2023-01-02T08:41:02Z</time>
      </trkpt>
      <trkpt lat="41.7778410" lon="2.9625730">
        <ele>346.2</ele>
        <time>2023-01-02T08:41:03Z</time>
      </trkpt>
      <trkpt lat="41.7778510" lon="2.9625800">
        <ele>346.0</ele>
        <time>2023-01-02T08:41:13Z</time>
      </trkpt>
      <trkpt lat="41.7778510" lon="2.9625780">
        <ele>346.0</ele>
        <time>2023-01-02T08:41:16Z</time>
      </trkpt>
      <trkpt lat="41.7778490" lon="2.9625790">
        <ele>345.8</ele>
        <time>2023-01-02T08:41:23Z</time>
      </trkpt>
      <trkpt lat="41.7778480" lon="2.9625810">
        <ele>345.4</ele>
        <time>2023-01-02T08:41:26Z</time>
      </trkpt>
      <trkpt lat="41.7778480" lon="2.9625830">
        <ele>345.4</ele>
        <time>2023-01-02T08:41:28Z</time>
      </trkpt>
      <trkpt lat="41.7778460" lon="2.9625910">
        <ele>345.6</ele>
        <time>2023-01-02T08:41:35Z</time>
      </trkpt>
      <trkpt lat="41.7778450" lon="2.9625990">
        <ele>345.4</ele>
        <time>2023-01-02T08:41:39Z</time>
      </trkpt>
      <trkpt lat="41.7778440" lon="2.9626040">
        <ele>345.2</ele>
        <time>2023-01-02T08:41:44Z</time>
      </trkpt>
      <trkpt lat="41.7778340" lon="2.9626030">
        <ele>345.2</ele>
        <time>2023-01-02T08:41:49Z</time>
      </trkpt>
      <trkpt lat="41.7778290" lon="2.9626010">
        <ele>345.2</ele>
        <time>2023-01-02T08:41:54Z</time>
      </trkpt>
      <trkpt lat="41.7778220" lon="2.9626020">
        <ele>345.2</ele>
        <time>2023-01-02T08:42:01Z</time>
      </trkpt>
      <trkpt lat="41.7778240" lon="2.9626030">
        <ele>345.2</ele>
        <time>2023-01-02T08:42:10Z</time>
      </trkpt>
      <trkpt lat="41.7778220" lon="2.9626100">
        <ele>345.4</ele>
        <time>2023-01-02T08:42:16Z</time>
      </trkpt>
      <trkpt lat="41.7778290" lon="2.9626150">
        <ele>345.2</ele>
        <time>2023-01-02T08:42:25Z</time>
      </trkpt>
      <trkpt lat="41.7778240" lon="2.9626060">
        <ele>345.0</ele>
        <time>2023-01-02T08:42:37Z</time>
      </trkpt>
      <trkpt lat="41.7778330" lon="2.9626160">
        <ele>345.4</ele>
        <time>2023-01-02T08:42:46Z</time>
      </trkpt>
      <trkpt lat="41.7778280" lon="2.9626140">
        <ele>345.2</ele>
        <time>2023-01-02T08:42:56Z</time>
      </trkpt>
      <trkpt lat="41.7778250" lon="2.9626070">
        <ele>345.4</ele>
        <time>2023-01-02T08:43:09Z</time>
      </trkpt>
      <trkpt lat="41.7777840" lon="2.9626560">
        <ele>345.4</ele>
        <time>2023-01-02T08:43:14Z</time>
      </trkpt>
      <trkpt lat="41.7777510" lon="2.9627230">
        <ele>345.0</ele>
        <time>2023-01-02T08:43:17Z</time>
      </trkpt>
      <trkpt lat="41.7777250" lon="2.9627840">
        <ele>344.8</ele>
        <time>2023-01-02T08:43:19Z</time>
      </trkpt>
      <trkpt lat="41.7776580" lon="2.9628850">
        <ele>344.2</ele>
        <time>2023-01-02T08:43:23Z</time>
      </trkpt>
      <trkpt lat="41.7776310" lon="2.9629150">
        <ele>344.0</ele>
        <time>2023-01-02T08:43:24Z</time>
      </trkpt>
      <trkpt lat="41.7775030" lon="2.9630150">
        <ele>343.0</ele>
        <time>2023-01-02T08:43:28Z</time>
      </trkpt>
      <trkpt lat="41.7774310" lon="2.9630370">
        <ele>342.8</ele>
        <time>2023-01-02T08:43:30Z</time>
      </trkpt>
      <trkpt lat="41.7772990" lon="2.9630190">
        <ele>342.6</ele>
        <time>2023-01-02T08:43:35Z</time>
      </trkpt>
      <trkpt lat="41.7771710" lon="2.9629250">
        <ele>343.0</ele>
        <time>2023-01-02T08:43:41Z</time>
      </trkpt>
      <trkpt lat="41.7771480" lon="2.9629060">
        <ele>343.0</ele>
        <time>2023-01-02T08:43:42Z</time>
      </trkpt>
      <trkpt lat="41.7770490" lon="2.9628330">
        <ele>342.8</ele>
        <time>2023-01-02T08:43:47Z</time>
      </trkpt>
      <trkpt lat="41.7770080" lon="2.9628240">
        <ele>342.8</ele>
        <time>2023-01-02T08:43:49Z</time>
      </trkpt>
      <trkpt lat="41.7768910" lon="2.9628970">
        <ele>342.4</ele>
        <time>2023-01-02T08:43:54Z</time>
      </trkpt>
      <trkpt lat="41.7768010" lon="2.9630120">
        <ele>342.0</ele>
        <time>2023-01-02T08:43:59Z</time>
      </trkpt>
      <trkpt lat="41.7767620" lon="2.9630470">
        <ele>341.8</ele>
        <time>2023-01-02T08:44:01Z</time>
      </trkpt>
      <trkpt lat="41.7766900" lon="2.9630730">
        <ele>342.0</ele>
        <time>2023-01-02T08:44:04Z</time>
      </trkpt>
      <trkpt lat="41.7766080" lon="2.9630630">
        <ele>342.0</ele>
        <time>2023-01-02T08:44:07Z</time>
      </trkpt>
      <trkpt lat="41.7764070" lon="2.9629780">
        <ele>341.2</ele>
        <time>2023-01-02T08:44:14Z</time>
      </trkpt>
      <trkpt lat="41.7763540" lon="2.9629740">
        <ele>340.8</ele>
        <time>2023-01-02T08:44:16Z</time>
      </trkpt>
      <trkpt lat="41.7762640" lon="2.9629420">
        <ele>340.6</ele>
        <time>2023-01-02T08:44:19Z</time>
      </trkpt>
      <trkpt lat="41.7762410" lon="2.9629070">
        <ele>340.2</ele>
        <time>2023-01-02T08:44:20Z</time>
      </trkpt>
      <trkpt lat="41.7761960" lon="2.9628170">
        <ele>339.8</ele>
        <time>2023-01-02T08:44:22Z</time>
      </trkpt>
      <trkpt lat="41.7761650" lon="2.9627720">
        <ele>339.6</ele>
        <time>2023-01-02T08:44:23Z</time>
      </trkpt>
      <trkpt lat="41.7761340" lon="2.9627360">
        <ele>339.2</ele>
        <time>2023-01-02T08:44:24Z</time>
      </trkpt>
      <trkpt lat="41.7760620" lon="2.9626780">
        <ele>338.4</ele>
        <time>2023-01-02T08:44:26Z</time>
      </trkpt>
      <trkpt lat="41.7759670" lon="2.9626650">
        <ele>338.2</ele>
        <time>2023-01-02T08:44:28Z</time>
      </trkpt>
      <trkpt lat="41.7757100" lon="2.9626570">
        <ele>337.6</ele>
        <time>2023-01-02T08:44:33Z</time>
      </trkpt>
      <trkpt lat="41.7755260" lon="2.9626950">
        <ele>337.8</ele>
        <time>2023-01-02T08:44:38Z</time>
      </trkpt>
      <trkpt lat="41.7754090" lon="2.9627020">
        <ele>338.0</ele>
        <time>2023-01-02T08:44:41Z</time>
      </trkpt>
      <trkpt lat="41.7752740" lon="2.9626810">
        <ele>338.0</ele>
        <time>2023-01-02T08:44:44Z</time>
      </trkpt>
      <trkpt lat="41.7751760" lon="2.9626430">
        <ele>338.0</ele>
        <time>2023-01-02T08:44:46Z</time>
      </trkpt>
      <trkpt lat="41.7750980" lon="2.9625600">
        <ele>337.8</ele>
        <time>2023-01-02T08:44:48Z</time>
      </trkpt>
      <trkpt lat="41.7750610" lon="2.9624570">
        <ele>337.2</ele>
        <time>2023-01-02T08:44:50Z</time>
      </trkpt>
      <trkpt lat="41.7750560" lon="2.9623650">
        <ele>337.2</ele>
        <time>2023-01-02T08:44:52Z</time>
      </trkpt>
      <trkpt lat="41.7750630" lon="2.9623310">
        <ele>337.0</ele>
        <time>2023-01-02T08:44:53Z</time>
      </trkpt>
      <trkpt lat="41.7751030" lon="2.9622930">
        <ele>337.0</ele>
        <time>2023-01-02T08:44:55Z</time>
      </trkpt>
      <trkpt lat="41.7752360" lon="2.9622440">
        <ele>336.8</ele>
        <time>2023-01-02T08:44:58Z</time>
      </trkpt>
      <trkpt lat="41.7752950" lon="2.9622060">
        <ele>336.8</ele>
        <time>2023-01-02T08:44:59Z</time>
      </trkpt>
      <trkpt lat="41.7754060" lon="2.9620640">
        <ele>336.6</ele>
        <time>2023-01-02T08:45:01Z</time>
      </trkpt>
      <trkpt lat="41.7754540" lon="2.9619810">
        <ele>336.2</ele>
        <time>2023-01-02T08:45:02Z</time>
      </trkpt>
      <trkpt lat="41.7755730" lon="2.9617370">
        <ele>334.6</ele>
        <time>2023-01-02T08:45:05Z</time>
      </trkpt>
      <trkpt lat="41.7756200" lon="2.9616580">
        <ele>334.0</ele>
        <time>2023-01-02T08:45:06Z</time>
      </trkpt>
      <trkpt lat="41.7756670" lon="2.9615820">
        <ele>333.2</ele>
        <time>2023-01-02T08:45:07Z</time>
      </trkpt>
      <trkpt lat="41.7757070" lon="2.9615100">
        <ele>332.2</ele>
        <time>2023-01-02T08:45:08Z</time>
      </trkpt>
      <trkpt lat="41.7757410" lon="2.9614440">
        <ele>330.6</ele>
        <time>2023-01-02T08:45:09Z</time>
      </trkpt>
      <trkpt lat="41.7757680" lon="2.9613750">
        <ele>329.4</ele>
        <time>2023-01-02T08:45:10Z</time>
      </trkpt>
      <trkpt lat="41.7757860" lon="2.9612970">
        <ele>328.0</ele>
        <time>2023-01-02T08:45:11Z</time>
      </trkpt>
      <trkpt lat="41.7757870" lon="2.9612120">
        <ele>326.8</ele>
        <time>2023-01-02T08:45:12Z</time>
      </trkpt>
      <trkpt lat="41.7757700" lon="2.9611180">
        <ele>325.8</ele>
        <time>2023-01-02T08:45:13Z</time>
      </trkpt>
      <trkpt lat="41.7757170" lon="2.9609180">
        <ele>324.2</ele>
        <time>2023-01-02T08:45:15Z</time>
      </trkpt>
      <trkpt lat="41.7756910" lon="2.9608100">
        <ele>323.0</ele>
        <time>2023-01-02T08:45:16Z</time>
      </trkpt>
      <trkpt lat="41.7756630" lon="2.9606200">
        <ele>321.2</ele>
        <time>2023-01-02T08:45:18Z</time>
      </trkpt>
      <trkpt lat="41.7756580" lon="2.9605470">
        <ele>319.6</ele>
        <time>2023-01-02T08:45:19Z</time>
      </trkpt>
      <trkpt lat="41.7756660" lon="2.9604730">
        <ele>318.4</ele>
        <time>2023-01-02T08:45:20Z</time>
      </trkpt>
      <trkpt lat="41.7756880" lon="2.9604020">
        <ele>317.4</ele>
        <time>2023-01-02T08:45:21Z</time>
      </trkpt>
      <trkpt lat="41.7757200" lon="2.9603230">
        <ele>316.0</ele>
        <time>2023-01-02T08:45:22Z</time>
      </trkpt>
      <trkpt lat="41.7757560" lon="2.9602460">
        <ele>315.0</ele>
        <time>2023-01-02T08:45:23Z</time>
      </trkpt>
      <trkpt lat="41.7757930" lon="2.9601820">
        <ele>314.4</ele>
        <time>2023-01-02T08:45:24Z</time>
      </trkpt>
      <trkpt lat="41.7758800" lon="2.9600840">
        <ele>313.0</ele>
        <time>2023-01-02T08:45:26Z</time>
      </trkpt>
      <trkpt lat="41.7759290" lon="2.9600380">
        <ele>311.4</ele>
        <time>2023-01-02T08:45:27Z</time>
      </trkpt>
      <trkpt lat="41.7759720" lon="2.9599900">
        <ele>310.0</ele>
        <time>2023-01-02T08:45:28Z</time>
      </trkpt>
      <trkpt lat="41.7760070" lon="2.9599380">
        <ele>308.8</ele>
        <time>2023-01-02T08:45:29Z</time>
      </trkpt>
      <trkpt lat="41.7760380" lon="2.9598860">
        <ele>307.4</ele>
        <time>2023-01-02T08:45:30Z</time>
      </trkpt>
      <trkpt lat="41.7760690" lon="2.9598330">
        <ele>306.4</ele>
        <time>2023-01-02T08:45:31Z</time>
      </trkpt>
      <trkpt lat="41.7760800" lon="2.9597830">
        <ele>305.2</ele>
        <time>2023-01-02T08:45:32Z</time>
      </trkpt>
      <trkpt lat="41.7760500" lon="2.9597580">
        <ele>303.8</ele>
        <time>2023-01-02T08:45:33Z</time>
      </trkpt>
      <trkpt lat="41.7760350" lon="2.9597270">
        <ele>303.2</ele>
        <time>2023-01-02T08:45:34Z</time>
      </trkpt>
      <trkpt lat="41.7760090" lon="2.9597160">
        <ele>302.6</ele>
        <time>2023-01-02T08:45:35Z</time>
      </trkpt>
      <trkpt lat="41.7759210" lon="2.9596700">
        <ele>301.8</ele>
        <time>2023-01-02T08:45:38Z</time>
      </trkpt>
      <trkpt lat="41.7758710" lon="2.9595800">
        <ele>302.0</ele>
        <time>2023-01-02T08:45:40Z</time>
      </trkpt>
      <trkpt lat="41.7758510" lon="2.9595110">
        <ele>302.0</ele>
        <time>2023-01-02T08:45:41Z</time>
      </trkpt>
      <trkpt lat="41.7758380" lon="2.9594380">
        <ele>302.4</ele>
        <time>2023-01-02T08:45:42Z</time>
      </trkpt>
      <trkpt lat="41.7757960" lon="2.9592910">
        <ele>302.8</ele>
        <time>2023-01-02T08:45:44Z</time>
      </trkpt>
      <trkpt lat="41.7757680" lon="2.9592120">
        <ele>303.0</ele>
        <time>2023-01-02T08:45:45Z</time>
      </trkpt>
      <trkpt lat="41.7757440" lon="2.9591260">
        <ele>302.8</ele>
        <time>2023-01-02T08:45:46Z</time>
      </trkpt>
      <trkpt lat="41.7756860" lon="2.9589790">
        <ele>302.6</ele>
        <time>2023-01-02T08:45:48Z</time>
      </trkpt>
      <trkpt lat="41.7755910" lon="2.9589070">
        <ele>302.2</ele>
        <time>2023-01-02T08:45:50Z</time>
      </trkpt>
      <trkpt lat="41.7755390" lon="2.9588940">
        <ele>301.8</ele>
        <time>2023-01-02T08:45:51Z</time>
      </trkpt>
      <trkpt lat="41.7754850" lon="2.9588900">
        <ele>301.4</ele>
        <time>2023-01-02T08:45:52Z</time>
      </trkpt>
      <trkpt lat="41.7753460" lon="2.9588920">
        <ele>300.8</ele>
        <time>2023-01-02T08:45:55Z</time>
      </trkpt>
      <trkpt lat="41.7753110" lon="2.9588960">
        <ele>300.2</ele>
        <time>2023-01-02T08:45:56Z</time>
      </trkpt>
      <trkpt lat="41.7752880" lon="2.9589030">
        <ele>299.2</ele>
        <time>2023-01-02T08:45:58Z</time>
      </trkpt>
      <trkpt lat="41.7752830" lon="2.9589050">
        <ele>299.0</ele>
        <time>2023-01-02T08:45:59Z</time>
      </trkpt>
      <trkpt lat="41.7752270" lon="2.9589050">
        <ele>298.6</ele>
        <time>2023-01-02T08:46:02Z</time>
      </trkpt>
      <trkpt lat="41.7750690" lon="2.9589120">
        <ele>298.0</ele>
        <time>2023-01-02T08:46:06Z</time>
      </trkpt>
      <trkpt lat="41.7750180" lon="2.9589130">
        <ele>298.0</ele>
        <time>2023-01-02T08:46:07Z</time>
      </trkpt>
      <trkpt lat="41.7749730" lon="2.9589060">
        <ele>298.0</ele>
        <time>2023-01-02T08:46:08Z</time>
      </trkpt>
      <trkpt lat="41.7749250" lon="2.9588340">
        <ele>297.8</ele>
        <time>2023-01-02T08:46:10Z</time>
      </trkpt>
      <trkpt lat="41.7749620" lon="2.9586950">
        <ele>297.6</ele>
        <time>2023-01-02T08:46:13Z</time>
      </trkpt>
      <trkpt lat="41.7749540" lon="2.9585870">
        <ele>297.4</ele>
        <time>2023-01-02T08:46:15Z</time>
      </trkpt>
      <trkpt lat="41.7749300" lon="2.9585330">
        <ele>297.4</ele>
        <time>2023-01-02T08:46:16Z</time>
      </trkpt>
      <trkpt lat="41.7748950" lon="2.9584830">
        <ele>297.2</ele>
        <time>2023-01-02T08:46:17Z</time>
      </trkpt>
      <trkpt lat="41.7748550" lon="2.9584330">
        <ele>297.0</ele>
        <time>2023-01-02T08:46:18Z</time>
      </trkpt>
      <trkpt lat="41.7747930" lon="2.9583290">
        <ele>296.6</ele>
        <time>2023-01-02T08:46:20Z</time>
      </trkpt>
      <trkpt lat="41.7747970" lon="2.9582140">
        <ele>296.4</ele>
        <time>2023-01-02T08:46:22Z</time>
      </trkpt>
      <trkpt lat="41.7748200" lon="2.9581800">
        <ele>296.4</ele>
        <time>2023-01-02T08:46:23Z</time>
      </trkpt>
      <trkpt lat="41.7748640" lon="2.9581780">
        <ele>296.4</ele>
        <time>2023-01-02T08:46:24Z</time>
      </trkpt>
      <trkpt lat="41.7749170" lon="2.9582050">
        <ele>296.4</ele>
        <time>2023-01-02T08:46:25Z</time>
      </trkpt>
      <trkpt lat="41.7750360" lon="2.9582710">
        <ele>296.0</ele>
        <time>2023-01-02T08:46:27Z</time>
      </trkpt>
      <trkpt lat="41.7750980" lon="2.9582680">
        <ele>295.8</ele>
        <time>2023-01-02T08:46:28Z</time>
      </trkpt>
      <trkpt lat="41.7751580" lon="2.9582350">
        <ele>295.6</ele>
        <time>2023-01-02T08:46:29Z</time>
      </trkpt>
      <trkpt lat="41.7752850" lon="2.9581640">
        <ele>295.4</ele>
        <time>2023-01-02T08:46:31Z</time>
      </trkpt>
      <trkpt lat="41.7753440" lon="2.9581270">
        <ele>295.2</ele>
        <time>2023-01-02T08:46:32Z</time>
      </trkpt>
      <trkpt lat="41.7754330" lon="2.9580370">
        <ele>294.8</ele>
        <time>2023-01-02T08:46:34Z</time>
      </trkpt>
      <trkpt lat="41.7754860" lon="2.9580110">
        <ele>294.0</ele>
        <time>2023-01-02T08:46:35Z</time>
      </trkpt>
      <trkpt lat="41.7755440" lon="2.9580120">
        <ele>293.4</ele>
        <time>2023-01-02T08:46:36Z</time>
      </trkpt>
      <trkpt lat="41.7756020" lon="2.9580340">
        <ele>293.0</ele>
        <time>2023-01-02T08:46:37Z</time>
      </trkpt>
      <trkpt lat="41.7757280" lon="2.9580670">
        <ele>292.2</ele>
        <time>2023-01-02T08:46:39Z</time>
      </trkpt>
      <trkpt lat="41.7757870" lon="2.9580490">
        <ele>291.8</ele>
        <time>2023-01-02T08:46:40Z</time>
      </trkpt>
      <trkpt lat="41.7758430" lon="2.9580160">
        <ele>291.6</ele>
        <time>2023-01-02T08:46:41Z</time>
      </trkpt>
      <trkpt lat="41.7759420" lon="2.9579330">
        <ele>290.8</ele>
        <time>2023-01-02T08:46:43Z</time>
      </trkpt>
      <trkpt lat="41.7760000" lon="2.9579110">
        <ele>290.2</ele>
        <time>2023-01-02T08:46:44Z</time>
      </trkpt>
      <trkpt lat="41.7760700" lon="2.9579000">
        <ele>290.0</ele>
        <time>2023-01-02T08:46:45Z</time>
      </trkpt>
      <trkpt lat="41.7761370" lon="2.9578880">
        <ele>289.6</ele>
        <time>2023-01-02T08:46:46Z</time>
      </trkpt>
      <trkpt lat="41.7761990" lon="2.9578660">
        <ele>289.4</ele>
        <time>2023-01-02T08:46:47Z</time>
      </trkpt>
      <trkpt lat="41.7762650" lon="2.9578420">
        <ele>289.2</ele>
        <time>2023-01-02T08:46:48Z</time>
      </trkpt>
      <trkpt lat="41.7764040" lon="2.9577900">
        <ele>288.4</ele>
        <time>2023-01-02T08:46:50Z</time>
      </trkpt>
      <trkpt lat="41.7765450" lon="2.9577030">
        <ele>287.6</ele>
        <time>2023-01-02T08:46:52Z</time>
      </trkpt>
      <trkpt lat="41.7766220" lon="2.9576630">
        <ele>287.0</ele>
        <time>2023-01-02T08:46:53Z</time>
      </trkpt>
      <trkpt lat="41.7767600" lon="2.9575820">
        <ele>285.8</ele>
        <time>2023-01-02T08:46:55Z</time>
      </trkpt>
      <trkpt lat="41.7769080" lon="2.9574940">
        <ele>284.8</ele>
        <time>2023-01-02T08:46:57Z</time>
      </trkpt>
      <trkpt lat="41.7771520" lon="2.9573910">
        <ele>283.6</ele>
        <time>2023-01-02T08:47:00Z</time>
      </trkpt>
      <trkpt lat="41.7773020" lon="2.9573320">
        <ele>282.6</ele>
        <time>2023-01-02T08:47:02Z</time>
      </trkpt>
      <trkpt lat="41.7773770" lon="2.9572980">
        <ele>282.2</ele>
        <time>2023-01-02T08:47:03Z</time>
      </trkpt>
      <trkpt lat="41.7775110" lon="2.9571890">
        <ele>281.8</ele>
        <time>2023-01-02T08:47:05Z</time>
      </trkpt>
      <trkpt lat="41.7775770" lon="2.9571170">
        <ele>281.2</ele>
        <time>2023-01-02T08:47:06Z</time>
      </trkpt>
      <trkpt lat="41.7776520" lon="2.9570610">
        <ele>280.8</ele>
        <time>2023-01-02T08:47:07Z</time>
      </trkpt>
      <trkpt lat="41.7777320" lon="2.9570270">
        <ele>280.4</ele>
        <time>2023-01-02T08:47:08Z</time>
      </trkpt>
      <trkpt lat="41.7778960" lon="2.9569820">
        <ele>280.0</ele>
        <time>2023-01-02T08:47:10Z</time>
      </trkpt>
      <trkpt lat="41.7781220" lon="2.9569290">
        <ele>278.8</ele>
        <time>2023-01-02T08:47:13Z</time>
      </trkpt>
      <trkpt lat="41.7781870" lon="2.9569120">
        <ele>278.0</ele>
        <time>2023-01-02T08:47:14Z</time>
      </trkpt>
      <trkpt lat="41.7782390" lon="2.9568820">
        <ele>277.4</ele>
        <time>2023-01-02T08:47:15Z</time>
      </trkpt>
      <trkpt lat="41.7782850" lon="2.9567600">
        <ele>276.0</ele>
        <time>2023-01-02T08:47:17Z</time>
      </trkpt>
      <trkpt lat="41.7783050" lon="2.9565950">
        <ele>275.0</ele>
        <time>2023-01-02T08:47:19Z</time>
      </trkpt>
      <trkpt lat="41.7783170" lon="2.9565050">
        <ele>274.6</ele>
        <time>2023-01-02T08:47:20Z</time>
      </trkpt>
      <trkpt lat="41.7783230" lon="2.9564110">
        <ele>274.4</ele>
        <time>2023-01-02T08:47:21Z</time>
      </trkpt>
      <trkpt lat="41.7782990" lon="2.9562170">
        <ele>274.0</ele>
        <time>2023-01-02T08:47:23Z</time>
      </trkpt>
      <trkpt lat="41.7782740" lon="2.9561220">
        <ele>273.8</ele>
        <time>2023-01-02T08:47:24Z</time>
      </trkpt>
      <trkpt lat="41.7782500" lon="2.9560260">
        <ele>273.4</ele>
        <time>2023-01-02T08:47:25Z</time>
      </trkpt>
      <trkpt lat="41.7782010" lon="2.9558690">
        <ele>272.4</ele>
        <time>2023-01-02T08:47:27Z</time>
      </trkpt>
      <trkpt lat="41.7781650" lon="2.9558170">
        <ele>271.2</ele>
        <time>2023-01-02T08:47:28Z</time>
      </trkpt>
      <trkpt lat="41.7780750" lon="2.9557950">
        <ele>270.0</ele>
        <time>2023-01-02T08:47:30Z</time>
      </trkpt>
      <trkpt lat="41.7780250" lon="2.9558120">
        <ele>269.6</ele>
        <time>2023-01-02T08:47:31Z</time>
      </trkpt>
      <trkpt lat="41.7778620" lon="2.9558870">
        <ele>268.8</ele>
        <time>2023-01-02T08:47:34Z</time>
      </trkpt>
      <trkpt lat="41.7777400" lon="2.9559420">
        <ele>268.2</ele>
        <time>2023-01-02T08:47:36Z</time>
      </trkpt>
      <trkpt lat="41.7776190" lon="2.9559720">
        <ele>267.8</ele>
        <time>2023-01-02T08:47:38Z</time>
      </trkpt>
      <trkpt lat="41.7775570" lon="2.9559750">
        <ele>267.2</ele>
        <time>2023-01-02T08:47:39Z</time>
      </trkpt>
      <trkpt lat="41.7774940" lon="2.9559870">
        <ele>266.8</ele>
        <time>2023-01-02T08:47:40Z</time>
      </trkpt>
      <trkpt lat="41.7773690" lon="2.9560160">
        <ele>266.0</ele>
        <time>2023-01-02T08:47:42Z</time>
      </trkpt>
      <trkpt lat="41.7773080" lon="2.9560190">
        <ele>265.8</ele>
        <time>2023-01-02T08:47:43Z</time>
      </trkpt>
      <trkpt lat="41.7771760" lon="2.9560030">
        <ele>265.2</ele>
        <time>2023-01-02T08:47:45Z</time>
      </trkpt>
      <trkpt lat="41.7771120" lon="2.9559860">
        <ele>265.0</ele>
        <time>2023-01-02T08:47:46Z</time>
      </trkpt>
      <trkpt lat="41.7769270" lon="2.9559110">
        <ele>263.8</ele>
        <time>2023-01-02T08:47:49Z</time>
      </trkpt>
      <trkpt lat="41.7768720" lon="2.9559310">
        <ele>263.4</ele>
        <time>2023-01-02T08:47:50Z</time>
      </trkpt>
      <trkpt lat="41.7767540" lon="2.9559350">
        <ele>262.8</ele>
        <time>2023-01-02T08:47:52Z</time>
      </trkpt>
      <trkpt lat="41.7767120" lon="2.9559130">
        <ele>262.6</ele>
        <time>2023-01-02T08:47:53Z</time>
      </trkpt>
      <trkpt lat="41.7767070" lon="2.9558650">
        <ele>262.4</ele>
        <time>2023-01-02T08:47:54Z</time>
      </trkpt>
      <trkpt lat="41.7766830" lon="2.9557440">
        <ele>262.2</ele>
        <time>2023-01-02T08:47:56Z</time>
      </trkpt>
      <trkpt lat="41.7766330" lon="2.9556600">
        <ele>262.4</ele>
        <time>2023-01-02T08:47:58Z</time>
      </trkpt>
      <trkpt lat="41.7765000" lon="2.9554950">
        <ele>262.4</ele>
        <time>2023-01-02T08:48:02Z</time>
      </trkpt>
      <trkpt lat="41.7764610" lon="2.9554140">
        <ele>261.4</ele>
        <time>2023-01-02T08:48:04Z</time>
      </trkpt>
      <trkpt lat="41.7764620" lon="2.9553790">
        <ele>260.6</ele>
        <time>2023-01-02T08:48:05Z</time>
      </trkpt>
      <trkpt lat="41.7765150" lon="2.9553440">
        <ele>259.8</ele>
        <time>2023-01-02T08:48:07Z</time>
      </trkpt>
      <trkpt lat="41.7765590" lon="2.9553310">
        <ele>259.6</ele>
        <time>2023-01-02T08:48:08Z</time>
      </trkpt>
      <trkpt lat="41.7766040" lon="2.9553070">
        <ele>259.4</ele>
        <time>2023-01-02T08:48:09Z</time>
      </trkpt>
      <trkpt lat="41.7766910" lon="2.9552780">
        <ele>259.0</ele>
        <time>2023-01-02T08:48:11Z</time>
      </trkpt>
      <trkpt lat="41.7767430" lon="2.9552780">
        <ele>259.0</ele>
        <time>2023-01-02T08:48:12Z</time>
      </trkpt>
      <trkpt lat="41.7768040" lon="2.9552690">
        <ele>258.8</ele>
        <time>2023-01-02T08:48:13Z</time>
      </trkpt>
      <trkpt lat="41.7769850" lon="2.9552380">
        <ele>258.6</ele>
        <time>2023-01-02T08:48:16Z</time>
      </trkpt>
      <trkpt lat="41.7770390" lon="2.9552240">
        <ele>258.6</ele>
        <time>2023-01-02T08:48:17Z</time>
      </trkpt>
      <trkpt lat="41.7771310" lon="2.9551220">
        <ele>258.6</ele>
        <time>2023-01-02T08:48:19Z</time>
      </trkpt>
      <trkpt lat="41.7772080" lon="2.9549860">
        <ele>258.6</ele>
        <time>2023-01-02T08:48:21Z</time>
      </trkpt>
      <trkpt lat="41.7773620" lon="2.9548170">
        <ele>258.4</ele>
        <time>2023-01-02T08:48:24Z</time>
      </trkpt>
      <trkpt lat="41.7775440" lon="2.9546480">
        <ele>258.2</ele>
        <time>2023-01-02T08:48:27Z</time>
      </trkpt>
      <trkpt lat="41.7776060" lon="2.9546080">
        <ele>258.2</ele>
        <time>2023-01-02T08:48:28Z</time>
      </trkpt>
      <trkpt lat="41.7778640" lon="2.9544480">
        <ele>258.0</ele>
        <time>2023-01-02T08:48:32Z</time>
      </trkpt>
      <trkpt lat="41.7779360" lon="2.9544180">
        <ele>257.8</ele>
        <time>2023-01-02T08:48:33Z</time>
      </trkpt>
      <trkpt lat="41.7780040" lon="2.9543850">
        <ele>257.8</ele>
        <time>2023-01-02T08:48:34Z</time>
      </trkpt>
      <trkpt lat="41.7781170" lon="2.9543070">
        <ele>257.6</ele>
        <time>2023-01-02T08:48:36Z</time>
      </trkpt>
      <trkpt lat="41.7782200" lon="2.9543240">
        <ele>257.2</ele>
        <time>2023-01-02T08:48:38Z</time>
      </trkpt>
      <trkpt lat="41.7783420" lon="2.9543490">
        <ele>257.0</ele>
        <time>2023-01-02T08:48:40Z</time>
      </trkpt>
      <trkpt lat="41.7784810" lon="2.9543440">
        <ele>257.2</ele>
        <time>2023-01-02T08:48:42Z</time>
      </trkpt>
      <trkpt lat="41.7785570" lon="2.9543460">
        <ele>257.4</ele>
        <time>2023-01-02T08:48:43Z</time>
      </trkpt>
      <trkpt lat="41.7787980" lon="2.9543490">
        <ele>257.6</ele>
        <time>2023-01-02T08:48:46Z</time>
      </trkpt>
      <trkpt lat="41.7788770" lon="2.9543250">
        <ele>257.4</ele>
        <time>2023-01-02T08:48:47Z</time>
      </trkpt>
      <trkpt lat="41.7789510" lon="2.9542900">
        <ele>257.4</ele>
        <time>2023-01-02T08:48:48Z</time>
      </trkpt>
      <trkpt lat="41.7790830" lon="2.9542010">
        <ele>257.4</ele>
        <time>2023-01-02T08:48:50Z</time>
      </trkpt>
      <trkpt lat="41.7791350" lon="2.9541420">
        <ele>257.2</ele>
        <time>2023-01-02T08:48:51Z</time>
      </trkpt>
      <trkpt lat="41.7791720" lon="2.9540700">
        <ele>257.0</ele>
        <time>2023-01-02T08:48:52Z</time>
      </trkpt>
      <trkpt lat="41.7792360" lon="2.9539080">
        <ele>257.0</ele>
        <time>2023-01-02T08:48:54Z</time>
      </trkpt>
      <trkpt lat="41.7793460" lon="2.9536580">
        <ele>257.0</ele>
        <time>2023-01-02T08:48:57Z</time>
      </trkpt>
      <trkpt lat="41.7793950" lon="2.9534790">
        <ele>257.0</ele>
        <time>2023-01-02T08:48:59Z</time>
      </trkpt>
      <trkpt lat="41.7794080" lon="2.9533880">
        <ele>257.0</ele>
        <time>2023-01-02T08:49:00Z</time>
      </trkpt>
      <trkpt lat="41.7793930" lon="2.9533090">
        <ele>256.8</ele>
        <time>2023-01-02T08:49:01Z</time>
      </trkpt>
      <trkpt lat="41.7793680" lon="2.9532460">
        <ele>256.6</ele>
        <time>2023-01-02T08:49:02Z</time>
      </trkpt>
      <trkpt lat="41.7792850" lon="2.9531890">
        <ele>256.0</ele>
        <time>2023-01-02T08:49:04Z</time>
      </trkpt>
      <trkpt lat="41.7792370" lon="2.9531810">
        <ele>255.8</ele>
        <time>2023-01-02T08:49:05Z</time>
      </trkpt>
      <trkpt lat="41.7791870" lon="2.9531790">
        <ele>255.8</ele>
        <time>2023-01-02T08:49:06Z</time>
      </trkpt>
      <trkpt lat="41.7789760" lon="2.9531340">
        <ele>256.0</ele>
        <time>2023-01-02T08:49:10Z</time>
      </trkpt>
      <trkpt lat="41.7787970" lon="2.9530210">
        <ele>256.4</ele>
        <time>2023-01-02T08:49:14Z</time>
      </trkpt>
      <trkpt lat="41.7787750" lon="2.9529710">
        <ele>256.4</ele>
        <time>2023-01-02T08:49:15Z</time>
      </trkpt>
      <trkpt lat="41.7787750" lon="2.9529160">
        <ele>256.4</ele>
        <time>2023-01-02T08:49:16Z</time>
      </trkpt>
      <trkpt lat="41.7788100" lon="2.9528350">
        <ele>256.6</ele>
        <time>2023-01-02T08:49:18Z</time>
      </trkpt>
      <trkpt lat="41.7788930" lon="2.9527950">
        <ele>256.6</ele>
        <time>2023-01-02T08:49:20Z</time>
      </trkpt>
      <trkpt lat="41.7789320" lon="2.9527550">
        <ele>256.4</ele>
        <time>2023-01-02T08:49:21Z</time>
      </trkpt>
      <trkpt lat="41.7789690" lon="2.9526850">
        <ele>256.2</ele>
        <time>2023-01-02T08:49:22Z</time>
      </trkpt>
      <trkpt lat="41.7790800" lon="2.9524900">
        <ele>256.2</ele>
        <time>2023-01-02T08:49:25Z</time>
      </trkpt>
      <trkpt lat="41.7791800" lon="2.9523050">
        <ele>256.2</ele>
        <time>2023-01-02T08:49:28Z</time>
      </trkpt>
      <trkpt lat="41.7792300" lon="2.9522520">
        <ele>256.2</ele>
        <time>2023-01-02T08:49:29Z</time>
      </trkpt>
      <trkpt lat="41.7793240" lon="2.9521300">
        <ele>256.2</ele>
        <time>2023-01-02T08:49:31Z</time>
      </trkpt>
      <trkpt lat="41.7793830" lon="2.9519840">
        <ele>256.2</ele>
        <time>2023-01-02T08:49:33Z</time>
      </trkpt>
      <trkpt lat="41.7793740" lon="2.9518390">
        <ele>256.2</ele>
        <time>2023-01-02T08:49:35Z</time>
      </trkpt>
      <trkpt lat="41.7793590" lon="2.9517580">
        <ele>256.2</ele>
        <time>2023-01-02T08:49:36Z</time>
      </trkpt>
      <trkpt lat="41.7793490" lon="2.9516760">
        <ele>256.2</ele>
        <time>2023-01-02T08:49:37Z</time>
      </trkpt>
      <trkpt lat="41.7793120" lon="2.9515180">
        <ele>256.2</ele>
        <time>2023-01-02T08:49:39Z</time>
      </trkpt>
      <trkpt lat="41.7792810" lon="2.9514510">
        <ele>256.4</ele>
        <time>2023-01-02T08:49:40Z</time>
      </trkpt>
      <trkpt lat="41.7792420" lon="2.9513890">
        <ele>256.0</ele>
        <time>2023-01-02T08:49:41Z</time>
      </trkpt>
      <trkpt lat="41.7791060" lon="2.9511900">
        <ele>256.4</ele>
        <time>2023-01-02T08:49:44Z</time>
      </trkpt>
      <trkpt lat="41.7789890" lon="2.9511280">
        <ele>256.4</ele>
        <time>2023-01-02T08:49:46Z</time>
      </trkpt>
      <trkpt lat="41.7789240" lon="2.9511440">
        <ele>256.2</ele>
        <time>2023-01-02T08:49:47Z</time>
      </trkpt>
      <trkpt lat="41.7788660" lon="2.9511660">
        <ele>256.2</ele>
        <time>2023-01-02T08:49:48Z</time>
      </trkpt>
      <trkpt lat="41.7787460" lon="2.9512000">
        <ele>256.2</ele>
        <time>2023-01-02T08:49:50Z</time>
      </trkpt>
      <trkpt lat="41.7786940" lon="2.9511820">
        <ele>256.2</ele>
        <time>2023-01-02T08:49:51Z</time>
      </trkpt>
      <trkpt lat="41.7786550" lon="2.9511370">
        <ele>256.4</ele>
        <time>2023-01-02T08:49:52Z</time>
      </trkpt>
      <trkpt lat="41.7785620" lon="2.9510430">
        <ele>256.4</ele>
        <time>2023-01-02T08:49:54Z</time>
      </trkpt>
      <trkpt lat="41.7784550" lon="2.9509570">
        <ele>256.6</ele>
        <time>2023-01-02T08:49:56Z</time>
      </trkpt>
      <trkpt lat="41.7783790" lon="2.9508380">
        <ele>256.6</ele>
        <time>2023-01-02T08:49:58Z</time>
      </trkpt>
      <trkpt lat="41.7783350" lon="2.9507800">
        <ele>256.6</ele>
        <time>2023-01-02T08:49:59Z</time>
      </trkpt>
      <trkpt lat="41.7782310" lon="2.9507180">
        <ele>256.6</ele>
        <time>2023-01-02T08:50:01Z</time>
      </trkpt>
      <trkpt lat="41.7781670" lon="2.9506180">
        <ele>256.6</ele>
        <time>2023-01-02T08:50:03Z</time>
      </trkpt>
      <trkpt lat="41.7781430" lon="2.9505510">
        <ele>256.4</ele>
        <time>2023-01-02T08:50:04Z</time>
      </trkpt>
      <trkpt lat="41.7781060" lon="2.9504840">
        <ele>256.2</ele>
        <time>2023-01-02T08:50:05Z</time>
      </trkpt>
      <trkpt lat="41.7780070" lon="2.9503850">
        <ele>256.2</ele>
        <time>2023-01-02T08:50:07Z</time>
      </trkpt>
      <trkpt lat="41.7778920" lon="2.9502990">
        <ele>256.0</ele>
        <time>2023-01-02T08:50:09Z</time>
      </trkpt>
      <trkpt lat="41.7777760" lon="2.9502110">
        <ele>256.2</ele>
        <time>2023-01-02T08:50:11Z</time>
      </trkpt>
      <trkpt lat="41.7777100" lon="2.9501830">
        <ele>256.2</ele>
        <time>2023-01-02T08:50:12Z</time>
      </trkpt>
      <trkpt lat="41.7774170" lon="2.9501790">
        <ele>256.0</ele>
        <time>2023-01-02T08:50:16Z</time>
      </trkpt>
      <trkpt lat="41.7771250" lon="2.9502430">
        <ele>255.4</ele>
        <time>2023-01-02T08:50:20Z</time>
      </trkpt>
      <trkpt lat="41.7770610" lon="2.9502770">
        <ele>255.2</ele>
        <time>2023-01-02T08:50:21Z</time>
      </trkpt>
      <trkpt lat="41.7770050" lon="2.9503240">
        <ele>255.0</ele>
        <time>2023-01-02T08:50:22Z</time>
      </trkpt>
      <trkpt lat="41.7768980" lon="2.9504250">
        <ele>254.8</ele>
        <time>2023-01-02T08:50:24Z</time>
      </trkpt>
      <trkpt lat="41.7768460" lon="2.9504720">
        <ele>254.6</ele>
        <time>2023-01-02T08:50:25Z</time>
      </trkpt>
      <trkpt lat="41.7767930" lon="2.9505140">
        <ele>254.6</ele>
        <time>2023-01-02T08:50:26Z</time>
      </trkpt>
      <trkpt lat="41.7766970" lon="2.9505300">
        <ele>254.4</ele>
        <time>2023-01-02T08:50:28Z</time>
      </trkpt>
      <trkpt lat="41.7766060" lon="2.9504710">
        <ele>254.4</ele>
        <time>2023-01-02T08:50:30Z</time>
      </trkpt>
      <trkpt lat="41.7765470" lon="2.9503920">
        <ele>254.0</ele>
        <time>2023-01-02T08:50:32Z</time>
      </trkpt>
      <trkpt lat="41.7765390" lon="2.9503530">
        <ele>253.6</ele>
        <time>2023-01-02T08:50:33Z</time>
      </trkpt>
      <trkpt lat="41.7765500" lon="2.9503280">
        <ele>253.2</ele>
        <time>2023-01-02T08:50:34Z</time>
      </trkpt>
      <trkpt lat="41.7765760" lon="2.9503100">
        <ele>253.0</ele>
        <time>2023-01-02T08:50:35Z</time>
      </trkpt>
      <trkpt lat="41.7766410" lon="2.9502740">
        <ele>252.6</ele>
        <time>2023-01-02T08:50:37Z</time>
      </trkpt>
      <trkpt lat="41.7766830" lon="2.9502420">
        <ele>252.6</ele>
        <time>2023-01-02T08:50:38Z</time>
      </trkpt>
      <trkpt lat="41.7767150" lon="2.9501970">
        <ele>252.6</ele>
        <time>2023-01-02T08:50:39Z</time>
      </trkpt>
      <trkpt lat="41.7767290" lon="2.9501420">
        <ele>252.6</ele>
        <time>2023-01-02T08:50:40Z</time>
      </trkpt>
      <trkpt lat="41.7767240" lon="2.9500580">
        <ele>252.4</ele>
        <time>2023-01-02T08:50:42Z</time>
      </trkpt>
      <trkpt lat="41.7766640" lon="2.9499220">
        <ele>252.0</ele>
        <time>2023-01-02T08:50:45Z</time>
      </trkpt>
      <trkpt lat="41.7766450" lon="2.9498530">
        <ele>252.0</ele>
        <time>2023-01-02T08:50:46Z</time>
      </trkpt>
      <trkpt lat="41.7766330" lon="2.9497790">
        <ele>252.0</ele>
        <time>2023-01-02T08:50:47Z</time>
      </trkpt>
      <trkpt lat="41.7765850" lon="2.9495530">
        <ele>252.2</ele>
        <time>2023-01-02T08:50:50Z</time>
      </trkpt>
      <trkpt lat="41.7765830" lon="2.9494890">
        <ele>252.2</ele>
        <time>2023-01-02T08:50:51Z</time>
      </trkpt>
      <trkpt lat="41.7766110" lon="2.9494390">
        <ele>251.6</ele>
        <time>2023-01-02T08:50:53Z</time>
      </trkpt>
      <trkpt lat="41.7766340" lon="2.9494460">
        <ele>251.2</ele>
        <time>2023-01-02T08:50:54Z</time>
      </trkpt>
      <trkpt lat="41.7766880" lon="2.9494980">
        <ele>250.8</ele>
        <time>2023-01-02T08:50:56Z</time>
      </trkpt>
      <trkpt lat="41.7767510" lon="2.9495890">
        <ele>250.2</ele>
        <time>2023-01-02T08:50:58Z</time>
      </trkpt>
      <trkpt lat="41.7767970" lon="2.9496320">
        <ele>250.2</ele>
        <time>2023-01-02T08:50:59Z</time>
      </trkpt>
      <trkpt lat="41.7768500" lon="2.9496630">
        <ele>250.6</ele>
        <time>2023-01-02T08:51:00Z</time>
      </trkpt>
      <trkpt lat="41.7769720" lon="2.9496850">
        <ele>250.2</ele>
        <time>2023-01-02T08:51:02Z</time>
      </trkpt>
      <trkpt lat="41.7770360" lon="2.9496710">
        <ele>250.6</ele>
        <time>2023-01-02T08:51:03Z</time>
      </trkpt>
      <trkpt lat="41.7770980" lon="2.9496440">
        <ele>250.8</ele>
        <time>2023-01-02T08:51:04Z</time>
      </trkpt>
      <trkpt lat="41.7773550" lon="2.9495090">
        <ele>251.0</ele>
        <time>2023-01-02T08:51:08Z</time>
      </trkpt>
      <trkpt lat="41.7776680" lon="2.9493220">
        <ele>249.8</ele>
        <time>2023-01-02T08:51:13Z</time>
      </trkpt>
      <trkpt lat="41.7778150" lon="2.9492750">
        <ele>249.6</ele>
        <time>2023-01-02T08:51:15Z</time>
      </trkpt>
      <trkpt lat="41.7779570" lon="2.9492430">
        <ele>249.4</ele>
        <time>2023-01-02T08:51:17Z</time>
      </trkpt>
      <trkpt lat="41.7780230" lon="2.9492060">
        <ele>249.4</ele>
        <time>2023-01-02T08:51:18Z</time>
      </trkpt>
      <trkpt lat="41.7780900" lon="2.9491700">
        <ele>249.2</ele>
        <time>2023-01-02T08:51:19Z</time>
      </trkpt>
      <trkpt lat="41.7781560" lon="2.9491580">
        <ele>249.0</ele>
        <time>2023-01-02T08:51:20Z</time>
      </trkpt>
      <trkpt lat="41.7782180" lon="2.9491610">
        <ele>248.8</ele>
        <time>2023-01-02T08:51:21Z</time>
      </trkpt>
      <trkpt lat="41.7782780" lon="2.9491580">
        <ele>248.4</ele>
        <time>2023-01-02T08:51:22Z</time>
      </trkpt>
      <trkpt lat="41.7784710" lon="2.9491560">
        <ele>248.2</ele>
        <time>2023-01-02T08:51:25Z</time>
      </trkpt>
      <trkpt lat="41.7786810" lon="2.9491790">
        <ele>248.0</ele>
        <time>2023-01-02T08:51:28Z</time>
      </trkpt>
      <trkpt lat="41.7787380" lon="2.9491530">
        <ele>248.0</ele>
        <time>2023-01-02T08:51:29Z</time>
      </trkpt>
      <trkpt lat="41.7788440" lon="2.9490880">
        <ele>248.0</ele>
        <time>2023-01-02T08:51:31Z</time>
      </trkpt>
      <trkpt lat="41.7789420" lon="2.9490840">
        <ele>248.0</ele>
        <time>2023-01-02T08:51:33Z</time>
      </trkpt>
      <trkpt lat="41.7790680" lon="2.9491680">
        <ele>248.2</ele>
        <time>2023-01-02T08:51:36Z</time>
      </trkpt>
      <trkpt lat="41.7791030" lon="2.9492030">
        <ele>248.6</ele>
        <time>2023-01-02T08:51:37Z</time>
      </trkpt>
      <trkpt lat="41.7791350" lon="2.9492290">
        <ele>249.0</ele>
        <time>2023-01-02T08:51:38Z</time>
      </trkpt>
      <trkpt lat="41.7792220" lon="2.9492400">
        <ele>250.0</ele>
        <time>2023-01-02T08:51:41Z</time>
      </trkpt>
      <trkpt lat="41.7792510" lon="2.9492290">
        <ele>250.2</ele>
        <time>2023-01-02T08:51:42Z</time>
      </trkpt>
      <trkpt lat="41.7793650" lon="2.9491620">
        <ele>251.2</ele>
        <time>2023-01-02T08:51:46Z</time>
      </trkpt>
      <trkpt lat="41.7793910" lon="2.9491530">
        <ele>251.6</ele>
        <time>2023-01-02T08:51:47Z</time>
      </trkpt>
      <trkpt lat="41.7794780" lon="2.9491250">
        <ele>252.8</ele>
        <time>2023-01-02T08:51:51Z</time>
      </trkpt>
      <trkpt lat="41.7795280" lon="2.9491090">
        <ele>253.4</ele>
        <time>2023-01-02T08:51:53Z</time>
      </trkpt>
      <trkpt lat="41.7795540" lon="2.9491000">
        <ele>253.8</ele>
        <time>2023-01-02T08:51:54Z</time>
      </trkpt>
      <trkpt lat="41.7797000" lon="2.9490630">
        <ele>255.0</ele>
        <time>2023-01-02T08:52:00Z</time>
      </trkpt>
      <trkpt lat="41.7797600" lon="2.9490320">
        <ele>255.8</ele>
        <time>2023-01-02T08:52:06Z</time>
      </trkpt>
      <trkpt lat="41.7797590" lon="2.9490300">
        <ele>256.0</ele>
        <time>2023-01-02T08:52:07Z</time>
      </trkpt>
      <trkpt lat="41.7797590" lon="2.9490250">
        <ele>256.2</ele>
        <time>2023-01-02T08:52:13Z</time>
      </trkpt>
      <trkpt lat="41.7797610" lon="2.9490190">
        <ele>256.2</ele>
        <time>2023-01-02T08:52:24Z</time>
      </trkpt>
      <trkpt lat="41.7797630" lon="2.9490290">
        <ele>256.2</ele>
        <time>2023-01-02T08:52:34Z</time>
      </trkpt>
      <trkpt lat="41.7797670" lon="2.9490370">
        <ele>256.2</ele>
        <time>2023-01-02T08:52:41Z</time>
      </trkpt>
      <trkpt lat="41.7797690" lon="2.9490370">
        <ele>256.2</ele>
        <time>2023-01-02T08:52:42Z</time>
      </trkpt>
      <trkpt lat="41.7797700" lon="2.9490350">
        <ele>256.0</ele>
        <time>2023-01-02T08:52:47Z</time>
      </trkpt>
      <trkpt lat="41.7797690" lon="2.9490350">
        <ele>256.2</ele>
        <time>2023-01-02T08:52:52Z</time>
      </trkpt>
      <trkpt lat="41.7797680" lon="2.9490360">
        <ele>256.2</ele>
        <time>2023-01-02T08:52:55Z</time>
      </trkpt>
      <trkpt lat="41.7797680" lon="2.9490330">
        <ele>256.0</ele>
        <time>2023-01-02T08:53:02Z</time>
      </trkpt>
      <trkpt lat="41.7797640" lon="2.9490300">
        <ele>256.0</ele>
        <time>2023-01-02T08:53:08Z</time>
      </trkpt>
      <trkpt lat="41.7797630" lon="2.9490290">
        <ele>256.0</ele>
        <time>2023-01-02T08:53:10Z</time>
      </trkpt>
      <trkpt lat="41.7797590" lon="2.9490290">
        <ele>256.2</ele>
        <time>2023-01-02T08:53:16Z</time>
      </trkpt>
      <trkpt lat="41.7797600" lon="2.9490300">
        <ele>256.0</ele>
        <time>2023-01-02T08:53:19Z</time>
      </trkpt>
      <trkpt lat="41.7798410" lon="2.9490750">
        <ele>255.6</ele>
        <time>2023-01-02T08:53:26Z</time>
      </trkpt>
      <trkpt lat="41.7799020" lon="2.9491130">
        <ele>254.6</ele>
        <time>2023-01-02T08:53:28Z</time>
      </trkpt>
      <trkpt lat="41.7799650" lon="2.9491590">
        <ele>253.4</ele>
        <time>2023-01-02T08:53:30Z</time>
      </trkpt>
      <trkpt lat="41.7800150" lon="2.9492180">
        <ele>252.0</ele>
        <time>2023-01-02T08:53:32Z</time>
      </trkpt>
      <trkpt lat="41.7800380" lon="2.9492970">
        <ele>251.0</ele>
        <time>2023-01-02T08:53:34Z</time>
      </trkpt>
      <trkpt lat="41.7800630" lon="2.9493770">
        <ele>250.0</ele>
        <time>2023-01-02T08:53:36Z</time>
      </trkpt>
      <trkpt lat="41.7800830" lon="2.9494150">
        <ele>249.4</ele>
        <time>2023-01-02T08:53:37Z</time>
      </trkpt>
      <trkpt lat="41.7801360" lon="2.9494950">
        <ele>248.0</ele>
        <time>2023-01-02T08:53:39Z</time>
      </trkpt>
      <trkpt lat="41.7802120" lon="2.9495660">
        <ele>246.6</ele>
        <time>2023-01-02T08:53:41Z</time>
      </trkpt>
      <trkpt lat="41.7803190" lon="2.9496200">
        <ele>244.8</ele>
        <time>2023-01-02T08:53:43Z</time>
      </trkpt>
      <trkpt lat="41.7803850" lon="2.9496480">
        <ele>243.6</ele>
        <time>2023-01-02T08:53:44Z</time>
      </trkpt>
      <trkpt lat="41.7804540" lon="2.9496830">
        <ele>242.8</ele>
        <time>2023-01-02T08:53:45Z</time>
      </trkpt>
      <trkpt lat="41.7805230" lon="2.9497280">
        <ele>241.0</ele>
        <time>2023-01-02T08:53:46Z</time>
      </trkpt>
      <trkpt lat="41.7806610" lon="2.9498420">
        <ele>239.0</ele>
        <time>2023-01-02T08:53:48Z</time>
      </trkpt>
      <trkpt lat="41.7807390" lon="2.9498890">
        <ele>237.4</ele>
        <time>2023-01-02T08:53:49Z</time>
      </trkpt>
      <trkpt lat="41.7808300" lon="2.9499140">
        <ele>235.8</ele>
        <time>2023-01-02T08:53:50Z</time>
      </trkpt>
      <trkpt lat="41.7809140" lon="2.9499160">
        <ele>234.6</ele>
        <time>2023-01-02T08:53:51Z</time>
      </trkpt>
      <trkpt lat="41.7809850" lon="2.9498940">
        <ele>233.0</ele>
        <time>2023-01-02T08:53:52Z</time>
      </trkpt>
      <trkpt lat="41.7810410" lon="2.9498500">
        <ele>231.6</ele>
        <time>2023-01-02T08:53:53Z</time>
      </trkpt>
      <trkpt lat="41.7810760" lon="2.9497870">
        <ele>230.0</ele>
        <time>2023-01-02T08:53:54Z</time>
      </trkpt>
      <trkpt lat="41.7810930" lon="2.9497130">
        <ele>228.8</ele>
        <time>2023-01-02T08:53:55Z</time>
      </trkpt>
      <trkpt lat="41.7810920" lon="2.9495540">
        <ele>227.2</ele>
        <time>2023-01-02T08:53:57Z</time>
      </trkpt>
      <trkpt lat="41.7810790" lon="2.9494170">
        <ele>226.6</ele>
        <time>2023-01-02T08:53:59Z</time>
      </trkpt>
      <trkpt lat="41.7810290" lon="2.9492390">
        <ele>226.4</ele>
        <time>2023-01-02T08:54:02Z</time>
      </trkpt>
      <trkpt lat="41.7809790" lon="2.9491110">
        <ele>226.4</ele>
        <time>2023-01-02T08:54:04Z</time>
      </trkpt>
      <trkpt lat="41.7808750" lon="2.9488660">
        <ele>226.4</ele>
        <time>2023-01-02T08:54:09Z</time>
      </trkpt>
      <trkpt lat="41.7807170" lon="2.9486810">
        <ele>226.8</ele>
        <time>2023-01-02T08:54:15Z</time>
      </trkpt>
      <trkpt lat="41.7806210" lon="2.9485990">
        <ele>226.6</ele>
        <time>2023-01-02T08:54:18Z</time>
      </trkpt>
      <trkpt lat="41.7805890" lon="2.9485110">
        <ele>226.2</ele>
        <time>2023-01-02T08:54:20Z</time>
      </trkpt>
      <trkpt lat="41.7805940" lon="2.9484620">
        <ele>226.0</ele>
        <time>2023-01-02T08:54:21Z</time>
      </trkpt>
      <trkpt lat="41.7806370" lon="2.9483540">
        <ele>226.2</ele>
        <time>2023-01-02T08:54:24Z</time>
      </trkpt>
      <trkpt lat="41.7806560" lon="2.9481650">
        <ele>226.6</ele>
        <time>2023-01-02T08:54:29Z</time>
      </trkpt>
      <trkpt lat="41.7805780" lon="2.9480040">
        <ele>226.4</ele>
        <time>2023-01-02T08:54:33Z</time>
      </trkpt>
      <trkpt lat="41.7805740" lon="2.9478970">
        <ele>226.4</ele>
        <time>2023-01-02T08:54:35Z</time>
      </trkpt>
      <trkpt lat="41.7806000" lon="2.9478380">
        <ele>226.2</ele>
        <time>2023-01-02T08:54:36Z</time>
      </trkpt>
      <trkpt lat="41.7806290" lon="2.9478010">
        <ele>226.2</ele>
        <time>2023-01-02T08:54:37Z</time>
      </trkpt>
      <trkpt lat="41.7807010" lon="2.9477610">
        <ele>226.0</ele>
        <time>2023-01-02T08:54:39Z</time>
      </trkpt>
      <trkpt lat="41.7809970" lon="2.9476290">
        <ele>225.2</ele>
        <time>2023-01-02T08:54:47Z</time>
      </trkpt>
      <trkpt lat="41.7810720" lon="2.9475940">
        <ele>225.0</ele>
        <time>2023-01-02T08:54:49Z</time>
      </trkpt>
      <trkpt lat="41.7811490" lon="2.9475540">
        <ele>224.8</ele>
        <time>2023-01-02T08:54:51Z</time>
      </trkpt>
      <trkpt lat="41.7812280" lon="2.9474990">
        <ele>224.4</ele>
        <time>2023-01-02T08:54:53Z</time>
      </trkpt>
      <trkpt lat="41.7812650" lon="2.9474680">
        <ele>224.2</ele>
        <time>2023-01-02T08:54:54Z</time>
      </trkpt>
      <trkpt lat="41.7812970" lon="2.9474260">
        <ele>224.0</ele>
        <time>2023-01-02T08:54:55Z</time>
      </trkpt>
      <trkpt lat="41.7813350" lon="2.9473130">
        <ele>223.6</ele>
        <time>2023-01-02T08:54:57Z</time>
      </trkpt>
      <trkpt lat="41.7813240" lon="2.9471670">
        <ele>223.0</ele>
        <time>2023-01-02T08:54:59Z</time>
      </trkpt>
      <trkpt lat="41.7813100" lon="2.9470900">
        <ele>222.8</ele>
        <time>2023-01-02T08:55:00Z</time>
      </trkpt>
      <trkpt lat="41.7812980" lon="2.9469340">
        <ele>222.4</ele>
        <time>2023-01-02T08:55:02Z</time>
      </trkpt>
      <trkpt lat="41.7813160" lon="2.9467970">
        <ele>222.0</ele>
        <time>2023-01-02T08:55:04Z</time>
      </trkpt>
      <trkpt lat="41.7813570" lon="2.9466980">
        <ele>222.0</ele>
        <time>2023-01-02T08:55:06Z</time>
      </trkpt>
      <trkpt lat="41.7813920" lon="2.9466710">
        <ele>222.0</ele>
        <time>2023-01-02T08:55:07Z</time>
      </trkpt>
      <trkpt lat="41.7814780" lon="2.9466760">
        <ele>222.0</ele>
        <time>2023-01-02T08:55:09Z</time>
      </trkpt>
      <trkpt lat="41.7815160" lon="2.9466920">
        <ele>222.2</ele>
        <time>2023-01-02T08:55:10Z</time>
      </trkpt>
      <trkpt lat="41.7816870" lon="2.9467120">
        <ele>223.0</ele>
        <time>2023-01-02T08:55:15Z</time>
      </trkpt>
      <trkpt lat="41.7817660" lon="2.9465440">
        <ele>223.2</ele>
        <time>2023-01-02T08:55:19Z</time>
      </trkpt>
      <trkpt lat="41.7819180" lon="2.9462870">
        <ele>222.4</ele>
        <time>2023-01-02T08:55:25Z</time>
      </trkpt>
      <trkpt lat="41.7819510" lon="2.9460400">
        <ele>222.2</ele>
        <time>2023-01-02T08:55:30Z</time>
      </trkpt>
      <trkpt lat="41.7819130" lon="2.9459360">
        <ele>222.2</ele>
        <time>2023-01-02T08:55:32Z</time>
      </trkpt>
      <trkpt lat="41.7818720" lon="2.9457690">
        <ele>221.8</ele>
        <time>2023-01-02T08:55:35Z</time>
      </trkpt>
      <trkpt lat="41.7818660" lon="2.9457090">
        <ele>221.6</ele>
        <time>2023-01-02T08:55:36Z</time>
      </trkpt>
      <trkpt lat="41.7818550" lon="2.9455830">
        <ele>221.4</ele>
        <time>2023-01-02T08:55:38Z</time>
      </trkpt>
      <trkpt lat="41.7818690" lon="2.9454600">
        <ele>221.4</ele>
        <time>2023-01-02T08:55:40Z</time>
      </trkpt>
      <trkpt lat="41.7818870" lon="2.9454020">
        <ele>221.0</ele>
        <time>2023-01-02T08:55:41Z</time>
      </trkpt>
      <trkpt lat="41.7819140" lon="2.9453540">
        <ele>220.8</ele>
        <time>2023-01-02T08:55:42Z</time>
      </trkpt>
      <trkpt lat="41.7819910" lon="2.9452750">
        <ele>220.6</ele>
        <time>2023-01-02T08:55:44Z</time>
      </trkpt>
      <trkpt lat="41.7820340" lon="2.9452460">
        <ele>220.6</ele>
        <time>2023-01-02T08:55:45Z</time>
      </trkpt>
      <trkpt lat="41.7822100" lon="2.9450880">
        <ele>219.6</ele>
        <time>2023-01-02T08:55:50Z</time>
      </trkpt>
      <trkpt lat="41.7821680" lon="2.9449350">
        <ele>219.2</ele>
        <time>2023-01-02T08:55:53Z</time>
      </trkpt>
      <trkpt lat="41.7820970" lon="2.9448110">
        <ele>218.6</ele>
        <time>2023-01-02T08:55:56Z</time>
      </trkpt>
      <trkpt lat="41.7820140" lon="2.9447100">
        <ele>218.4</ele>
        <time>2023-01-02T08:55:59Z</time>
      </trkpt>
      <trkpt lat="41.7818890" lon="2.9446690">
        <ele>218.6</ele>
        <time>2023-01-02T08:56:03Z</time>
      </trkpt>
      <trkpt lat="41.7816330" lon="2.9447030">
        <ele>219.2</ele>
        <time>2023-01-02T08:56:10Z</time>
      </trkpt>
      <trkpt lat="41.7814470" lon="2.9447670">
        <ele>219.0</ele>
        <time>2023-01-02T08:56:15Z</time>
      </trkpt>
      <trkpt lat="41.7813780" lon="2.9447310">
        <ele>218.6</ele>
        <time>2023-01-02T08:56:17Z</time>
      </trkpt>
      <trkpt lat="41.7813620" lon="2.9446860">
        <ele>218.4</ele>
        <time>2023-01-02T08:56:18Z</time>
      </trkpt>
      <trkpt lat="41.7813620" lon="2.9446390">
        <ele>218.2</ele>
        <time>2023-01-02T08:56:19Z</time>
      </trkpt>
      <trkpt lat="41.7813940" lon="2.9445610">
        <ele>218.0</ele>
        <time>2023-01-02T08:56:21Z</time>
      </trkpt>
      <trkpt lat="41.7814480" lon="2.9444350">
        <ele>218.2</ele>
        <time>2023-01-02T08:56:24Z</time>
      </trkpt>
      <trkpt lat="41.7814610" lon="2.9443840">
        <ele>218.2</ele>
        <time>2023-01-02T08:56:25Z</time>
      </trkpt>
      <trkpt lat="41.7814190" lon="2.9441870">
        <ele>218.8</ele>
        <time>2023-01-02T08:56:29Z</time>
      </trkpt>
      <trkpt lat="41.7813260" lon="2.9440460">
        <ele>219.0</ele>
        <time>2023-01-02T08:56:33Z</time>
      </trkpt>
      <trkpt lat="41.7813280" lon="2.9440020">
        <ele>219.0</ele>
        <time>2023-01-02T08:56:34Z</time>
      </trkpt>
      <trkpt lat="41.7813640" lon="2.9439390">
        <ele>219.2</ele>
        <time>2023-01-02T08:56:36Z</time>
      </trkpt>
      <trkpt lat="41.7815480" lon="2.9438420">
        <ele>219.4</ele>
        <time>2023-01-02T08:56:42Z</time>
      </trkpt>
      <trkpt lat="41.7816700" lon="2.9436610">
        <ele>219.4</ele>
        <time>2023-01-02T08:56:47Z</time>
      </trkpt>
      <trkpt lat="41.7817530" lon="2.9436230">
        <ele>219.6</ele>
        <time>2023-01-02T08:56:49Z</time>
      </trkpt>
      <trkpt lat="41.7818350" lon="2.9436150">
        <ele>219.6</ele>
        <time>2023-01-02T08:56:51Z</time>
      </trkpt>
      <trkpt lat="41.7820000" lon="2.9434880">
        <ele>220.2</ele>
        <time>2023-01-02T08:56:56Z</time>
      </trkpt>
      <trkpt lat="41.7820440" lon="2.9433070">
        <ele>220.2</ele>
        <time>2023-01-02T08:57:00Z</time>
      </trkpt>
      <trkpt lat="41.7820410" lon="2.9431530">
        <ele>220.6</ele>
        <time>2023-01-02T08:57:03Z</time>
      </trkpt>
      <trkpt lat="41.7820400" lon="2.9429940">
        <ele>220.8</ele>
        <time>2023-01-02T08:57:06Z</time>
      </trkpt>
      <trkpt lat="41.7820780" lon="2.9427540">
        <ele>220.8</ele>
        <time>2023-01-02T08:57:11Z</time>
      </trkpt>
      <trkpt lat="41.7821860" lon="2.9425460">
        <ele>221.6</ele>
        <time>2023-01-02T08:57:17Z</time>
      </trkpt>
      <trkpt lat="41.7822450" lon="2.9424830">
        <ele>221.6</ele>
        <time>2023-01-02T08:57:20Z</time>
      </trkpt>
      <trkpt lat="41.7822940" lon="2.9423930">
        <ele>222.0</ele>
        <time>2023-01-02T08:57:23Z</time>
      </trkpt>
      <trkpt lat="41.7823570" lon="2.9421590">
        <ele>222.4</ele>
        <time>2023-01-02T08:57:29Z</time>
      </trkpt>
      <trkpt lat="41.7824260" lon="2.9419410">
        <ele>222.8</ele>
        <time>2023-01-02T08:57:34Z</time>
      </trkpt>
      <trkpt lat="41.7824140" lon="2.9417870">
        <ele>223.0</ele>
        <time>2023-01-02T08:57:38Z</time>
      </trkpt>
      <trkpt lat="41.7822980" lon="2.9416410">
        <ele>222.8</ele>
        <time>2023-01-02T08:57:43Z</time>
      </trkpt>
      <trkpt lat="41.7820980" lon="2.9415740">
        <ele>223.2</ele>
        <time>2023-01-02T08:57:49Z</time>
      </trkpt>
      <trkpt lat="41.7819110" lon="2.9416150">
        <ele>223.4</ele>
        <time>2023-01-02T08:57:55Z</time>
      </trkpt>
      <trkpt lat="41.7818500" lon="2.9416570">
        <ele>223.8</ele>
        <time>2023-01-02T08:57:57Z</time>
      </trkpt>
      <trkpt lat="41.7817300" lon="2.9417320">
        <ele>224.2</ele>
        <time>2023-01-02T08:58:01Z</time>
      </trkpt>
      <trkpt lat="41.7815490" lon="2.9417700">
        <ele>224.2</ele>
        <time>2023-01-02T08:58:07Z</time>
      </trkpt>
      <trkpt lat="41.7814700" lon="2.9416590">
        <ele>223.8</ele>
        <time>2023-01-02T08:58:11Z</time>
      </trkpt>
      <trkpt lat="41.7814970" lon="2.9414880">
        <ele>223.6</ele>
        <time>2023-01-02T08:58:15Z</time>
      </trkpt>
      <trkpt lat="41.7816040" lon="2.9412870">
        <ele>223.2</ele>
        <time>2023-01-02T08:58:20Z</time>
      </trkpt>
      <trkpt lat="41.7816700" lon="2.9411310">
        <ele>222.8</ele>
        <time>2023-01-02T08:58:23Z</time>
      </trkpt>
      <trkpt lat="41.7816900" lon="2.9410780">
        <ele>222.8</ele>
        <time>2023-01-02T08:58:24Z</time>
      </trkpt>
      <trkpt lat="41.7817150" lon="2.9410210">
        <ele>222.6</ele>
        <time>2023-01-02T08:58:25Z</time>
      </trkpt>
      <trkpt lat="41.7817440" lon="2.9409690">
        <ele>222.6</ele>
        <time>2023-01-02T08:58:26Z</time>
      </trkpt>
      <trkpt lat="41.7817760" lon="2.9409230">
        <ele>222.4</ele>
        <time>2023-01-02T08:58:27Z</time>
      </trkpt>
      <trkpt lat="41.7818750" lon="2.9408450">
        <ele>222.4</ele>
        <time>2023-01-02T08:58:30Z</time>
      </trkpt>
      <trkpt lat="41.7820260" lon="2.9407260">
        <ele>223.2</ele>
        <time>2023-01-02T08:58:36Z</time>
      </trkpt>
      <trkpt lat="41.7820870" lon="2.9406590">
        <ele>223.8</ele>
        <time>2023-01-02T08:58:39Z</time>
      </trkpt>
      <trkpt lat="41.7821520" lon="2.9405780">
        <ele>224.2</ele>
        <time>2023-01-02T08:58:42Z</time>
      </trkpt>
      <trkpt lat="41.7822120" lon="2.9404990">
        <ele>224.8</ele>
        <time>2023-01-02T08:58:45Z</time>
      </trkpt>
      <trkpt lat="41.7822980" lon="2.9403570">
        <ele>225.8</ele>
        <time>2023-01-02T08:58:50Z</time>
      </trkpt>
      <trkpt lat="41.7823140" lon="2.9403260">
        <ele>226.0</ele>
        <time>2023-01-02T08:58:51Z</time>
      </trkpt>
      <trkpt lat="41.7823660" lon="2.9401350">
        <ele>226.6</ele>
        <time>2023-01-02T08:58:56Z</time>
      </trkpt>
      <trkpt lat="41.7824220" lon="2.9398320">
        <ele>225.4</ele>
        <time>2023-01-02T08:59:02Z</time>
      </trkpt>
      <trkpt lat="41.7824310" lon="2.9397020">
        <ele>225.0</ele>
        <time>2023-01-02T08:59:04Z</time>
      </trkpt>
      <trkpt lat="41.7824270" lon="2.9396350">
        <ele>224.6</ele>
        <time>2023-01-02T08:59:05Z</time>
      </trkpt>
      <trkpt lat="41.7824150" lon="2.9395720">
        <ele>224.4</ele>
        <time>2023-01-02T08:59:06Z</time>
      </trkpt>
      <trkpt lat="41.7823950" lon="2.9395050">
        <ele>223.8</ele>
        <time>2023-01-02T08:59:07Z</time>
      </trkpt>
      <trkpt lat="41.7823850" lon="2.9394360">
        <ele>223.4</ele>
        <time>2023-01-02T08:59:08Z</time>
      </trkpt>
      <trkpt lat="41.7824280" lon="2.9393210">
        <ele>222.6</ele>
        <time>2023-01-02T08:59:10Z</time>
      </trkpt>
      <trkpt lat="41.7824520" lon="2.9392970">
        <ele>222.2</ele>
        <time>2023-01-02T08:59:11Z</time>
      </trkpt>
      <trkpt lat="41.7824890" lon="2.9392910">
        <ele>221.8</ele>
        <time>2023-01-02T08:59:12Z</time>
      </trkpt>
      <trkpt lat="41.7825280" lon="2.9393040">
        <ele>221.6</ele>
        <time>2023-01-02T08:59:13Z</time>
      </trkpt>
      <trkpt lat="41.7827630" lon="2.9393440">
        <ele>221.8</ele>
        <time>2023-01-02T08:59:19Z</time>
      </trkpt>
      <trkpt lat="41.7830190" lon="2.9393720">
        <ele>222.4</ele>
        <time>2023-01-02T08:59:26Z</time>
      </trkpt>
      <trkpt lat="41.7831010" lon="2.9393640">
        <ele>222.2</ele>
        <time>2023-01-02T08:59:28Z</time>
      </trkpt>
      <trkpt lat="41.7831760" lon="2.9393040">
        <ele>222.0</ele>
        <time>2023-01-02T08:59:30Z</time>
      </trkpt>
      <trkpt lat="41.7832370" lon="2.9391960">
        <ele>221.8</ele>
        <time>2023-01-02T08:59:32Z</time>
      </trkpt>
      <trkpt lat="41.7832610" lon="2.9390570">
        <ele>221.6</ele>
        <time>2023-01-02T08:59:34Z</time>
      </trkpt>
      <trkpt lat="41.7832520" lon="2.9388460">
        <ele>221.4</ele>
        <time>2023-01-02T08:59:37Z</time>
      </trkpt>
      <trkpt lat="41.7832430" lon="2.9387110">
        <ele>221.4</ele>
        <time>2023-01-02T08:59:39Z</time>
      </trkpt>
      <trkpt lat="41.7832560" lon="2.9386430">
        <ele>221.2</ele>
        <time>2023-01-02T08:59:40Z</time>
      </trkpt>
      <trkpt lat="41.7832750" lon="2.9385810">
        <ele>221.2</ele>
        <time>2023-01-02T08:59:41Z</time>
      </trkpt>
      <trkpt lat="41.7833030" lon="2.9385310">
        <ele>221.0</ele>
        <time>2023-01-02T08:59:42Z</time>
      </trkpt>
      <trkpt lat="41.7833380" lon="2.9384920">
        <ele>221.0</ele>
        <time>2023-01-02T08:59:43Z</time>
      </trkpt>
      <trkpt lat="41.7834510" lon="2.9384200">
        <ele>221.2</ele>
        <time>2023-01-02T08:59:46Z</time>
      </trkpt>
      <trkpt lat="41.7836230" lon="2.9382930">
        <ele>222.4</ele>
        <time>2023-01-02T08:59:52Z</time>
      </trkpt>
      <trkpt lat="41.7836520" lon="2.9381620">
        <ele>222.4</ele>
        <time>2023-01-02T08:59:55Z</time>
      </trkpt>
      <trkpt lat="41.7836460" lon="2.9381010">
        <ele>222.4</ele>
        <time>2023-01-02T08:59:56Z</time>
      </trkpt>
      <trkpt lat="41.7836160" lon="2.9379560">
        <ele>222.0</ele>
        <time>2023-01-02T08:59:58Z</time>
      </trkpt>
      <trkpt lat="41.7835700" lon="2.9377860">
        <ele>221.0</ele>
        <time>2023-01-02T09:00:00Z</time>
      </trkpt>
      <trkpt lat="41.7835680" lon="2.9375800">
        <ele>220.2</ele>
        <time>2023-01-02T09:00:02Z</time>
      </trkpt>
      <trkpt lat="41.7835930" lon="2.9374740">
        <ele>219.8</ele>
        <time>2023-01-02T09:00:03Z</time>
      </trkpt>
      <trkpt lat="41.7836710" lon="2.9372620">
        <ele>218.4</ele>
        <time>2023-01-02T09:00:05Z</time>
      </trkpt>
      <trkpt lat="41.7837070" lon="2.9371500">
        <ele>217.6</ele>
        <time>2023-01-02T09:00:06Z</time>
      </trkpt>
      <trkpt lat="41.7837360" lon="2.9370360">
        <ele>217.0</ele>
        <time>2023-01-02T09:00:07Z</time>
      </trkpt>
      <trkpt lat="41.7837960" lon="2.9366780">
        <ele>215.8</ele>
        <time>2023-01-02T09:00:10Z</time>
      </trkpt>
      <trkpt lat="41.7838180" lon="2.9365590">
        <ele>214.8</ele>
        <time>2023-01-02T09:00:11Z</time>
      </trkpt>
      <trkpt lat="41.7838570" lon="2.9364400">
        <ele>214.0</ele>
        <time>2023-01-02T09:00:12Z</time>
      </trkpt>
      <trkpt lat="41.7839140" lon="2.9363240">
        <ele>213.0</ele>
        <time>2023-01-02T09:00:13Z</time>
      </trkpt>
      <trkpt lat="41.7840400" lon="2.9361120">
        <ele>211.6</ele>
        <time>2023-01-02T09:00:15Z</time>
      </trkpt>
      <trkpt lat="41.7840860" lon="2.9360000">
        <ele>211.0</ele>
        <time>2023-01-02T09:00:16Z</time>
      </trkpt>
      <trkpt lat="41.7841160" lon="2.9358850">
        <ele>210.6</ele>
        <time>2023-01-02T09:00:17Z</time>
      </trkpt>
      <trkpt lat="41.7841350" lon="2.9357790">
        <ele>210.2</ele>
        <time>2023-01-02T09:00:18Z</time>
      </trkpt>
      <trkpt lat="41.7841500" lon="2.9355630">
        <ele>209.2</ele>
        <time>2023-01-02T09:00:20Z</time>
      </trkpt>
      <trkpt lat="41.7841900" lon="2.9353200">
        <ele>207.8</ele>
        <time>2023-01-02T09:00:22Z</time>
      </trkpt>
      <trkpt lat="41.7842350" lon="2.9351180">
        <ele>206.4</ele>
        <time>2023-01-02T09:00:24Z</time>
      </trkpt>
      <trkpt lat="41.7842500" lon="2.9350550">
        <ele>204.2</ele>
        <time>2023-01-02T09:00:25Z</time>
      </trkpt>
      <trkpt lat="41.7842570" lon="2.9350110">
        <ele>202.6</ele>
        <time>2023-01-02T09:00:26Z</time>
      </trkpt>
      <trkpt lat="41.7842460" lon="2.9349840">
        <ele>201.4</ele>
        <time>2023-01-02T09:00:27Z</time>
      </trkpt>
      <trkpt lat="41.7842300" lon="2.9349660">
        <ele>200.8</ele>
        <time>2023-01-02T09:00:28Z</time>
      </trkpt>
      <trkpt lat="41.7842170" lon="2.9349530">
        <ele>200.4</ele>
        <time>2023-01-02T09:00:29Z</time>
      </trkpt>
      <trkpt lat="41.7841690" lon="2.9348790">
        <ele>200.4</ele>
        <time>2023-01-02T09:00:34Z</time>
      </trkpt>
      <trkpt lat="41.7841770" lon="2.9348090">
        <ele>200.4</ele>
        <time>2023-01-02T09:00:36Z</time>
      </trkpt>
      <trkpt lat="41.7842140" lon="2.9347700">
        <ele>200.4</ele>
        <time>2023-01-02T09:00:38Z</time>
      </trkpt>
      <trkpt lat="41.7843120" lon="2.9348000">
        <ele>200.6</ele>
        <time>2023-01-02T09:00:42Z</time>
      </trkpt>
      <trkpt lat="41.7844580" lon="2.9348040">
        <ele>201.4</ele>
        <time>2023-01-02T09:00:48Z</time>
      </trkpt>
      <trkpt lat="41.7844790" lon="2.9347930">
        <ele>201.6</ele>
        <time>2023-01-02T09:00:49Z</time>
      </trkpt>
      <trkpt lat="41.7845780" lon="2.9346920">
        <ele>202.2</ele>
        <time>2023-01-02T09:00:54Z</time>
      </trkpt>
      <trkpt lat="41.7846330" lon="2.9345910">
        <ele>202.6</ele>
        <time>2023-01-02T09:00:57Z</time>
      </trkpt>
      <trkpt lat="41.7847030" lon="2.9344700">
        <ele>202.6</ele>
        <time>2023-01-02T09:01:00Z</time>
      </trkpt>
      <trkpt lat="41.7848610" lon="2.9342660">
        <ele>202.4</ele>
        <time>2023-01-02T09:01:06Z</time>
      </trkpt>
      <trkpt lat="41.7849300" lon="2.9342110">
        <ele>202.4</ele>
        <time>2023-01-02T09:01:08Z</time>
      </trkpt>
      <trkpt lat="41.7850580" lon="2.9340710">
        <ele>202.2</ele>
        <time>2023-01-02T09:01:12Z</time>
      </trkpt>
      <trkpt lat="41.7851280" lon="2.9340010">
        <ele>202.2</ele>
        <time>2023-01-02T09:01:14Z</time>
      </trkpt>
      <trkpt lat="41.7852070" lon="2.9338690">
        <ele>201.8</ele>
        <time>2023-01-02T09:01:17Z</time>
      </trkpt>
      <trkpt lat="41.7852640" lon="2.9337770">
        <ele>201.6</ele>
        <time>2023-01-02T09:01:19Z</time>
      </trkpt>
      <trkpt lat="41.7854210" lon="2.9334900">
        <ele>201.4</ele>
        <time>2023-01-02T09:01:25Z</time>
      </trkpt>
      <trkpt lat="41.7855280" lon="2.9332950">
        <ele>201.2</ele>
        <time>2023-01-02T09:01:29Z</time>
      </trkpt>
      <trkpt lat="41.7856220" lon="2.9331350">
        <ele>200.8</ele>
        <time>2023-01-02T09:01:32Z</time>
      </trkpt>
      <trkpt lat="41.7857300" lon="2.9329910">
        <ele>200.4</ele>
        <time>2023-01-02T09:01:35Z</time>
      </trkpt>
      <trkpt lat="41.7858410" lon="2.9328760">
        <ele>200.2</ele>
        <time>2023-01-02T09:01:38Z</time>
      </trkpt>
      <trkpt lat="41.7860380" lon="2.9326080">
        <ele>200.6</ele>
        <time>2023-01-02T09:01:45Z</time>
      </trkpt>
      <trkpt lat="41.7860390" lon="2.9324640">
        <ele>201.2</ele>
        <time>2023-01-02T09:01:49Z</time>
      </trkpt>
      <trkpt lat="41.7860280" lon="2.9324350">
        <ele>201.6</ele>
        <time>2023-01-02T09:01:50Z</time>
      </trkpt>
      <trkpt lat="41.7859560" lon="2.9322850">
        <ele>202.6</ele>
        <time>2023-01-02T09:01:55Z</time>
      </trkpt>
      <trkpt lat="41.7859070" lon="2.9321740">
        <ele>203.2</ele>
        <time>2023-01-02T09:01:59Z</time>
      </trkpt>
      <trkpt lat="41.7858740" lon="2.9320760">
        <ele>203.8</ele>
        <time>2023-01-02T09:02:02Z</time>
      </trkpt>
      <trkpt lat="41.7858620" lon="2.9320420">
        <ele>203.8</ele>
        <time>2023-01-02T09:02:03Z</time>
      </trkpt>
      <trkpt lat="41.7857680" lon="2.9318330">
        <ele>204.8</ele>
        <time>2023-01-02T09:02:10Z</time>
      </trkpt>
      <trkpt lat="41.7857210" lon="2.9317630">
        <ele>205.4</ele>
        <time>2023-01-02T09:02:13Z</time>
      </trkpt>
      <trkpt lat="41.7856770" lon="2.9317390">
        <ele>205.6</ele>
        <time>2023-01-02T09:02:15Z</time>
      </trkpt>
      <trkpt lat="41.7856240" lon="2.9317370">
        <ele>205.8</ele>
        <time>2023-01-02T09:02:17Z</time>
      </trkpt>
      <trkpt lat="41.7854860" lon="2.9317130">
        <ele>205.4</ele>
        <time>2023-01-02T09:02:22Z</time>
      </trkpt>
      <trkpt lat="41.7854730" lon="2.9316630">
        <ele>204.8</ele>
        <time>2023-01-02T09:02:24Z</time>
      </trkpt>
      <trkpt lat="41.7854980" lon="2.9316010">
        <ele>204.4</ele>
        <time>2023-01-02T09:02:26Z</time>
      </trkpt>
      <trkpt lat="41.7856250" lon="2.9314600">
        <ele>203.8</ele>
        <time>2023-01-02T09:02:32Z</time>
      </trkpt>
      <trkpt lat="41.7857150" lon="2.9313170">
        <ele>202.6</ele>
        <time>2023-01-02T09:02:36Z</time>
      </trkpt>
      <trkpt lat="41.7857800" lon="2.9311860">
        <ele>201.8</ele>
        <time>2023-01-02T09:02:39Z</time>
      </trkpt>
      <trkpt lat="41.7858010" lon="2.9311390">
        <ele>201.6</ele>
        <time>2023-01-02T09:02:40Z</time>
      </trkpt>
      <trkpt lat="41.7858400" lon="2.9309940">
        <ele>201.2</ele>
        <time>2023-01-02T09:02:43Z</time>
      </trkpt>
      <trkpt lat="41.7858480" lon="2.9309510">
        <ele>200.8</ele>
        <time>2023-01-02T09:02:44Z</time>
      </trkpt>
      <trkpt lat="41.7858520" lon="2.9308980">
        <ele>200.4</ele>
        <time>2023-01-02T09:02:45Z</time>
      </trkpt>
      <trkpt lat="41.7858580" lon="2.9308430">
        <ele>200.2</ele>
        <time>2023-01-02T09:02:46Z</time>
      </trkpt>
      <trkpt lat="41.7858540" lon="2.9306610">
        <ele>199.6</ele>
        <time>2023-01-02T09:02:49Z</time>
      </trkpt>
      <trkpt lat="41.7858550" lon="2.9306040">
        <ele>199.4</ele>
        <time>2023-01-02T09:02:50Z</time>
      </trkpt>
      <trkpt lat="41.7858700" lon="2.9305550">
        <ele>199.2</ele>
        <time>2023-01-02T09:02:51Z</time>
      </trkpt>
      <trkpt lat="41.7859010" lon="2.9305210">
        <ele>198.8</ele>
        <time>2023-01-02T09:02:52Z</time>
      </trkpt>
      <trkpt lat="41.7859400" lon="2.9305110">
        <ele>198.2</ele>
        <time>2023-01-02T09:02:53Z</time>
      </trkpt>
      <trkpt lat="41.7860100" lon="2.9305560">
        <ele>198.0</ele>
        <time>2023-01-02T09:02:55Z</time>
      </trkpt>
      <trkpt lat="41.7860260" lon="2.9305990">
        <ele>197.8</ele>
        <time>2023-01-02T09:02:56Z</time>
      </trkpt>
      <trkpt lat="41.7860380" lon="2.9306780">
        <ele>197.6</ele>
        <time>2023-01-02T09:02:58Z</time>
      </trkpt>
      <trkpt lat="41.7860540" lon="2.9307480">
        <ele>197.0</ele>
        <time>2023-01-02T09:03:00Z</time>
      </trkpt>
      <trkpt lat="41.7860910" lon="2.9308230">
        <ele>196.8</ele>
        <time>2023-01-02T09:03:02Z</time>
      </trkpt>
      <trkpt lat="41.7862450" lon="2.9310100">
        <ele>195.8</ele>
        <time>2023-01-02T09:03:07Z</time>
      </trkpt>
      <trkpt lat="41.7862800" lon="2.9310300">
        <ele>195.4</ele>
        <time>2023-01-02T09:03:08Z</time>
      </trkpt>
      <trkpt lat="41.7864390" lon="2.9310690">
        <ele>194.6</ele>
        <time>2023-01-02T09:03:12Z</time>
      </trkpt>
      <trkpt lat="41.7865300" lon="2.9310790">
        <ele>194.4</ele>
        <time>2023-01-02T09:03:14Z</time>
      </trkpt>
      <trkpt lat="41.7866280" lon="2.9310940">
        <ele>194.2</ele>
        <time>2023-01-02T09:03:16Z</time>
      </trkpt>
      <trkpt lat="41.7867160" lon="2.9311190">
        <ele>193.6</ele>
        <time>2023-01-02T09:03:18Z</time>
      </trkpt>
      <trkpt lat="41.7867890" lon="2.9311600">
        <ele>193.0</ele>
        <time>2023-01-02T09:03:20Z</time>
      </trkpt>
      <trkpt lat="41.7868560" lon="2.9312170">
        <ele>192.4</ele>
        <time>2023-01-02T09:03:22Z</time>
      </trkpt>
      <trkpt lat="41.7868980" lon="2.9312500">
        <ele>192.2</ele>
        <time>2023-01-02T09:03:23Z</time>
      </trkpt>
      <trkpt lat="41.7869890" lon="2.9313000">
        <ele>191.6</ele>
        <time>2023-01-02T09:03:25Z</time>
      </trkpt>
      <trkpt lat="41.7870310" lon="2.9313130">
        <ele>190.8</ele>
        <time>2023-01-02T09:03:26Z</time>
      </trkpt>
      <trkpt lat="41.7871470" lon="2.9313160">
        <ele>189.8</ele>
        <time>2023-01-02T09:03:29Z</time>
      </trkpt>
      <trkpt lat="41.7871860" lon="2.9313220">
        <ele>189.4</ele>
        <time>2023-01-02T09:03:30Z</time>
      </trkpt>
      <trkpt lat="41.7872570" lon="2.9313460">
        <ele>187.8</ele>
        <time>2023-01-02T09:03:32Z</time>
      </trkpt>
      <trkpt lat="41.7873320" lon="2.9313730">
        <ele>185.8</ele>
        <time>2023-01-02T09:03:34Z</time>
      </trkpt>
      <trkpt lat="41.7874070" lon="2.9313970">
        <ele>184.8</ele>
        <time>2023-01-02T09:03:36Z</time>
      </trkpt>
      <trkpt lat="41.7874790" lon="2.9314040">
        <ele>183.4</ele>
        <time>2023-01-02T09:03:38Z</time>
      </trkpt>
      <trkpt lat="41.7875610" lon="2.9313860">
        <ele>182.2</ele>
        <time>2023-01-02T09:03:40Z</time>
      </trkpt>
      <trkpt lat="41.7876110" lon="2.9313770">
        <ele>182.0</ele>
        <time>2023-01-02T09:03:41Z</time>
      </trkpt>
      <trkpt lat="41.7877050" lon="2.9314120">
        <ele>180.8</ele>
        <time>2023-01-02T09:03:43Z</time>
      </trkpt>
      <trkpt lat="41.7877620" lon="2.9315080">
        <ele>179.6</ele>
        <time>2023-01-02T09:03:45Z</time>
      </trkpt>
      <trkpt lat="41.7877740" lon="2.9315650">
        <ele>179.2</ele>
        <time>2023-01-02T09:03:46Z</time>
      </trkpt>
      <trkpt lat="41.7877760" lon="2.9317280">
        <ele>178.4</ele>
        <time>2023-01-02T09:03:49Z</time>
      </trkpt>
      <trkpt lat="41.7877530" lon="2.9318250">
        <ele>177.8</ele>
        <time>2023-01-02T09:03:51Z</time>
      </trkpt>
      <trkpt lat="41.7877280" lon="2.9319620">
        <ele>177.4</ele>
        <time>2023-01-02T09:03:53Z</time>
      </trkpt>
      <trkpt lat="41.7877060" lon="2.9320430">
        <ele>177.2</ele>
        <time>2023-01-02T09:03:54Z</time>
      </trkpt>
      <trkpt lat="41.7876720" lon="2.9321280">
        <ele>176.6</ele>
        <time>2023-01-02T09:03:55Z</time>
      </trkpt>
      <trkpt lat="41.7876270" lon="2.9322040">
        <ele>176.2</ele>
        <time>2023-01-02T09:03:56Z</time>
      </trkpt>
      <trkpt lat="41.7874950" lon="2.9324100">
        <ele>175.2</ele>
        <time>2023-01-02T09:03:59Z</time>
      </trkpt>
      <trkpt lat="41.7874790" lon="2.9325330">
        <ele>173.6</ele>
        <time>2023-01-02T09:04:01Z</time>
      </trkpt>
      <trkpt lat="41.7874920" lon="2.9325730">
        <ele>173.2</ele>
        <time>2023-01-02T09:04:02Z</time>
      </trkpt>
      <trkpt lat="41.7875200" lon="2.9325980">
        <ele>172.4</ele>
        <time>2023-01-02T09:04:03Z</time>
      </trkpt>
      <trkpt lat="41.7876130" lon="2.9325870">
        <ele>171.2</ele>
        <time>2023-01-02T09:04:05Z</time>
      </trkpt>
      <trkpt lat="41.7877180" lon="2.9325090">
        <ele>170.2</ele>
        <time>2023-01-02T09:04:07Z</time>
      </trkpt>
      <trkpt lat="41.7877590" lon="2.9324430">
        <ele>170.0</ele>
        <time>2023-01-02T09:04:08Z</time>
      </trkpt>
      <trkpt lat="41.7877930" lon="2.9323700">
        <ele>169.6</ele>
        <time>2023-01-02T09:04:09Z</time>
      </trkpt>
      <trkpt lat="41.7878360" lon="2.9321950">
        <ele>169.2</ele>
        <time>2023-01-02T09:04:11Z</time>
      </trkpt>
      <trkpt lat="41.7878540" lon="2.9321020">
        <ele>168.8</ele>
        <time>2023-01-02T09:04:12Z</time>
      </trkpt>
      <trkpt lat="41.7878800" lon="2.9320080">
        <ele>168.2</ele>
        <time>2023-01-02T09:04:13Z</time>
      </trkpt>
      <trkpt lat="41.7879580" lon="2.9318350">
        <ele>167.4</ele>
        <time>2023-01-02T09:04:15Z</time>
      </trkpt>
      <trkpt lat="41.7880080" lon="2.9317580">
        <ele>166.6</ele>
        <time>2023-01-02T09:04:16Z</time>
      </trkpt>
      <trkpt lat="41.7880530" lon="2.9316830">
        <ele>166.0</ele>
        <time>2023-01-02T09:04:17Z</time>
      </trkpt>
      <trkpt lat="41.7881010" lon="2.9316020">
        <ele>165.2</ele>
        <time>2023-01-02T09:04:18Z</time>
      </trkpt>
      <trkpt lat="41.7881400" lon="2.9315230">
        <ele>164.6</ele>
        <time>2023-01-02T09:04:19Z</time>
      </trkpt>
      <trkpt lat="41.7882170" lon="2.9313830">
        <ele>163.6</ele>
        <time>2023-01-02T09:04:21Z</time>
      </trkpt>
      <trkpt lat="41.7882600" lon="2.9313110">
        <ele>163.0</ele>
        <time>2023-01-02T09:04:22Z</time>
      </trkpt>
      <trkpt lat="41.7883380" lon="2.9311740">
        <ele>161.4</ele>
        <time>2023-01-02T09:04:24Z</time>
      </trkpt>
      <trkpt lat="41.7883760" lon="2.9311070">
        <ele>160.8</ele>
        <time>2023-01-02T09:04:25Z</time>
      </trkpt>
      <trkpt lat="41.7884190" lon="2.9310590">
        <ele>160.6</ele>
        <time>2023-01-02T09:04:26Z</time>
      </trkpt>
      <trkpt lat="41.7884160" lon="2.9310750">
        <ele>160.2</ele>
        <time>2023-01-02T09:04:27Z</time>
      </trkpt>
      <trkpt lat="41.7884310" lon="2.9310900">
        <ele>159.0</ele>
        <time>2023-01-02T09:04:28Z</time>
      </trkpt>
      <trkpt lat="41.7884480" lon="2.9311350">
        <ele>157.8</ele>
        <time>2023-01-02T09:04:29Z</time>
      </trkpt>
      <trkpt lat="41.7884450" lon="2.9311790">
        <ele>157.2</ele>
        <time>2023-01-02T09:04:30Z</time>
      </trkpt>
      <trkpt lat="41.7884280" lon="2.9312440">
        <ele>156.4</ele>
        <time>2023-01-02T09:04:31Z</time>
      </trkpt>
      <trkpt lat="41.7884060" lon="2.9313210">
        <ele>155.8</ele>
        <time>2023-01-02T09:04:32Z</time>
      </trkpt>
      <trkpt lat="41.7883930" lon="2.9313950">
        <ele>155.4</ele>
        <time>2023-01-02T09:04:33Z</time>
      </trkpt>
      <trkpt lat="41.7884030" lon="2.9314710">
        <ele>154.6</ele>
        <time>2023-01-02T09:04:34Z</time>
      </trkpt>
      <trkpt lat="41.7884390" lon="2.9315230">
        <ele>154.2</ele>
        <time>2023-01-02T09:04:35Z</time>
      </trkpt>
      <trkpt lat="41.7884840" lon="2.9315400">
        <ele>153.6</ele>
        <time>2023-01-02T09:04:36Z</time>
      </trkpt>
      <trkpt lat="41.7886470" lon="2.9314800">
        <ele>152.6</ele>
        <time>2023-01-02T09:04:39Z</time>
      </trkpt>
      <trkpt lat="41.7887090" lon="2.9314410">
        <ele>151.2</ele>
        <time>2023-01-02T09:04:41Z</time>
      </trkpt>
      <trkpt lat="41.7887590" lon="2.9313900">
        <ele>149.6</ele>
        <time>2023-01-02T09:04:43Z</time>
      </trkpt>
      <trkpt lat="41.7887850" lon="2.9313500">
        <ele>148.8</ele>
        <time>2023-01-02T09:04:44Z</time>
      </trkpt>
      <trkpt lat="41.7888070" lon="2.9313100">
        <ele>147.8</ele>
        <time>2023-01-02T09:04:45Z</time>
      </trkpt>
      <trkpt lat="41.7888490" lon="2.9312320">
        <ele>146.2</ele>
        <time>2023-01-02T09:04:47Z</time>
      </trkpt>
      <trkpt lat="41.7888700" lon="2.9311860">
        <ele>145.8</ele>
        <time>2023-01-02T09:04:48Z</time>
      </trkpt>
      <trkpt lat="41.7888910" lon="2.9311370">
        <ele>145.4</ele>
        <time>2023-01-02T09:04:49Z</time>
      </trkpt>
      <trkpt lat="41.7889220" lon="2.9310840">
        <ele>144.8</ele>
        <time>2023-01-02T09:04:50Z</time>
      </trkpt>
      <trkpt lat="41.7889660" lon="2.9310360">
        <ele>144.0</ele>
        <time>2023-01-02T09:04:51Z</time>
      </trkpt>
      <trkpt lat="41.7889860" lon="2.9310080">
        <ele>143.0</ele>
        <time>2023-01-02T09:04:52Z</time>
      </trkpt>
      <trkpt lat="41.7890390" lon="2.9309990">
        <ele>142.0</ele>
        <time>2023-01-02T09:04:53Z</time>
      </trkpt>
      <trkpt lat="41.7891000" lon="2.9310210">
        <ele>141.0</ele>
        <time>2023-01-02T09:04:54Z</time>
      </trkpt>
      <trkpt lat="41.7891570" lon="2.9310470">
        <ele>140.2</ele>
        <time>2023-01-02T09:04:55Z</time>
      </trkpt>
      <trkpt lat="41.7892030" lon="2.9310700">
        <ele>139.8</ele>
        <time>2023-01-02T09:04:56Z</time>
      </trkpt>
      <trkpt lat="41.7893230" lon="2.9310960">
        <ele>139.6</ele>
        <time>2023-01-02T09:04:59Z</time>
      </trkpt>
      <trkpt lat="41.7894430" lon="2.9311060">
        <ele>140.6</ele>
        <time>2023-01-02T09:05:03Z</time>
      </trkpt>
      <trkpt lat="41.7894570" lon="2.9311370">
        <ele>141.4</ele>
        <time>2023-01-02T09:05:05Z</time>
      </trkpt>
      <trkpt lat="41.7894530" lon="2.9311560">
        <ele>141.8</ele>
        <time>2023-01-02T09:05:06Z</time>
      </trkpt>
      <trkpt lat="41.7894240" lon="2.9311840">
        <ele>142.4</ele>
        <time>2023-01-02T09:05:08Z</time>
      </trkpt>
      <trkpt lat="41.7894080" lon="2.9311960">
        <ele>142.6</ele>
        <time>2023-01-02T09:05:09Z</time>
      </trkpt>
      <trkpt lat="41.7893610" lon="2.9312160">
        <ele>143.8</ele>
        <time>2023-01-02T09:05:13Z</time>
      </trkpt>
      <trkpt lat="41.7893420" lon="2.9312350">
        <ele>144.6</ele>
        <time>2023-01-02T09:05:15Z</time>
      </trkpt>
      <trkpt lat="41.7893340" lon="2.9312460">
        <ele>145.0</ele>
        <time>2023-01-02T09:05:16Z</time>
      </trkpt>
      <trkpt lat="41.7892950" lon="2.9312720">
        <ele>146.0</ele>
        <time>2023-01-02T09:05:20Z</time>
      </trkpt>
      <trkpt lat="41.7892810" lon="2.9312830">
        <ele>146.2</ele>
        <time>2023-01-02T09:05:21Z</time>
      </trkpt>
      <trkpt lat="41.7892270" lon="2.9313520">
        <ele>147.2</ele>
        <time>2023-01-02T09:05:25Z</time>
      </trkpt>
      <trkpt lat="41.7892010" lon="2.9313790">
        <ele>147.4</ele>
        <time>2023-01-02T09:05:27Z</time>
      </trkpt>
      <trkpt lat="41.7891920" lon="2.9313920">
        <ele>147.4</ele>
        <time>2023-01-02T09:05:28Z</time>
      </trkpt>
      <trkpt lat="41.7891750" lon="2.9314280">
        <ele>147.8</ele>
        <time>2023-01-02T09:05:30Z</time>
      </trkpt>
      <trkpt lat="41.7891690" lon="2.9314710">
        <ele>148.2</ele>
        <time>2023-01-02T09:05:32Z</time>
      </trkpt>
      <trkpt lat="41.7891710" lon="2.9314900">
        <ele>148.4</ele>
        <time>2023-01-02T09:05:33Z</time>
      </trkpt>
      <trkpt lat="41.7891860" lon="2.9315110">
        <ele>149.0</ele>
        <time>2023-01-02T09:05:35Z</time>
      </trkpt>
      <trkpt lat="41.7892070" lon="2.9315000">
        <ele>149.2</ele>
        <time>2023-01-02T09:05:37Z</time>
      </trkpt>
      <trkpt lat="41.7892840" lon="2.9314770">
        <ele>149.8</ele>
        <time>2023-01-02T09:05:43Z</time>
      </trkpt>
      <trkpt lat="41.7893180" lon="2.9314790">
        <ele>150.4</ele>
        <time>2023-01-02T09:05:45Z</time>
      </trkpt>
      <trkpt lat="41.7894130" lon="2.9314590">
        <ele>151.0</ele>
        <time>2023-01-02T09:05:49Z</time>
      </trkpt>
      <trkpt lat="41.7895110" lon="2.9313800">
        <ele>150.4</ele>
        <time>2023-01-02T09:05:55Z</time>
      </trkpt>
      <trkpt lat="41.7896730" lon="2.9312990">
        <ele>149.6</ele>
        <time>2023-01-02T09:06:01Z</time>
      </trkpt>
      <trkpt lat="41.7897060" lon="2.9312980">
        <ele>149.2</ele>
        <time>2023-01-02T09:06:02Z</time>
      </trkpt>
      <trkpt lat="41.7898860" lon="2.9313340">
        <ele>148.6</ele>
        <time>2023-01-02T09:06:07Z</time>
      </trkpt>
      <trkpt lat="41.7900850" lon="2.9313590">
        <ele>148.4</ele>
        <time>2023-01-02T09:06:13Z</time>
      </trkpt>
      <trkpt lat="41.7902420" lon="2.9312970">
        <ele>148.4</ele>
        <time>2023-01-02T09:06:19Z</time>
      </trkpt>
      <trkpt lat="41.7902710" lon="2.9312840">
        <ele>148.6</ele>
        <time>2023-01-02T09:06:20Z</time>
      </trkpt>
      <trkpt lat="41.7904760" lon="2.9312250">
        <ele>149.0</ele>
        <time>2023-01-02T09:06:26Z</time>
      </trkpt>
      <trkpt lat="41.7905040" lon="2.9312130">
        <ele>149.2</ele>
        <time>2023-01-02T09:06:27Z</time>
      </trkpt>
      <trkpt lat="41.7906360" lon="2.9311340">
        <ele>150.0</ele>
        <time>2023-01-02T09:06:33Z</time>
      </trkpt>
      <trkpt lat="41.7906980" lon="2.9311010">
        <ele>150.4</ele>
        <time>2023-01-02T09:06:36Z</time>
      </trkpt>
      <trkpt lat="41.7907730" lon="2.9310520">
        <ele>150.6</ele>
        <time>2023-01-02T09:06:39Z</time>
      </trkpt>
      <trkpt lat="41.7909650" lon="2.9309870">
        <ele>149.8</ele>
        <time>2023-01-02T09:06:43Z</time>
      </trkpt>
      <trkpt lat="41.7910210" lon="2.9309520">
        <ele>149.6</ele>
        <time>2023-01-02T09:06:44Z</time>
      </trkpt>
      <trkpt lat="41.7910670" lon="2.9309070">
        <ele>149.2</ele>
        <time>2023-01-02T09:06:45Z</time>
      </trkpt>
      <trkpt lat="41.7911060" lon="2.9308620">
        <ele>149.0</ele>
        <time>2023-01-02T09:06:46Z</time>
      </trkpt>
      <trkpt lat="41.7912370" lon="2.9307650">
        <ele>148.8</ele>
        <time>2023-01-02T09:06:50Z</time>
      </trkpt>
      <trkpt lat="41.7914290" lon="2.9306950">
        <ele>150.0</ele>
        <time>2023-01-02T09:06:56Z</time>
      </trkpt>
      <trkpt lat="41.7915720" lon="2.9306210">
        <ele>149.8</ele>
        <time>2023-01-02T09:06:59Z</time>
      </trkpt>
      <trkpt lat="41.7916280" lon="2.9305830">
        <ele>149.6</ele>
        <time>2023-01-02T09:07:00Z</time>
      </trkpt>
      <trkpt lat="41.7918380" lon="2.9304420">
        <ele>148.4</ele>
        <time>2023-01-02T09:07:04Z</time>
      </trkpt>
      <trkpt lat="41.7918970" lon="2.9303910">
        <ele>148.2</ele>
        <time>2023-01-02T09:07:05Z</time>
      </trkpt>
      <trkpt lat="41.7921010" lon="2.9302100">
        <ele>147.6</ele>
        <time>2023-01-02T09:07:08Z</time>
      </trkpt>
      <trkpt lat="41.7921670" lon="2.9301560">
        <ele>146.8</ele>
        <time>2023-01-02T09:07:09Z</time>
      </trkpt>
      <trkpt lat="41.7922370" lon="2.9301090">
        <ele>146.4</ele>
        <time>2023-01-02T09:07:10Z</time>
      </trkpt>
      <trkpt lat="41.7924030" lon="2.9300690">
        <ele>145.6</ele>
        <time>2023-01-02T09:07:12Z</time>
      </trkpt>
      <trkpt lat="41.7926340" lon="2.9300480">
        <ele>144.8</ele>
        <time>2023-01-02T09:07:15Z</time>
      </trkpt>
      <trkpt lat="41.7927060" lon="2.9300430">
        <ele>144.2</ele>
        <time>2023-01-02T09:07:16Z</time>
      </trkpt>
      <trkpt lat="41.7927810" lon="2.9300410">
        <ele>144.0</ele>
        <time>2023-01-02T09:07:17Z</time>
      </trkpt>
      <trkpt lat="41.7931200" lon="2.9300620">
        <ele>143.2</ele>
        <time>2023-01-02T09:07:22Z</time>
      </trkpt>
      <trkpt lat="41.7932420" lon="2.9300800">
        <ele>143.2</ele>
        <time>2023-01-02T09:07:24Z</time>
      </trkpt>
      <trkpt lat="41.7934210" lon="2.9301270">
        <ele>142.6</ele>
        <time>2023-01-02T09:07:27Z</time>
      </trkpt>
      <trkpt lat="41.7936440" lon="2.9302970">
        <ele>142.2</ele>
        <time>2023-01-02T09:07:31Z</time>
      </trkpt>
      <trkpt lat="41.7939630" lon="2.9305990">
        <ele>141.6</ele>
        <time>2023-01-02T09:07:37Z</time>
      </trkpt>
      <trkpt lat="41.7941830" lon="2.9308230">
        <ele>141.4</ele>
        <time>2023-01-02T09:07:41Z</time>
      </trkpt>
      <trkpt lat="41.7942400" lon="2.9308650">
        <ele>141.4</ele>
        <time>2023-01-02T09:07:42Z</time>
      </trkpt>
      <trkpt lat="41.7943630" lon="2.9309410">
        <ele>141.2</ele>
        <time>2023-01-02T09:07:44Z</time>
      </trkpt>
      <trkpt lat="41.7946010" lon="2.9310930">
        <ele>141.0</ele>
        <time>2023-01-02T09:07:48Z</time>
      </trkpt>
      <trkpt lat="41.7948900" lon="2.9312670">
        <ele>141.0</ele>
        <time>2023-01-02T09:07:53Z</time>
      </trkpt>
      <trkpt lat="41.7950800" lon="2.9313260">
        <ele>141.0</ele>
        <time>2023-01-02T09:07:56Z</time>
      </trkpt>
      <trkpt lat="41.7952060" lon="2.9313380">
        <ele>141.0</ele>
        <time>2023-01-02T09:07:58Z</time>
      </trkpt>
      <trkpt lat="41.7954290" lon="2.9313330">
        <ele>141.4</ele>
        <time>2023-01-02T09:08:02Z</time>
      </trkpt>
      <trkpt lat="41.7954750" lon="2.9313220">
        <ele>141.4</ele>
        <time>2023-01-02T09:08:03Z</time>
      </trkpt>
      <trkpt lat="41.7955160" lon="2.9313040">
        <ele>141.6</ele>
        <time>2023-01-02T09:08:04Z</time>
      </trkpt>
      <trkpt lat="41.7955930" lon="2.9312520">
        <ele>141.8</ele>
        <time>2023-01-02T09:08:06Z</time>
      </trkpt>
      <trkpt lat="41.7956520" lon="2.9311970">
        <ele>142.2</ele>
        <time>2023-01-02T09:08:08Z</time>
      </trkpt>
      <trkpt lat="41.7956770" lon="2.9311680">
        <ele>142.4</ele>
        <time>2023-01-02T09:08:09Z</time>
      </trkpt>
      <trkpt lat="41.7957620" lon="2.9311040">
        <ele>143.6</ele>
        <time>2023-01-02T09:08:12Z</time>
      </trkpt>
      <trkpt lat="41.7957870" lon="2.9310810">
        <ele>143.8</ele>
        <time>2023-01-02T09:08:13Z</time>
      </trkpt>
      <trkpt lat="41.7959130" lon="2.9310170">
        <ele>144.6</ele>
        <time>2023-01-02T09:08:17Z</time>
      </trkpt>
      <trkpt lat="41.7959700" lon="2.9309800">
        <ele>144.8</ele>
        <time>2023-01-02T09:08:19Z</time>
      </trkpt>
      <trkpt lat="41.7960640" lon="2.9308190">
        <ele>144.6</ele>
        <time>2023-01-02T09:08:23Z</time>
      </trkpt>
      <trkpt lat="41.7960930" lon="2.9307570">
        <ele>144.4</ele>
        <time>2023-01-02T09:08:24Z</time>
      </trkpt>
      <trkpt lat="41.7961500" lon="2.9305630">
        <ele>143.6</ele>
        <time>2023-01-02T09:08:27Z</time>
      </trkpt>
      <trkpt lat="41.7961650" lon="2.9304960">
        <ele>142.4</ele>
        <time>2023-01-02T09:08:28Z</time>
      </trkpt>
      <trkpt lat="41.7961770" lon="2.9304150">
        <ele>141.6</ele>
        <time>2023-01-02T09:08:29Z</time>
      </trkpt>
      <trkpt lat="41.7961790" lon="2.9303260">
        <ele>141.2</ele>
        <time>2023-01-02T09:08:30Z</time>
      </trkpt>
      <trkpt lat="41.7961750" lon="2.9301390">
        <ele>140.2</ele>
        <time>2023-01-02T09:08:32Z</time>
      </trkpt>
      <trkpt lat="41.7962020" lon="2.9299520">
        <ele>138.8</ele>
        <time>2023-01-02T09:08:34Z</time>
      </trkpt>
      <trkpt lat="41.7962270" lon="2.9298170">
        <ele>137.6</ele>
        <time>2023-01-02T09:08:36Z</time>
      </trkpt>
      <trkpt lat="41.7962250" lon="2.9297660">
        <ele>137.2</ele>
        <time>2023-01-02T09:08:37Z</time>
      </trkpt>
      <trkpt lat="41.7962210" lon="2.9297230">
        <ele>136.6</ele>
        <time>2023-01-02T09:08:38Z</time>
      </trkpt>
      <trkpt lat="41.7962040" lon="2.9296190">
        <ele>135.6</ele>
        <time>2023-01-02T09:08:40Z</time>
      </trkpt>
      <trkpt lat="41.7962130" lon="2.9295340">
        <ele>134.6</ele>
        <time>2023-01-02T09:08:42Z</time>
      </trkpt>
      <trkpt lat="41.7962250" lon="2.9295030">
        <ele>134.2</ele>
        <time>2023-01-02T09:08:43Z</time>
      </trkpt>
      <trkpt lat="41.7962540" lon="2.9294650">
        <ele>133.2</ele>
        <time>2023-01-02T09:08:45Z</time>
      </trkpt>
      <trkpt lat="41.7962960" lon="2.9294340">
        <ele>132.2</ele>
        <time>2023-01-02T09:08:47Z</time>
      </trkpt>
      <trkpt lat="41.7963400" lon="2.9294080">
        <ele>130.6</ele>
        <time>2023-01-02T09:08:49Z</time>
      </trkpt>
      <trkpt lat="41.7963740" lon="2.9293910">
        <ele>129.6</ele>
        <time>2023-01-02T09:08:51Z</time>
      </trkpt>
      <trkpt lat="41.7963880" lon="2.9293740">
        <ele>129.2</ele>
        <time>2023-01-02T09:08:52Z</time>
      </trkpt>
      <trkpt lat="41.7964390" lon="2.9293390">
        <ele>128.4</ele>
        <time>2023-01-02T09:08:54Z</time>
      </trkpt>
      <trkpt lat="41.7965020" lon="2.9293140">
        <ele>127.2</ele>
        <time>2023-01-02T09:08:56Z</time>
      </trkpt>
      <trkpt lat="41.7965370" lon="2.9293000">
        <ele>126.0</ele>
        <time>2023-01-02T09:08:58Z</time>
      </trkpt>
      <trkpt lat="41.7965570" lon="2.9292900">
        <ele>125.4</ele>
        <time>2023-01-02T09:09:00Z</time>
      </trkpt>
      <trkpt lat="41.7965680" lon="2.9292890">
        <ele>124.8</ele>
        <time>2023-01-02T09:09:02Z</time>
      </trkpt>
      <trkpt lat="41.7965940" lon="2.9292830">
        <ele>124.4</ele>
        <time>2023-01-02T09:09:05Z</time>
      </trkpt>
      <trkpt lat="41.7966180" lon="2.9292720">
        <ele>124.2</ele>
        <time>2023-01-02T09:09:08Z</time>
      </trkpt>
      <trkpt lat="41.7966340" lon="2.9292690">
        <ele>123.8</ele>
        <time>2023-01-02T09:09:09Z</time>
      </trkpt>
      <trkpt lat="41.7966720" lon="2.9292500">
        <ele>122.8</ele>
        <time>2023-01-02T09:09:13Z</time>
      </trkpt>
      <trkpt lat="41.7966710" lon="2.9292430">
        <ele>122.6</ele>
        <time>2023-01-02T09:09:14Z</time>
      </trkpt>
      <trkpt lat="41.7966880" lon="2.9291950">
        <ele>122.8</ele>
        <time>2023-01-02T09:09:19Z</time>
      </trkpt>
      <trkpt lat="41.7966970" lon="2.9291900">
        <ele>122.8</ele>
        <time>2023-01-02T09:09:20Z</time>
      </trkpt>
      <trkpt lat="41.7967140" lon="2.9291920">
        <ele>123.2</ele>
        <time>2023-01-02T09:09:24Z</time>
      </trkpt>
      <trkpt lat="41.7967380" lon="2.9291970">
        <ele>123.4</ele>
        <time>2023-01-02T09:09:26Z</time>
      </trkpt>
      <trkpt lat="41.7968090" lon="2.9292070">
        <ele>123.6</ele>
        <time>2023-01-02T09:09:32Z</time>
      </trkpt>
      <trkpt lat="41.7968210" lon="2.9292060">
        <ele>123.6</ele>
        <time>2023-01-02T09:09:33Z</time>
      </trkpt>
      <trkpt lat="41.7968670" lon="2.9292190">
        <ele>123.8</ele>
        <time>2023-01-02T09:09:36Z</time>
      </trkpt>
      <trkpt lat="41.7969140" lon="2.9292250">
        <ele>124.0</ele>
        <time>2023-01-02T09:09:38Z</time>
      </trkpt>
      <trkpt lat="41.7970200" lon="2.9292060">
        <ele>124.2</ele>
        <time>2023-01-02T09:09:42Z</time>
      </trkpt>
      <trkpt lat="41.7970710" lon="2.9291870">
        <ele>124.6</ele>
        <time>2023-01-02T09:09:44Z</time>
      </trkpt>
      <trkpt lat="41.7971570" lon="2.9291370">
        <ele>125.4</ele>
        <time>2023-01-02T09:09:47Z</time>
      </trkpt>
      <trkpt lat="41.7972440" lon="2.9290890">
        <ele>125.8</ele>
        <time>2023-01-02T09:09:50Z</time>
      </trkpt>
      <trkpt lat="41.7973270" lon="2.9290480">
        <ele>125.8</ele>
        <time>2023-01-02T09:09:53Z</time>
      </trkpt>
      <trkpt lat="41.7975150" lon="2.9289490">
        <ele>125.4</ele>
        <time>2023-01-02T09:09:58Z</time>
      </trkpt>
      <trkpt lat="41.7976010" lon="2.9289130">
        <ele>125.0</ele>
        <time>2023-01-02T09:10:00Z</time>
      </trkpt>
      <trkpt lat="41.7976990" lon="2.9288830">
        <ele>124.6</ele>
        <time>2023-01-02T09:10:02Z</time>
      </trkpt>
      <trkpt lat="41.7977900" lon="2.9288220">
        <ele>124.0</ele>
        <time>2023-01-02T09:10:04Z</time>
      </trkpt>
      <trkpt lat="41.7978270" lon="2.9287810">
        <ele>123.6</ele>
        <time>2023-01-02T09:10:05Z</time>
      </trkpt>
      <trkpt lat="41.7978650" lon="2.9287370">
        <ele>123.4</ele>
        <time>2023-01-02T09:10:06Z</time>
      </trkpt>
      <trkpt lat="41.7979520" lon="2.9286630">
        <ele>123.2</ele>
        <time>2023-01-02T09:10:08Z</time>
      </trkpt>
      <trkpt lat="41.7980660" lon="2.9286170">
        <ele>123.0</ele>
        <time>2023-01-02T09:10:10Z</time>
      </trkpt>
      <trkpt lat="41.7981690" lon="2.9285820">
        <ele>122.6</ele>
        <time>2023-01-02T09:10:12Z</time>
      </trkpt>
      <trkpt lat="41.7982130" lon="2.9285570">
        <ele>122.4</ele>
        <time>2023-01-02T09:10:13Z</time>
      </trkpt>
      <trkpt lat="41.7982650" lon="2.9285220">
        <ele>122.0</ele>
        <time>2023-01-02T09:10:14Z</time>
      </trkpt>
      <trkpt lat="41.7983530" lon="2.9284630">
        <ele>121.4</ele>
        <time>2023-01-02T09:10:16Z</time>
      </trkpt>
      <trkpt lat="41.7983970" lon="2.9284480">
        <ele>121.2</ele>
        <time>2023-01-02T09:10:17Z</time>
      </trkpt>
      <trkpt lat="41.7984370" lon="2.9284270">
        <ele>121.0</ele>
        <time>2023-01-02T09:10:18Z</time>
      </trkpt>
      <trkpt lat="41.7986350" lon="2.9282810">
        <ele>121.0</ele>
        <time>2023-01-02T09:10:23Z</time>
      </trkpt>
      <trkpt lat="41.7988660" lon="2.9281060">
        <ele>121.2</ele>
        <time>2023-01-02T09:10:28Z</time>
      </trkpt>
      <trkpt lat="41.7991050" lon="2.9279450">
        <ele>121.4</ele>
        <time>2023-01-02T09:10:33Z</time>
      </trkpt>
      <trkpt lat="41.7994990" lon="2.9277990">
        <ele>121.8</ele>
        <time>2023-01-02T09:10:40Z</time>
      </trkpt>
      <trkpt lat="41.7995540" lon="2.9277800">
        <ele>121.8</ele>
        <time>2023-01-02T09:10:41Z</time>
      </trkpt>
      <trkpt lat="41.7997030" lon="2.9277510">
        <ele>122.0</ele>
        <time>2023-01-02T09:10:44Z</time>
      </trkpt>
      <trkpt lat="41.7998830" lon="2.9277120">
        <ele>122.2</ele>
        <time>2023-01-02T09:10:48Z</time>
      </trkpt>
      <trkpt lat="41.7999310" lon="2.9276990">
        <ele>122.2</ele>
        <time>2023-01-02T09:10:49Z</time>
      </trkpt>
      <trkpt lat="41.8000870" lon="2.9276340">
        <ele>121.8</ele>
        <time>2023-01-02T09:10:52Z</time>
      </trkpt>
      <trkpt lat="41.8001830" lon="2.9275790">
        <ele>121.6</ele>
        <time>2023-01-02T09:10:54Z</time>
      </trkpt>
      <trkpt lat="41.8002330" lon="2.9275540">
        <ele>121.2</ele>
        <time>2023-01-02T09:10:55Z</time>
      </trkpt>
      <trkpt lat="41.8003290" lon="2.9275130">
        <ele>120.6</ele>
        <time>2023-01-02T09:10:57Z</time>
      </trkpt>
      <trkpt lat="41.8004520" lon="2.9274980">
        <ele>120.2</ele>
        <time>2023-01-02T09:10:59Z</time>
      </trkpt>
      <trkpt lat="41.8006520" lon="2.9275010">
        <ele>119.8</ele>
        <time>2023-01-02T09:11:03Z</time>
      </trkpt>
      <trkpt lat="41.8008420" lon="2.9275450">
        <ele>120.0</ele>
        <time>2023-01-02T09:11:08Z</time>
      </trkpt>
      <trkpt lat="41.8010430" lon="2.9276520">
        <ele>119.8</ele>
        <time>2023-01-02T09:11:14Z</time>
      </trkpt>
      <trkpt lat="41.8012650" lon="2.9278090">
        <ele>119.0</ele>
        <time>2023-01-02T09:11:20Z</time>
      </trkpt>
      <trkpt lat="41.8013110" lon="2.9278330">
        <ele>118.8</ele>
        <time>2023-01-02T09:11:21Z</time>
      </trkpt>
      <trkpt lat="41.8014070" lon="2.9278480">
        <ele>118.6</ele>
        <time>2023-01-02T09:11:23Z</time>
      </trkpt>
      <trkpt lat="41.8014510" lon="2.9278230">
        <ele>118.0</ele>
        <time>2023-01-02T09:11:24Z</time>
      </trkpt>
      <trkpt lat="41.8014780" lon="2.9277800">
        <ele>116.8</ele>
        <time>2023-01-02T09:11:25Z</time>
      </trkpt>
      <trkpt lat="41.8014910" lon="2.9277200">
        <ele>116.2</ele>
        <time>2023-01-02T09:11:26Z</time>
      </trkpt>
      <trkpt lat="41.8014920" lon="2.9276560">
        <ele>115.8</ele>
        <time>2023-01-02T09:11:27Z</time>
      </trkpt>
      <trkpt lat="41.8015360" lon="2.9275260">
        <ele>114.4</ele>
        <time>2023-01-02T09:11:30Z</time>
      </trkpt>
      <trkpt lat="41.8015660" lon="2.9275020">
        <ele>114.0</ele>
        <time>2023-01-02T09:11:31Z</time>
      </trkpt>
      <trkpt lat="41.8016020" lon="2.9274490">
        <ele>113.8</ele>
        <time>2023-01-02T09:11:33Z</time>
      </trkpt>
      <trkpt lat="41.8016270" lon="2.9273890">
        <ele>114.2</ele>
        <time>2023-01-02T09:11:35Z</time>
      </trkpt>
      <trkpt lat="41.8016420" lon="2.9272310">
        <ele>114.8</ele>
        <time>2023-01-02T09:11:39Z</time>
      </trkpt>
      <trkpt lat="41.8016620" lon="2.9270460">
        <ele>114.8</ele>
        <time>2023-01-02T09:11:44Z</time>
      </trkpt>
      <trkpt lat="41.8016940" lon="2.9268130">
        <ele>114.6</ele>
        <time>2023-01-02T09:11:50Z</time>
      </trkpt>
      <trkpt lat="41.8017030" lon="2.9265590">
        <ele>113.8</ele>
        <time>2023-01-02T09:11:55Z</time>
      </trkpt>
      <trkpt lat="41.8017070" lon="2.9264970">
        <ele>113.8</ele>
        <time>2023-01-02T09:11:56Z</time>
      </trkpt>
      <trkpt lat="41.8017340" lon="2.9262810">
        <ele>114.4</ele>
        <time>2023-01-02T09:12:01Z</time>
      </trkpt>
      <trkpt lat="41.8017350" lon="2.9260800">
        <ele>115.6</ele>
        <time>2023-01-02T09:12:06Z</time>
      </trkpt>
      <trkpt lat="41.8017520" lon="2.9257710">
        <ele>115.8</ele>
        <time>2023-01-02T09:12:12Z</time>
      </trkpt>
      <trkpt lat="41.8017730" lon="2.9254290">
        <ele>115.6</ele>
        <time>2023-01-02T09:12:18Z</time>
      </trkpt>
      <trkpt lat="41.8018630" lon="2.9251640">
        <ele>115.6</ele>
        <time>2023-01-02T09:12:24Z</time>
      </trkpt>
      <trkpt lat="41.8019710" lon="2.9250600">
        <ele>116.6</ele>
        <time>2023-01-02T09:12:29Z</time>
      </trkpt>
      <trkpt lat="41.8019980" lon="2.9250650">
        <ele>117.0</ele>
        <time>2023-01-02T09:12:30Z</time>
      </trkpt>
      <trkpt lat="41.8020540" lon="2.9251220">
        <ele>117.4</ele>
        <time>2023-01-02T09:12:34Z</time>
      </trkpt>
      <trkpt lat="41.8020730" lon="2.9251640">
        <ele>117.8</ele>
        <time>2023-01-02T09:12:36Z</time>
      </trkpt>
      <trkpt lat="41.8021490" lon="2.9252620">
        <ele>119.0</ele>
        <time>2023-01-02T09:12:41Z</time>
      </trkpt>
      <trkpt lat="41.8022480" lon="2.9253820">
        <ele>120.0</ele>
        <time>2023-01-02T09:12:47Z</time>
      </trkpt>
      <trkpt lat="41.8022640" lon="2.9253950">
        <ele>120.2</ele>
        <time>2023-01-02T09:12:48Z</time>
      </trkpt>
      <trkpt lat="41.8023440" lon="2.9254380">
        <ele>121.0</ele>
        <time>2023-01-02T09:12:52Z</time>
      </trkpt>
      <trkpt lat="41.8023920" lon="2.9254430">
        <ele>121.0</ele>
        <time>2023-01-02T09:12:54Z</time>
      </trkpt>
      <trkpt lat="41.8025350" lon="2.9254470">
        <ele>120.8</ele>
        <time>2023-01-02T09:12:59Z</time>
      </trkpt>
      <trkpt lat="41.8026860" lon="2.9254100">
        <ele>120.6</ele>
        <time>2023-01-02T09:13:04Z</time>
      </trkpt>
      <trkpt lat="41.8028260" lon="2.9252940">
        <ele>120.0</ele>
        <time>2023-01-02T09:13:07Z</time>
      </trkpt>
      <trkpt lat="41.8028850" lon="2.9252770">
        <ele>119.6</ele>
        <time>2023-01-02T09:13:08Z</time>
      </trkpt>
      <trkpt lat="41.8029450" lon="2.9252780">
        <ele>119.2</ele>
        <time>2023-01-02T09:13:09Z</time>
      </trkpt>
      <trkpt lat="41.8030450" lon="2.9253510">
        <ele>118.8</ele>
        <time>2023-01-02T09:13:11Z</time>
      </trkpt>
      <trkpt lat="41.8032110" lon="2.9256330">
        <ele>118.2</ele>
        <time>2023-01-02T09:13:16Z</time>
      </trkpt>
      <trkpt lat="41.8032420" lon="2.9256690">
        <ele>118.2</ele>
        <time>2023-01-02T09:13:17Z</time>
      </trkpt>
      <trkpt lat="41.8033240" lon="2.9257160">
        <ele>118.2</ele>
        <time>2023-01-02T09:13:19Z</time>
      </trkpt>
      <trkpt lat="41.8033630" lon="2.9257390">
        <ele>118.2</ele>
        <time>2023-01-02T09:13:20Z</time>
      </trkpt>
      <trkpt lat="41.8034000" lon="2.9257490">
        <ele>118.2</ele>
        <time>2023-01-02T09:13:21Z</time>
      </trkpt>
      <trkpt lat="41.8035230" lon="2.9257660">
        <ele>118.4</ele>
        <time>2023-01-02T09:13:23Z</time>
      </trkpt>
      <trkpt lat="41.8035720" lon="2.9257770">
        <ele>118.4</ele>
        <time>2023-01-02T09:13:24Z</time>
      </trkpt>
      <trkpt lat="41.8036660" lon="2.9257790">
        <ele>118.4</ele>
        <time>2023-01-02T09:13:26Z</time>
      </trkpt>
      <trkpt lat="41.8037540" lon="2.9257560">
        <ele>118.4</ele>
        <time>2023-01-02T09:13:28Z</time>
      </trkpt>
      <trkpt lat="41.8038310" lon="2.9257100">
        <ele>118.2</ele>
        <time>2023-01-02T09:13:30Z</time>
      </trkpt>
      <trkpt lat="41.8039770" lon="2.9256200">
        <ele>117.6</ele>
        <time>2023-01-02T09:13:33Z</time>
      </trkpt>
      <trkpt lat="41.8040250" lon="2.9255770">
        <ele>117.2</ele>
        <time>2023-01-02T09:13:34Z</time>
      </trkpt>
      <trkpt lat="41.8041520" lon="2.9254300">
        <ele>117.0</ele>
        <time>2023-01-02T09:13:37Z</time>
      </trkpt>
      <trkpt lat="41.8042370" lon="2.9253600">
        <ele>117.2</ele>
        <time>2023-01-02T09:13:39Z</time>
      </trkpt>
      <trkpt lat="41.8043490" lon="2.9253110">
        <ele>117.8</ele>
        <time>2023-01-02T09:13:42Z</time>
      </trkpt>
      <trkpt lat="41.8045910" lon="2.9252630">
        <ele>117.0</ele>
        <time>2023-01-02T09:13:48Z</time>
      </trkpt>
      <trkpt lat="41.8046470" lon="2.9252420">
        <ele>116.8</ele>
        <time>2023-01-02T09:13:49Z</time>
      </trkpt>
      <trkpt lat="41.8047000" lon="2.9252250">
        <ele>116.2</ele>
        <time>2023-01-02T09:13:50Z</time>
      </trkpt>
      <trkpt lat="41.8047610" lon="2.9252370">
        <ele>114.8</ele>
        <time>2023-01-02T09:13:51Z</time>
      </trkpt>
      <trkpt lat="41.8048150" lon="2.9252600">
        <ele>114.0</ele>
        <time>2023-01-02T09:13:52Z</time>
      </trkpt>
      <trkpt lat="41.8048600" lon="2.9252920">
        <ele>113.4</ele>
        <time>2023-01-02T09:13:53Z</time>
      </trkpt>
      <trkpt lat="41.8049330" lon="2.9253840">
        <ele>111.6</ele>
        <time>2023-01-02T09:13:55Z</time>
      </trkpt>
      <trkpt lat="41.8049970" lon="2.9254540">
        <ele>110.2</ele>
        <time>2023-01-02T09:13:57Z</time>
      </trkpt>
      <trkpt lat="41.8050500" lon="2.9254520">
        <ele>109.2</ele>
        <time>2023-01-02T09:13:58Z</time>
      </trkpt>
      <trkpt lat="41.8051070" lon="2.9254340">
        <ele>108.6</ele>
        <time>2023-01-02T09:13:59Z</time>
      </trkpt>
      <trkpt lat="41.8053610" lon="2.9253030">
        <ele>107.8</ele>
        <time>2023-01-02T09:14:03Z</time>
      </trkpt>
      <trkpt lat="41.8054170" lon="2.9252730">
        <ele>107.4</ele>
        <time>2023-01-02T09:14:04Z</time>
      </trkpt>
      <trkpt lat="41.8055030" lon="2.9251680">
        <ele>107.2</ele>
        <time>2023-01-02T09:14:06Z</time>
      </trkpt>
      <trkpt lat="41.8056670" lon="2.9247950">
        <ele>107.4</ele>
        <time>2023-01-02T09:14:12Z</time>
      </trkpt>
      <trkpt lat="41.8056960" lon="2.9247440">
        <ele>107.4</ele>
        <time>2023-01-02T09:14:13Z</time>
      </trkpt>
      <trkpt lat="41.8057800" lon="2.9246570">
        <ele>107.2</ele>
        <time>2023-01-02T09:14:15Z</time>
      </trkpt>
      <trkpt lat="41.8058250" lon="2.9246180">
        <ele>106.8</ele>
        <time>2023-01-02T09:14:16Z</time>
      </trkpt>
      <trkpt lat="41.8059470" lon="2.9245120">
        <ele>106.4</ele>
        <time>2023-01-02T09:14:19Z</time>
      </trkpt>
      <trkpt lat="41.8060280" lon="2.9244240">
        <ele>106.4</ele>
        <time>2023-01-02T09:14:21Z</time>
      </trkpt>
      <trkpt lat="41.8060740" lon="2.9243680">
        <ele>106.0</ele>
        <time>2023-01-02T09:14:22Z</time>
      </trkpt>
      <trkpt lat="41.8062360" lon="2.9242030">
        <ele>105.2</ele>
        <time>2023-01-02T09:14:25Z</time>
      </trkpt>
      <trkpt lat="41.8062940" lon="2.9241470">
        <ele>104.4</ele>
        <time>2023-01-02T09:14:26Z</time>
      </trkpt>
      <trkpt lat="41.8064040" lon="2.9240380">
        <ele>104.0</ele>
        <time>2023-01-02T09:14:28Z</time>
      </trkpt>
      <trkpt lat="41.8064960" lon="2.9239480">
        <ele>103.6</ele>
        <time>2023-01-02T09:14:30Z</time>
      </trkpt>
      <trkpt lat="41.8066340" lon="2.9238370">
        <ele>103.4</ele>
        <time>2023-01-02T09:14:33Z</time>
      </trkpt>
      <trkpt lat="41.8066910" lon="2.9238010">
        <ele>103.2</ele>
        <time>2023-01-02T09:14:34Z</time>
      </trkpt>
      <trkpt lat="41.8068790" lon="2.9236770">
        <ele>103.2</ele>
        <time>2023-01-02T09:14:37Z</time>
      </trkpt>
      <trkpt lat="41.8069840" lon="2.9235620">
        <ele>103.2</ele>
        <time>2023-01-02T09:14:39Z</time>
      </trkpt>
      <trkpt lat="41.8070660" lon="2.9234520">
        <ele>103.0</ele>
        <time>2023-01-02T09:14:41Z</time>
      </trkpt>
      <trkpt lat="41.8071360" lon="2.9233910">
        <ele>103.0</ele>
        <time>2023-01-02T09:14:43Z</time>
      </trkpt>
      <trkpt lat="41.8073050" lon="2.9233980">
        <ele>104.2</ele>
        <time>2023-01-02T09:14:47Z</time>
      </trkpt>
      <trkpt lat="41.8074840" lon="2.9234900">
        <ele>104.8</ele>
        <time>2023-01-02T09:14:52Z</time>
      </trkpt>
      <trkpt lat="41.8076600" lon="2.9235570">
        <ele>104.6</ele>
        <time>2023-01-02T09:14:56Z</time>
      </trkpt>
      <trkpt lat="41.8077270" lon="2.9235570">
        <ele>104.6</ele>
        <time>2023-01-02T09:14:57Z</time>
      </trkpt>
      <trkpt lat="41.8078410" lon="2.9235280">
        <ele>104.2</ele>
        <time>2023-01-02T09:14:59Z</time>
      </trkpt>
      <trkpt lat="41.8079520" lon="2.9234410">
        <ele>103.6</ele>
        <time>2023-01-02T09:15:01Z</time>
      </trkpt>
      <trkpt lat="41.8080530" lon="2.9233250">
        <ele>102.6</ele>
        <time>2023-01-02T09:15:03Z</time>
      </trkpt>
      <trkpt lat="41.8081660" lon="2.9232290">
        <ele>102.2</ele>
        <time>2023-01-02T09:15:05Z</time>
      </trkpt>
      <trkpt lat="41.8082190" lon="2.9231860">
        <ele>101.6</ele>
        <time>2023-01-02T09:15:06Z</time>
      </trkpt>
      <trkpt lat="41.8083170" lon="2.9230940">
        <ele>100.0</ele>
        <time>2023-01-02T09:15:08Z</time>
      </trkpt>
      <trkpt lat="41.8083800" lon="2.9229970">
        <ele>99.0</ele>
        <time>2023-01-02T09:15:10Z</time>
      </trkpt>
      <trkpt lat="41.8085050" lon="2.9229180">
        <ele>99.0</ele>
        <time>2023-01-02T09:15:14Z</time>
      </trkpt>
      <trkpt lat="41.8085630" lon="2.9229110">
        <ele>99.6</ele>
        <time>2023-01-02T09:15:16Z</time>
      </trkpt>
      <trkpt lat="41.8086000" lon="2.9228540">
        <ele>100.0</ele>
        <time>2023-01-02T09:15:18Z</time>
      </trkpt>
      <trkpt lat="41.8086120" lon="2.9228100">
        <ele>100.2</ele>
        <time>2023-01-02T09:15:19Z</time>
      </trkpt>
      <trkpt lat="41.8086400" lon="2.9225810">
        <ele>100.8</ele>
        <time>2023-01-02T09:15:24Z</time>
      </trkpt>
      <trkpt lat="41.8086460" lon="2.9224870">
        <ele>101.2</ele>
        <time>2023-01-02T09:15:26Z</time>
      </trkpt>
      <trkpt lat="41.8086590" lon="2.9223250">
        <ele>101.8</ele>
        <time>2023-01-02T09:15:30Z</time>
      </trkpt>
      <trkpt lat="41.8086760" lon="2.9221220">
        <ele>102.0</ele>
        <time>2023-01-02T09:15:36Z</time>
      </trkpt>
      <trkpt lat="41.8086760" lon="2.9220930">
        <ele>102.4</ele>
        <time>2023-01-02T09:15:40Z</time>
      </trkpt>
      <trkpt lat="41.8086750" lon="2.9220930">
        <ele>102.4</ele>
        <time>2023-01-02T09:15:41Z</time>
      </trkpt>
      <trkpt lat="41.8086930" lon="2.9220980">
        <ele>102.6</ele>
        <time>2023-01-02T09:15:47Z</time>
      </trkpt>
      <trkpt lat="41.8086880" lon="2.9221050">
        <ele>102.6</ele>
        <time>2023-01-02T09:15:59Z</time>
      </trkpt>
      <trkpt lat="41.8086870" lon="2.9221040">
        <ele>102.8</ele>
        <time>2023-01-02T09:16:03Z</time>
      </trkpt>
      <trkpt lat="41.8086860" lon="2.9221030">
        <ele>102.4</ele>
        <time>2023-01-02T09:16:11Z</time>
      </trkpt>
      <trkpt lat="41.8086870" lon="2.9221030">
        <ele>102.4</ele>
        <time>2023-01-02T09:16:12Z</time>
      </trkpt>
      <trkpt lat="41.8086870" lon="2.9221060">
        <ele>102.6</ele>
        <time>2023-01-02T09:16:18Z</time>
      </trkpt>
      <trkpt lat="41.8086870" lon="2.9221070">
        <ele>102.6</ele>
        <time>2023-01-02T09:16:19Z</time>
      </trkpt>
      <trkpt lat="41.8086870" lon="2.9221100">
        <ele>102.4</ele>
        <time>2023-01-02T09:16:23Z</time>
      </trkpt>
      <trkpt lat="41.8086870" lon="2.9221210">
        <ele>103.0</ele>
        <time>2023-01-02T09:16:42Z</time>
      </trkpt>
      <trkpt lat="41.8086880" lon="2.9221240">
        <ele>103.0</ele>
        <time>2023-01-02T09:16:50Z</time>
      </trkpt>
      <trkpt lat="41.8086900" lon="2.9221290">
        <ele>103.0</ele>
        <time>2023-01-02T09:17:01Z</time>
      </trkpt>
      <trkpt lat="41.8086860" lon="2.9221270">
        <ele>103.0</ele>
        <time>2023-01-02T09:17:09Z</time>
      </trkpt>
      <trkpt lat="41.8086460" lon="2.9221250">
        <ele>81.4</ele>
        <time>2023-01-02T09:18:11Z</time>
      </trkpt>
      <trkpt lat="41.8086660" lon="2.9221360">
        <ele>81.6</ele>
        <time>2023-01-02T09:18:21Z</time>
      </trkpt>
      <trkpt lat="41.8086710" lon="2.9221610">
        <ele>81.6</ele>
        <time>2023-01-02T09:18:22Z</time>
      </trkpt>
      <trkpt lat="41.8086780" lon="2.9223520">
        <ele>81.6</ele>
        <time>2023-01-02T09:18:27Z</time>
      </trkpt>
      <trkpt lat="41.8086580" lon="2.9226220">
        <ele>81.4</ele>
        <time>2023-01-02T09:18:32Z</time>
      </trkpt>
      <trkpt lat="41.8086490" lon="2.9226800">
        <ele>81.2</ele>
        <time>2023-01-02T09:18:33Z</time>
      </trkpt>
      <trkpt lat="41.8086090" lon="2.9228800">
        <ele>80.8</ele>
        <time>2023-01-02T09:18:36Z</time>
      </trkpt>
      <trkpt lat="41.8085910" lon="2.9230170">
        <ele>80.6</ele>
        <time>2023-01-02T09:18:38Z</time>
      </trkpt>
      <trkpt lat="41.8086330" lon="2.9231370">
        <ele>80.4</ele>
        <time>2023-01-02T09:18:40Z</time>
      </trkpt>
      <trkpt lat="41.8088200" lon="2.9232880">
        <ele>79.8</ele>
        <time>2023-01-02T09:18:44Z</time>
      </trkpt>
      <trkpt lat="41.8089350" lon="2.9233180">
        <ele>79.2</ele>
        <time>2023-01-02T09:18:46Z</time>
      </trkpt>
      <trkpt lat="41.8090520" lon="2.9233140">
        <ele>78.8</ele>
        <time>2023-01-02T09:18:48Z</time>
      </trkpt>
      <trkpt lat="41.8092340" lon="2.9233060">
        <ele>78.4</ele>
        <time>2023-01-02T09:18:51Z</time>
      </trkpt>
      <trkpt lat="41.8093600" lon="2.9232690">
        <ele>78.2</ele>
        <time>2023-01-02T09:18:53Z</time>
      </trkpt>
      <trkpt lat="41.8094160" lon="2.9232270">
        <ele>78.0</ele>
        <time>2023-01-02T09:18:54Z</time>
      </trkpt>
      <trkpt lat="41.8096450" lon="2.9229950">
        <ele>77.0</ele>
        <time>2023-01-02T09:18:58Z</time>
      </trkpt>
      <trkpt lat="41.8098070" lon="2.9228720">
        <ele>76.4</ele>
        <time>2023-01-02T09:19:01Z</time>
      </trkpt>
      <trkpt lat="41.8098390" lon="2.9228170">
        <ele>76.2</ele>
        <time>2023-01-02T09:19:02Z</time>
      </trkpt>
      <trkpt lat="41.8098970" lon="2.9227190">
        <ele>76.4</ele>
        <time>2023-01-02T09:19:04Z</time>
      </trkpt>
      <trkpt lat="41.8099400" lon="2.9226170">
        <ele>76.6</ele>
        <time>2023-01-02T09:19:06Z</time>
      </trkpt>
      <trkpt lat="41.8099540" lon="2.9225600">
        <ele>76.8</ele>
        <time>2023-01-02T09:19:07Z</time>
      </trkpt>
      <trkpt lat="41.8100540" lon="2.9222570">
        <ele>76.8</ele>
        <time>2023-01-02T09:19:12Z</time>
      </trkpt>
      <trkpt lat="41.8101340" lon="2.9218130">
        <ele>76.4</ele>
        <time>2023-01-02T09:19:17Z</time>
      </trkpt>
      <trkpt lat="41.8102400" lon="2.9214510">
        <ele>75.8</ele>
        <time>2023-01-02T09:19:21Z</time>
      </trkpt>
      <trkpt lat="41.8103030" lon="2.9212730">
        <ele>75.6</ele>
        <time>2023-01-02T09:19:23Z</time>
      </trkpt>
      <trkpt lat="41.8104320" lon="2.9209390">
        <ele>75.0</ele>
        <time>2023-01-02T09:19:27Z</time>
      </trkpt>
      <trkpt lat="41.8105000" lon="2.9207820">
        <ele>74.8</ele>
        <time>2023-01-02T09:19:29Z</time>
      </trkpt>
      <trkpt lat="41.8105700" lon="2.9206230">
        <ele>74.4</ele>
        <time>2023-01-02T09:19:31Z</time>
      </trkpt>
      <trkpt lat="41.8106500" lon="2.9204720">
        <ele>74.4</ele>
        <time>2023-01-02T09:19:33Z</time>
      </trkpt>
      <trkpt lat="41.8107850" lon="2.9202620">
        <ele>74.4</ele>
        <time>2023-01-02T09:19:36Z</time>
      </trkpt>
      <trkpt lat="41.8108380" lon="2.9202030">
        <ele>74.4</ele>
        <time>2023-01-02T09:19:37Z</time>
      </trkpt>
      <trkpt lat="41.8109980" lon="2.9200460">
        <ele>74.2</ele>
        <time>2023-01-02T09:19:40Z</time>
      </trkpt>
      <trkpt lat="41.8111070" lon="2.9199430">
        <ele>74.0</ele>
        <time>2023-01-02T09:19:42Z</time>
      </trkpt>
      <trkpt lat="41.8112020" lon="2.9198210">
        <ele>74.0</ele>
        <time>2023-01-02T09:19:44Z</time>
      </trkpt>
      <trkpt lat="41.8113950" lon="2.9195770">
        <ele>73.6</ele>
        <time>2023-01-02T09:19:48Z</time>
      </trkpt>
      <trkpt lat="41.8114470" lon="2.9195200">
        <ele>73.6</ele>
        <time>2023-01-02T09:19:49Z</time>
      </trkpt>
      <trkpt lat="41.8115640" lon="2.9194310">
        <ele>73.4</ele>
        <time>2023-01-02T09:19:51Z</time>
      </trkpt>
      <trkpt lat="41.8119260" lon="2.9192310">
        <ele>72.8</ele>
        <time>2023-01-02T09:19:56Z</time>
      </trkpt>
      <trkpt lat="41.8120110" lon="2.9192060">
        <ele>72.8</ele>
        <time>2023-01-02T09:19:57Z</time>
      </trkpt>
      <trkpt lat="41.8121760" lon="2.9191690">
        <ele>72.6</ele>
        <time>2023-01-02T09:19:59Z</time>
      </trkpt>
      <trkpt lat="41.8123380" lon="2.9191570">
        <ele>72.4</ele>
        <time>2023-01-02T09:20:01Z</time>
      </trkpt>
      <trkpt lat="41.8125600" lon="2.9191760">
        <ele>72.0</ele>
        <time>2023-01-02T09:20:04Z</time>
      </trkpt>
      <trkpt lat="41.8126230" lon="2.9192070">
        <ele>71.8</ele>
        <time>2023-01-02T09:20:05Z</time>
      </trkpt>
      <trkpt lat="41.8126850" lon="2.9192540">
        <ele>71.6</ele>
        <time>2023-01-02T09:20:06Z</time>
      </trkpt>
      <trkpt lat="41.8127920" lon="2.9193800">
        <ele>71.4</ele>
        <time>2023-01-02T09:20:08Z</time>
      </trkpt>
      <trkpt lat="41.8128300" lon="2.9194520">
        <ele>71.2</ele>
        <time>2023-01-02T09:20:09Z</time>
      </trkpt>
      <trkpt lat="41.8128880" lon="2.9196180">
        <ele>71.0</ele>
        <time>2023-01-02T09:20:11Z</time>
      </trkpt>
      <trkpt lat="41.8129700" lon="2.9197850">
        <ele>70.6</ele>
        <time>2023-01-02T09:20:13Z</time>
      </trkpt>
      <trkpt lat="41.8130690" lon="2.9199220">
        <ele>70.4</ele>
        <time>2023-01-02T09:20:15Z</time>
      </trkpt>
      <trkpt lat="41.8132250" lon="2.9200720">
        <ele>69.2</ele>
        <time>2023-01-02T09:20:19Z</time>
      </trkpt>
      <trkpt lat="41.8132930" lon="2.9201150">
        <ele>68.0</ele>
        <time>2023-01-02T09:20:21Z</time>
      </trkpt>
      <trkpt lat="41.8133440" lon="2.9201740">
        <ele>67.6</ele>
        <time>2023-01-02T09:20:23Z</time>
      </trkpt>
      <trkpt lat="41.8134470" lon="2.9203020">
        <ele>67.8</ele>
        <time>2023-01-02T09:20:28Z</time>
      </trkpt>
      <trkpt lat="41.8135800" lon="2.9204230">
        <ele>68.2</ele>
        <time>2023-01-02T09:20:33Z</time>
      </trkpt>
      <trkpt lat="41.8137480" lon="2.9205060">
        <ele>68.2</ele>
        <time>2023-01-02T09:20:39Z</time>
      </trkpt>
      <trkpt lat="41.8139390" lon="2.9205880">
        <ele>68.6</ele>
        <time>2023-01-02T09:20:44Z</time>
      </trkpt>
      <trkpt lat="41.8140760" lon="2.9206040">
        <ele>68.2</ele>
        <time>2023-01-02T09:20:47Z</time>
      </trkpt>
      <trkpt lat="41.8141220" lon="2.9206050">
        <ele>68.0</ele>
        <time>2023-01-02T09:20:48Z</time>
      </trkpt>
      <trkpt lat="41.8143330" lon="2.9206400">
        <ele>67.8</ele>
        <time>2023-01-02T09:20:53Z</time>
      </trkpt>
      <trkpt lat="41.8145620" lon="2.9207200">
        <ele>67.8</ele>
        <time>2023-01-02T09:20:59Z</time>
      </trkpt>
      <trkpt lat="41.8148400" lon="2.9207810">
        <ele>68.0</ele>
        <time>2023-01-02T09:21:05Z</time>
      </trkpt>
      <trkpt lat="41.8150770" lon="2.9208160">
        <ele>67.2</ele>
        <time>2023-01-02T09:21:10Z</time>
      </trkpt>
      <trkpt lat="41.8154210" lon="2.9208720">
        <ele>66.8</ele>
        <time>2023-01-02T09:21:17Z</time>
      </trkpt>
      <trkpt lat="41.8156350" lon="2.9208940">
        <ele>66.4</ele>
        <time>2023-01-02T09:21:22Z</time>
      </trkpt>
      <trkpt lat="41.8157370" lon="2.9209720">
        <ele>66.2</ele>
        <time>2023-01-02T09:21:25Z</time>
      </trkpt>
      <trkpt lat="41.8157660" lon="2.9210120">
        <ele>66.2</ele>
        <time>2023-01-02T09:21:26Z</time>
      </trkpt>
      <trkpt lat="41.8158060" lon="2.9210460">
        <ele>66.2</ele>
        <time>2023-01-02T09:21:27Z</time>
      </trkpt>
      <trkpt lat="41.8159000" lon="2.9210930">
        <ele>66.2</ele>
        <time>2023-01-02T09:21:29Z</time>
      </trkpt>
      <trkpt lat="41.8160070" lon="2.9211260">
        <ele>66.0</ele>
        <time>2023-01-02T09:21:31Z</time>
      </trkpt>
      <trkpt lat="41.8161230" lon="2.9211440">
        <ele>65.6</ele>
        <time>2023-01-02T09:21:33Z</time>
      </trkpt>
      <trkpt lat="41.8163120" lon="2.9211350">
        <ele>65.4</ele>
        <time>2023-01-02T09:21:37Z</time>
      </trkpt>
      <trkpt lat="41.8164040" lon="2.9210870">
        <ele>65.6</ele>
        <time>2023-01-02T09:21:39Z</time>
      </trkpt>
      <trkpt lat="41.8164760" lon="2.9209920">
        <ele>65.6</ele>
        <time>2023-01-02T09:21:41Z</time>
      </trkpt>
      <trkpt lat="41.8164970" lon="2.9209220">
        <ele>65.6</ele>
        <time>2023-01-02T09:21:42Z</time>
      </trkpt>
      <trkpt lat="41.8165840" lon="2.9206170">
        <ele>64.6</ele>
        <time>2023-01-02T09:21:46Z</time>
      </trkpt>
      <trkpt lat="41.8166190" lon="2.9205470">
        <ele>64.6</ele>
        <time>2023-01-02T09:21:47Z</time>
      </trkpt>
      <trkpt lat="41.8166540" lon="2.9204770">
        <ele>64.6</ele>
        <time>2023-01-02T09:21:48Z</time>
      </trkpt>
      <trkpt lat="41.8167550" lon="2.9202610">
        <ele>64.2</ele>
        <time>2023-01-02T09:21:51Z</time>
      </trkpt>
      <trkpt lat="41.8168200" lon="2.9200430">
        <ele>64.0</ele>
        <time>2023-01-02T09:21:54Z</time>
      </trkpt>
      <trkpt lat="41.8168770" lon="2.9199250">
        <ele>63.6</ele>
        <time>2023-01-02T09:21:56Z</time>
      </trkpt>
      <trkpt lat="41.8169150" lon="2.9198790">
        <ele>63.6</ele>
        <time>2023-01-02T09:21:57Z</time>
      </trkpt>
      <trkpt lat="41.8169530" lon="2.9198420">
        <ele>63.6</ele>
        <time>2023-01-02T09:21:58Z</time>
      </trkpt>
      <trkpt lat="41.8170260" lon="2.9197850">
        <ele>64.0</ele>
        <time>2023-01-02T09:22:00Z</time>
      </trkpt>
      <trkpt lat="41.8171440" lon="2.9197430">
        <ele>64.0</ele>
        <time>2023-01-02T09:22:02Z</time>
      </trkpt>
      <trkpt lat="41.8173700" lon="2.9196640">
        <ele>64.0</ele>
        <time>2023-01-02T09:22:06Z</time>
      </trkpt>
      <trkpt lat="41.8175810" lon="2.9196710">
        <ele>63.4</ele>
        <time>2023-01-02T09:22:10Z</time>
      </trkpt>
      <trkpt lat="41.8176970" lon="2.9197030">
        <ele>63.4</ele>
        <time>2023-01-02T09:22:12Z</time>
      </trkpt>
      <trkpt lat="41.8178810" lon="2.9197630">
        <ele>63.6</ele>
        <time>2023-01-02T09:22:15Z</time>
      </trkpt>
      <trkpt lat="41.8182320" lon="2.9198770">
        <ele>63.4</ele>
        <time>2023-01-02T09:22:21Z</time>
      </trkpt>
      <trkpt lat="41.8182880" lon="2.9198920">
        <ele>63.4</ele>
        <time>2023-01-02T09:22:22Z</time>
      </trkpt>
      <trkpt lat="41.8184260" lon="2.9199330">
        <ele>63.0</ele>
        <time>2023-01-02T09:22:25Z</time>
      </trkpt>
      <trkpt lat="41.8184770" lon="2.9199630">
        <ele>62.8</ele>
        <time>2023-01-02T09:22:26Z</time>
      </trkpt>
      <trkpt lat="41.8186250" lon="2.9200950">
        <ele>62.8</ele>
        <time>2023-01-02T09:22:29Z</time>
      </trkpt>
      <trkpt lat="41.8186690" lon="2.9201470">
        <ele>62.8</ele>
        <time>2023-01-02T09:22:30Z</time>
      </trkpt>
      <trkpt lat="41.8187490" lon="2.9202630">
        <ele>62.6</ele>
        <time>2023-01-02T09:22:32Z</time>
      </trkpt>
      <trkpt lat="41.8188270" lon="2.9203980">
        <ele>62.6</ele>
        <time>2023-01-02T09:22:34Z</time>
      </trkpt>
      <trkpt lat="41.8188610" lon="2.9204670">
        <ele>62.8</ele>
        <time>2023-01-02T09:22:35Z</time>
      </trkpt>
      <trkpt lat="41.8189840" lon="2.9207340">
        <ele>62.8</ele>
        <time>2023-01-02T09:22:39Z</time>
      </trkpt>
      <trkpt lat="41.8191570" lon="2.9210630">
        <ele>62.6</ele>
        <time>2023-01-02T09:22:44Z</time>
      </trkpt>
      <trkpt lat="41.8191920" lon="2.9211300">
        <ele>62.6</ele>
        <time>2023-01-02T09:22:45Z</time>
      </trkpt>
      <trkpt lat="41.8194130" lon="2.9214800">
        <ele>62.4</ele>
        <time>2023-01-02T09:22:50Z</time>
      </trkpt>
      <trkpt lat="41.8194670" lon="2.9215430">
        <ele>62.2</ele>
        <time>2023-01-02T09:22:51Z</time>
      </trkpt>
      <trkpt lat="41.8195850" lon="2.9216200">
        <ele>62.2</ele>
        <time>2023-01-02T09:22:53Z</time>
      </trkpt>
      <trkpt lat="41.8197140" lon="2.9216260">
        <ele>62.0</ele>
        <time>2023-01-02T09:22:55Z</time>
      </trkpt>
      <trkpt lat="41.8197750" lon="2.9216140">
        <ele>62.0</ele>
        <time>2023-01-02T09:22:56Z</time>
      </trkpt>
      <trkpt lat="41.8198390" lon="2.9216090">
        <ele>61.8</ele>
        <time>2023-01-02T09:22:57Z</time>
      </trkpt>
      <trkpt lat="41.8199450" lon="2.9216050">
        <ele>61.4</ele>
        <time>2023-01-02T09:22:59Z</time>
      </trkpt>
      <trkpt lat="41.8199850" lon="2.9216110">
        <ele>61.2</ele>
        <time>2023-01-02T09:23:00Z</time>
      </trkpt>
      <trkpt lat="41.8200860" lon="2.9217040">
        <ele>60.6</ele>
        <time>2023-01-02T09:23:04Z</time>
      </trkpt>
      <trkpt lat="41.8201170" lon="2.9218560">
        <ele>60.8</ele>
        <time>2023-01-02T09:23:09Z</time>
      </trkpt>
      <trkpt lat="41.8201950" lon="2.9220240">
        <ele>61.6</ele>
        <time>2023-01-02T09:23:15Z</time>
      </trkpt>
      <trkpt lat="41.8202400" lon="2.9221500">
        <ele>62.6</ele>
        <time>2023-01-02T09:23:19Z</time>
      </trkpt>
      <trkpt lat="41.8202460" lon="2.9221760">
        <ele>63.0</ele>
        <time>2023-01-02T09:23:20Z</time>
      </trkpt>
      <trkpt lat="41.8202260" lon="2.9222850">
        <ele>63.8</ele>
        <time>2023-01-02T09:23:24Z</time>
      </trkpt>
      <trkpt lat="41.8202100" lon="2.9223030">
        <ele>64.0</ele>
        <time>2023-01-02T09:23:25Z</time>
      </trkpt>
      <trkpt lat="41.8201750" lon="2.9223140">
        <ele>64.4</ele>
        <time>2023-01-02T09:23:27Z</time>
      </trkpt>
      <trkpt lat="41.8201190" lon="2.9223030">
        <ele>64.8</ele>
        <time>2023-01-02T09:23:30Z</time>
      </trkpt>
      <trkpt lat="41.8200860" lon="2.9222780">
        <ele>65.0</ele>
        <time>2023-01-02T09:23:32Z</time>
      </trkpt>
      <trkpt lat="41.8200660" lon="2.9222740">
        <ele>65.0</ele>
        <time>2023-01-02T09:23:33Z</time>
      </trkpt>
      <trkpt lat="41.8200030" lon="2.9222750">
        <ele>65.6</ele>
        <time>2023-01-02T09:23:36Z</time>
      </trkpt>
      <trkpt lat="41.8199850" lon="2.9222850">
        <ele>66.0</ele>
        <time>2023-01-02T09:23:37Z</time>
      </trkpt>
      <trkpt lat="41.8198770" lon="2.9223530">
        <ele>67.2</ele>
        <time>2023-01-02T09:23:42Z</time>
      </trkpt>
      <trkpt lat="41.8197670" lon="2.9224700">
        <ele>68.2</ele>
        <time>2023-01-02T09:23:47Z</time>
      </trkpt>
      <trkpt lat="41.8197020" lon="2.9225310">
        <ele>68.2</ele>
        <time>2023-01-02T09:23:49Z</time>
      </trkpt>
      <trkpt lat="41.8195060" lon="2.9227330">
        <ele>68.0</ele>
        <time>2023-01-02T09:23:55Z</time>
      </trkpt>
      <trkpt lat="41.8194340" lon="2.9228000">
        <ele>68.2</ele>
        <time>2023-01-02T09:23:57Z</time>
      </trkpt>
      <trkpt lat="41.8193440" lon="2.9228850">
        <ele>68.2</ele>
        <time>2023-01-02T09:24:00Z</time>
      </trkpt>
      <trkpt lat="41.8192040" lon="2.9230260">
        <ele>68.2</ele>
        <time>2023-01-02T09:24:06Z</time>
      </trkpt>
      <trkpt lat="41.8190500" lon="2.9231510">
        <ele>68.4</ele>
        <time>2023-01-02T09:24:12Z</time>
      </trkpt>
      <trkpt lat="41.8189570" lon="2.9232090">
        <ele>69.2</ele>
        <time>2023-01-02T09:24:16Z</time>
      </trkpt>
      <trkpt lat="41.8189060" lon="2.9232220">
        <ele>69.8</ele>
        <time>2023-01-02T09:24:18Z</time>
      </trkpt>
      <trkpt lat="41.8188000" lon="2.9232510">
        <ele>70.4</ele>
        <time>2023-01-02T09:24:22Z</time>
      </trkpt>
      <trkpt lat="41.8187010" lon="2.9232790">
        <ele>71.0</ele>
        <time>2023-01-02T09:24:26Z</time>
      </trkpt>
      <trkpt lat="41.8186540" lon="2.9232990">
        <ele>71.4</ele>
        <time>2023-01-02T09:24:28Z</time>
      </trkpt>
      <trkpt lat="41.8185610" lon="2.9233510">
        <ele>72.4</ele>
        <time>2023-01-02T09:24:32Z</time>
      </trkpt>
      <trkpt lat="41.8184030" lon="2.9235340">
        <ele>72.6</ele>
        <time>2023-01-02T09:24:38Z</time>
      </trkpt>
      <trkpt lat="41.8183590" lon="2.9236170">
        <ele>73.6</ele>
        <time>2023-01-02T09:24:41Z</time>
      </trkpt>
      <trkpt lat="41.8183170" lon="2.9237030">
        <ele>74.0</ele>
        <time>2023-01-02T09:24:44Z</time>
      </trkpt>
      <trkpt lat="41.8182150" lon="2.9238640">
        <ele>74.8</ele>
        <time>2023-01-02T09:24:50Z</time>
      </trkpt>
      <trkpt lat="41.8181790" lon="2.9239110">
        <ele>75.0</ele>
        <time>2023-01-02T09:24:52Z</time>
      </trkpt>
      <trkpt lat="41.8180610" lon="2.9240410">
        <ele>75.8</ele>
        <time>2023-01-02T09:24:58Z</time>
      </trkpt>
      <trkpt lat="41.8179410" lon="2.9241730">
        <ele>77.0</ele>
        <time>2023-01-02T09:25:05Z</time>
      </trkpt>
      <trkpt lat="41.8178290" lon="2.9242640">
        <ele>78.2</ele>
        <time>2023-01-02T09:25:11Z</time>
      </trkpt>
      <trkpt lat="41.8177490" lon="2.9243210">
        <ele>79.4</ele>
        <time>2023-01-02T09:25:15Z</time>
      </trkpt>
      <trkpt lat="41.8176690" lon="2.9243690">
        <ele>80.2</ele>
        <time>2023-01-02T09:25:19Z</time>
      </trkpt>
      <trkpt lat="41.8176460" lon="2.9243750">
        <ele>80.4</ele>
        <time>2023-01-02T09:25:20Z</time>
      </trkpt>
      <trkpt lat="41.8175470" lon="2.9244210">
        <ele>81.0</ele>
        <time>2023-01-02T09:25:25Z</time>
      </trkpt>
      <trkpt lat="41.8174160" lon="2.9245370">
        <ele>81.2</ele>
        <time>2023-01-02T09:25:31Z</time>
      </trkpt>
      <trkpt lat="41.8173460" lon="2.9246160">
        <ele>81.4</ele>
        <time>2023-01-02T09:25:34Z</time>
      </trkpt>
      <trkpt lat="41.8172740" lon="2.9247010">
        <ele>81.8</ele>
        <time>2023-01-02T09:25:37Z</time>
      </trkpt>
      <trkpt lat="41.8170950" lon="2.9248420">
        <ele>82.0</ele>
        <time>2023-01-02T09:25:43Z</time>
      </trkpt>
      <trkpt lat="41.8169620" lon="2.9248850">
        <ele>82.6</ele>
        <time>2023-01-02T09:25:48Z</time>
      </trkpt>
      <trkpt lat="41.8169450" lon="2.9248980">
        <ele>82.8</ele>
        <time>2023-01-02T09:25:49Z</time>
      </trkpt>
      <trkpt lat="41.8168470" lon="2.9249740">
        <ele>83.6</ele>
        <time>2023-01-02T09:25:54Z</time>
      </trkpt>
      <trkpt lat="41.8168090" lon="2.9249900">
        <ele>84.0</ele>
        <time>2023-01-02T09:25:56Z</time>
      </trkpt>
      <trkpt lat="41.8167590" lon="2.9250270">
        <ele>84.6</ele>
        <time>2023-01-02T09:25:59Z</time>
      </trkpt>
      <trkpt lat="41.8167090" lon="2.9250510">
        <ele>85.8</ele>
        <time>2023-01-02T09:26:02Z</time>
      </trkpt>
      <trkpt lat="41.8166780" lon="2.9250370">
        <ele>86.0</ele>
        <time>2023-01-02T09:26:04Z</time>
      </trkpt>
      <trkpt lat="41.8166160" lon="2.9249750">
        <ele>87.0</ele>
        <time>2023-01-02T09:26:09Z</time>
      </trkpt>
      <trkpt lat="41.8166160" lon="2.9249580">
        <ele>87.2</ele>
        <time>2023-01-02T09:26:10Z</time>
      </trkpt>
      <trkpt lat="41.8166320" lon="2.9249260">
        <ele>88.0</ele>
        <time>2023-01-02T09:26:12Z</time>
      </trkpt>
      <trkpt lat="41.8166870" lon="2.9249170">
        <ele>88.8</ele>
        <time>2023-01-02T09:26:15Z</time>
      </trkpt>
      <trkpt lat="41.8167040" lon="2.9249210">
        <ele>89.2</ele>
        <time>2023-01-02T09:26:16Z</time>
      </trkpt>
      <trkpt lat="41.8167620" lon="2.9249250">
        <ele>90.2</ele>
        <time>2023-01-02T09:26:20Z</time>
      </trkpt>
      <trkpt lat="41.8167860" lon="2.9248920">
        <ele>90.4</ele>
        <time>2023-01-02T09:26:22Z</time>
      </trkpt>
      <trkpt lat="41.8168240" lon="2.9248200">
        <ele>90.6</ele>
        <time>2023-01-02T09:26:25Z</time>
      </trkpt>
      <trkpt lat="41.8169260" lon="2.9247050">
        <ele>91.2</ele>
        <time>2023-01-02T09:26:31Z</time>
      </trkpt>
      <trkpt lat="41.8169520" lon="2.9246910">
        <ele>91.2</ele>
        <time>2023-01-02T09:26:32Z</time>
      </trkpt>
      <trkpt lat="41.8170770" lon="2.9246090">
        <ele>92.4</ele>
        <time>2023-01-02T09:26:38Z</time>
      </trkpt>
      <trkpt lat="41.8170920" lon="2.9245870">
        <ele>92.6</ele>
        <time>2023-01-02T09:26:39Z</time>
      </trkpt>
      <trkpt lat="41.8172190" lon="2.9244360">
        <ele>93.4</ele>
        <time>2023-01-02T09:26:46Z</time>
      </trkpt>
      <trkpt lat="41.8172390" lon="2.9244160">
        <ele>93.6</ele>
        <time>2023-01-02T09:26:47Z</time>
      </trkpt>
      <trkpt lat="41.8173360" lon="2.9243050">
        <ele>94.4</ele>
        <time>2023-01-02T09:26:53Z</time>
      </trkpt>
      <trkpt lat="41.8174150" lon="2.9242190">
        <ele>95.6</ele>
        <time>2023-01-02T09:26:58Z</time>
      </trkpt>
      <trkpt lat="41.8174640" lon="2.9241570">
        <ele>96.2</ele>
        <time>2023-01-02T09:27:01Z</time>
      </trkpt>
      <trkpt lat="41.8174960" lon="2.9241120">
        <ele>96.6</ele>
        <time>2023-01-02T09:27:03Z</time>
      </trkpt>
      <trkpt lat="41.8175190" lon="2.9240100">
        <ele>97.6</ele>
        <time>2023-01-02T09:27:07Z</time>
      </trkpt>
      <trkpt lat="41.8175230" lon="2.9239840">
        <ele>97.8</ele>
        <time>2023-01-02T09:27:08Z</time>
      </trkpt>
      <trkpt lat="41.8175260" lon="2.9239390">
        <ele>98.0</ele>
        <time>2023-01-02T09:27:10Z</time>
      </trkpt>
      <trkpt lat="41.8175310" lon="2.9238740">
        <ele>98.6</ele>
        <time>2023-01-02T09:27:13Z</time>
      </trkpt>
      <trkpt lat="41.8175280" lon="2.9238500">
        <ele>99.0</ele>
        <time>2023-01-02T09:27:14Z</time>
      </trkpt>
      <trkpt lat="41.8175270" lon="2.9237210">
        <ele>99.8</ele>
        <time>2023-01-02T09:27:19Z</time>
      </trkpt>
      <trkpt lat="41.8175920" lon="2.9236550">
        <ele>100.0</ele>
        <time>2023-01-02T09:27:23Z</time>
      </trkpt>
      <trkpt lat="41.8176090" lon="2.9236510">
        <ele>100.2</ele>
        <time>2023-01-02T09:27:24Z</time>
      </trkpt>
      <trkpt lat="41.8176560" lon="2.9236470">
        <ele>101.4</ele>
        <time>2023-01-02T09:27:27Z</time>
      </trkpt>
      <trkpt lat="41.8177020" lon="2.9236610">
        <ele>102.0</ele>
        <time>2023-01-02T09:27:30Z</time>
      </trkpt>
      <trkpt lat="41.8177880" lon="2.9236660">
        <ele>102.4</ele>
        <time>2023-01-02T09:27:34Z</time>
      </trkpt>
      <trkpt lat="41.8178110" lon="2.9236480">
        <ele>102.4</ele>
        <time>2023-01-02T09:27:35Z</time>
      </trkpt>
      <trkpt lat="41.8178890" lon="2.9234770">
        <ele>102.8</ele>
        <time>2023-01-02T09:27:40Z</time>
      </trkpt>
      <trkpt lat="41.8178890" lon="2.9232540">
        <ele>103.4</ele>
        <time>2023-01-02T09:27:46Z</time>
      </trkpt>
      <trkpt lat="41.8178990" lon="2.9231770">
        <ele>103.8</ele>
        <time>2023-01-02T09:27:48Z</time>
      </trkpt>
      <trkpt lat="41.8179450" lon="2.9230320">
        <ele>104.6</ele>
        <time>2023-01-02T09:27:52Z</time>
      </trkpt>
      <trkpt lat="41.8179880" lon="2.9229360">
        <ele>105.0</ele>
        <time>2023-01-02T09:27:55Z</time>
      </trkpt>
      <trkpt lat="41.8180190" lon="2.9228640">
        <ele>105.6</ele>
        <time>2023-01-02T09:27:58Z</time>
      </trkpt>
      <trkpt lat="41.8180450" lon="2.9227840">
        <ele>106.4</ele>
        <time>2023-01-02T09:28:01Z</time>
      </trkpt>
      <trkpt lat="41.8180470" lon="2.9227220">
        <ele>106.8</ele>
        <time>2023-01-02T09:28:03Z</time>
      </trkpt>
      <trkpt lat="41.8180390" lon="2.9226320">
        <ele>107.0</ele>
        <time>2023-01-02T09:28:06Z</time>
      </trkpt>
      <trkpt lat="41.8179960" lon="2.9225020">
        <ele>107.6</ele>
        <time>2023-01-02T09:28:11Z</time>
      </trkpt>
      <trkpt lat="41.8179800" lon="2.9224470">
        <ele>107.8</ele>
        <time>2023-01-02T09:28:13Z</time>
      </trkpt>
      <trkpt lat="41.8179500" lon="2.9223210">
        <ele>108.8</ele>
        <time>2023-01-02T09:28:18Z</time>
      </trkpt>
      <trkpt lat="41.8179450" lon="2.9222990">
        <ele>109.2</ele>
        <time>2023-01-02T09:28:19Z</time>
      </trkpt>
      <trkpt lat="41.8179110" lon="2.9221240">
        <ele>110.4</ele>
        <time>2023-01-02T09:28:25Z</time>
      </trkpt>
      <trkpt lat="41.8178980" lon="2.9220970">
        <ele>110.4</ele>
        <time>2023-01-02T09:28:26Z</time>
      </trkpt>
      <trkpt lat="41.8178780" lon="2.9220750">
        <ele>110.6</ele>
        <time>2023-01-02T09:28:27Z</time>
      </trkpt>
      <trkpt lat="41.8178380" lon="2.9220660">
        <ele>111.2</ele>
        <time>2023-01-02T09:28:29Z</time>
      </trkpt>
      <trkpt lat="41.8178260" lon="2.9220780">
        <ele>111.6</ele>
        <time>2023-01-02T09:28:30Z</time>
      </trkpt>
      <trkpt lat="41.8177430" lon="2.9221740">
        <ele>113.0</ele>
        <time>2023-01-02T09:28:37Z</time>
      </trkpt>
      <trkpt lat="41.8176950" lon="2.9222210">
        <ele>114.0</ele>
        <time>2023-01-02T09:28:41Z</time>
      </trkpt>
      <trkpt lat="41.8176510" lon="2.9222670">
        <ele>115.0</ele>
        <time>2023-01-02T09:28:45Z</time>
      </trkpt>
      <trkpt lat="41.8176410" lon="2.9222790">
        <ele>115.2</ele>
        <time>2023-01-02T09:28:46Z</time>
      </trkpt>
      <trkpt lat="41.8176240" lon="2.9223000">
        <ele>116.2</ele>
        <time>2023-01-02T09:28:48Z</time>
      </trkpt>
      <trkpt lat="41.8176030" lon="2.9223350">
        <ele>117.2</ele>
        <time>2023-01-02T09:28:51Z</time>
      </trkpt>
      <trkpt lat="41.8175980" lon="2.9223510">
        <ele>117.2</ele>
        <time>2023-01-02T09:28:52Z</time>
      </trkpt>
      <trkpt lat="41.8175700" lon="2.9224230">
        <ele>118.6</ele>
        <time>2023-01-02T09:28:56Z</time>
      </trkpt>
      <trkpt lat="41.8175400" lon="2.9224570">
        <ele>119.2</ele>
        <time>2023-01-02T09:28:59Z</time>
      </trkpt>
      <trkpt lat="41.8175290" lon="2.9224680">
        <ele>119.6</ele>
        <time>2023-01-02T09:29:00Z</time>
      </trkpt>
      <trkpt lat="41.8174850" lon="2.9225010">
        <ele>120.8</ele>
        <time>2023-01-02T09:29:04Z</time>
      </trkpt>
      <trkpt lat="41.8174740" lon="2.9225110">
        <ele>121.0</ele>
        <time>2023-01-02T09:29:05Z</time>
      </trkpt>
      <trkpt lat="41.8174550" lon="2.9225350">
        <ele>121.8</ele>
        <time>2023-01-02T09:29:07Z</time>
      </trkpt>
      <trkpt lat="41.8173890" lon="2.9226260">
        <ele>122.2</ele>
        <time>2023-01-02T09:29:13Z</time>
      </trkpt>
      <trkpt lat="41.8173070" lon="2.9227530">
        <ele>121.8</ele>
        <time>2023-01-02T09:29:17Z</time>
      </trkpt>
      <trkpt lat="41.8172290" lon="2.9228290">
        <ele>121.4</ele>
        <time>2023-01-02T09:29:19Z</time>
      </trkpt>
      <trkpt lat="41.8171440" lon="2.9228790">
        <ele>121.2</ele>
        <time>2023-01-02T09:29:21Z</time>
      </trkpt>
      <trkpt lat="41.8170450" lon="2.9229840">
        <ele>121.2</ele>
        <time>2023-01-02T09:29:25Z</time>
      </trkpt>
      <trkpt lat="41.8169710" lon="2.9231700">
        <ele>122.0</ele>
        <time>2023-01-02T09:29:32Z</time>
      </trkpt>
      <trkpt lat="41.8168860" lon="2.9233860">
        <ele>123.0</ele>
        <time>2023-01-02T09:29:41Z</time>
      </trkpt>
      <trkpt lat="41.8167930" lon="2.9235700">
        <ele>124.0</ele>
        <time>2023-01-02T09:29:47Z</time>
      </trkpt>
      <trkpt lat="41.8167620" lon="2.9236040">
        <ele>123.6</ele>
        <time>2023-01-02T09:29:48Z</time>
      </trkpt>
      <trkpt lat="41.8166710" lon="2.9236340">
        <ele>122.8</ele>
        <time>2023-01-02T09:29:50Z</time>
      </trkpt>
      <trkpt lat="41.8165220" lon="2.9236430">
        <ele>121.8</ele>
        <time>2023-01-02T09:29:53Z</time>
      </trkpt>
      <trkpt lat="41.8164440" lon="2.9236510">
        <ele>121.4</ele>
        <time>2023-01-02T09:29:55Z</time>
      </trkpt>
      <trkpt lat="41.8162200" lon="2.9236880">
        <ele>121.4</ele>
        <time>2023-01-02T09:30:01Z</time>
      </trkpt>
      <trkpt lat="41.8161020" lon="2.9236310">
        <ele>121.2</ele>
        <time>2023-01-02T09:30:03Z</time>
      </trkpt>
      <trkpt lat="41.8160410" lon="2.9236240">
        <ele>121.0</ele>
        <time>2023-01-02T09:30:04Z</time>
      </trkpt>
      <trkpt lat="41.8159770" lon="2.9236300">
        <ele>120.8</ele>
        <time>2023-01-02T09:30:05Z</time>
      </trkpt>
      <trkpt lat="41.8158440" lon="2.9236450">
        <ele>119.8</ele>
        <time>2023-01-02T09:30:07Z</time>
      </trkpt>
      <trkpt lat="41.8157870" lon="2.9236670">
        <ele>119.4</ele>
        <time>2023-01-02T09:30:08Z</time>
      </trkpt>
      <trkpt lat="41.8157360" lon="2.9236910">
        <ele>119.2</ele>
        <time>2023-01-02T09:30:09Z</time>
      </trkpt>
      <trkpt lat="41.8156940" lon="2.9237210">
        <ele>119.0</ele>
        <time>2023-01-02T09:30:10Z</time>
      </trkpt>
      <trkpt lat="41.8156570" lon="2.9238130">
        <ele>118.8</ele>
        <time>2023-01-02T09:30:12Z</time>
      </trkpt>
      <trkpt lat="41.8156310" lon="2.9239970">
        <ele>119.8</ele>
        <time>2023-01-02T09:30:17Z</time>
      </trkpt>
      <trkpt lat="41.8155900" lon="2.9240350">
        <ele>120.6</ele>
        <time>2023-01-02T09:30:19Z</time>
      </trkpt>
      <trkpt lat="41.8155380" lon="2.9240510">
        <ele>121.6</ele>
        <time>2023-01-02T09:30:21Z</time>
      </trkpt>
      <trkpt lat="41.8155100" lon="2.9240520">
        <ele>122.0</ele>
        <time>2023-01-02T09:30:22Z</time>
      </trkpt>
      <trkpt lat="41.8153980" lon="2.9240420">
        <ele>123.0</ele>
        <time>2023-01-02T09:30:26Z</time>
      </trkpt>
      <trkpt lat="41.8153400" lon="2.9240400">
        <ele>123.8</ele>
        <time>2023-01-02T09:30:28Z</time>
      </trkpt>
      <trkpt lat="41.8152860" lon="2.9240370">
        <ele>124.2</ele>
        <time>2023-01-02T09:30:30Z</time>
      </trkpt>
      <trkpt lat="41.8151510" lon="2.9240130">
        <ele>125.0</ele>
        <time>2023-01-02T09:30:36Z</time>
      </trkpt>
      <trkpt lat="41.8151110" lon="2.9240080">
        <ele>125.2</ele>
        <time>2023-01-02T09:30:38Z</time>
      </trkpt>
      <trkpt lat="41.8150710" lon="2.9240070">
        <ele>126.0</ele>
        <time>2023-01-02T09:30:42Z</time>
      </trkpt>
      <trkpt lat="41.8150720" lon="2.9240110">
        <ele>126.2</ele>
        <time>2023-01-02T09:30:45Z</time>
      </trkpt>
      <trkpt lat="41.8150800" lon="2.9240130">
        <ele>126.2</ele>
        <time>2023-01-02T09:30:50Z</time>
      </trkpt>
      <trkpt lat="41.8150540" lon="2.9240040">
        <ele>126.0</ele>
        <time>2023-01-02T09:30:58Z</time>
      </trkpt>
      <trkpt lat="41.8150530" lon="2.9240050">
        <ele>126.0</ele>
        <time>2023-01-02T09:31:08Z</time>
      </trkpt>
      <trkpt lat="41.8150530" lon="2.9240060">
        <ele>126.0</ele>
        <time>2023-01-02T09:31:13Z</time>
      </trkpt>
      <trkpt lat="41.8150530" lon="2.9240040">
        <ele>126.0</ele>
        <time>2023-01-02T09:31:18Z</time>
      </trkpt>
      <trkpt lat="41.8150530" lon="2.9240050">
        <ele>126.0</ele>
        <time>2023-01-02T09:31:22Z</time>
      </trkpt>
      <trkpt lat="41.8150530" lon="2.9240050">
        <ele>125.8</ele>
        <time>2023-01-02T09:31:24Z</time>
      </trkpt>
      <trkpt lat="41.8150530" lon="2.9240040">
        <ele>125.8</ele>
        <time>2023-01-02T09:31:27Z</time>
      </trkpt>
      <trkpt lat="41.8150530" lon="2.9240040">
        <ele>125.8</ele>
        <time>2023-01-02T09:31:30Z</time>
      </trkpt>
      <trkpt lat="41.8150530" lon="2.9240040">
        <ele>125.8</ele>
        <time>2023-01-02T09:31:34Z</time>
      </trkpt>
      <trkpt lat="41.8150530" lon="2.9240040">
        <ele>125.8</ele>
        <time>2023-01-02T09:31:37Z</time>
      </trkpt>
      <trkpt lat="41.8150530" lon="2.9240040">
        <ele>125.8</ele>
        <time>2023-01-02T09:31:40Z</time>
      </trkpt>
      <trkpt lat="41.8150540" lon="2.9240050">
        <ele>126.2</ele>
        <time>2023-01-02T09:31:51Z</time>
      </trkpt>
      <trkpt lat="41.8150560" lon="2.9240050">
        <ele>126.0</ele>
        <time>2023-01-02T09:31:57Z</time>
      </trkpt>
      <trkpt lat="41.8150560" lon="2.9240050">
        <ele>126.0</ele>
        <time>2023-01-02T09:32:04Z</time>
      </trkpt>
      <trkpt lat="41.8150560" lon="2.9240050">
        <ele>126.0</ele>
        <time>2023-01-02T09:32:20Z</time>
      </trkpt>
      <trkpt lat="41.8150570" lon="2.9240060">
        <ele>125.8</ele>
        <time>2023-01-02T09:32:30Z</time>
      </trkpt>
      <trkpt lat="41.8150570" lon="2.9240060">
        <ele>125.8</ele>
        <time>2023-01-02T09:32:41Z</time>
      </trkpt>
      <trkpt lat="41.8150580" lon="2.9240070">
        <ele>125.6</ele>
        <time>2023-01-02T09:33:05Z</time>
      </trkpt>
      <trkpt lat="41.8150580" lon="2.9240070">
        <ele>125.6</ele>
        <time>2023-01-02T09:33:07Z</time>
      </trkpt>
      <trkpt lat="41.8150570" lon="2.9240070">
        <ele>125.6</ele>
        <time>2023-01-02T09:33:09Z</time>
      </trkpt>
      <trkpt lat="41.8150570" lon="2.9240070">
        <ele>125.6</ele>
        <time>2023-01-02T09:33:12Z</time>
      </trkpt>
      <trkpt lat="41.8150530" lon="2.9240030">
        <ele>125.6</ele>
        <time>2023-01-02T09:33:35Z</time>
      </trkpt>
      <trkpt lat="41.8150420" lon="2.9239910">
        <ele>125.6</ele>
        <time>2023-01-02T09:33:49Z</time>
      </trkpt>
      <trkpt lat="41.8150440" lon="2.9239920">
        <ele>125.6</ele>
        <time>2023-01-02T09:33:52Z</time>
      </trkpt>
      <trkpt lat="41.8150150" lon="2.9239890">
        <ele>125.6</ele>
        <time>2023-01-02T09:33:57Z</time>
      </trkpt>
      <trkpt lat="41.8149780" lon="2.9239840">
        <ele>125.6</ele>
        <time>2023-01-02T09:33:59Z</time>
      </trkpt>
      <trkpt lat="41.8148900" lon="2.9240160">
        <ele>125.6</ele>
        <time>2023-01-02T09:34:03Z</time>
      </trkpt>
      <trkpt lat="41.8147220" lon="2.9241410">
        <ele>126.2</ele>
        <time>2023-01-02T09:34:11Z</time>
      </trkpt>
      <trkpt lat="41.8146210" lon="2.9241280">
        <ele>126.6</ele>
        <time>2023-01-02T09:34:16Z</time>
      </trkpt>
      <trkpt lat="41.8146010" lon="2.9241210">
        <ele>126.8</ele>
        <time>2023-01-02T09:34:17Z</time>
      </trkpt>
      <trkpt lat="41.8145250" lon="2.9241540">
        <ele>127.2</ele>
        <time>2023-01-02T09:34:22Z</time>
      </trkpt>
      <trkpt lat="41.8145060" lon="2.9241690">
        <ele>127.4</ele>
        <time>2023-01-02T09:34:23Z</time>
      </trkpt>
      <trkpt lat="41.8144400" lon="2.9242690">
        <ele>128.4</ele>
        <time>2023-01-02T09:34:28Z</time>
      </trkpt>
      <trkpt lat="41.8144310" lon="2.9242930">
        <ele>128.6</ele>
        <time>2023-01-02T09:34:29Z</time>
      </trkpt>
      <trkpt lat="41.8143790" lon="2.9243780">
        <ele>129.4</ele>
        <time>2023-01-02T09:34:33Z</time>
      </trkpt>
      <trkpt lat="41.8143670" lon="2.9243940">
        <ele>129.6</ele>
        <time>2023-01-02T09:34:34Z</time>
      </trkpt>
      <trkpt lat="41.8143550" lon="2.9244070">
        <ele>129.8</ele>
        <time>2023-01-02T09:34:35Z</time>
      </trkpt>
      <trkpt lat="41.8142840" lon="2.9244820">
        <ele>130.6</ele>
        <time>2023-01-02T09:34:40Z</time>
      </trkpt>
      <trkpt lat="41.8142500" lon="2.9245110">
        <ele>131.0</ele>
        <time>2023-01-02T09:34:42Z</time>
      </trkpt>
      <trkpt lat="41.8141320" lon="2.9245680">
        <ele>131.8</ele>
        <time>2023-01-02T09:34:48Z</time>
      </trkpt>
      <trkpt lat="41.8141120" lon="2.9245830">
        <ele>131.8</ele>
        <time>2023-01-02T09:34:49Z</time>
      </trkpt>
      <trkpt lat="41.8139650" lon="2.9246870">
        <ele>132.4</ele>
        <time>2023-01-02T09:34:56Z</time>
      </trkpt>
      <trkpt lat="41.8138760" lon="2.9247770">
        <ele>132.8</ele>
        <time>2023-01-02T09:35:01Z</time>
      </trkpt>
      <trkpt lat="41.8138260" lon="2.9248260">
        <ele>133.2</ele>
        <time>2023-01-02T09:35:04Z</time>
      </trkpt>
      <trkpt lat="41.8136630" lon="2.9249840">
        <ele>132.4</ele>
        <time>2023-01-02T09:35:10Z</time>
      </trkpt>
      <trkpt lat="41.8135600" lon="2.9251740">
        <ele>132.0</ele>
        <time>2023-01-02T09:35:14Z</time>
      </trkpt>
      <trkpt lat="41.8135320" lon="2.9252270">
        <ele>131.8</ele>
        <time>2023-01-02T09:35:15Z</time>
      </trkpt>
      <trkpt lat="41.8135010" lon="2.9252750">
        <ele>131.4</ele>
        <time>2023-01-02T09:35:16Z</time>
      </trkpt>
      <trkpt lat="41.8134650" lon="2.9253160">
        <ele>131.2</ele>
        <time>2023-01-02T09:35:17Z</time>
      </trkpt>
      <trkpt lat="41.8133560" lon="2.9254130">
        <ele>130.8</ele>
        <time>2023-01-02T09:35:20Z</time>
      </trkpt>
      <trkpt lat="41.8133250" lon="2.9254380">
        <ele>130.8</ele>
        <time>2023-01-02T09:35:21Z</time>
      </trkpt>
      <trkpt lat="41.8131660" lon="2.9256110">
        <ele>131.2</ele>
        <time>2023-01-02T09:35:27Z</time>
      </trkpt>
      <trkpt lat="41.8131250" lon="2.9257840">
        <ele>131.6</ele>
        <time>2023-01-02T09:35:32Z</time>
      </trkpt>
      <trkpt lat="41.8130890" lon="2.9258920">
        <ele>132.0</ele>
        <time>2023-01-02T09:35:37Z</time>
      </trkpt>
      <trkpt lat="41.8130780" lon="2.9259160">
        <ele>132.4</ele>
        <time>2023-01-02T09:35:38Z</time>
      </trkpt>
      <trkpt lat="41.8130230" lon="2.9260450">
        <ele>133.0</ele>
        <time>2023-01-02T09:35:43Z</time>
      </trkpt>
      <trkpt lat="41.8130050" lon="2.9260860">
        <ele>133.2</ele>
        <time>2023-01-02T09:35:45Z</time>
      </trkpt>
      <trkpt lat="41.8129750" lon="2.9261720">
        <ele>134.2</ele>
        <time>2023-01-02T09:35:49Z</time>
      </trkpt>
      <trkpt lat="41.8129400" lon="2.9262500">
        <ele>135.8</ele>
        <time>2023-01-02T09:35:53Z</time>
      </trkpt>
      <trkpt lat="41.8129150" lon="2.9263130">
        <ele>137.0</ele>
        <time>2023-01-02T09:35:56Z</time>
      </trkpt>
      <trkpt lat="41.8128780" lon="2.9263680">
        <ele>137.4</ele>
        <time>2023-01-02T09:35:59Z</time>
      </trkpt>
      <trkpt lat="41.8128260" lon="2.9264270">
        <ele>138.4</ele>
        <time>2023-01-02T09:36:03Z</time>
      </trkpt>
      <trkpt lat="41.8127790" lon="2.9264960">
        <ele>139.4</ele>
        <time>2023-01-02T09:36:07Z</time>
      </trkpt>
      <trkpt lat="41.8127550" lon="2.9265290">
        <ele>139.8</ele>
        <time>2023-01-02T09:36:09Z</time>
      </trkpt>
      <trkpt lat="41.8127290" lon="2.9265730">
        <ele>141.0</ele>
        <time>2023-01-02T09:36:12Z</time>
      </trkpt>
      <trkpt lat="41.8127030" lon="2.9266140">
        <ele>141.8</ele>
        <time>2023-01-02T09:36:15Z</time>
      </trkpt>
      <trkpt lat="41.8126400" lon="2.9267170">
        <ele>141.8</ele>
        <time>2023-01-02T09:36:20Z</time>
      </trkpt>
      <trkpt lat="41.8125800" lon="2.9268120">
        <ele>142.2</ele>
        <time>2023-01-02T09:36:24Z</time>
      </trkpt>
      <trkpt lat="41.8124810" lon="2.9269240">
        <ele>142.8</ele>
        <time>2023-01-02T09:36:30Z</time>
      </trkpt>
      <trkpt lat="41.8124060" lon="2.9269940">
        <ele>143.4</ele>
        <time>2023-01-02T09:36:34Z</time>
      </trkpt>
      <trkpt lat="41.8123540" lon="2.9270530">
        <ele>143.8</ele>
        <time>2023-01-02T09:36:37Z</time>
      </trkpt>
      <trkpt lat="41.8122760" lon="2.9272110">
        <ele>144.6</ele>
        <time>2023-01-02T09:36:43Z</time>
      </trkpt>
      <trkpt lat="41.8122700" lon="2.9272380">
        <ele>144.6</ele>
        <time>2023-01-02T09:36:44Z</time>
      </trkpt>
      <trkpt lat="41.8122210" lon="2.9273910">
        <ele>145.6</ele>
        <time>2023-01-02T09:36:50Z</time>
      </trkpt>
      <trkpt lat="41.8122160" lon="2.9274160">
        <ele>145.8</ele>
        <time>2023-01-02T09:36:51Z</time>
      </trkpt>
      <trkpt lat="41.8121980" lon="2.9276070">
        <ele>146.4</ele>
        <time>2023-01-02T09:36:57Z</time>
      </trkpt>
      <trkpt lat="41.8121570" lon="2.9279110">
        <ele>146.6</ele>
        <time>2023-01-02T09:37:05Z</time>
      </trkpt>
      <trkpt lat="41.8121480" lon="2.9280460">
        <ele>146.6</ele>
        <time>2023-01-02T09:37:08Z</time>
      </trkpt>
      <trkpt lat="41.8121440" lon="2.9282090">
        <ele>147.0</ele>
        <time>2023-01-02T09:37:12Z</time>
      </trkpt>
      <trkpt lat="41.8121100" lon="2.9283730">
        <ele>147.2</ele>
        <time>2023-01-02T09:37:17Z</time>
      </trkpt>
      <trkpt lat="41.8120720" lon="2.9285010">
        <ele>147.6</ele>
        <time>2023-01-02T09:37:21Z</time>
      </trkpt>
      <trkpt lat="41.8120540" lon="2.9286720">
        <ele>148.4</ele>
        <time>2023-01-02T09:37:26Z</time>
      </trkpt>
      <trkpt lat="41.8120650" lon="2.9287710">
        <ele>148.8</ele>
        <time>2023-01-02T09:37:29Z</time>
      </trkpt>
      <trkpt lat="41.8121040" lon="2.9288960">
        <ele>149.2</ele>
        <time>2023-01-02T09:37:33Z</time>
      </trkpt>
      <trkpt lat="41.8121560" lon="2.9290440">
        <ele>149.8</ele>
        <time>2023-01-02T09:37:38Z</time>
      </trkpt>
      <trkpt lat="41.8121660" lon="2.9290980">
        <ele>150.2</ele>
        <time>2023-01-02T09:37:40Z</time>
      </trkpt>
      <trkpt lat="41.8121750" lon="2.9291570">
        <ele>151.0</ele>
        <time>2023-01-02T09:37:42Z</time>
      </trkpt>
      <trkpt lat="41.8121750" lon="2.9293480">
        <ele>152.0</ele>
        <time>2023-01-02T09:37:48Z</time>
      </trkpt>
      <trkpt lat="41.8121270" lon="2.9295060">
        <ele>153.0</ele>
        <time>2023-01-02T09:37:54Z</time>
      </trkpt>
      <trkpt lat="41.8120920" lon="2.9295730">
        <ele>153.4</ele>
        <time>2023-01-02T09:37:57Z</time>
      </trkpt>
      <trkpt lat="41.8120220" lon="2.9296630">
        <ele>154.0</ele>
        <time>2023-01-02T09:38:01Z</time>
      </trkpt>
      <trkpt lat="41.8119770" lon="2.9297010">
        <ele>154.2</ele>
        <time>2023-01-02T09:38:03Z</time>
      </trkpt>
      <trkpt lat="41.8117950" lon="2.9298330">
        <ele>154.6</ele>
        <time>2023-01-02T09:38:11Z</time>
      </trkpt>
      <trkpt lat="41.8117070" lon="2.9299240">
        <ele>155.2</ele>
        <time>2023-01-02T09:38:15Z</time>
      </trkpt>
      <trkpt lat="41.8116370" lon="2.9300040">
        <ele>155.2</ele>
        <time>2023-01-02T09:38:18Z</time>
      </trkpt>
      <trkpt lat="41.8114740" lon="2.9301810">
        <ele>155.0</ele>
        <time>2023-01-02T09:38:25Z</time>
      </trkpt>
      <trkpt lat="41.8114500" lon="2.9302070">
        <ele>155.2</ele>
        <time>2023-01-02T09:38:26Z</time>
      </trkpt>
      <trkpt lat="41.8113140" lon="2.9304100">
        <ele>156.2</ele>
        <time>2023-01-02T09:38:33Z</time>
      </trkpt>
      <trkpt lat="41.8113060" lon="2.9304410">
        <ele>156.2</ele>
        <time>2023-01-02T09:38:34Z</time>
      </trkpt>
      <trkpt lat="41.8112690" lon="2.9306500">
        <ele>157.2</ele>
        <time>2023-01-02T09:38:40Z</time>
      </trkpt>
      <trkpt lat="41.8112640" lon="2.9306880">
        <ele>157.4</ele>
        <time>2023-01-02T09:38:41Z</time>
      </trkpt>
      <trkpt lat="41.8111910" lon="2.9309740">
        <ele>158.0</ele>
        <time>2023-01-02T09:38:49Z</time>
      </trkpt>
      <trkpt lat="41.8111460" lon="2.9310520">
        <ele>157.8</ele>
        <time>2023-01-02T09:38:51Z</time>
      </trkpt>
      <trkpt lat="41.8110490" lon="2.9311820">
        <ele>157.2</ele>
        <time>2023-01-02T09:38:54Z</time>
      </trkpt>
      <trkpt lat="41.8109910" lon="2.9312950">
        <ele>157.0</ele>
        <time>2023-01-02T09:38:56Z</time>
      </trkpt>
      <trkpt lat="41.8109610" lon="2.9314270">
        <ele>156.2</ele>
        <time>2023-01-02T09:38:58Z</time>
      </trkpt>
      <trkpt lat="41.8109780" lon="2.9315540">
        <ele>155.6</ele>
        <time>2023-01-02T09:39:00Z</time>
      </trkpt>
      <trkpt lat="41.8110060" lon="2.9316050">
        <ele>155.4</ele>
        <time>2023-01-02T09:39:01Z</time>
      </trkpt>
      <trkpt lat="41.8111070" lon="2.9317270">
        <ele>155.2</ele>
        <time>2023-01-02T09:39:04Z</time>
      </trkpt>
      <trkpt lat="41.8111700" lon="2.9317860">
        <ele>154.8</ele>
        <time>2023-01-02T09:39:06Z</time>
      </trkpt>
      <trkpt lat="41.8112570" lon="2.9319280">
        <ele>154.8</ele>
        <time>2023-01-02T09:39:11Z</time>
      </trkpt>
      <trkpt lat="41.8113040" lon="2.9320670">
        <ele>156.0</ele>
        <time>2023-01-02T09:39:17Z</time>
      </trkpt>
      <trkpt lat="41.8113000" lon="2.9320850">
        <ele>156.2</ele>
        <time>2023-01-02T09:39:18Z</time>
      </trkpt>
      <trkpt lat="41.8112860" lon="2.9321000">
        <ele>156.2</ele>
        <time>2023-01-02T09:39:19Z</time>
      </trkpt>
      <trkpt lat="41.8112200" lon="2.9321620">
        <ele>156.0</ele>
        <time>2023-01-02T09:39:23Z</time>
      </trkpt>
      <trkpt lat="41.8111210" lon="2.9322450">
        <ele>155.4</ele>
        <time>2023-01-02T09:39:29Z</time>
      </trkpt>
      <trkpt lat="41.8110850" lon="2.9322730">
        <ele>155.2</ele>
        <time>2023-01-02T09:39:30Z</time>
      </trkpt>
      <trkpt lat="41.8110120" lon="2.9323510">
        <ele>155.0</ele>
        <time>2023-01-02T09:39:32Z</time>
      </trkpt>
      <trkpt lat="41.8109800" lon="2.9324060">
        <ele>154.8</ele>
        <time>2023-01-02T09:39:33Z</time>
      </trkpt>
      <trkpt lat="41.8109530" lon="2.9324720">
        <ele>154.6</ele>
        <time>2023-01-02T09:39:34Z</time>
      </trkpt>
      <trkpt lat="41.8109190" lon="2.9326380">
        <ele>154.0</ele>
        <time>2023-01-02T09:39:36Z</time>
      </trkpt>
      <trkpt lat="41.8109070" lon="2.9327260">
        <ele>153.6</ele>
        <time>2023-01-02T09:39:37Z</time>
      </trkpt>
      <trkpt lat="41.8108490" lon="2.9329810">
        <ele>152.6</ele>
        <time>2023-01-02T09:39:40Z</time>
      </trkpt>
      <trkpt lat="41.8108220" lon="2.9330580">
        <ele>152.4</ele>
        <time>2023-01-02T09:39:41Z</time>
      </trkpt>
      <trkpt lat="41.8107940" lon="2.9331280">
        <ele>152.4</ele>
        <time>2023-01-02T09:39:42Z</time>
      </trkpt>
      <trkpt lat="41.8106400" lon="2.9334800">
        <ele>152.4</ele>
        <time>2023-01-02T09:39:48Z</time>
      </trkpt>
      <trkpt lat="41.8104300" lon="2.9339400">
        <ele>152.6</ele>
        <time>2023-01-02T09:39:56Z</time>
      </trkpt>
      <trkpt lat="41.8102890" lon="2.9342170">
        <ele>153.2</ele>
        <time>2023-01-02T09:40:01Z</time>
      </trkpt>
      <trkpt lat="41.8101510" lon="2.9344720">
        <ele>153.6</ele>
        <time>2023-01-02T09:40:06Z</time>
      </trkpt>
      <trkpt lat="41.8101230" lon="2.9345210">
        <ele>153.8</ele>
        <time>2023-01-02T09:40:07Z</time>
      </trkpt>
      <trkpt lat="41.8100030" lon="2.9347370">
        <ele>154.6</ele>
        <time>2023-01-02T09:40:12Z</time>
      </trkpt>
      <trkpt lat="41.8099840" lon="2.9347730">
        <ele>154.8</ele>
        <time>2023-01-02T09:40:13Z</time>
      </trkpt>
      <trkpt lat="41.8098990" lon="2.9349440">
        <ele>155.4</ele>
        <time>2023-01-02T09:40:18Z</time>
      </trkpt>
      <trkpt lat="41.8098660" lon="2.9350150">
        <ele>156.0</ele>
        <time>2023-01-02T09:40:20Z</time>
      </trkpt>
      <trkpt lat="41.8098510" lon="2.9350510">
        <ele>156.6</ele>
        <time>2023-01-02T09:40:21Z</time>
      </trkpt>
      <trkpt lat="41.8098250" lon="2.9351130">
        <ele>157.2</ele>
        <time>2023-01-02T09:40:23Z</time>
      </trkpt>
      <trkpt lat="41.8097580" lon="2.9352720">
        <ele>158.0</ele>
        <time>2023-01-02T09:40:28Z</time>
      </trkpt>
      <trkpt lat="41.8097290" lon="2.9353510">
        <ele>158.2</ele>
        <time>2023-01-02T09:40:30Z</time>
      </trkpt>
      <trkpt lat="41.8096800" lon="2.9355730">
        <ele>158.8</ele>
        <time>2023-01-02T09:40:36Z</time>
      </trkpt>
      <trkpt lat="41.8096370" lon="2.9357580">
        <ele>158.6</ele>
        <time>2023-01-02T09:40:41Z</time>
      </trkpt>
      <trkpt lat="41.8095780" lon="2.9360050">
        <ele>158.2</ele>
        <time>2023-01-02T09:40:46Z</time>
      </trkpt>
      <trkpt lat="41.8095500" lon="2.9361980">
        <ele>158.0</ele>
        <time>2023-01-02T09:40:49Z</time>
      </trkpt>
      <trkpt lat="41.8095370" lon="2.9363360">
        <ele>156.6</ele>
        <time>2023-01-02T09:40:51Z</time>
      </trkpt>
      <trkpt lat="41.8095080" lon="2.9365750">
        <ele>155.4</ele>
        <time>2023-01-02T09:40:54Z</time>
      </trkpt>
      <trkpt lat="41.8094670" lon="2.9369020">
        <ele>155.2</ele>
        <time>2023-01-02T09:40:58Z</time>
      </trkpt>
      <trkpt lat="41.8094310" lon="2.9371180">
        <ele>154.6</ele>
        <time>2023-01-02T09:41:01Z</time>
      </trkpt>
      <trkpt lat="41.8093800" lon="2.9373680">
        <ele>154.6</ele>
        <time>2023-01-02T09:41:05Z</time>
      </trkpt>
      <trkpt lat="41.8092980" lon="2.9377460">
        <ele>155.2</ele>
        <time>2023-01-02T09:41:12Z</time>
      </trkpt>
      <trkpt lat="41.8092880" lon="2.9377960">
        <ele>155.2</ele>
        <time>2023-01-02T09:41:13Z</time>
      </trkpt>
      <trkpt lat="41.8092220" lon="2.9381090">
        <ele>155.8</ele>
        <time>2023-01-02T09:41:20Z</time>
      </trkpt>
      <trkpt lat="41.8091690" lon="2.9383090">
        <ele>156.6</ele>
        <time>2023-01-02T09:41:25Z</time>
      </trkpt>
      <trkpt lat="41.8091440" lon="2.9383870">
        <ele>156.8</ele>
        <time>2023-01-02T09:41:27Z</time>
      </trkpt>
      <trkpt lat="41.8090830" lon="2.9385270">
        <ele>157.6</ele>
        <time>2023-01-02T09:41:31Z</time>
      </trkpt>
      <trkpt lat="41.8090150" lon="2.9386570">
        <ele>158.0</ele>
        <time>2023-01-02T09:41:35Z</time>
      </trkpt>
      <trkpt lat="41.8088860" lon="2.9388570">
        <ele>158.6</ele>
        <time>2023-01-02T09:41:42Z</time>
      </trkpt>
      <trkpt lat="41.8088230" lon="2.9389370">
        <ele>159.0</ele>
        <time>2023-01-02T09:41:45Z</time>
      </trkpt>
      <trkpt lat="41.8086720" lon="2.9390910">
        <ele>159.8</ele>
        <time>2023-01-02T09:41:52Z</time>
      </trkpt>
      <trkpt lat="41.8086540" lon="2.9391060">
        <ele>159.8</ele>
        <time>2023-01-02T09:41:53Z</time>
      </trkpt>
      <trkpt lat="41.8085660" lon="2.9391800">
        <ele>160.8</ele>
        <time>2023-01-02T09:41:59Z</time>
      </trkpt>
      <trkpt lat="41.8085530" lon="2.9391930">
        <ele>161.2</ele>
        <time>2023-01-02T09:42:00Z</time>
      </trkpt>
      <trkpt lat="41.8084990" lon="2.9392200">
        <ele>162.2</ele>
        <time>2023-01-02T09:42:04Z</time>
      </trkpt>
      <trkpt lat="41.8084480" lon="2.9392620">
        <ele>163.2</ele>
        <time>2023-01-02T09:42:08Z</time>
      </trkpt>
      <trkpt lat="41.8084120" lon="2.9393190">
        <ele>164.4</ele>
        <time>2023-01-02T09:42:12Z</time>
      </trkpt>
      <trkpt lat="41.8083840" lon="2.9393350">
        <ele>165.0</ele>
        <time>2023-01-02T09:42:14Z</time>
      </trkpt>
      <trkpt lat="41.8083570" lon="2.9393530">
        <ele>165.4</ele>
        <time>2023-01-02T09:42:16Z</time>
      </trkpt>
      <trkpt lat="41.8083110" lon="2.9394220">
        <ele>166.4</ele>
        <time>2023-01-02T09:42:21Z</time>
      </trkpt>
      <trkpt lat="41.8083040" lon="2.9394350">
        <ele>166.6</ele>
        <time>2023-01-02T09:42:22Z</time>
      </trkpt>
      <trkpt lat="41.8082640" lon="2.9394800">
        <ele>167.6</ele>
        <time>2023-01-02T09:42:26Z</time>
      </trkpt>
      <trkpt lat="41.8082300" lon="2.9395140">
        <ele>168.2</ele>
        <time>2023-01-02T09:42:29Z</time>
      </trkpt>
      <trkpt lat="41.8082070" lon="2.9395410">
        <ele>168.6</ele>
        <time>2023-01-02T09:42:31Z</time>
      </trkpt>
      <trkpt lat="41.8081530" lon="2.9396050">
        <ele>169.8</ele>
        <time>2023-01-02T09:42:36Z</time>
      </trkpt>
      <trkpt lat="41.8080950" lon="2.9396590">
        <ele>170.8</ele>
        <time>2023-01-02T09:42:41Z</time>
      </trkpt>
      <trkpt lat="41.8080480" lon="2.9397050">
        <ele>171.8</ele>
        <time>2023-01-02T09:42:45Z</time>
      </trkpt>
      <trkpt lat="41.8080360" lon="2.9397180">
        <ele>172.2</ele>
        <time>2023-01-02T09:42:46Z</time>
      </trkpt>
      <trkpt lat="41.8079500" lon="2.9398240">
        <ele>173.4</ele>
        <time>2023-01-02T09:42:53Z</time>
      </trkpt>
      <trkpt lat="41.8078600" lon="2.9399470">
        <ele>174.2</ele>
        <time>2023-01-02T09:43:00Z</time>
      </trkpt>
      <trkpt lat="41.8078330" lon="2.9399860">
        <ele>174.4</ele>
        <time>2023-01-02T09:43:02Z</time>
      </trkpt>
      <trkpt lat="41.8077580" lon="2.9400870">
        <ele>175.0</ele>
        <time>2023-01-02T09:43:07Z</time>
      </trkpt>
      <trkpt lat="41.8077140" lon="2.9401530">
        <ele>175.6</ele>
        <time>2023-01-02T09:43:10Z</time>
      </trkpt>
      <trkpt lat="41.8076990" lon="2.9401750">
        <ele>175.8</ele>
        <time>2023-01-02T09:43:11Z</time>
      </trkpt>
      <trkpt lat="41.8076180" lon="2.9403170">
        <ele>176.6</ele>
        <time>2023-01-02T09:43:17Z</time>
      </trkpt>
      <trkpt lat="41.8075170" lon="2.9404900">
        <ele>177.8</ele>
        <time>2023-01-02T09:43:24Z</time>
      </trkpt>
      <trkpt lat="41.8074720" lon="2.9405670">
        <ele>178.0</ele>
        <time>2023-01-02T09:43:27Z</time>
      </trkpt>
      <trkpt lat="41.8074040" lon="2.9406910">
        <ele>178.8</ele>
        <time>2023-01-02T09:43:32Z</time>
      </trkpt>
      <trkpt lat="41.8073310" lon="2.9408510">
        <ele>179.8</ele>
        <time>2023-01-02T09:43:38Z</time>
      </trkpt>
      <trkpt lat="41.8072370" lon="2.9410520">
        <ele>180.8</ele>
        <time>2023-01-02T09:43:46Z</time>
      </trkpt>
      <trkpt lat="41.8072250" lon="2.9410760">
        <ele>181.0</ele>
        <time>2023-01-02T09:43:47Z</time>
      </trkpt>
      <trkpt lat="41.8071900" lon="2.9411490">
        <ele>182.0</ele>
        <time>2023-01-02T09:43:50Z</time>
      </trkpt>
      <trkpt lat="41.8071420" lon="2.9412490">
        <ele>182.8</ele>
        <time>2023-01-02T09:43:55Z</time>
      </trkpt>
      <trkpt lat="41.8071350" lon="2.9412690">
        <ele>183.2</ele>
        <time>2023-01-02T09:43:56Z</time>
      </trkpt>
      <trkpt lat="41.8070840" lon="2.9413850">
        <ele>184.0</ele>
        <time>2023-01-02T09:44:02Z</time>
      </trkpt>
      <trkpt lat="41.8070760" lon="2.9414060">
        <ele>184.4</ele>
        <time>2023-01-02T09:44:03Z</time>
      </trkpt>
      <trkpt lat="41.8070390" lon="2.9414910">
        <ele>185.4</ele>
        <time>2023-01-02T09:44:07Z</time>
      </trkpt>
      <trkpt lat="41.8069900" lon="2.9415890">
        <ele>186.6</ele>
        <time>2023-01-02T09:44:12Z</time>
      </trkpt>
      <trkpt lat="41.8069630" lon="2.9416520">
        <ele>187.6</ele>
        <time>2023-01-02T09:44:15Z</time>
      </trkpt>
      <trkpt lat="41.8068900" lon="2.9418040">
        <ele>188.6</ele>
        <time>2023-01-02T09:44:22Z</time>
      </trkpt>
      <trkpt lat="41.8068790" lon="2.9418280">
        <ele>188.8</ele>
        <time>2023-01-02T09:44:23Z</time>
      </trkpt>
      <trkpt lat="41.8068120" lon="2.9419490">
        <ele>189.8</ele>
        <time>2023-01-02T09:44:28Z</time>
      </trkpt>
      <trkpt lat="41.8067560" lon="2.9420630">
        <ele>190.0</ele>
        <time>2023-01-02T09:44:32Z</time>
      </trkpt>
      <trkpt lat="41.8066840" lon="2.9423020">
        <ele>190.4</ele>
        <time>2023-01-02T09:44:39Z</time>
      </trkpt>
      <trkpt lat="41.8066580" lon="2.9424660">
        <ele>190.8</ele>
        <time>2023-01-02T09:44:44Z</time>
      </trkpt>
      <trkpt lat="41.8066550" lon="2.9425220">
        <ele>191.0</ele>
        <time>2023-01-02T09:44:46Z</time>
      </trkpt>
      <trkpt lat="41.8066150" lon="2.9426600">
        <ele>191.6</ele>
        <time>2023-01-02T09:44:51Z</time>
      </trkpt>
      <trkpt lat="41.8066100" lon="2.9426950">
        <ele>192.0</ele>
        <time>2023-01-02T09:44:52Z</time>
      </trkpt>
      <trkpt lat="41.8066150" lon="2.9428530">
        <ele>192.6</ele>
        <time>2023-01-02T09:44:56Z</time>
      </trkpt>
      <trkpt lat="41.8066250" lon="2.9429790">
        <ele>193.0</ele>
        <time>2023-01-02T09:44:59Z</time>
      </trkpt>
      <trkpt lat="41.8066730" lon="2.9432100">
        <ele>193.4</ele>
        <time>2023-01-02T09:45:04Z</time>
      </trkpt>
      <trkpt lat="41.8067700" lon="2.9434590">
        <ele>193.6</ele>
        <time>2023-01-02T09:45:09Z</time>
      </trkpt>
      <trkpt lat="41.8067860" lon="2.9435170">
        <ele>193.8</ele>
        <time>2023-01-02T09:45:10Z</time>
      </trkpt>
      <trkpt lat="41.8068600" lon="2.9438160">
        <ele>194.0</ele>
        <time>2023-01-02T09:45:15Z</time>
      </trkpt>
      <trkpt lat="41.8068870" lon="2.9439390">
        <ele>194.0</ele>
        <time>2023-01-02T09:45:17Z</time>
      </trkpt>
      <trkpt lat="41.8069960" lon="2.9444470">
        <ele>194.4</ele>
        <time>2023-01-02T09:45:25Z</time>
      </trkpt>
      <trkpt lat="41.8070800" lon="2.9449160">
        <ele>195.2</ele>
        <time>2023-01-02T09:45:33Z</time>
      </trkpt>
      <trkpt lat="41.8071270" lon="2.9452900">
        <ele>196.0</ele>
        <time>2023-01-02T09:45:41Z</time>
      </trkpt>
      <trkpt lat="41.8071370" lon="2.9453470">
        <ele>196.2</ele>
        <time>2023-01-02T09:45:43Z</time>
      </trkpt>
      <trkpt lat="41.8071560" lon="2.9454540">
        <ele>197.0</ele>
        <time>2023-01-02T09:45:47Z</time>
      </trkpt>
      <trkpt lat="41.8071550" lon="2.9455190">
        <ele>197.4</ele>
        <time>2023-01-02T09:45:52Z</time>
      </trkpt>
      <trkpt lat="41.8071490" lon="2.9455350">
        <ele>197.4</ele>
        <time>2023-01-02T09:46:02Z</time>
      </trkpt>
      <trkpt lat="41.8071440" lon="2.9455390">
        <ele>197.2</ele>
        <time>2023-01-02T09:46:13Z</time>
      </trkpt>
      <trkpt lat="41.8071440" lon="2.9455370">
        <ele>197.4</ele>
        <time>2023-01-02T09:46:19Z</time>
      </trkpt>
      <trkpt lat="41.8071450" lon="2.9455360">
        <ele>197.4</ele>
        <time>2023-01-02T09:46:21Z</time>
      </trkpt>
      <trkpt lat="41.8071450" lon="2.9455350">
        <ele>197.4</ele>
        <time>2023-01-02T09:46:23Z</time>
      </trkpt>
      <trkpt lat="41.8071470" lon="2.9455370">
        <ele>197.2</ele>
        <time>2023-01-02T09:46:25Z</time>
      </trkpt>
      <trkpt lat="41.8071480" lon="2.9455390">
        <ele>197.2</ele>
        <time>2023-01-02T09:46:27Z</time>
      </trkpt>
      <trkpt lat="41.8071490" lon="2.9455410">
        <ele>197.2</ele>
        <time>2023-01-02T09:46:32Z</time>
      </trkpt>
      <trkpt lat="41.8071500" lon="2.9455370">
        <ele>197.2</ele>
        <time>2023-01-02T09:46:41Z</time>
      </trkpt>
      <trkpt lat="41.8071610" lon="2.9455940">
        <ele>197.2</ele>
        <time>2023-01-02T09:46:47Z</time>
      </trkpt>
      <trkpt lat="41.8072090" lon="2.9458430">
        <ele>197.4</ele>
        <time>2023-01-02T09:46:53Z</time>
      </trkpt>
      <trkpt lat="41.8072730" lon="2.9461110">
        <ele>198.2</ele>
        <time>2023-01-02T09:46:59Z</time>
      </trkpt>
      <trkpt lat="41.8072880" lon="2.9461590">
        <ele>198.4</ele>
        <time>2023-01-02T09:47:00Z</time>
      </trkpt>
      <trkpt lat="41.8073930" lon="2.9464340">
        <ele>198.2</ele>
        <time>2023-01-02T09:47:06Z</time>
      </trkpt>
      <trkpt lat="41.8074120" lon="2.9464820">
        <ele>198.0</ele>
        <time>2023-01-02T09:47:07Z</time>
      </trkpt>
      <trkpt lat="41.8075120" lon="2.9466970">
        <ele>198.0</ele>
        <time>2023-01-02T09:47:11Z</time>
      </trkpt>
      <trkpt lat="41.8077300" lon="2.9471690">
        <ele>198.0</ele>
        <time>2023-01-02T09:47:18Z</time>
      </trkpt>
      <trkpt lat="41.8079540" lon="2.9477110">
        <ele>197.2</ele>
        <time>2023-01-02T09:47:25Z</time>
      </trkpt>
      <trkpt lat="41.8079860" lon="2.9477840">
        <ele>197.2</ele>
        <time>2023-01-02T09:47:26Z</time>
      </trkpt>
      <trkpt lat="41.8081400" lon="2.9481280">
        <ele>196.6</ele>
        <time>2023-01-02T09:47:31Z</time>
      </trkpt>
      <trkpt lat="41.8082030" lon="2.9482590">
        <ele>196.2</ele>
        <time>2023-01-02T09:47:33Z</time>
      </trkpt>
      <trkpt lat="41.8082380" lon="2.9483240">
        <ele>196.2</ele>
        <time>2023-01-02T09:47:34Z</time>
      </trkpt>
      <trkpt lat="41.8084810" lon="2.9487150">
        <ele>196.0</ele>
        <time>2023-01-02T09:47:40Z</time>
      </trkpt>
      <trkpt lat="41.8085610" lon="2.9488790">
        <ele>195.6</ele>
        <time>2023-01-02T09:47:42Z</time>
      </trkpt>
      <trkpt lat="41.8086260" lon="2.9490710">
        <ele>195.2</ele>
        <time>2023-01-02T09:47:44Z</time>
      </trkpt>
      <trkpt lat="41.8087890" lon="2.9495360">
        <ele>194.0</ele>
        <time>2023-01-02T09:47:49Z</time>
      </trkpt>
      <trkpt lat="41.8088260" lon="2.9496170">
        <ele>193.6</ele>
        <time>2023-01-02T09:47:50Z</time>
      </trkpt>
      <trkpt lat="41.8088670" lon="2.9496880">
        <ele>193.4</ele>
        <time>2023-01-02T09:47:51Z</time>
      </trkpt>
      <trkpt lat="41.8089650" lon="2.9498010">
        <ele>193.2</ele>
        <time>2023-01-02T09:47:53Z</time>
      </trkpt>
      <trkpt lat="41.8090200" lon="2.9498420">
        <ele>193.2</ele>
        <time>2023-01-02T09:47:54Z</time>
      </trkpt>
      <trkpt lat="41.8090750" lon="2.9498740">
        <ele>193.0</ele>
        <time>2023-01-02T09:47:55Z</time>
      </trkpt>
      <trkpt lat="41.8092200" lon="2.9499560">
        <ele>193.0</ele>
        <time>2023-01-02T09:47:58Z</time>
      </trkpt>
      <trkpt lat="41.8093510" lon="2.9500350">
        <ele>193.2</ele>
        <time>2023-01-02T09:48:01Z</time>
      </trkpt>
      <trkpt lat="41.8095070" lon="2.9501280">
        <ele>193.2</ele>
        <time>2023-01-02T09:48:04Z</time>
      </trkpt>
      <trkpt lat="41.8097080" lon="2.9502240">
        <ele>192.4</ele>
        <time>2023-01-02T09:48:07Z</time>
      </trkpt>
      <trkpt lat="41.8098680" lon="2.9502770">
        <ele>191.6</ele>
        <time>2023-01-02T09:48:09Z</time>
      </trkpt>
      <trkpt lat="41.8099510" lon="2.9502990">
        <ele>191.2</ele>
        <time>2023-01-02T09:48:10Z</time>
      </trkpt>
      <trkpt lat="41.8102760" lon="2.9503880">
        <ele>189.8</ele>
        <time>2023-01-02T09:48:14Z</time>
      </trkpt>
      <trkpt lat="41.8103840" lon="2.9504220">
        <ele>188.2</ele>
        <time>2023-01-02T09:48:16Z</time>
      </trkpt>
      <trkpt lat="41.8104300" lon="2.9504250">
        <ele>187.6</ele>
        <time>2023-01-02T09:48:17Z</time>
      </trkpt>
      <trkpt lat="41.8104700" lon="2.9504210">
        <ele>187.0</ele>
        <time>2023-01-02T09:48:18Z</time>
      </trkpt>
      <trkpt lat="41.8106790" lon="2.9503890">
        <ele>186.8</ele>
        <time>2023-01-02T09:48:23Z</time>
      </trkpt>
      <trkpt lat="41.8107760" lon="2.9503660">
        <ele>187.2</ele>
        <time>2023-01-02T09:48:25Z</time>
      </trkpt>
      <trkpt lat="41.8109270" lon="2.9503330">
        <ele>187.6</ele>
        <time>2023-01-02T09:48:28Z</time>
      </trkpt>
      <trkpt lat="41.8110860" lon="2.9502960">
        <ele>187.8</ele>
        <time>2023-01-02T09:48:31Z</time>
      </trkpt>
      <trkpt lat="41.8114350" lon="2.9502130">
        <ele>187.8</ele>
        <time>2023-01-02T09:48:37Z</time>
      </trkpt>
      <trkpt lat="41.8115000" lon="2.9502000">
        <ele>187.8</ele>
        <time>2023-01-02T09:48:38Z</time>
      </trkpt>
      <trkpt lat="41.8119750" lon="2.9500460">
        <ele>186.6</ele>
        <time>2023-01-02T09:48:45Z</time>
      </trkpt>
      <trkpt lat="41.8122410" lon="2.9499590">
        <ele>186.0</ele>
        <time>2023-01-02T09:48:49Z</time>
      </trkpt>
      <trkpt lat="41.8125790" lon="2.9498340">
        <ele>185.2</ele>
        <time>2023-01-02T09:48:54Z</time>
      </trkpt>
      <trkpt lat="41.8128050" lon="2.9497480">
        <ele>184.8</ele>
        <time>2023-01-02T09:48:57Z</time>
      </trkpt>
      <trkpt lat="41.8129620" lon="2.9496620">
        <ele>184.0</ele>
        <time>2023-01-02T09:48:59Z</time>
      </trkpt>
      <trkpt lat="41.8130460" lon="2.9496040">
        <ele>183.8</ele>
        <time>2023-01-02T09:49:00Z</time>
      </trkpt>
      <trkpt lat="41.8132740" lon="2.9493960">
        <ele>182.6</ele>
        <time>2023-01-02T09:49:03Z</time>
      </trkpt>
      <trkpt lat="41.8134090" lon="2.9492670">
        <ele>181.2</ele>
        <time>2023-01-02T09:49:05Z</time>
      </trkpt>
      <trkpt lat="41.8134790" lon="2.9492020">
        <ele>180.0</ele>
        <time>2023-01-02T09:49:06Z</time>
      </trkpt>
      <trkpt lat="41.8136250" lon="2.9490650">
        <ele>178.8</ele>
        <time>2023-01-02T09:49:08Z</time>
      </trkpt>
      <trkpt lat="41.8136940" lon="2.9489830">
        <ele>178.4</ele>
        <time>2023-01-02T09:49:09Z</time>
      </trkpt>
      <trkpt lat="41.8137570" lon="2.9488920">
        <ele>177.8</ele>
        <time>2023-01-02T09:49:10Z</time>
      </trkpt>
      <trkpt lat="41.8138150" lon="2.9487930">
        <ele>177.6</ele>
        <time>2023-01-02T09:49:11Z</time>
      </trkpt>
      <trkpt lat="41.8139880" lon="2.9484730">
        <ele>176.0</ele>
        <time>2023-01-02T09:49:14Z</time>
      </trkpt>
      <trkpt lat="41.8140480" lon="2.9483600">
        <ele>175.6</ele>
        <time>2023-01-02T09:49:15Z</time>
      </trkpt>
      <trkpt lat="41.8141110" lon="2.9482460">
        <ele>174.2</ele>
        <time>2023-01-02T09:49:16Z</time>
      </trkpt>
      <trkpt lat="41.8141800" lon="2.9481320">
        <ele>173.0</ele>
        <time>2023-01-02T09:49:17Z</time>
      </trkpt>
      <trkpt lat="41.8143350" lon="2.9479100">
        <ele>172.0</ele>
        <time>2023-01-02T09:49:19Z</time>
      </trkpt>
      <trkpt lat="41.8144190" lon="2.9478000">
        <ele>171.4</ele>
        <time>2023-01-02T09:49:20Z</time>
      </trkpt>
      <trkpt lat="41.8145050" lon="2.9476920">
        <ele>170.2</ele>
        <time>2023-01-02T09:49:21Z</time>
      </trkpt>
      <trkpt lat="41.8145910" lon="2.9475850">
        <ele>169.0</ele>
        <time>2023-01-02T09:49:22Z</time>
      </trkpt>
      <trkpt lat="41.8147700" lon="2.9473620">
        <ele>167.6</ele>
        <time>2023-01-02T09:49:24Z</time>
      </trkpt>
      <trkpt lat="41.8148630" lon="2.9472520">
        <ele>166.2</ele>
        <time>2023-01-02T09:49:25Z</time>
      </trkpt>
      <trkpt lat="41.8149590" lon="2.9471460">
        <ele>165.4</ele>
        <time>2023-01-02T09:49:26Z</time>
      </trkpt>
      <trkpt lat="41.8150560" lon="2.9470450">
        <ele>164.8</ele>
        <time>2023-01-02T09:49:27Z</time>
      </trkpt>
      <trkpt lat="41.8152500" lon="2.9468540">
        <ele>163.0</ele>
        <time>2023-01-02T09:49:29Z</time>
      </trkpt>
      <trkpt lat="41.8154470" lon="2.9466830">
        <ele>161.2</ele>
        <time>2023-01-02T09:49:31Z</time>
      </trkpt>
      <trkpt lat="41.8156600" lon="2.9465980">
        <ele>159.6</ele>
        <time>2023-01-02T09:49:33Z</time>
      </trkpt>
      <trkpt lat="41.8157680" lon="2.9465700">
        <ele>159.0</ele>
        <time>2023-01-02T09:49:34Z</time>
      </trkpt>
      <trkpt lat="41.8158740" lon="2.9465460">
        <ele>157.8</ele>
        <time>2023-01-02T09:49:35Z</time>
      </trkpt>
      <trkpt lat="41.8159750" lon="2.9465220">
        <ele>156.6</ele>
        <time>2023-01-02T09:49:36Z</time>
      </trkpt>
      <trkpt lat="41.8160720" lon="2.9465000">
        <ele>155.2</ele>
        <time>2023-01-02T09:49:37Z</time>
      </trkpt>
      <trkpt lat="41.8162470" lon="2.9464640">
        <ele>153.2</ele>
        <time>2023-01-02T09:49:39Z</time>
      </trkpt>
      <trkpt lat="41.8163230" lon="2.9464580">
        <ele>152.4</ele>
        <time>2023-01-02T09:49:40Z</time>
      </trkpt>
      <trkpt lat="41.8163960" lon="2.9464620">
        <ele>151.0</ele>
        <time>2023-01-02T09:49:41Z</time>
      </trkpt>
      <trkpt lat="41.8164630" lon="2.9464770">
        <ele>150.0</ele>
        <time>2023-01-02T09:49:42Z</time>
      </trkpt>
      <trkpt lat="41.8165190" lon="2.9465030">
        <ele>148.8</ele>
        <time>2023-01-02T09:49:43Z</time>
      </trkpt>
      <trkpt lat="41.8165440" lon="2.9465530">
        <ele>148.0</ele>
        <time>2023-01-02T09:49:44Z</time>
      </trkpt>
      <trkpt lat="41.8165640" lon="2.9466040">
        <ele>147.4</ele>
        <time>2023-01-02T09:49:45Z</time>
      </trkpt>
      <trkpt lat="41.8165890" lon="2.9466410">
        <ele>147.2</ele>
        <time>2023-01-02T09:49:46Z</time>
      </trkpt>
      <trkpt lat="41.8166360" lon="2.9466720">
        <ele>147.0</ele>
        <time>2023-01-02T09:49:48Z</time>
      </trkpt>
      <trkpt lat="41.8166510" lon="2.9466880">
        <ele>147.0</ele>
        <time>2023-01-02T09:49:49Z</time>
      </trkpt>
      <trkpt lat="41.8166830" lon="2.9467800">
        <ele>147.2</ele>
        <time>2023-01-02T09:49:53Z</time>
      </trkpt>
      <trkpt lat="41.8167030" lon="2.9468220">
        <ele>147.6</ele>
        <time>2023-01-02T09:49:55Z</time>
      </trkpt>
      <trkpt lat="41.8167390" lon="2.9469180">
        <ele>148.4</ele>
        <time>2023-01-02T09:49:59Z</time>
      </trkpt>
      <trkpt lat="41.8167420" lon="2.9469420">
        <ele>148.6</ele>
        <time>2023-01-02T09:50:00Z</time>
      </trkpt>
      <trkpt lat="41.8167480" lon="2.9469670">
        <ele>149.0</ele>
        <time>2023-01-02T09:50:01Z</time>
      </trkpt>
      <trkpt lat="41.8167720" lon="2.9470500">
        <ele>149.4</ele>
        <time>2023-01-02T09:50:04Z</time>
      </trkpt>
      <trkpt lat="41.8167840" lon="2.9470740">
        <ele>149.6</ele>
        <time>2023-01-02T09:50:05Z</time>
      </trkpt>
      <trkpt lat="41.8168130" lon="2.9471140">
        <ele>150.4</ele>
        <time>2023-01-02T09:50:07Z</time>
      </trkpt>
      <trkpt lat="41.8168280" lon="2.9471360">
        <ele>150.6</ele>
        <time>2023-01-02T09:50:08Z</time>
      </trkpt>
      <trkpt lat="41.8168440" lon="2.9471550">
        <ele>150.8</ele>
        <time>2023-01-02T09:50:09Z</time>
      </trkpt>
      <trkpt lat="41.8168940" lon="2.9472110">
        <ele>152.0</ele>
        <time>2023-01-02T09:50:12Z</time>
      </trkpt>
      <trkpt lat="41.8169320" lon="2.9472590">
        <ele>152.4</ele>
        <time>2023-01-02T09:50:14Z</time>
      </trkpt>
      <trkpt lat="41.8169580" lon="2.9472960">
        <ele>153.2</ele>
        <time>2023-01-02T09:50:16Z</time>
      </trkpt>
      <trkpt lat="41.8170030" lon="2.9473400">
        <ele>154.2</ele>
        <time>2023-01-02T09:50:19Z</time>
      </trkpt>
      <trkpt lat="41.8170210" lon="2.9473530">
        <ele>154.4</ele>
        <time>2023-01-02T09:50:20Z</time>
      </trkpt>
      <trkpt lat="41.8170690" lon="2.9473860">
        <ele>155.4</ele>
        <time>2023-01-02T09:50:23Z</time>
      </trkpt>
      <trkpt lat="41.8171260" lon="2.9474500">
        <ele>156.4</ele>
        <time>2023-01-02T09:50:27Z</time>
      </trkpt>
      <trkpt lat="41.8171420" lon="2.9474940">
        <ele>157.0</ele>
        <time>2023-01-02T09:50:29Z</time>
      </trkpt>
      <trkpt lat="41.8171490" lon="2.9475580">
        <ele>157.4</ele>
        <time>2023-01-02T09:50:32Z</time>
      </trkpt>
      <trkpt lat="41.8171590" lon="2.9476460">
        <ele>158.2</ele>
        <time>2023-01-02T09:50:36Z</time>
      </trkpt>
      <trkpt lat="41.8171540" lon="2.9476800">
        <ele>158.6</ele>
        <time>2023-01-02T09:50:38Z</time>
      </trkpt>
      <trkpt lat="41.8171510" lon="2.9477390">
        <ele>159.8</ele>
        <time>2023-01-02T09:50:42Z</time>
      </trkpt>
      <trkpt lat="41.8171560" lon="2.9477710">
        <ele>160.2</ele>
        <time>2023-01-02T09:50:44Z</time>
      </trkpt>
      <trkpt lat="41.8171660" lon="2.9478010">
        <ele>160.8</ele>
        <time>2023-01-02T09:50:46Z</time>
      </trkpt>
      <trkpt lat="41.8172020" lon="2.9478810">
        <ele>162.0</ele>
        <time>2023-01-02T09:50:51Z</time>
      </trkpt>
      <trkpt lat="41.8172890" lon="2.9480040">
        <ele>162.2</ele>
        <time>2023-01-02T09:50:57Z</time>
      </trkpt>
      <trkpt lat="41.8173690" lon="2.9481170">
        <ele>162.8</ele>
        <time>2023-01-02T09:51:03Z</time>
      </trkpt>
      <trkpt lat="41.8173820" lon="2.9481360">
        <ele>163.0</ele>
        <time>2023-01-02T09:51:04Z</time>
      </trkpt>
      <trkpt lat="41.8174300" lon="2.9482000">
        <ele>164.2</ele>
        <time>2023-01-02T09:51:08Z</time>
      </trkpt>
      <trkpt lat="41.8174740" lon="2.9482470">
        <ele>164.6</ele>
        <time>2023-01-02T09:51:11Z</time>
      </trkpt>
      <trkpt lat="41.8175720" lon="2.9483430">
        <ele>165.4</ele>
        <time>2023-01-02T09:51:16Z</time>
      </trkpt>
      <trkpt lat="41.8176270" lon="2.9483930">
        <ele>165.4</ele>
        <time>2023-01-02T09:51:18Z</time>
      </trkpt>
      <trkpt lat="41.8177380" lon="2.9484630">
        <ele>165.4</ele>
        <time>2023-01-02T09:51:21Z</time>
      </trkpt>
      <trkpt lat="41.8178420" lon="2.9485060">
        <ele>165.2</ele>
        <time>2023-01-02T09:51:23Z</time>
      </trkpt>
      <trkpt lat="41.8179580" lon="2.9485610">
        <ele>164.8</ele>
        <time>2023-01-02T09:51:25Z</time>
      </trkpt>
      <trkpt lat="41.8180250" lon="2.9485970">
        <ele>164.2</ele>
        <time>2023-01-02T09:51:26Z</time>
      </trkpt>
      <trkpt lat="41.8181800" lon="2.9486780">
        <ele>163.2</ele>
        <time>2023-01-02T09:51:28Z</time>
      </trkpt>
      <trkpt lat="41.8183310" lon="2.9487660">
        <ele>162.0</ele>
        <time>2023-01-02T09:51:30Z</time>
      </trkpt>
      <trkpt lat="41.8184750" lon="2.9488580">
        <ele>160.6</ele>
        <time>2023-01-02T09:51:32Z</time>
      </trkpt>
      <trkpt lat="41.8185510" lon="2.9489110">
        <ele>159.2</ele>
        <time>2023-01-02T09:51:33Z</time>
      </trkpt>
      <trkpt lat="41.8186240" lon="2.9489600">
        <ele>158.6</ele>
        <time>2023-01-02T09:51:34Z</time>
      </trkpt>
      <trkpt lat="41.8186970" lon="2.9489980">
        <ele>157.4</ele>
        <time>2023-01-02T09:51:35Z</time>
      </trkpt>
      <trkpt lat="41.8188320" lon="2.9490590">
        <ele>155.4</ele>
        <time>2023-01-02T09:51:37Z</time>
      </trkpt>
      <trkpt lat="41.8188940" lon="2.9491050">
        <ele>153.6</ele>
        <time>2023-01-02T09:51:38Z</time>
      </trkpt>
      <trkpt lat="41.8189510" lon="2.9491690">
        <ele>152.2</ele>
        <time>2023-01-02T09:51:39Z</time>
      </trkpt>
      <trkpt lat="41.8190030" lon="2.9492510">
        <ele>151.0</ele>
        <time>2023-01-02T09:51:40Z</time>
      </trkpt>
      <trkpt lat="41.8190430" lon="2.9493370">
        <ele>150.0</ele>
        <time>2023-01-02T09:51:41Z</time>
      </trkpt>
      <trkpt lat="41.8190690" lon="2.9494290">
        <ele>149.0</ele>
        <time>2023-01-02T09:51:42Z</time>
      </trkpt>
      <trkpt lat="41.8191050" lon="2.9496430">
        <ele>147.4</ele>
        <time>2023-01-02T09:51:44Z</time>
      </trkpt>
      <trkpt lat="41.8191710" lon="2.9498030">
        <ele>146.0</ele>
        <time>2023-01-02T09:51:46Z</time>
      </trkpt>
      <trkpt lat="41.8192050" lon="2.9498580">
        <ele>145.2</ele>
        <time>2023-01-02T09:51:47Z</time>
      </trkpt>
      <trkpt lat="41.8192280" lon="2.9499240">
        <ele>144.6</ele>
        <time>2023-01-02T09:51:48Z</time>
      </trkpt>
      <trkpt lat="41.8192470" lon="2.9500930">
        <ele>143.6</ele>
        <time>2023-01-02T09:51:50Z</time>
      </trkpt>
      <trkpt lat="41.8192410" lon="2.9501690">
        <ele>143.0</ele>
        <time>2023-01-02T09:51:51Z</time>
      </trkpt>
      <trkpt lat="41.8192170" lon="2.9502330">
        <ele>142.4</ele>
        <time>2023-01-02T09:51:52Z</time>
      </trkpt>
      <trkpt lat="41.8191800" lon="2.9502920">
        <ele>141.4</ele>
        <time>2023-01-02T09:51:53Z</time>
      </trkpt>
      <trkpt lat="41.8191420" lon="2.9503630">
        <ele>140.8</ele>
        <time>2023-01-02T09:51:54Z</time>
      </trkpt>
      <trkpt lat="41.8190980" lon="2.9504520">
        <ele>140.4</ele>
        <time>2023-01-02T09:51:55Z</time>
      </trkpt>
      <trkpt lat="41.8190460" lon="2.9505500">
        <ele>140.0</ele>
        <time>2023-01-02T09:51:56Z</time>
      </trkpt>
      <trkpt lat="41.8189920" lon="2.9506640">
        <ele>139.2</ele>
        <time>2023-01-02T09:51:57Z</time>
      </trkpt>
      <trkpt lat="41.8189450" lon="2.9507880">
        <ele>138.6</ele>
        <time>2023-01-02T09:51:58Z</time>
      </trkpt>
      <trkpt lat="41.8189090" lon="2.9509120">
        <ele>137.6</ele>
        <time>2023-01-02T09:51:59Z</time>
      </trkpt>
      <trkpt lat="41.8188830" lon="2.9510400">
        <ele>136.8</ele>
        <time>2023-01-02T09:52:00Z</time>
      </trkpt>
      <trkpt lat="41.8188680" lon="2.9511740">
        <ele>136.2</ele>
        <time>2023-01-02T09:52:01Z</time>
      </trkpt>
      <trkpt lat="41.8188690" lon="2.9512920">
        <ele>135.6</ele>
        <time>2023-01-02T09:52:02Z</time>
      </trkpt>
      <trkpt lat="41.8188840" lon="2.9513990">
        <ele>135.2</ele>
        <time>2023-01-02T09:52:03Z</time>
      </trkpt>
      <trkpt lat="41.8189610" lon="2.9516620">
        <ele>134.2</ele>
        <time>2023-01-02T09:52:06Z</time>
      </trkpt>
      <trkpt lat="41.8189900" lon="2.9517290">
        <ele>134.2</ele>
        <time>2023-01-02T09:52:07Z</time>
      </trkpt>
      <trkpt lat="41.8190810" lon="2.9519190">
        <ele>134.2</ele>
        <time>2023-01-02T09:52:11Z</time>
      </trkpt>
      <trkpt lat="41.8191630" lon="2.9519760">
        <ele>135.2</ele>
        <time>2023-01-02T09:52:15Z</time>
      </trkpt>
      <trkpt lat="41.8192590" lon="2.9520300">
        <ele>136.0</ele>
        <time>2023-01-02T09:52:20Z</time>
      </trkpt>
      <trkpt lat="41.8192790" lon="2.9520450">
        <ele>136.2</ele>
        <time>2023-01-02T09:52:21Z</time>
      </trkpt>
      <trkpt lat="41.8194270" lon="2.9521670">
        <ele>136.8</ele>
        <time>2023-01-02T09:52:27Z</time>
      </trkpt>
      <trkpt lat="41.8195000" lon="2.9523350">
        <ele>137.0</ele>
        <time>2023-01-02T09:52:32Z</time>
      </trkpt>
      <trkpt lat="41.8195260" lon="2.9524790">
        <ele>137.2</ele>
        <time>2023-01-02T09:52:36Z</time>
      </trkpt>
      <trkpt lat="41.8195870" lon="2.9526450">
        <ele>138.0</ele>
        <time>2023-01-02T09:52:41Z</time>
      </trkpt>
      <trkpt lat="41.8196140" lon="2.9526860">
        <ele>138.4</ele>
        <time>2023-01-02T09:52:43Z</time>
      </trkpt>
      <trkpt lat="41.8196660" lon="2.9527880">
        <ele>139.6</ele>
        <time>2023-01-02T09:52:48Z</time>
      </trkpt>
      <trkpt lat="41.8196840" lon="2.9528370">
        <ele>139.8</ele>
        <time>2023-01-02T09:52:50Z</time>
      </trkpt>
      <trkpt lat="41.8196960" lon="2.9529170">
        <ele>140.6</ele>
        <time>2023-01-02T09:52:53Z</time>
      </trkpt>
      <trkpt lat="41.8197030" lon="2.9530150">
        <ele>140.8</ele>
        <time>2023-01-02T09:52:56Z</time>
      </trkpt>
      <trkpt lat="41.8197700" lon="2.9531540">
        <ele>141.0</ele>
        <time>2023-01-02T09:53:00Z</time>
      </trkpt>
      <trkpt lat="41.8199780" lon="2.9533180">
        <ele>140.0</ele>
        <time>2023-01-02T09:53:04Z</time>
      </trkpt>
      <trkpt lat="41.8200270" lon="2.9533640">
        <ele>139.6</ele>
        <time>2023-01-02T09:53:05Z</time>
      </trkpt>
      <trkpt lat="41.8200650" lon="2.9534270">
        <ele>139.2</ele>
        <time>2023-01-02T09:53:06Z</time>
      </trkpt>
      <trkpt lat="41.8200920" lon="2.9535060">
        <ele>138.4</ele>
        <time>2023-01-02T09:53:07Z</time>
      </trkpt>
      <trkpt lat="41.8201080" lon="2.9535950">
        <ele>137.6</ele>
        <time>2023-01-02T09:53:08Z</time>
      </trkpt>
      <trkpt lat="41.8201270" lon="2.9536840">
        <ele>137.0</ele>
        <time>2023-01-02T09:53:09Z</time>
      </trkpt>
      <trkpt lat="41.8201590" lon="2.9537590">
        <ele>136.8</ele>
        <time>2023-01-02T09:53:10Z</time>
      </trkpt>
      <trkpt lat="41.8202060" lon="2.9538120">
        <ele>136.2</ele>
        <time>2023-01-02T09:53:11Z</time>
      </trkpt>
      <trkpt lat="41.8203150" lon="2.9538980">
        <ele>135.8</ele>
        <time>2023-01-02T09:53:13Z</time>
      </trkpt>
      <trkpt lat="41.8203640" lon="2.9539490">
        <ele>135.8</ele>
        <time>2023-01-02T09:53:14Z</time>
      </trkpt>
      <trkpt lat="41.8204200" lon="2.9540340">
        <ele>134.8</ele>
        <time>2023-01-02T09:53:16Z</time>
      </trkpt>
      <trkpt lat="41.8204300" lon="2.9540620">
        <ele>133.6</ele>
        <time>2023-01-02T09:53:17Z</time>
      </trkpt>
      <trkpt lat="41.8204320" lon="2.9540890">
        <ele>131.6</ele>
        <time>2023-01-02T09:53:19Z</time>
      </trkpt>
      <trkpt lat="41.8204320" lon="2.9540930">
        <ele>131.0</ele>
        <time>2023-01-02T09:53:20Z</time>
      </trkpt>
      <trkpt lat="41.8204320" lon="2.9540930">
        <ele>130.4</ele>
        <time>2023-01-02T09:53:22Z</time>
      </trkpt>
      <trkpt lat="41.8204340" lon="2.9540900">
        <ele>130.2</ele>
        <time>2023-01-02T09:53:25Z</time>
      </trkpt>
      <trkpt lat="41.8204330" lon="2.9540890">
        <ele>130.4</ele>
        <time>2023-01-02T09:53:28Z</time>
      </trkpt>
      <trkpt lat="41.8204320" lon="2.9540900">
        <ele>130.4</ele>
        <time>2023-01-02T09:53:30Z</time>
      </trkpt>
      <trkpt lat="41.8204270" lon="2.9540890">
        <ele>130.2</ele>
        <time>2023-01-02T09:53:37Z</time>
      </trkpt>
      <trkpt lat="41.8204230" lon="2.9540630">
        <ele>130.6</ele>
        <time>2023-01-02T09:53:39Z</time>
      </trkpt>
      <trkpt lat="41.8204050" lon="2.9540200">
        <ele>131.0</ele>
        <time>2023-01-02T09:53:42Z</time>
      </trkpt>
      <trkpt lat="41.8203980" lon="2.9539960">
        <ele>131.4</ele>
        <time>2023-01-02T09:53:46Z</time>
      </trkpt>
      <trkpt lat="41.8203880" lon="2.9539840">
        <ele>131.6</ele>
        <time>2023-01-02T09:53:47Z</time>
      </trkpt>
      <trkpt lat="41.8203440" lon="2.9539160">
        <ele>132.0</ele>
        <time>2023-01-02T09:53:51Z</time>
      </trkpt>
      <trkpt lat="41.8203410" lon="2.9538940">
        <ele>132.2</ele>
        <time>2023-01-02T09:53:52Z</time>
      </trkpt>
      <trkpt lat="41.8203420" lon="2.9538710">
        <ele>132.4</ele>
        <time>2023-01-02T09:53:53Z</time>
      </trkpt>
      <trkpt lat="41.8203520" lon="2.9538590">
        <ele>132.4</ele>
        <time>2023-01-02T09:53:54Z</time>
      </trkpt>
      <trkpt lat="41.8203660" lon="2.9538540">
        <ele>133.0</ele>
        <time>2023-01-02T09:53:55Z</time>
      </trkpt>
      <trkpt lat="41.8204020" lon="2.9538480">
        <ele>133.6</ele>
        <time>2023-01-02T09:53:57Z</time>
      </trkpt>
      <trkpt lat="41.8204960" lon="2.9538610">
        <ele>134.4</ele>
        <time>2023-01-02T09:54:01Z</time>
      </trkpt>
      <trkpt lat="41.8205360" lon="2.9538620">
        <ele>134.6</ele>
        <time>2023-01-02T09:54:03Z</time>
      </trkpt>
      <trkpt lat="41.8206290" lon="2.9538610">
        <ele>135.4</ele>
        <time>2023-01-02T09:54:08Z</time>
      </trkpt>
      <trkpt lat="41.8206700" lon="2.9538710">
        <ele>135.6</ele>
        <time>2023-01-02T09:54:10Z</time>
      </trkpt>
      <trkpt lat="41.8207530" lon="2.9539340">
        <ele>136.4</ele>
        <time>2023-01-02T09:54:15Z</time>
      </trkpt>
      <trkpt lat="41.8207730" lon="2.9539480">
        <ele>136.6</ele>
        <time>2023-01-02T09:54:16Z</time>
      </trkpt>
      <trkpt lat="41.8209100" lon="2.9540050">
        <ele>136.0</ele>
        <time>2023-01-02T09:54:20Z</time>
      </trkpt>
      <trkpt lat="41.8209580" lon="2.9540140">
        <ele>135.4</ele>
        <time>2023-01-02T09:54:21Z</time>
      </trkpt>
      <trkpt lat="41.8210630" lon="2.9540180">
        <ele>134.2</ele>
        <time>2023-01-02T09:54:23Z</time>
      </trkpt>
      <trkpt lat="41.8211070" lon="2.9540250">
        <ele>133.8</ele>
        <time>2023-01-02T09:54:24Z</time>
      </trkpt>
      <trkpt lat="41.8211440" lon="2.9540590">
        <ele>133.2</ele>
        <time>2023-01-02T09:54:25Z</time>
      </trkpt>
      <trkpt lat="41.8211760" lon="2.9541150">
        <ele>132.6</ele>
        <time>2023-01-02T09:54:26Z</time>
      </trkpt>
      <trkpt lat="41.8212040" lon="2.9541830">
        <ele>131.6</ele>
        <time>2023-01-02T09:54:27Z</time>
      </trkpt>
      <trkpt lat="41.8212250" lon="2.9542530">
        <ele>130.8</ele>
        <time>2023-01-02T09:54:28Z</time>
      </trkpt>
      <trkpt lat="41.8212350" lon="2.9543290">
        <ele>129.8</ele>
        <time>2023-01-02T09:54:29Z</time>
      </trkpt>
      <trkpt lat="41.8212370" lon="2.9543940">
        <ele>129.0</ele>
        <time>2023-01-02T09:54:30Z</time>
      </trkpt>
      <trkpt lat="41.8212330" lon="2.9544510">
        <ele>128.0</ele>
        <time>2023-01-02T09:54:31Z</time>
      </trkpt>
      <trkpt lat="41.8212450" lon="2.9545580">
        <ele>126.6</ele>
        <time>2023-01-02T09:54:33Z</time>
      </trkpt>
      <trkpt lat="41.8212540" lon="2.9546000">
        <ele>125.6</ele>
        <time>2023-01-02T09:54:34Z</time>
      </trkpt>
      <trkpt lat="41.8212580" lon="2.9546460">
        <ele>125.0</ele>
        <time>2023-01-02T09:54:35Z</time>
      </trkpt>
      <trkpt lat="41.8212210" lon="2.9547410">
        <ele>123.8</ele>
        <time>2023-01-02T09:54:37Z</time>
      </trkpt>
      <trkpt lat="41.8211760" lon="2.9547930">
        <ele>123.2</ele>
        <time>2023-01-02T09:54:38Z</time>
      </trkpt>
      <trkpt lat="41.8210690" lon="2.9549300">
        <ele>122.4</ele>
        <time>2023-01-02T09:54:40Z</time>
      </trkpt>
      <trkpt lat="41.8209330" lon="2.9550860">
        <ele>120.8</ele>
        <time>2023-01-02T09:54:42Z</time>
      </trkpt>
      <trkpt lat="41.8206890" lon="2.9553290">
        <ele>119.8</ele>
        <time>2023-01-02T09:54:45Z</time>
      </trkpt>
      <trkpt lat="41.8206010" lon="2.9553980">
        <ele>119.0</ele>
        <time>2023-01-02T09:54:46Z</time>
      </trkpt>
      <trkpt lat="41.8204140" lon="2.9555050">
        <ele>118.0</ele>
        <time>2023-01-02T09:54:48Z</time>
      </trkpt>
      <trkpt lat="41.8202300" lon="2.9556240">
        <ele>116.8</ele>
        <time>2023-01-02T09:54:50Z</time>
      </trkpt>
      <trkpt lat="41.8200620" lon="2.9557540">
        <ele>115.2</ele>
        <time>2023-01-02T09:54:52Z</time>
      </trkpt>
      <trkpt lat="41.8198890" lon="2.9558640">
        <ele>114.0</ele>
        <time>2023-01-02T09:54:54Z</time>
      </trkpt>
      <trkpt lat="41.8197980" lon="2.9558990">
        <ele>113.8</ele>
        <time>2023-01-02T09:54:55Z</time>
      </trkpt>
      <trkpt lat="41.8195310" lon="2.9559670">
        <ele>112.8</ele>
        <time>2023-01-02T09:54:58Z</time>
      </trkpt>
      <trkpt lat="41.8194520" lon="2.9559960">
        <ele>112.4</ele>
        <time>2023-01-02T09:54:59Z</time>
      </trkpt>
      <trkpt lat="41.8193760" lon="2.9560230">
        <ele>111.8</ele>
        <time>2023-01-02T09:55:00Z</time>
      </trkpt>
      <trkpt lat="41.8193000" lon="2.9560320">
        <ele>110.4</ele>
        <time>2023-01-02T09:55:01Z</time>
      </trkpt>
      <trkpt lat="41.8192220" lon="2.9560210">
        <ele>109.2</ele>
        <time>2023-01-02T09:55:02Z</time>
      </trkpt>
      <trkpt lat="41.8190640" lon="2.9559660">
        <ele>107.6</ele>
        <time>2023-01-02T09:55:04Z</time>
      </trkpt>
      <trkpt lat="41.8189010" lon="2.9558960">
        <ele>106.4</ele>
        <time>2023-01-02T09:55:06Z</time>
      </trkpt>
      <trkpt lat="41.8188210" lon="2.9558560">
        <ele>106.0</ele>
        <time>2023-01-02T09:55:07Z</time>
      </trkpt>
      <trkpt lat="41.8187410" lon="2.9558190">
        <ele>104.4</ele>
        <time>2023-01-02T09:55:08Z</time>
      </trkpt>
      <trkpt lat="41.8186630" lon="2.9557850">
        <ele>102.6</ele>
        <time>2023-01-02T09:55:09Z</time>
      </trkpt>
      <trkpt lat="41.8185840" lon="2.9557530">
        <ele>101.2</ele>
        <time>2023-01-02T09:55:10Z</time>
      </trkpt>
      <trkpt lat="41.8184990" lon="2.9557240">
        <ele>99.6</ele>
        <time>2023-01-02T09:55:11Z</time>
      </trkpt>
      <trkpt lat="41.8184050" lon="2.9556990">
        <ele>97.8</ele>
        <time>2023-01-02T09:55:12Z</time>
      </trkpt>
      <trkpt lat="41.8183080" lon="2.9556730">
        <ele>96.6</ele>
        <time>2023-01-02T09:55:13Z</time>
      </trkpt>
      <trkpt lat="41.8182140" lon="2.9556390">
        <ele>95.0</ele>
        <time>2023-01-02T09:55:14Z</time>
      </trkpt>
      <trkpt lat="41.8181280" lon="2.9555920">
        <ele>93.6</ele>
        <time>2023-01-02T09:55:15Z</time>
      </trkpt>
      <trkpt lat="41.8180530" lon="2.9555400">
        <ele>91.2</ele>
        <time>2023-01-02T09:55:16Z</time>
      </trkpt>
      <trkpt lat="41.8179830" lon="2.9555010">
        <ele>90.0</ele>
        <time>2023-01-02T09:55:17Z</time>
      </trkpt>
      <trkpt lat="41.8179130" lon="2.9554860">
        <ele>88.6</ele>
        <time>2023-01-02T09:55:18Z</time>
      </trkpt>
      <trkpt lat="41.8178430" lon="2.9554900">
        <ele>87.6</ele>
        <time>2023-01-02T09:55:19Z</time>
      </trkpt>
      <trkpt lat="41.8177700" lon="2.9554950">
        <ele>86.8</ele>
        <time>2023-01-02T09:55:20Z</time>
      </trkpt>
      <trkpt lat="41.8175580" lon="2.9554920">
        <ele>85.4</ele>
        <time>2023-01-02T09:55:23Z</time>
      </trkpt>
      <trkpt lat="41.8174280" lon="2.9554850">
        <ele>85.0</ele>
        <time>2023-01-02T09:55:25Z</time>
      </trkpt>
      <trkpt lat="41.8173020" lon="2.9554710">
        <ele>84.2</ele>
        <time>2023-01-02T09:55:27Z</time>
      </trkpt>
      <trkpt lat="41.8170670" lon="2.9554410">
        <ele>83.8</ele>
        <time>2023-01-02T09:55:31Z</time>
      </trkpt>
      <trkpt lat="41.8167820" lon="2.9553880">
        <ele>83.2</ele>
        <time>2023-01-02T09:55:36Z</time>
      </trkpt>
      <trkpt lat="41.8167090" lon="2.9553700">
        <ele>83.0</ele>
        <time>2023-01-02T09:55:37Z</time>
      </trkpt>
      <trkpt lat="41.8165500" lon="2.9553520">
        <ele>81.8</ele>
        <time>2023-01-02T09:55:39Z</time>
      </trkpt>
      <trkpt lat="41.8164760" lon="2.9553680">
        <ele>80.6</ele>
        <time>2023-01-02T09:55:40Z</time>
      </trkpt>
      <trkpt lat="41.8164080" lon="2.9554120">
        <ele>79.6</ele>
        <time>2023-01-02T09:55:41Z</time>
      </trkpt>
      <trkpt lat="41.8162860" lon="2.9555520">
        <ele>78.0</ele>
        <time>2023-01-02T09:55:43Z</time>
      </trkpt>
      <trkpt lat="41.8162410" lon="2.9556320">
        <ele>77.4</ele>
        <time>2023-01-02T09:55:44Z</time>
      </trkpt>
      <trkpt lat="41.8162220" lon="2.9557210">
        <ele>77.2</ele>
        <time>2023-01-02T09:55:45Z</time>
      </trkpt>
      <trkpt lat="41.8162240" lon="2.9558180">
        <ele>76.8</ele>
        <time>2023-01-02T09:55:46Z</time>
      </trkpt>
      <trkpt lat="41.8162470" lon="2.9559230">
        <ele>76.4</ele>
        <time>2023-01-02T09:55:47Z</time>
      </trkpt>
      <trkpt lat="41.8162730" lon="2.9560320">
        <ele>75.4</ele>
        <time>2023-01-02T09:55:48Z</time>
      </trkpt>
      <trkpt lat="41.8162770" lon="2.9561340">
        <ele>74.8</ele>
        <time>2023-01-02T09:55:49Z</time>
      </trkpt>
      <trkpt lat="41.8162500" lon="2.9562220">
        <ele>74.2</ele>
        <time>2023-01-02T09:55:50Z</time>
      </trkpt>
      <trkpt lat="41.8162020" lon="2.9562960">
        <ele>73.4</ele>
        <time>2023-01-02T09:55:51Z</time>
      </trkpt>
      <trkpt lat="41.8161420" lon="2.9563380">
        <ele>72.6</ele>
        <time>2023-01-02T09:55:52Z</time>
      </trkpt>
      <trkpt lat="41.8160110" lon="2.9563970">
        <ele>71.8</ele>
        <time>2023-01-02T09:55:54Z</time>
      </trkpt>
      <trkpt lat="41.8159850" lon="2.9564370">
        <ele>70.4</ele>
        <time>2023-01-02T09:55:55Z</time>
      </trkpt>
      <trkpt lat="41.8159780" lon="2.9564890">
        <ele>69.6</ele>
        <time>2023-01-02T09:55:56Z</time>
      </trkpt>
      <trkpt lat="41.8159800" lon="2.9565440">
        <ele>69.0</ele>
        <time>2023-01-02T09:55:57Z</time>
      </trkpt>
      <trkpt lat="41.8160090" lon="2.9567600">
        <ele>68.4</ele>
        <time>2023-01-02T09:56:01Z</time>
      </trkpt>
      <trkpt lat="41.8159990" lon="2.9569650">
        <ele>69.0</ele>
        <time>2023-01-02T09:56:06Z</time>
      </trkpt>
      <trkpt lat="41.8158530" lon="2.9570740">
        <ele>70.2</ele>
        <time>2023-01-02T09:56:11Z</time>
      </trkpt>
      <trkpt lat="41.8157290" lon="2.9571310">
        <ele>71.2</ele>
        <time>2023-01-02T09:56:16Z</time>
      </trkpt>
      <trkpt lat="41.8157110" lon="2.9571440">
        <ele>71.4</ele>
        <time>2023-01-02T09:56:17Z</time>
      </trkpt>
      <trkpt lat="41.8156230" lon="2.9572000">
        <ele>72.2</ele>
        <time>2023-01-02T09:56:22Z</time>
      </trkpt>
      <trkpt lat="41.8155870" lon="2.9572230">
        <ele>72.6</ele>
        <time>2023-01-02T09:56:24Z</time>
      </trkpt>
      <trkpt lat="41.8155690" lon="2.9572310">
        <ele>73.0</ele>
        <time>2023-01-02T09:56:25Z</time>
      </trkpt>
      <trkpt lat="41.8155230" lon="2.9572300">
        <ele>74.0</ele>
        <time>2023-01-02T09:56:28Z</time>
      </trkpt>
      <trkpt lat="41.8154690" lon="2.9572080">
        <ele>75.0</ele>
        <time>2023-01-02T09:56:32Z</time>
      </trkpt>
      <trkpt lat="41.8154560" lon="2.9571980">
        <ele>75.2</ele>
        <time>2023-01-02T09:56:33Z</time>
      </trkpt>
      <trkpt lat="41.8154290" lon="2.9571600">
        <ele>76.2</ele>
        <time>2023-01-02T09:56:36Z</time>
      </trkpt>
      <trkpt lat="41.8154080" lon="2.9571310">
        <ele>76.6</ele>
        <time>2023-01-02T09:56:38Z</time>
      </trkpt>
      <trkpt lat="41.8153540" lon="2.9570550">
        <ele>77.4</ele>
        <time>2023-01-02T09:56:43Z</time>
      </trkpt>
      <trkpt lat="41.8153410" lon="2.9570330">
        <ele>77.6</ele>
        <time>2023-01-02T09:56:44Z</time>
      </trkpt>
      <trkpt lat="41.8152980" lon="2.9569840">
        <ele>78.8</ele>
        <time>2023-01-02T09:56:47Z</time>
      </trkpt>
      <trkpt lat="41.8152760" lon="2.9569650">
        <ele>79.4</ele>
        <time>2023-01-02T09:56:49Z</time>
      </trkpt>
      <trkpt lat="41.8152490" lon="2.9569360">
        <ele>79.8</ele>
        <time>2023-01-02T09:56:51Z</time>
      </trkpt>
      <trkpt lat="41.8152330" lon="2.9569200">
        <ele>79.8</ele>
        <time>2023-01-02T09:56:52Z</time>
      </trkpt>
      <trkpt lat="41.8151070" lon="2.9568170">
        <ele>81.2</ele>
        <time>2023-01-02T09:56:59Z</time>
      </trkpt>
      <trkpt lat="41.8150140" lon="2.9567620">
        <ele>82.2</ele>
        <time>2023-01-02T09:57:04Z</time>
      </trkpt>
      <trkpt lat="41.8149530" lon="2.9567160">
        <ele>83.6</ele>
        <time>2023-01-02T09:57:08Z</time>
      </trkpt>
      <trkpt lat="41.8148640" lon="2.9567120">
        <ele>84.6</ele>
        <time>2023-01-02T09:57:13Z</time>
      </trkpt>
      <trkpt lat="41.8148400" lon="2.9567270">
        <ele>84.6</ele>
        <time>2023-01-02T09:57:14Z</time>
      </trkpt>
      <trkpt lat="41.8147200" lon="2.9568920">
        <ele>84.4</ele>
        <time>2023-01-02T09:57:20Z</time>
      </trkpt>
      <trkpt lat="41.8146280" lon="2.9571390">
        <ele>85.2</ele>
        <time>2023-01-02T09:57:26Z</time>
      </trkpt>
      <trkpt lat="41.8145310" lon="2.9574300">
        <ele>85.2</ele>
        <time>2023-01-02T09:57:31Z</time>
      </trkpt>
      <trkpt lat="41.8145020" lon="2.9574890">
        <ele>85.2</ele>
        <time>2023-01-02T09:57:32Z</time>
      </trkpt>
      <trkpt lat="41.8143610" lon="2.9577180">
        <ele>84.8</ele>
        <time>2023-01-02T09:57:37Z</time>
      </trkpt>
      <trkpt lat="41.8142570" lon="2.9578590">
        <ele>84.4</ele>
        <time>2023-01-02T09:57:40Z</time>
      </trkpt>
      <trkpt lat="41.8142080" lon="2.9579780">
        <ele>84.2</ele>
        <time>2023-01-02T09:57:42Z</time>
      </trkpt>
      <trkpt lat="41.8141920" lon="2.9580410">
        <ele>84.2</ele>
        <time>2023-01-02T09:57:43Z</time>
      </trkpt>
      <trkpt lat="41.8141650" lon="2.9582110">
        <ele>84.4</ele>
        <time>2023-01-02T09:57:46Z</time>
      </trkpt>
      <trkpt lat="41.8141360" lon="2.9584530">
        <ele>85.4</ele>
        <time>2023-01-02T09:57:52Z</time>
      </trkpt>
      <trkpt lat="41.8141300" lon="2.9584910">
        <ele>85.6</ele>
        <time>2023-01-02T09:57:53Z</time>
      </trkpt>
      <trkpt lat="41.8140840" lon="2.9586150">
        <ele>86.8</ele>
        <time>2023-01-02T09:57:57Z</time>
      </trkpt>
      <trkpt lat="41.8139850" lon="2.9587630">
        <ele>88.0</ele>
        <time>2023-01-02T09:58:02Z</time>
      </trkpt>
      <trkpt lat="41.8138310" lon="2.9588400">
        <ele>88.0</ele>
        <time>2023-01-02T09:58:06Z</time>
      </trkpt>
      <trkpt lat="41.8135810" lon="2.9587710">
        <ele>88.4</ele>
        <time>2023-01-02T09:58:12Z</time>
      </trkpt>
      <trkpt lat="41.8134830" lon="2.9587470">
        <ele>88.6</ele>
        <time>2023-01-02T09:58:14Z</time>
      </trkpt>
      <trkpt lat="41.8133820" lon="2.9587790">
        <ele>88.4</ele>
        <time>2023-01-02T09:58:16Z</time>
      </trkpt>
      <trkpt lat="41.8133180" lon="2.9588870">
        <ele>88.2</ele>
        <time>2023-01-02T09:58:18Z</time>
      </trkpt>
      <trkpt lat="41.8133070" lon="2.9589660">
        <ele>88.0</ele>
        <time>2023-01-02T09:58:19Z</time>
      </trkpt>
      <trkpt lat="41.8133160" lon="2.9590520">
        <ele>87.8</ele>
        <time>2023-01-02T09:58:20Z</time>
      </trkpt>
      <trkpt lat="41.8133660" lon="2.9592360">
        <ele>87.2</ele>
        <time>2023-01-02T09:58:22Z</time>
      </trkpt>
      <trkpt lat="41.8133970" lon="2.9593370">
        <ele>86.8</ele>
        <time>2023-01-02T09:58:23Z</time>
      </trkpt>
      <trkpt lat="41.8134190" lon="2.9594490">
        <ele>86.2</ele>
        <time>2023-01-02T09:58:24Z</time>
      </trkpt>
      <trkpt lat="41.8134290" lon="2.9597030">
        <ele>85.4</ele>
        <time>2023-01-02T09:58:26Z</time>
      </trkpt>
      <trkpt lat="41.8133910" lon="2.9599660">
        <ele>84.0</ele>
        <time>2023-01-02T09:58:28Z</time>
      </trkpt>
      <trkpt lat="41.8133510" lon="2.9600850">
        <ele>83.4</ele>
        <time>2023-01-02T09:58:29Z</time>
      </trkpt>
      <trkpt lat="41.8133070" lon="2.9601990">
        <ele>82.6</ele>
        <time>2023-01-02T09:58:30Z</time>
      </trkpt>
      <trkpt lat="41.8132630" lon="2.9603210">
        <ele>81.4</ele>
        <time>2023-01-02T09:58:31Z</time>
      </trkpt>
      <trkpt lat="41.8132320" lon="2.9604570">
        <ele>80.2</ele>
        <time>2023-01-02T09:58:32Z</time>
      </trkpt>
      <trkpt lat="41.8132200" lon="2.9606090">
        <ele>79.2</ele>
        <time>2023-01-02T09:58:33Z</time>
      </trkpt>
      <trkpt lat="41.8132230" lon="2.9607580">
        <ele>78.8</ele>
        <time>2023-01-02T09:58:34Z</time>
      </trkpt>
      <trkpt lat="41.8132810" lon="2.9610430">
        <ele>76.8</ele>
        <time>2023-01-02T09:58:36Z</time>
      </trkpt>
      <trkpt lat="41.8133370" lon="2.9611640">
        <ele>75.6</ele>
        <time>2023-01-02T09:58:37Z</time>
      </trkpt>
      <trkpt lat="41.8134060" lon="2.9612640">
        <ele>74.6</ele>
        <time>2023-01-02T09:58:38Z</time>
      </trkpt>
      <trkpt lat="41.8134910" lon="2.9613510">
        <ele>73.8</ele>
        <time>2023-01-02T09:58:39Z</time>
      </trkpt>
      <trkpt lat="41.8136530" lon="2.9615100">
        <ele>72.8</ele>
        <time>2023-01-02T09:58:41Z</time>
      </trkpt>
      <trkpt lat="41.8138910" lon="2.9617230">
        <ele>71.8</ele>
        <time>2023-01-02T09:58:44Z</time>
      </trkpt>
      <trkpt lat="41.8140300" lon="2.9618430">
        <ele>70.2</ele>
        <time>2023-01-02T09:58:46Z</time>
      </trkpt>
      <trkpt lat="41.8140800" lon="2.9618930">
        <ele>69.2</ele>
        <time>2023-01-02T09:58:47Z</time>
      </trkpt>
      <trkpt lat="41.8141100" lon="2.9619490">
        <ele>68.0</ele>
        <time>2023-01-02T09:58:48Z</time>
      </trkpt>
      <trkpt lat="41.8141080" lon="2.9620050">
        <ele>67.0</ele>
        <time>2023-01-02T09:58:49Z</time>
      </trkpt>
      <trkpt lat="41.8140780" lon="2.9620560">
        <ele>65.8</ele>
        <time>2023-01-02T09:58:50Z</time>
      </trkpt>
      <trkpt lat="41.8140360" lon="2.9620920">
        <ele>65.2</ele>
        <time>2023-01-02T09:58:51Z</time>
      </trkpt>
      <trkpt lat="41.8139670" lon="2.9622040">
        <ele>64.4</ele>
        <time>2023-01-02T09:58:53Z</time>
      </trkpt>
      <trkpt lat="41.8140120" lon="2.9623530">
        <ele>63.8</ele>
        <time>2023-01-02T09:58:55Z</time>
      </trkpt>
      <trkpt lat="41.8140740" lon="2.9624000">
        <ele>63.4</ele>
        <time>2023-01-02T09:58:56Z</time>
      </trkpt>
      <trkpt lat="41.8141420" lon="2.9624300">
        <ele>63.0</ele>
        <time>2023-01-02T09:58:57Z</time>
      </trkpt>
      <trkpt lat="41.8142070" lon="2.9624600">
        <ele>62.6</ele>
        <time>2023-01-02T09:58:58Z</time>
      </trkpt>
      <trkpt lat="41.8142480" lon="2.9625530">
        <ele>61.4</ele>
        <time>2023-01-02T09:59:00Z</time>
      </trkpt>
      <trkpt lat="41.8141830" lon="2.9626210">
        <ele>60.0</ele>
        <time>2023-01-02T09:59:02Z</time>
      </trkpt>
      <trkpt lat="41.8141330" lon="2.9626250">
        <ele>59.4</ele>
        <time>2023-01-02T09:59:03Z</time>
      </trkpt>
      <trkpt lat="41.8140080" lon="2.9626330">
        <ele>58.8</ele>
        <time>2023-01-02T09:59:05Z</time>
      </trkpt>
      <trkpt lat="41.8139440" lon="2.9626470">
        <ele>58.8</ele>
        <time>2023-01-02T09:59:06Z</time>
      </trkpt>
      <trkpt lat="41.8137360" lon="2.9627580">
        <ele>57.4</ele>
        <time>2023-01-02T09:59:09Z</time>
      </trkpt>
      <trkpt lat="41.8136000" lon="2.9628710">
        <ele>56.4</ele>
        <time>2023-01-02T09:59:11Z</time>
      </trkpt>
      <trkpt lat="41.8134430" lon="2.9629940">
        <ele>55.4</ele>
        <time>2023-01-02T09:59:13Z</time>
      </trkpt>
      <trkpt lat="41.8133570" lon="2.9630480">
        <ele>54.6</ele>
        <time>2023-01-02T09:59:14Z</time>
      </trkpt>
      <trkpt lat="41.8132700" lon="2.9631100">
        <ele>54.2</ele>
        <time>2023-01-02T09:59:15Z</time>
      </trkpt>
      <trkpt lat="41.8131910" lon="2.9631810">
        <ele>53.8</ele>
        <time>2023-01-02T09:59:16Z</time>
      </trkpt>
      <trkpt lat="41.8130690" lon="2.9633590">
        <ele>53.0</ele>
        <time>2023-01-02T09:59:18Z</time>
      </trkpt>
      <trkpt lat="41.8130340" lon="2.9635430">
        <ele>52.2</ele>
        <time>2023-01-02T09:59:20Z</time>
      </trkpt>
      <trkpt lat="41.8130460" lon="2.9636250">
        <ele>51.8</ele>
        <time>2023-01-02T09:59:21Z</time>
      </trkpt>
      <trkpt lat="41.8130800" lon="2.9637710">
        <ele>51.6</ele>
        <time>2023-01-02T09:59:23Z</time>
      </trkpt>
      <trkpt lat="41.8130940" lon="2.9638390">
        <ele>51.4</ele>
        <time>2023-01-02T09:59:24Z</time>
      </trkpt>
      <trkpt lat="41.8131290" lon="2.9640170">
        <ele>51.6</ele>
        <time>2023-01-02T09:59:27Z</time>
      </trkpt>
      <trkpt lat="41.8131390" lon="2.9642060">
        <ele>52.4</ele>
        <time>2023-01-02T09:59:31Z</time>
      </trkpt>
      <trkpt lat="41.8131250" lon="2.9643460">
        <ele>52.8</ele>
        <time>2023-01-02T09:59:34Z</time>
      </trkpt>
      <trkpt lat="41.8131160" lon="2.9644440">
        <ele>53.0</ele>
        <time>2023-01-02T09:59:36Z</time>
      </trkpt>
      <trkpt lat="41.8131050" lon="2.9644940">
        <ele>53.0</ele>
        <time>2023-01-02T09:59:37Z</time>
      </trkpt>
      <trkpt lat="41.8130770" lon="2.9645760">
        <ele>53.4</ele>
        <time>2023-01-02T09:59:39Z</time>
      </trkpt>
      <trkpt lat="41.8130180" lon="2.9646800">
        <ele>54.0</ele>
        <time>2023-01-02T09:59:42Z</time>
      </trkpt>
      <trkpt lat="41.8129780" lon="2.9647680">
        <ele>55.0</ele>
        <time>2023-01-02T09:59:45Z</time>
      </trkpt>
      <trkpt lat="41.8129450" lon="2.9648680">
        <ele>56.0</ele>
        <time>2023-01-02T09:59:48Z</time>
      </trkpt>
      <trkpt lat="41.8129380" lon="2.9649020">
        <ele>56.2</ele>
        <time>2023-01-02T09:59:49Z</time>
      </trkpt>
      <trkpt lat="41.8129430" lon="2.9651080">
        <ele>57.0</ele>
        <time>2023-01-02T09:59:54Z</time>
      </trkpt>
      <trkpt lat="41.8129650" lon="2.9651940">
        <ele>57.2</ele>
        <time>2023-01-02T09:59:56Z</time>
      </trkpt>
      <trkpt lat="41.8130090" lon="2.9653880">
        <ele>57.8</ele>
        <time>2023-01-02T10:00:01Z</time>
      </trkpt>
      <trkpt lat="41.8129430" lon="2.9655980">
        <ele>58.0</ele>
        <time>2023-01-02T10:00:07Z</time>
      </trkpt>
      <trkpt lat="41.8128540" lon="2.9658020">
        <ele>57.8</ele>
        <time>2023-01-02T10:00:12Z</time>
      </trkpt>
      <trkpt lat="41.8128120" lon="2.9659180">
        <ele>57.8</ele>
        <time>2023-01-02T10:00:14Z</time>
      </trkpt>
      <trkpt lat="41.8127660" lon="2.9661180">
        <ele>57.2</ele>
        <time>2023-01-02T10:00:17Z</time>
      </trkpt>
      <trkpt lat="41.8127530" lon="2.9662510">
        <ele>57.2</ele>
        <time>2023-01-02T10:00:19Z</time>
      </trkpt>
      <trkpt lat="41.8127390" lon="2.9664310">
        <ele>57.0</ele>
        <time>2023-01-02T10:00:22Z</time>
      </trkpt>
      <trkpt lat="41.8127540" lon="2.9669130">
        <ele>58.0</ele>
        <time>2023-01-02T10:00:31Z</time>
      </trkpt>
      <trkpt lat="41.8127940" lon="2.9669950">
        <ele>58.2</ele>
        <time>2023-01-02T10:00:33Z</time>
      </trkpt>
      <trkpt lat="41.8128480" lon="2.9670530">
        <ele>58.4</ele>
        <time>2023-01-02T10:00:35Z</time>
      </trkpt>
      <trkpt lat="41.8129570" lon="2.9671660">
        <ele>58.4</ele>
        <time>2023-01-02T10:00:38Z</time>
      </trkpt>
      <trkpt lat="41.8129940" lon="2.9672250">
        <ele>58.0</ele>
        <time>2023-01-02T10:00:39Z</time>
      </trkpt>
      <trkpt lat="41.8130240" lon="2.9673020">
        <ele>57.6</ele>
        <time>2023-01-02T10:00:40Z</time>
      </trkpt>
      <trkpt lat="41.8130410" lon="2.9673880">
        <ele>57.0</ele>
        <time>2023-01-02T10:00:41Z</time>
      </trkpt>
      <trkpt lat="41.8130410" lon="2.9674820">
        <ele>56.2</ele>
        <time>2023-01-02T10:00:42Z</time>
      </trkpt>
      <trkpt lat="41.8130370" lon="2.9675750">
        <ele>55.6</ele>
        <time>2023-01-02T10:00:43Z</time>
      </trkpt>
      <trkpt lat="41.8130240" lon="2.9678290">
        <ele>54.8</ele>
        <time>2023-01-02T10:00:46Z</time>
      </trkpt>
      <trkpt lat="41.8130140" lon="2.9679010">
        <ele>54.4</ele>
        <time>2023-01-02T10:00:47Z</time>
      </trkpt>
      <trkpt lat="41.8130060" lon="2.9679680">
        <ele>54.0</ele>
        <time>2023-01-02T10:00:48Z</time>
      </trkpt>
      <trkpt lat="41.8129640" lon="2.9681420">
        <ele>53.4</ele>
        <time>2023-01-02T10:00:51Z</time>
      </trkpt>
      <trkpt lat="41.8129110" lon="2.9682920">
        <ele>53.0</ele>
        <time>2023-01-02T10:00:54Z</time>
      </trkpt>
      <trkpt lat="41.8128860" lon="2.9683380">
        <ele>52.8</ele>
        <time>2023-01-02T10:00:55Z</time>
      </trkpt>
      <trkpt lat="41.8127640" lon="2.9685290">
        <ele>51.8</ele>
        <time>2023-01-02T10:00:59Z</time>
      </trkpt>
      <trkpt lat="41.8127100" lon="2.9686380">
        <ele>51.2</ele>
        <time>2023-01-02T10:01:01Z</time>
      </trkpt>
      <trkpt lat="41.8126960" lon="2.9686990">
        <ele>50.6</ele>
        <time>2023-01-02T10:01:02Z</time>
      </trkpt>
      <trkpt lat="41.8126830" lon="2.9687620">
        <ele>50.2</ele>
        <time>2023-01-02T10:01:03Z</time>
      </trkpt>
      <trkpt lat="41.8126730" lon="2.9688330">
        <ele>50.0</ele>
        <time>2023-01-02T10:01:04Z</time>
      </trkpt>
      <trkpt lat="41.8126620" lon="2.9690330">
        <ele>49.6</ele>
        <time>2023-01-02T10:01:07Z</time>
      </trkpt>
      <trkpt lat="41.8126550" lon="2.9690960">
        <ele>49.4</ele>
        <time>2023-01-02T10:01:08Z</time>
      </trkpt>
      <trkpt lat="41.8126400" lon="2.9692070">
        <ele>49.2</ele>
        <time>2023-01-02T10:01:10Z</time>
      </trkpt>
      <trkpt lat="41.8125990" lon="2.9693640">
        <ele>49.0</ele>
        <time>2023-01-02T10:01:13Z</time>
      </trkpt>
      <trkpt lat="41.8125550" lon="2.9694580">
        <ele>49.2</ele>
        <time>2023-01-02T10:01:15Z</time>
      </trkpt>
      <trkpt lat="41.8124330" lon="2.9697100">
        <ele>49.4</ele>
        <time>2023-01-02T10:01:19Z</time>
      </trkpt>
      <trkpt lat="41.8124100" lon="2.9697750">
        <ele>49.4</ele>
        <time>2023-01-02T10:01:20Z</time>
      </trkpt>
      <trkpt lat="41.8123680" lon="2.9698940">
        <ele>49.4</ele>
        <time>2023-01-02T10:01:22Z</time>
      </trkpt>
      <trkpt lat="41.8123430" lon="2.9699510">
        <ele>49.4</ele>
        <time>2023-01-02T10:01:23Z</time>
      </trkpt>
      <trkpt lat="41.8122590" lon="2.9700600">
        <ele>49.0</ele>
        <time>2023-01-02T10:01:25Z</time>
      </trkpt>
      <trkpt lat="41.8122090" lon="2.9701180">
        <ele>48.8</ele>
        <time>2023-01-02T10:01:26Z</time>
      </trkpt>
      <trkpt lat="41.8121530" lon="2.9701740">
        <ele>48.6</ele>
        <time>2023-01-02T10:01:27Z</time>
      </trkpt>
      <trkpt lat="41.8120930" lon="2.9702240">
        <ele>47.6</ele>
        <time>2023-01-02T10:01:28Z</time>
      </trkpt>
      <trkpt lat="41.8120290" lon="2.9702640">
        <ele>47.2</ele>
        <time>2023-01-02T10:01:29Z</time>
      </trkpt>
      <trkpt lat="41.8119580" lon="2.9702840">
        <ele>46.8</ele>
        <time>2023-01-02T10:01:30Z</time>
      </trkpt>
      <trkpt lat="41.8118100" lon="2.9702890">
        <ele>46.4</ele>
        <time>2023-01-02T10:01:32Z</time>
      </trkpt>
      <trkpt lat="41.8115980" lon="2.9702810">
        <ele>46.0</ele>
        <time>2023-01-02T10:01:35Z</time>
      </trkpt>
      <trkpt lat="41.8114740" lon="2.9702920">
        <ele>46.0</ele>
        <time>2023-01-02T10:01:37Z</time>
      </trkpt>
      <trkpt lat="41.8114150" lon="2.9703200">
        <ele>45.8</ele>
        <time>2023-01-02T10:01:38Z</time>
      </trkpt>
      <trkpt lat="41.8113620" lon="2.9703700">
        <ele>45.6</ele>
        <time>2023-01-02T10:01:39Z</time>
      </trkpt>
      <trkpt lat="41.8112710" lon="2.9705260">
        <ele>45.0</ele>
        <time>2023-01-02T10:01:41Z</time>
      </trkpt>
      <trkpt lat="41.8111150" lon="2.9708050">
        <ele>43.4</ele>
        <time>2023-01-02T10:01:44Z</time>
      </trkpt>
      <trkpt lat="41.8110490" lon="2.9708680">
        <ele>42.4</ele>
        <time>2023-01-02T10:01:45Z</time>
      </trkpt>
      <trkpt lat="41.8109810" lon="2.9708940">
        <ele>41.6</ele>
        <time>2023-01-02T10:01:46Z</time>
      </trkpt>
      <trkpt lat="41.8109140" lon="2.9708970">
        <ele>41.2</ele>
        <time>2023-01-02T10:01:47Z</time>
      </trkpt>
      <trkpt lat="41.8108520" lon="2.9708920">
        <ele>40.8</ele>
        <time>2023-01-02T10:01:48Z</time>
      </trkpt>
      <trkpt lat="41.8107970" lon="2.9708920">
        <ele>40.4</ele>
        <time>2023-01-02T10:01:49Z</time>
      </trkpt>
      <trkpt lat="41.8107510" lon="2.9709050">
        <ele>40.2</ele>
        <time>2023-01-02T10:01:50Z</time>
      </trkpt>
      <trkpt lat="41.8107280" lon="2.9709630">
        <ele>39.2</ele>
        <time>2023-01-02T10:01:52Z</time>
      </trkpt>
      <trkpt lat="41.8108020" lon="2.9711080">
        <ele>38.2</ele>
        <time>2023-01-02T10:01:56Z</time>
      </trkpt>
      <trkpt lat="41.8108100" lon="2.9713810">
        <ele>37.4</ele>
        <time>2023-01-02T10:02:01Z</time>
      </trkpt>
      <trkpt lat="41.8107980" lon="2.9715360">
        <ele>37.0</ele>
        <time>2023-01-02T10:02:03Z</time>
      </trkpt>
      <trkpt lat="41.8107800" lon="2.9717410">
        <ele>36.8</ele>
        <time>2023-01-02T10:02:06Z</time>
      </trkpt>
      <trkpt lat="41.8107670" lon="2.9718080">
        <ele>36.8</ele>
        <time>2023-01-02T10:02:07Z</time>
      </trkpt>
      <trkpt lat="41.8107410" lon="2.9719470">
        <ele>36.6</ele>
        <time>2023-01-02T10:02:09Z</time>
      </trkpt>
      <trkpt lat="41.8107220" lon="2.9721510">
        <ele>36.2</ele>
        <time>2023-01-02T10:02:12Z</time>
      </trkpt>
      <trkpt lat="41.8107180" lon="2.9722180">
        <ele>36.0</ele>
        <time>2023-01-02T10:02:13Z</time>
      </trkpt>
      <trkpt lat="41.8107120" lon="2.9723590">
        <ele>35.8</ele>
        <time>2023-01-02T10:02:15Z</time>
      </trkpt>
      <trkpt lat="41.8107010" lon="2.9724250">
        <ele>35.8</ele>
        <time>2023-01-02T10:02:16Z</time>
      </trkpt>
      <trkpt lat="41.8106880" lon="2.9725560">
        <ele>35.6</ele>
        <time>2023-01-02T10:02:18Z</time>
      </trkpt>
      <trkpt lat="41.8107500" lon="2.9726790">
        <ele>35.6</ele>
        <time>2023-01-02T10:02:20Z</time>
      </trkpt>
      <trkpt lat="41.8108770" lon="2.9727840">
        <ele>35.6</ele>
        <time>2023-01-02T10:02:22Z</time>
      </trkpt>
      <trkpt lat="41.8109440" lon="2.9728290">
        <ele>35.4</ele>
        <time>2023-01-02T10:02:23Z</time>
      </trkpt>
      <trkpt lat="41.8110690" lon="2.9729210">
        <ele>34.8</ele>
        <time>2023-01-02T10:02:25Z</time>
      </trkpt>
      <trkpt lat="41.8112250" lon="2.9730340">
        <ele>34.0</ele>
        <time>2023-01-02T10:02:28Z</time>
      </trkpt>
      <trkpt lat="41.8113750" lon="2.9731330">
        <ele>33.6</ele>
        <time>2023-01-02T10:02:31Z</time>
      </trkpt>
      <trkpt lat="41.8114270" lon="2.9731580">
        <ele>33.6</ele>
        <time>2023-01-02T10:02:32Z</time>
      </trkpt>
      <trkpt lat="41.8115300" lon="2.9732260">
        <ele>33.6</ele>
        <time>2023-01-02T10:02:34Z</time>
      </trkpt>
      <trkpt lat="41.8116350" lon="2.9732940">
        <ele>33.6</ele>
        <time>2023-01-02T10:02:36Z</time>
      </trkpt>
      <trkpt lat="41.8117320" lon="2.9733490">
        <ele>33.4</ele>
        <time>2023-01-02T10:02:38Z</time>
      </trkpt>
      <trkpt lat="41.8117830" lon="2.9733740">
        <ele>33.4</ele>
        <time>2023-01-02T10:02:39Z</time>
      </trkpt>
      <trkpt lat="41.8119270" lon="2.9734610">
        <ele>33.0</ele>
        <time>2023-01-02T10:02:42Z</time>
      </trkpt>
      <trkpt lat="41.8120270" lon="2.9735220">
        <ele>32.8</ele>
        <time>2023-01-02T10:02:44Z</time>
      </trkpt>
      <trkpt lat="41.8121320" lon="2.9735810">
        <ele>32.6</ele>
        <time>2023-01-02T10:02:46Z</time>
      </trkpt>
      <trkpt lat="41.8123870" lon="2.9737180">
        <ele>32.2</ele>
        <time>2023-01-02T10:02:51Z</time>
      </trkpt>
      <trkpt lat="41.8125110" lon="2.9737930">
        <ele>32.0</ele>
        <time>2023-01-02T10:02:54Z</time>
      </trkpt>
      <trkpt lat="41.8125550" lon="2.9738230">
        <ele>32.0</ele>
        <time>2023-01-02T10:02:55Z</time>
      </trkpt>
      <trkpt lat="41.8125940" lon="2.9738560">
        <ele>32.0</ele>
        <time>2023-01-02T10:02:56Z</time>
      </trkpt>
      <trkpt lat="41.8126800" lon="2.9739990">
        <ele>32.2</ele>
        <time>2023-01-02T10:02:59Z</time>
      </trkpt>
      <trkpt lat="41.8128090" lon="2.9742830">
        <ele>32.4</ele>
        <time>2023-01-02T10:03:05Z</time>
      </trkpt>
      <trkpt lat="41.8128770" lon="2.9744990">
        <ele>33.0</ele>
        <time>2023-01-02T10:03:10Z</time>
      </trkpt>
      <trkpt lat="41.8128930" lon="2.9745400">
        <ele>33.0</ele>
        <time>2023-01-02T10:03:11Z</time>
      </trkpt>
      <trkpt lat="41.8129860" lon="2.9748090">
        <ele>32.8</ele>
        <time>2023-01-02T10:03:17Z</time>
      </trkpt>
      <trkpt lat="41.8131510" lon="2.9750410">
        <ele>32.0</ele>
        <time>2023-01-02T10:03:22Z</time>
      </trkpt>
      <trkpt lat="41.8131970" lon="2.9750770">
        <ele>32.0</ele>
        <time>2023-01-02T10:03:23Z</time>
      </trkpt>
      <trkpt lat="41.8132930" lon="2.9751570">
        <ele>31.2</ele>
        <time>2023-01-02T10:03:25Z</time>
      </trkpt>
      <trkpt lat="41.8133320" lon="2.9752010">
        <ele>31.0</ele>
        <time>2023-01-02T10:03:26Z</time>
      </trkpt>
      <trkpt lat="41.8133930" lon="2.9753090">
        <ele>30.4</ele>
        <time>2023-01-02T10:03:28Z</time>
      </trkpt>
      <trkpt lat="41.8134140" lon="2.9753680">
        <ele>30.2</ele>
        <time>2023-01-02T10:03:29Z</time>
      </trkpt>
      <trkpt lat="41.8134460" lon="2.9754240">
        <ele>30.0</ele>
        <time>2023-01-02T10:03:30Z</time>
      </trkpt>
      <trkpt lat="41.8134720" lon="2.9754830">
        <ele>29.8</ele>
        <time>2023-01-02T10:03:31Z</time>
      </trkpt>
      <trkpt lat="41.8135390" lon="2.9756670">
        <ele>29.8</ele>
        <time>2023-01-02T10:03:34Z</time>
      </trkpt>
      <trkpt lat="41.8135590" lon="2.9757920">
        <ele>29.8</ele>
        <time>2023-01-02T10:03:36Z</time>
      </trkpt>
      <trkpt lat="41.8136170" lon="2.9760460">
        <ele>29.6</ele>
        <time>2023-01-02T10:03:40Z</time>
      </trkpt>
      <trkpt lat="41.8136960" lon="2.9761820">
        <ele>29.6</ele>
        <time>2023-01-02T10:03:42Z</time>
      </trkpt>
      <trkpt lat="41.8138540" lon="2.9764140">
        <ele>29.0</ele>
        <time>2023-01-02T10:03:46Z</time>
      </trkpt>
      <trkpt lat="41.8138890" lon="2.9764720">
        <ele>29.0</ele>
        <time>2023-01-02T10:03:47Z</time>
      </trkpt>
      <trkpt lat="41.8140300" lon="2.9767750">
        <ele>28.6</ele>
        <time>2023-01-02T10:03:52Z</time>
      </trkpt>
      <trkpt lat="41.8140670" lon="2.9768380">
        <ele>28.6</ele>
        <time>2023-01-02T10:03:53Z</time>
      </trkpt>
      <trkpt lat="41.8141890" lon="2.9770100">
        <ele>28.6</ele>
        <time>2023-01-02T10:03:56Z</time>
      </trkpt>
      <trkpt lat="41.8143570" lon="2.9772150">
        <ele>28.2</ele>
        <time>2023-01-02T10:04:00Z</time>
      </trkpt>
      <trkpt lat="41.8143980" lon="2.9772690">
        <ele>28.0</ele>
        <time>2023-01-02T10:04:01Z</time>
      </trkpt>
      <trkpt lat="41.8145160" lon="2.9774170">
        <ele>28.0</ele>
        <time>2023-01-02T10:04:04Z</time>
      </trkpt>
      <trkpt lat="41.8147650" lon="2.9777480">
        <ele>27.6</ele>
        <time>2023-01-02T10:04:11Z</time>
      </trkpt>
      <trkpt lat="41.8148120" lon="2.9778470">
        <ele>27.4</ele>
        <time>2023-01-02T10:04:13Z</time>
      </trkpt>
      <trkpt lat="41.8148540" lon="2.9779530">
        <ele>27.4</ele>
        <time>2023-01-02T10:04:15Z</time>
      </trkpt>
      <trkpt lat="41.8148720" lon="2.9780160">
        <ele>27.2</ele>
        <time>2023-01-02T10:04:16Z</time>
      </trkpt>
      <trkpt lat="41.8149790" lon="2.9784360">
        <ele>27.0</ele>
        <time>2023-01-02T10:04:22Z</time>
      </trkpt>
      <trkpt lat="41.8149910" lon="2.9786540">
        <ele>27.0</ele>
        <time>2023-01-02T10:04:25Z</time>
      </trkpt>
      <trkpt lat="41.8149910" lon="2.9787250">
        <ele>26.8</ele>
        <time>2023-01-02T10:04:26Z</time>
      </trkpt>
      <trkpt lat="41.8149870" lon="2.9787950">
        <ele>26.8</ele>
        <time>2023-01-02T10:04:27Z</time>
      </trkpt>
      <trkpt lat="41.8149830" lon="2.9789270">
        <ele>26.4</ele>
        <time>2023-01-02T10:04:29Z</time>
      </trkpt>
      <trkpt lat="41.8149570" lon="2.9791230">
        <ele>26.8</ele>
        <time>2023-01-02T10:04:32Z</time>
      </trkpt>
      <trkpt lat="41.8149430" lon="2.9791910">
        <ele>26.8</ele>
        <time>2023-01-02T10:04:33Z</time>
      </trkpt>
      <trkpt lat="41.8149410" lon="2.9793150">
        <ele>26.6</ele>
        <time>2023-01-02T10:04:35Z</time>
      </trkpt>
      <trkpt lat="41.8149490" lon="2.9793760">
        <ele>26.6</ele>
        <time>2023-01-02T10:04:36Z</time>
      </trkpt>
      <trkpt lat="41.8149740" lon="2.9797160">
        <ele>26.4</ele>
        <time>2023-01-02T10:04:40Z</time>
      </trkpt>
      <trkpt lat="41.8149640" lon="2.9801420">
        <ele>25.8</ele>
        <time>2023-01-02T10:04:45Z</time>
      </trkpt>
      <trkpt lat="41.8149590" lon="2.9802210">
        <ele>25.6</ele>
        <time>2023-01-02T10:04:46Z</time>
      </trkpt>
      <trkpt lat="41.8149460" lon="2.9803020">
        <ele>25.6</ele>
        <time>2023-01-02T10:04:47Z</time>
      </trkpt>
      <trkpt lat="41.8148950" lon="2.9805250">
        <ele>25.4</ele>
        <time>2023-01-02T10:04:50Z</time>
      </trkpt>
      <trkpt lat="41.8148690" lon="2.9805800">
        <ele>25.4</ele>
        <time>2023-01-02T10:04:51Z</time>
      </trkpt>
      <trkpt lat="41.8148110" lon="2.9806750">
        <ele>25.6</ele>
        <time>2023-01-02T10:04:53Z</time>
      </trkpt>
      <trkpt lat="41.8147600" lon="2.9807640">
        <ele>25.8</ele>
        <time>2023-01-02T10:04:55Z</time>
      </trkpt>
      <trkpt lat="41.8147090" lon="2.9809860">
        <ele>26.2</ele>
        <time>2023-01-02T10:04:59Z</time>
      </trkpt>
      <trkpt lat="41.8146420" lon="2.9812240">
        <ele>26.4</ele>
        <time>2023-01-02T10:05:03Z</time>
      </trkpt>
      <trkpt lat="41.8146140" lon="2.9812870">
        <ele>26.4</ele>
        <time>2023-01-02T10:05:04Z</time>
      </trkpt>
      <trkpt lat="41.8144610" lon="2.9817370">
        <ele>25.8</ele>
        <time>2023-01-02T10:05:10Z</time>
      </trkpt>
      <trkpt lat="41.8142720" lon="2.9822450">
        <ele>24.8</ele>
        <time>2023-01-02T10:05:17Z</time>
      </trkpt>
      <trkpt lat="41.8142420" lon="2.9823160">
        <ele>24.6</ele>
        <time>2023-01-02T10:05:18Z</time>
      </trkpt>
      <trkpt lat="41.8140530" lon="2.9827640">
        <ele>24.2</ele>
        <time>2023-01-02T10:05:25Z</time>
      </trkpt>
      <trkpt lat="41.8138810" lon="2.9831750">
        <ele>24.2</ele>
        <time>2023-01-02T10:05:32Z</time>
      </trkpt>
      <trkpt lat="41.8138640" lon="2.9833100">
        <ele>24.2</ele>
        <time>2023-01-02T10:05:34Z</time>
      </trkpt>
      <trkpt lat="41.8138570" lon="2.9835040">
        <ele>24.4</ele>
        <time>2023-01-02T10:05:37Z</time>
      </trkpt>
      <trkpt lat="41.8138050" lon="2.9839480">
        <ele>23.6</ele>
        <time>2023-01-02T10:05:44Z</time>
      </trkpt>
      <trkpt lat="41.8137740" lon="2.9840780">
        <ele>23.4</ele>
        <time>2023-01-02T10:05:46Z</time>
      </trkpt>
      <trkpt lat="41.8137160" lon="2.9842550">
        <ele>23.2</ele>
        <time>2023-01-02T10:05:49Z</time>
      </trkpt>
      <trkpt lat="41.8136960" lon="2.9843170">
        <ele>23.0</ele>
        <time>2023-01-02T10:05:50Z</time>
      </trkpt>
      <trkpt lat="41.8136560" lon="2.9844550">
        <ele>23.0</ele>
        <time>2023-01-02T10:05:52Z</time>
      </trkpt>
      <trkpt lat="41.8136190" lon="2.9846040">
        <ele>23.4</ele>
        <time>2023-01-02T10:05:54Z</time>
      </trkpt>
      <trkpt lat="41.8135050" lon="2.9851480">
        <ele>23.4</ele>
        <time>2023-01-02T10:06:01Z</time>
      </trkpt>
      <trkpt lat="41.8134380" lon="2.9854530">
        <ele>23.0</ele>
        <time>2023-01-02T10:06:05Z</time>
      </trkpt>
      <trkpt lat="41.8134220" lon="2.9855130">
        <ele>22.6</ele>
        <time>2023-01-02T10:06:06Z</time>
      </trkpt>
      <trkpt lat="41.8133960" lon="2.9855820">
        <ele>22.4</ele>
        <time>2023-01-02T10:06:07Z</time>
      </trkpt>
      <trkpt lat="41.8133770" lon="2.9856510">
        <ele>22.4</ele>
        <time>2023-01-02T10:06:08Z</time>
      </trkpt>
      <trkpt lat="41.8133480" lon="2.9857900">
        <ele>22.2</ele>
        <time>2023-01-02T10:06:10Z</time>
      </trkpt>
      <trkpt lat="41.8133410" lon="2.9859300">
        <ele>22.0</ele>
        <time>2023-01-02T10:06:12Z</time>
      </trkpt>
      <trkpt lat="41.8133630" lon="2.9860620">
        <ele>21.8</ele>
        <time>2023-01-02T10:06:14Z</time>
      </trkpt>
      <trkpt lat="41.8134080" lon="2.9862680">
        <ele>21.8</ele>
        <time>2023-01-02T10:06:17Z</time>
      </trkpt>
      <trkpt lat="41.8134740" lon="2.9867430">
        <ele>22.0</ele>
        <time>2023-01-02T10:06:24Z</time>
      </trkpt>
      <trkpt lat="41.8134880" lon="2.9869480">
        <ele>22.2</ele>
        <time>2023-01-02T10:06:27Z</time>
      </trkpt>
      <trkpt lat="41.8134850" lon="2.9870780">
        <ele>22.2</ele>
        <time>2023-01-02T10:06:29Z</time>
      </trkpt>
      <trkpt lat="41.8134790" lon="2.9871350">
        <ele>22.2</ele>
        <time>2023-01-02T10:06:30Z</time>
      </trkpt>
      <trkpt lat="41.8134690" lon="2.9871980">
        <ele>22.2</ele>
        <time>2023-01-02T10:06:31Z</time>
      </trkpt>
      <trkpt lat="41.8133940" lon="2.9874610">
        <ele>22.0</ele>
        <time>2023-01-02T10:06:35Z</time>
      </trkpt>
      <trkpt lat="41.8132880" lon="2.9877740">
        <ele>21.6</ele>
        <time>2023-01-02T10:06:40Z</time>
      </trkpt>
      <trkpt lat="41.8132650" lon="2.9878370">
        <ele>21.6</ele>
        <time>2023-01-02T10:06:41Z</time>
      </trkpt>
      <trkpt lat="41.8131860" lon="2.9880310">
        <ele>21.4</ele>
        <time>2023-01-02T10:06:44Z</time>
      </trkpt>
      <trkpt lat="41.8130530" lon="2.9884090">
        <ele>21.6</ele>
        <time>2023-01-02T10:06:50Z</time>
      </trkpt>
      <trkpt lat="41.8129460" lon="2.9888300">
        <ele>21.6</ele>
        <time>2023-01-02T10:06:56Z</time>
      </trkpt>
      <trkpt lat="41.8128540" lon="2.9892660">
        <ele>21.4</ele>
        <time>2023-01-02T10:07:02Z</time>
      </trkpt>
      <trkpt lat="41.8127200" lon="2.9898500">
        <ele>21.4</ele>
        <time>2023-01-02T10:07:10Z</time>
      </trkpt>
      <trkpt lat="41.8127060" lon="2.9899150">
        <ele>21.4</ele>
        <time>2023-01-02T10:07:11Z</time>
      </trkpt>
      <trkpt lat="41.8125880" lon="2.9903170">
        <ele>21.4</ele>
        <time>2023-01-02T10:07:18Z</time>
      </trkpt>
      <trkpt lat="41.8125220" lon="2.9905340">
        <ele>21.2</ele>
        <time>2023-01-02T10:07:22Z</time>
      </trkpt>
      <trkpt lat="41.8124810" lon="2.9906380">
        <ele>21.2</ele>
        <time>2023-01-02T10:07:24Z</time>
      </trkpt>
      <trkpt lat="41.8123310" lon="2.9910300">
        <ele>21.2</ele>
        <time>2023-01-02T10:07:31Z</time>
      </trkpt>
      <trkpt lat="41.8122940" lon="2.9911440">
        <ele>20.8</ele>
        <time>2023-01-02T10:07:33Z</time>
      </trkpt>
      <trkpt lat="41.8122860" lon="2.9911980">
        <ele>20.6</ele>
        <time>2023-01-02T10:07:34Z</time>
      </trkpt>
      <trkpt lat="41.8122650" lon="2.9913130">
        <ele>20.6</ele>
        <time>2023-01-02T10:07:36Z</time>
      </trkpt>
      <trkpt lat="41.8122270" lon="2.9914240">
        <ele>20.6</ele>
        <time>2023-01-02T10:07:38Z</time>
      </trkpt>
      <trkpt lat="41.8121300" lon="2.9915660">
        <ele>20.6</ele>
        <time>2023-01-02T10:07:41Z</time>
      </trkpt>
      <trkpt lat="41.8119400" lon="2.9918660">
        <ele>20.6</ele>
        <time>2023-01-02T10:07:47Z</time>
      </trkpt>
      <trkpt lat="41.8118790" lon="2.9919790">
        <ele>20.4</ele>
        <time>2023-01-02T10:07:49Z</time>
      </trkpt>
      <trkpt lat="41.8117600" lon="2.9921800">
        <ele>20.0</ele>
        <time>2023-01-02T10:07:53Z</time>
      </trkpt>
      <trkpt lat="41.8115990" lon="2.9924820">
        <ele>20.2</ele>
        <time>2023-01-02T10:07:59Z</time>
      </trkpt>
      <trkpt lat="41.8115700" lon="2.9925350">
        <ele>20.2</ele>
        <time>2023-01-02T10:08:00Z</time>
      </trkpt>
      <trkpt lat="41.8113900" lon="2.9927680">
        <ele>19.8</ele>
        <time>2023-01-02T10:08:05Z</time>
      </trkpt>
      <trkpt lat="41.8113110" lon="2.9928630">
        <ele>19.4</ele>
        <time>2023-01-02T10:08:07Z</time>
      </trkpt>
      <trkpt lat="41.8110560" lon="2.9932310">
        <ele>18.6</ele>
        <time>2023-01-02T10:08:14Z</time>
      </trkpt>
      <trkpt lat="41.8108860" lon="2.9934380">
        <ele>18.4</ele>
        <time>2023-01-02T10:08:18Z</time>
      </trkpt>
      <trkpt lat="41.8107510" lon="2.9936530">
        <ele>18.2</ele>
        <time>2023-01-02T10:08:22Z</time>
      </trkpt>
      <trkpt lat="41.8106940" lon="2.9937710">
        <ele>18.0</ele>
        <time>2023-01-02T10:08:24Z</time>
      </trkpt>
      <trkpt lat="41.8106570" lon="2.9938860">
        <ele>17.6</ele>
        <time>2023-01-02T10:08:27Z</time>
      </trkpt>
      <trkpt lat="41.8106600" lon="2.9938930">
        <ele>17.4</ele>
        <time>2023-01-02T10:08:28Z</time>
      </trkpt>
      <trkpt lat="41.8106590" lon="2.9939170">
        <ele>17.0</ele>
        <time>2023-01-02T10:08:30Z</time>
      </trkpt>
      <trkpt lat="41.8106470" lon="2.9939350">
        <ele>17.0</ele>
        <time>2023-01-02T10:08:31Z</time>
      </trkpt>
      <trkpt lat="41.8105460" lon="2.9940210">
        <ele>17.4</ele>
        <time>2023-01-02T10:08:35Z</time>
      </trkpt>
      <trkpt lat="41.8104450" lon="2.9942200">
        <ele>18.2</ele>
        <time>2023-01-02T10:08:40Z</time>
      </trkpt>
      <trkpt lat="41.8103760" lon="2.9943460">
        <ele>18.4</ele>
        <time>2023-01-02T10:08:43Z</time>
      </trkpt>
      <trkpt lat="41.8102930" lon="2.9944590">
        <ele>18.6</ele>
        <time>2023-01-02T10:08:46Z</time>
      </trkpt>
      <trkpt lat="41.8102560" lon="2.9944910">
        <ele>18.6</ele>
        <time>2023-01-02T10:08:47Z</time>
      </trkpt>
      <trkpt lat="41.8101410" lon="2.9944890">
        <ele>18.6</ele>
        <time>2023-01-02T10:08:50Z</time>
      </trkpt>
      <trkpt lat="41.8100190" lon="2.9944180">
        <ele>18.8</ele>
        <time>2023-01-02T10:08:53Z</time>
      </trkpt>
      <trkpt lat="41.8098470" lon="2.9943600">
        <ele>19.0</ele>
        <time>2023-01-02T10:08:57Z</time>
      </trkpt>
      <trkpt lat="41.8097510" lon="2.9943630">
        <ele>19.0</ele>
        <time>2023-01-02T10:08:59Z</time>
      </trkpt>
      <trkpt lat="41.8096470" lon="2.9944260">
        <ele>19.0</ele>
        <time>2023-01-02T10:09:01Z</time>
      </trkpt>
      <trkpt lat="41.8095680" lon="2.9945200">
        <ele>18.6</ele>
        <time>2023-01-02T10:09:03Z</time>
      </trkpt>
      <trkpt lat="41.8095360" lon="2.9946640">
        <ele>18.4</ele>
        <time>2023-01-02T10:09:05Z</time>
      </trkpt>
      <trkpt lat="41.8095050" lon="2.9947890">
        <ele>18.4</ele>
        <time>2023-01-02T10:09:07Z</time>
      </trkpt>
      <trkpt lat="41.8094560" lon="2.9948620">
        <ele>18.6</ele>
        <time>2023-01-02T10:09:09Z</time>
      </trkpt>
      <trkpt lat="41.8093590" lon="2.9948720">
        <ele>19.4</ele>
        <time>2023-01-02T10:09:12Z</time>
      </trkpt>
      <trkpt lat="41.8093200" lon="2.9948660">
        <ele>19.4</ele>
        <time>2023-01-02T10:09:13Z</time>
      </trkpt>
      <trkpt lat="41.8091350" lon="2.9948060">
        <ele>19.6</ele>
        <time>2023-01-02T10:09:18Z</time>
      </trkpt>
      <trkpt lat="41.8090520" lon="2.9948270">
        <ele>20.0</ele>
        <time>2023-01-02T10:09:20Z</time>
      </trkpt>
      <trkpt lat="41.8089680" lon="2.9948710">
        <ele>20.0</ele>
        <time>2023-01-02T10:09:22Z</time>
      </trkpt>
      <trkpt lat="41.8088870" lon="2.9949210">
        <ele>20.6</ele>
        <time>2023-01-02T10:09:24Z</time>
      </trkpt>
      <trkpt lat="41.8086180" lon="2.9950900">
        <ele>21.4</ele>
        <time>2023-01-02T10:09:30Z</time>
      </trkpt>
      <trkpt lat="41.8085220" lon="2.9951360">
        <ele>21.4</ele>
        <time>2023-01-02T10:09:32Z</time>
      </trkpt>
      <trkpt lat="41.8084320" lon="2.9951410">
        <ele>21.6</ele>
        <time>2023-01-02T10:09:34Z</time>
      </trkpt>
      <trkpt lat="41.8083890" lon="2.9951280">
        <ele>21.4</ele>
        <time>2023-01-02T10:09:35Z</time>
      </trkpt>
      <trkpt lat="41.8083400" lon="2.9951170">
        <ele>21.2</ele>
        <time>2023-01-02T10:09:36Z</time>
      </trkpt>
      <trkpt lat="41.8082120" lon="2.9951570">
        <ele>21.0</ele>
        <time>2023-01-02T10:09:39Z</time>
      </trkpt>
      <trkpt lat="41.8079920" lon="2.9952540">
        <ele>21.0</ele>
        <time>2023-01-02T10:09:45Z</time>
      </trkpt>
      <trkpt lat="41.8079540" lon="2.9952830">
        <ele>21.2</ele>
        <time>2023-01-02T10:09:46Z</time>
      </trkpt>
      <trkpt lat="41.8078650" lon="2.9953930">
        <ele>21.4</ele>
        <time>2023-01-02T10:09:49Z</time>
      </trkpt>
      <trkpt lat="41.8077910" lon="2.9955330">
        <ele>21.4</ele>
        <time>2023-01-02T10:09:52Z</time>
      </trkpt>
      <trkpt lat="41.8076150" lon="2.9958030">
        <ele>21.4</ele>
        <time>2023-01-02T10:09:58Z</time>
      </trkpt>
      <trkpt lat="41.8074410" lon="2.9959980">
        <ele>21.4</ele>
        <time>2023-01-02T10:10:03Z</time>
      </trkpt>
      <trkpt lat="41.8073400" lon="2.9961320">
        <ele>21.4</ele>
        <time>2023-01-02T10:10:06Z</time>
      </trkpt>
      <trkpt lat="41.8071870" lon="2.9963630">
        <ele>20.8</ele>
        <time>2023-01-02T10:10:11Z</time>
      </trkpt>
      <trkpt lat="41.8071560" lon="2.9964100">
        <ele>20.8</ele>
        <time>2023-01-02T10:10:12Z</time>
      </trkpt>
      <trkpt lat="41.8071290" lon="2.9964650">
        <ele>20.8</ele>
        <time>2023-01-02T10:10:13Z</time>
      </trkpt>
      <trkpt lat="41.8069890" lon="2.9967220">
        <ele>20.6</ele>
        <time>2023-01-02T10:10:18Z</time>
      </trkpt>
      <trkpt lat="41.8067980" lon="2.9970880">
        <ele>21.0</ele>
        <time>2023-01-02T10:10:25Z</time>
      </trkpt>
      <trkpt lat="41.8067900" lon="2.9971550">
        <ele>21.0</ele>
        <time>2023-01-02T10:10:26Z</time>
      </trkpt>
      <trkpt lat="41.8067980" lon="2.9972180">
        <ele>21.0</ele>
        <time>2023-01-02T10:10:27Z</time>
      </trkpt>
      <trkpt lat="41.8068500" lon="2.9973380">
        <ele>21.0</ele>
        <time>2023-01-02T10:10:29Z</time>
      </trkpt>
      <trkpt lat="41.8070460" lon="2.9978000">
        <ele>20.8</ele>
        <time>2023-01-02T10:10:36Z</time>
      </trkpt>
      <trkpt lat="41.8071550" lon="2.9981010">
        <ele>20.6</ele>
        <time>2023-01-02T10:10:40Z</time>
      </trkpt>
      <trkpt lat="41.8071610" lon="2.9981820">
        <ele>20.4</ele>
        <time>2023-01-02T10:10:41Z</time>
      </trkpt>
      <trkpt lat="41.8071540" lon="2.9982640">
        <ele>20.2</ele>
        <time>2023-01-02T10:10:42Z</time>
      </trkpt>
      <trkpt lat="41.8071020" lon="2.9984160">
        <ele>20.0</ele>
        <time>2023-01-02T10:10:44Z</time>
      </trkpt>
      <trkpt lat="41.8068660" lon="2.9988250">
        <ele>19.8</ele>
        <time>2023-01-02T10:10:50Z</time>
      </trkpt>
      <trkpt lat="41.8067450" lon="2.9990320">
        <ele>19.6</ele>
        <time>2023-01-02T10:10:53Z</time>
      </trkpt>
      <trkpt lat="41.8067160" lon="2.9991030">
        <ele>19.6</ele>
        <time>2023-01-02T10:10:54Z</time>
      </trkpt>
      <trkpt lat="41.8066790" lon="2.9992580">
        <ele>19.4</ele>
        <time>2023-01-02T10:10:56Z</time>
      </trkpt>
      <trkpt lat="41.8066670" lon="2.9993370">
        <ele>19.4</ele>
        <time>2023-01-02T10:10:57Z</time>
      </trkpt>
      <trkpt lat="41.8066470" lon="2.9994950">
        <ele>19.2</ele>
        <time>2023-01-02T10:10:59Z</time>
      </trkpt>
      <trkpt lat="41.8066290" lon="2.9996340">
        <ele>19.0</ele>
        <time>2023-01-02T10:11:01Z</time>
      </trkpt>
      <trkpt lat="41.8066170" lon="2.9996860">
        <ele>18.8</ele>
        <time>2023-01-02T10:11:02Z</time>
      </trkpt>
      <trkpt lat="41.8065540" lon="2.9998180">
        <ele>18.8</ele>
        <time>2023-01-02T10:11:05Z</time>
      </trkpt>
      <trkpt lat="41.8064120" lon="3.0000690">
        <ele>18.8</ele>
        <time>2023-01-02T10:11:11Z</time>
      </trkpt>
      <trkpt lat="41.8063180" lon="3.0003020">
        <ele>18.8</ele>
        <time>2023-01-02T10:11:15Z</time>
      </trkpt>
      <trkpt lat="41.8062830" lon="3.0004300">
        <ele>18.8</ele>
        <time>2023-01-02T10:11:17Z</time>
      </trkpt>
      <trkpt lat="41.8062740" lon="3.0006160">
        <ele>18.8</ele>
        <time>2023-01-02T10:11:20Z</time>
      </trkpt>
      <trkpt lat="41.8062860" lon="3.0006790">
        <ele>18.8</ele>
        <time>2023-01-02T10:11:21Z</time>
      </trkpt>
      <trkpt lat="41.8063010" lon="3.0007390">
        <ele>18.8</ele>
        <time>2023-01-02T10:11:22Z</time>
      </trkpt>
      <trkpt lat="41.8063580" lon="3.0009580">
        <ele>19.0</ele>
        <time>2023-01-02T10:11:26Z</time>
      </trkpt>
      <trkpt lat="41.8063950" lon="3.0012880">
        <ele>19.0</ele>
        <time>2023-01-02T10:11:32Z</time>
      </trkpt>
      <trkpt lat="41.8063360" lon="3.0015040">
        <ele>19.0</ele>
        <time>2023-01-02T10:11:36Z</time>
      </trkpt>
      <trkpt lat="41.8062790" lon="3.0016190">
        <ele>18.8</ele>
        <time>2023-01-02T10:11:38Z</time>
      </trkpt>
      <trkpt lat="41.8062020" lon="3.0017150">
        <ele>18.8</ele>
        <time>2023-01-02T10:11:40Z</time>
      </trkpt>
      <trkpt lat="41.8061180" lon="3.0018000">
        <ele>18.6</ele>
        <time>2023-01-02T10:11:42Z</time>
      </trkpt>
      <trkpt lat="41.8060760" lon="3.0018470">
        <ele>18.4</ele>
        <time>2023-01-02T10:11:43Z</time>
      </trkpt>
      <trkpt lat="41.8057620" lon="3.0021070">
        <ele>18.6</ele>
        <time>2023-01-02T10:11:50Z</time>
      </trkpt>
      <trkpt lat="41.8056810" lon="3.0021770">
        <ele>18.6</ele>
        <time>2023-01-02T10:11:52Z</time>
      </trkpt>
      <trkpt lat="41.8055220" lon="3.0023380">
        <ele>18.4</ele>
        <time>2023-01-02T10:11:56Z</time>
      </trkpt>
      <trkpt lat="41.8052470" lon="3.0027250">
        <ele>18.6</ele>
        <time>2023-01-02T10:12:04Z</time>
      </trkpt>
      <trkpt lat="41.8051900" lon="3.0028390">
        <ele>18.6</ele>
        <time>2023-01-02T10:12:06Z</time>
      </trkpt>
      <trkpt lat="41.8051370" lon="3.0030100">
        <ele>18.4</ele>
        <time>2023-01-02T10:12:09Z</time>
      </trkpt>
      <trkpt lat="41.8051010" lon="3.0033780">
        <ele>18.2</ele>
        <time>2023-01-02T10:12:15Z</time>
      </trkpt>
      <trkpt lat="41.8050890" lon="3.0034440">
        <ele>18.2</ele>
        <time>2023-01-02T10:12:16Z</time>
      </trkpt>
      <trkpt lat="41.8050490" lon="3.0035660">
        <ele>18.0</ele>
        <time>2023-01-02T10:12:18Z</time>
      </trkpt>
      <trkpt lat="41.8050120" lon="3.0036200">
        <ele>18.0</ele>
        <time>2023-01-02T10:12:19Z</time>
      </trkpt>
      <trkpt lat="41.8048880" lon="3.0037940">
        <ele>17.4</ele>
        <time>2023-01-02T10:12:23Z</time>
      </trkpt>
      <trkpt lat="41.8048580" lon="3.0038460">
        <ele>17.4</ele>
        <time>2023-01-02T10:12:24Z</time>
      </trkpt>
      <trkpt lat="41.8046970" lon="3.0042520">
        <ele>17.4</ele>
        <time>2023-01-02T10:12:31Z</time>
      </trkpt>
      <trkpt lat="41.8046030" lon="3.0046470">
        <ele>17.4</ele>
        <time>2023-01-02T10:12:37Z</time>
      </trkpt>
      <trkpt lat="41.8045630" lon="3.0048410">
        <ele>17.2</ele>
        <time>2023-01-02T10:12:40Z</time>
      </trkpt>
      <trkpt lat="41.8045530" lon="3.0049710">
        <ele>17.2</ele>
        <time>2023-01-02T10:12:42Z</time>
      </trkpt>
      <trkpt lat="41.8045730" lon="3.0053310">
        <ele>17.2</ele>
        <time>2023-01-02T10:12:47Z</time>
      </trkpt>
      <trkpt lat="41.8046340" lon="3.0056870">
        <ele>16.4</ele>
        <time>2023-01-02T10:12:52Z</time>
      </trkpt>
      <trkpt lat="41.8046360" lon="3.0058290">
        <ele>16.2</ele>
        <time>2023-01-02T10:12:54Z</time>
      </trkpt>
      <trkpt lat="41.8046400" lon="3.0060320">
        <ele>15.8</ele>
        <time>2023-01-02T10:12:57Z</time>
      </trkpt>
      <trkpt lat="41.8046650" lon="3.0062510">
        <ele>15.4</ele>
        <time>2023-01-02T10:13:00Z</time>
      </trkpt>
      <trkpt lat="41.8046940" lon="3.0063140">
        <ele>15.0</ele>
        <time>2023-01-02T10:13:01Z</time>
      </trkpt>
      <trkpt lat="41.8047320" lon="3.0063780">
        <ele>14.8</ele>
        <time>2023-01-02T10:13:02Z</time>
      </trkpt>
      <trkpt lat="41.8047770" lon="3.0065170">
        <ele>14.8</ele>
        <time>2023-01-02T10:13:04Z</time>
      </trkpt>
      <trkpt lat="41.8047830" lon="3.0065950">
        <ele>15.0</ele>
        <time>2023-01-02T10:13:05Z</time>
      </trkpt>
      <trkpt lat="41.8047810" lon="3.0066700">
        <ele>15.0</ele>
        <time>2023-01-02T10:13:06Z</time>
      </trkpt>
      <trkpt lat="41.8047230" lon="3.0069530">
        <ele>15.0</ele>
        <time>2023-01-02T10:13:10Z</time>
      </trkpt>
      <trkpt lat="41.8046560" lon="3.0071650">
        <ele>14.8</ele>
        <time>2023-01-02T10:13:13Z</time>
      </trkpt>
      <trkpt lat="41.8045520" lon="3.0074220">
        <ele>14.6</ele>
        <time>2023-01-02T10:13:17Z</time>
      </trkpt>
      <trkpt lat="41.8044760" lon="3.0075810">
        <ele>14.8</ele>
        <time>2023-01-02T10:13:20Z</time>
      </trkpt>
      <trkpt lat="41.8043990" lon="3.0077280">
        <ele>14.8</ele>
        <time>2023-01-02T10:13:23Z</time>
      </trkpt>
      <trkpt lat="41.8042670" lon="3.0080150">
        <ele>15.0</ele>
        <time>2023-01-02T10:13:29Z</time>
      </trkpt>
      <trkpt lat="41.8042370" lon="3.0080560">
        <ele>14.8</ele>
        <time>2023-01-02T10:13:30Z</time>
      </trkpt>
      <trkpt lat="41.8041740" lon="3.0081930">
        <ele>14.6</ele>
        <time>2023-01-02T10:13:33Z</time>
      </trkpt>
      <trkpt lat="41.8042030" lon="3.0082790">
        <ele>14.6</ele>
        <time>2023-01-02T10:13:35Z</time>
      </trkpt>
      <trkpt lat="41.8042340" lon="3.0083020">
        <ele>14.6</ele>
        <time>2023-01-02T10:13:36Z</time>
      </trkpt>
      <trkpt lat="41.8044010" lon="3.0083740">
        <ele>14.2</ele>
        <time>2023-01-02T10:13:41Z</time>
      </trkpt>
      <trkpt lat="41.8045330" lon="3.0084440">
        <ele>13.8</ele>
        <time>2023-01-02T10:13:45Z</time>
      </trkpt>
      <trkpt lat="41.8045730" lon="3.0084800">
        <ele>13.8</ele>
        <time>2023-01-02T10:13:46Z</time>
      </trkpt>
      <trkpt lat="41.8046120" lon="3.0085230">
        <ele>13.8</ele>
        <time>2023-01-02T10:13:47Z</time>
      </trkpt>
      <trkpt lat="41.8046860" lon="3.0086130">
        <ele>13.8</ele>
        <time>2023-01-02T10:13:49Z</time>
      </trkpt>
      <trkpt lat="41.8047600" lon="3.0087130">
        <ele>13.8</ele>
        <time>2023-01-02T10:13:51Z</time>
      </trkpt>
      <trkpt lat="41.8048700" lon="3.0088640">
        <ele>13.4</ele>
        <time>2023-01-02T10:13:54Z</time>
      </trkpt>
      <trkpt lat="41.8048990" lon="3.0089150">
        <ele>13.2</ele>
        <time>2023-01-02T10:13:55Z</time>
      </trkpt>
      <trkpt lat="41.8049180" lon="3.0089720">
        <ele>13.2</ele>
        <time>2023-01-02T10:13:56Z</time>
      </trkpt>
      <trkpt lat="41.8049210" lon="3.0090310">
        <ele>12.8</ele>
        <time>2023-01-02T10:13:57Z</time>
      </trkpt>
      <trkpt lat="41.8048530" lon="3.0091660">
        <ele>12.6</ele>
        <time>2023-01-02T10:14:00Z</time>
      </trkpt>
      <trkpt lat="41.8046410" lon="3.0094240">
        <ele>12.6</ele>
        <time>2023-01-02T10:14:07Z</time>
      </trkpt>
      <trkpt lat="41.8045400" lon="3.0095360">
        <ele>12.4</ele>
        <time>2023-01-02T10:14:11Z</time>
      </trkpt>
      <trkpt lat="41.8045230" lon="3.0095580">
        <ele>12.4</ele>
        <time>2023-01-02T10:14:12Z</time>
      </trkpt>
      <trkpt lat="41.8045150" lon="3.0095880">
        <ele>12.4</ele>
        <time>2023-01-02T10:14:13Z</time>
      </trkpt>
      <trkpt lat="41.8045140" lon="3.0097030">
        <ele>12.6</ele>
        <time>2023-01-02T10:14:16Z</time>
      </trkpt>
      <trkpt lat="41.8045040" lon="3.0098580">
        <ele>12.8</ele>
        <time>2023-01-02T10:14:19Z</time>
      </trkpt>
      <trkpt lat="41.8044800" lon="3.0099400">
        <ele>12.8</ele>
        <time>2023-01-02T10:14:21Z</time>
      </trkpt>
      <trkpt lat="41.8043620" lon="3.0100990">
        <ele>13.0</ele>
        <time>2023-01-02T10:14:26Z</time>
      </trkpt>
      <trkpt lat="41.8042330" lon="3.0102730">
        <ele>13.4</ele>
        <time>2023-01-02T10:14:31Z</time>
      </trkpt>
      <trkpt lat="41.8041050" lon="3.0104200">
        <ele>13.6</ele>
        <time>2023-01-02T10:14:36Z</time>
      </trkpt>
      <trkpt lat="41.8040490" lon="3.0105030">
        <ele>13.8</ele>
        <time>2023-01-02T10:14:39Z</time>
      </trkpt>
      <trkpt lat="41.8040520" lon="3.0105610">
        <ele>13.8</ele>
        <time>2023-01-02T10:14:41Z</time>
      </trkpt>
      <trkpt lat="41.8040930" lon="3.0106310">
        <ele>13.8</ele>
        <time>2023-01-02T10:14:44Z</time>
      </trkpt>
      <trkpt lat="41.8040990" lon="3.0106790">
        <ele>13.8</ele>
        <time>2023-01-02T10:14:45Z</time>
      </trkpt>
      <trkpt lat="41.8040880" lon="3.0107600">
        <ele>14.0</ele>
        <time>2023-01-02T10:14:47Z</time>
      </trkpt>
      <trkpt lat="41.8040880" lon="3.0108300">
        <ele>14.0</ele>
        <time>2023-01-02T10:14:49Z</time>
      </trkpt>
      <trkpt lat="41.8040190" lon="3.0110090">
        <ele>14.2</ele>
        <time>2023-01-02T10:14:54Z</time>
      </trkpt>
      <trkpt lat="41.8039170" lon="3.0112710">
        <ele>14.6</ele>
        <time>2023-01-02T10:15:01Z</time>
      </trkpt>
      <trkpt lat="41.8037840" lon="3.0115570">
        <ele>14.8</ele>
        <time>2023-01-02T10:15:09Z</time>
      </trkpt>
      <trkpt lat="41.8036930" lon="3.0117100">
        <ele>15.0</ele>
        <time>2023-01-02T10:15:14Z</time>
      </trkpt>
      <trkpt lat="41.8036750" lon="3.0117380">
        <ele>15.2</ele>
        <time>2023-01-02T10:15:15Z</time>
      </trkpt>
      <trkpt lat="41.8035490" lon="3.0118440">
        <ele>16.0</ele>
        <time>2023-01-02T10:15:20Z</time>
      </trkpt>
      <trkpt lat="41.8034370" lon="3.0119370">
        <ele>16.4</ele>
        <time>2023-01-02T10:15:25Z</time>
      </trkpt>
      <trkpt lat="41.8033950" lon="3.0119720">
        <ele>16.6</ele>
        <time>2023-01-02T10:15:27Z</time>
      </trkpt>
      <trkpt lat="41.8033320" lon="3.0119770">
        <ele>17.0</ele>
        <time>2023-01-02T10:15:30Z</time>
      </trkpt>
      <trkpt lat="41.8032950" lon="3.0119890">
        <ele>17.2</ele>
        <time>2023-01-02T10:15:32Z</time>
      </trkpt>
      <trkpt lat="41.8032590" lon="3.0119900">
        <ele>17.6</ele>
        <time>2023-01-02T10:15:34Z</time>
      </trkpt>
      <trkpt lat="41.8032070" lon="3.0119950">
        <ele>18.2</ele>
        <time>2023-01-02T10:15:37Z</time>
      </trkpt>
      <trkpt lat="41.8031720" lon="3.0120040">
        <ele>18.6</ele>
        <time>2023-01-02T10:15:39Z</time>
      </trkpt>
      <trkpt lat="41.8031010" lon="3.0120350">
        <ele>19.6</ele>
        <time>2023-01-02T10:15:43Z</time>
      </trkpt>
      <trkpt lat="41.8030720" lon="3.0120650">
        <ele>19.8</ele>
        <time>2023-01-02T10:15:45Z</time>
      </trkpt>
      <trkpt lat="41.8030550" lon="3.0120740">
        <ele>20.0</ele>
        <time>2023-01-02T10:15:46Z</time>
      </trkpt>
      <trkpt lat="41.8030080" lon="3.0121020">
        <ele>20.4</ele>
        <time>2023-01-02T10:15:48Z</time>
      </trkpt>
      <trkpt lat="41.8029460" lon="3.0121480">
        <ele>20.8</ele>
        <time>2023-01-02T10:15:51Z</time>
      </trkpt>
      <trkpt lat="41.8029050" lon="3.0121480">
        <ele>20.8</ele>
        <time>2023-01-02T10:15:53Z</time>
      </trkpt>
      <trkpt lat="41.8028150" lon="3.0121930">
        <ele>21.8</ele>
        <time>2023-01-02T10:15:58Z</time>
      </trkpt>
      <trkpt lat="41.8027910" lon="3.0122020">
        <ele>21.8</ele>
        <time>2023-01-02T10:15:59Z</time>
      </trkpt>
      <trkpt lat="41.8027120" lon="3.0122560">
        <ele>22.6</ele>
        <time>2023-01-02T10:16:03Z</time>
      </trkpt>
      <trkpt lat="41.8026800" lon="3.0123200">
        <ele>22.8</ele>
        <time>2023-01-02T10:16:06Z</time>
      </trkpt>
      <trkpt lat="41.8026720" lon="3.0123420">
        <ele>23.0</ele>
        <time>2023-01-02T10:16:07Z</time>
      </trkpt>
      <trkpt lat="41.8026640" lon="3.0124510">
        <ele>23.0</ele>
        <time>2023-01-02T10:16:11Z</time>
      </trkpt>
      <trkpt lat="41.8026680" lon="3.0124800">
        <ele>23.0</ele>
        <time>2023-01-02T10:16:12Z</time>
      </trkpt>
      <trkpt lat="41.8027120" lon="3.0126360">
        <ele>23.4</ele>
        <time>2023-01-02T10:16:18Z</time>
      </trkpt>
      <trkpt lat="41.8027650" lon="3.0128510">
        <ele>23.8</ele>
        <time>2023-01-02T10:16:24Z</time>
      </trkpt>
      <trkpt lat="41.8027930" lon="3.0129090">
        <ele>24.0</ele>
        <time>2023-01-02T10:16:26Z</time>
      </trkpt>
      <trkpt lat="41.8028230" lon="3.0129690">
        <ele>25.2</ele>
        <time>2023-01-02T10:16:29Z</time>
      </trkpt>
      <trkpt lat="41.8028330" lon="3.0129900">
        <ele>25.4</ele>
        <time>2023-01-02T10:16:30Z</time>
      </trkpt>
      <trkpt lat="41.8028520" lon="3.0130280">
        <ele>26.2</ele>
        <time>2023-01-02T10:16:32Z</time>
      </trkpt>
      <trkpt lat="41.8028970" lon="3.0131010">
        <ele>27.6</ele>
        <time>2023-01-02T10:16:36Z</time>
      </trkpt>
      <trkpt lat="41.8029040" lon="3.0131240">
        <ele>28.0</ele>
        <time>2023-01-02T10:16:37Z</time>
      </trkpt>
      <trkpt lat="41.8029220" lon="3.0131760">
        <ele>28.6</ele>
        <time>2023-01-02T10:16:39Z</time>
      </trkpt>
      <trkpt lat="41.8029640" lon="3.0132730">
        <ele>29.4</ele>
        <time>2023-01-02T10:16:43Z</time>
      </trkpt>
      <trkpt lat="41.8029710" lon="3.0132950">
        <ele>29.8</ele>
        <time>2023-01-02T10:16:44Z</time>
      </trkpt>
      <trkpt lat="41.8029990" lon="3.0134270">
        <ele>30.8</ele>
        <time>2023-01-02T10:16:50Z</time>
      </trkpt>
      <trkpt lat="41.8030000" lon="3.0134500">
        <ele>31.2</ele>
        <time>2023-01-02T10:16:51Z</time>
      </trkpt>
      <trkpt lat="41.8030160" lon="3.0135390">
        <ele>31.8</ele>
        <time>2023-01-02T10:16:56Z</time>
      </trkpt>
      <trkpt lat="41.8030130" lon="3.0135560">
        <ele>32.0</ele>
        <time>2023-01-02T10:16:57Z</time>
      </trkpt>
      <trkpt lat="41.8030120" lon="3.0135770">
        <ele>32.2</ele>
        <time>2023-01-02T10:16:58Z</time>
      </trkpt>
      <trkpt lat="41.8029920" lon="3.0136860">
        <ele>33.4</ele>
        <time>2023-01-02T10:17:03Z</time>
      </trkpt>
      <trkpt lat="41.8029630" lon="3.0137630">
        <ele>34.4</ele>
        <time>2023-01-02T10:17:07Z</time>
      </trkpt>
      <trkpt lat="41.8029450" lon="3.0138440">
        <ele>35.2</ele>
        <time>2023-01-02T10:17:11Z</time>
      </trkpt>
      <trkpt lat="41.8029360" lon="3.0138930">
        <ele>35.8</ele>
        <time>2023-01-02T10:17:14Z</time>
      </trkpt>
      <trkpt lat="41.8029240" lon="3.0139690">
        <ele>36.4</ele>
        <time>2023-01-02T10:17:18Z</time>
      </trkpt>
      <trkpt lat="41.8029130" lon="3.0140100">
        <ele>37.0</ele>
        <time>2023-01-02T10:17:20Z</time>
      </trkpt>
      <trkpt lat="41.8028640" lon="3.0141000">
        <ele>37.8</ele>
        <time>2023-01-02T10:17:26Z</time>
      </trkpt>
      <trkpt lat="41.8028550" lon="3.0141130">
        <ele>38.0</ele>
        <time>2023-01-02T10:17:27Z</time>
      </trkpt>
      <trkpt lat="41.8027810" lon="3.0141550">
        <ele>39.0</ele>
        <time>2023-01-02T10:17:33Z</time>
      </trkpt>
      <trkpt lat="41.8027670" lon="3.0141580">
        <ele>39.2</ele>
        <time>2023-01-02T10:17:34Z</time>
      </trkpt>
      <trkpt lat="41.8027040" lon="3.0141520">
        <ele>40.4</ele>
        <time>2023-01-02T10:17:38Z</time>
      </trkpt>
      <trkpt lat="41.8026400" lon="3.0141500">
        <ele>41.6</ele>
        <time>2023-01-02T10:17:43Z</time>
      </trkpt>
      <trkpt lat="41.8026210" lon="3.0141840">
        <ele>42.0</ele>
        <time>2023-01-02T10:17:45Z</time>
      </trkpt>
      <trkpt lat="41.8026070" lon="3.0143270">
        <ele>42.8</ele>
        <time>2023-01-02T10:17:51Z</time>
      </trkpt>
      <trkpt lat="41.8025730" lon="3.0145220">
        <ele>43.6</ele>
        <time>2023-01-02T10:17:58Z</time>
      </trkpt>
      <trkpt lat="41.8025460" lon="3.0145870">
        <ele>44.0</ele>
        <time>2023-01-02T10:18:01Z</time>
      </trkpt>
      <trkpt lat="41.8025250" lon="3.0146280">
        <ele>44.2</ele>
        <time>2023-01-02T10:18:03Z</time>
      </trkpt>
      <trkpt lat="41.8024970" lon="3.0146630">
        <ele>44.2</ele>
        <time>2023-01-02T10:18:05Z</time>
      </trkpt>
      <trkpt lat="41.8024120" lon="3.0147390">
        <ele>45.0</ele>
        <time>2023-01-02T10:18:10Z</time>
      </trkpt>
      <trkpt lat="41.8023400" lon="3.0147890">
        <ele>45.4</ele>
        <time>2023-01-02T10:18:14Z</time>
      </trkpt>
      <trkpt lat="41.8022320" lon="3.0148170">
        <ele>46.0</ele>
        <time>2023-01-02T10:18:19Z</time>
      </trkpt>
      <trkpt lat="41.8021880" lon="3.0148270">
        <ele>46.2</ele>
        <time>2023-01-02T10:18:21Z</time>
      </trkpt>
      <trkpt lat="41.8019860" lon="3.0148480">
        <ele>47.2</ele>
        <time>2023-01-02T10:18:30Z</time>
      </trkpt>
      <trkpt lat="41.8018450" lon="3.0148700">
        <ele>48.4</ele>
        <time>2023-01-02T10:18:36Z</time>
      </trkpt>
      <trkpt lat="41.8017020" lon="3.0148950">
        <ele>48.8</ele>
        <time>2023-01-02T10:18:42Z</time>
      </trkpt>
      <trkpt lat="41.8015800" lon="3.0149210">
        <ele>49.6</ele>
        <time>2023-01-02T10:18:47Z</time>
      </trkpt>
      <trkpt lat="41.8015060" lon="3.0149250">
        <ele>49.8</ele>
        <time>2023-01-02T10:18:50Z</time>
      </trkpt>
      <trkpt lat="41.8013360" lon="3.0149490">
        <ele>50.6</ele>
        <time>2023-01-02T10:18:57Z</time>
      </trkpt>
      <trkpt lat="41.8012630" lon="3.0149500">
        <ele>51.2</ele>
        <time>2023-01-02T10:19:00Z</time>
      </trkpt>
      <trkpt lat="41.8011700" lon="3.0149600">
        <ele>51.6</ele>
        <time>2023-01-02T10:19:04Z</time>
      </trkpt>
      <trkpt lat="41.8011000" lon="3.0149730">
        <ele>51.8</ele>
        <time>2023-01-02T10:19:07Z</time>
      </trkpt>
      <trkpt lat="41.8009760" lon="3.0150230">
        <ele>52.6</ele>
        <time>2023-01-02T10:19:13Z</time>
      </trkpt>
      <trkpt lat="41.8009540" lon="3.0150370">
        <ele>52.8</ele>
        <time>2023-01-02T10:19:14Z</time>
      </trkpt>
      <trkpt lat="41.8008510" lon="3.0151510">
        <ele>53.4</ele>
        <time>2023-01-02T10:19:20Z</time>
      </trkpt>
      <trkpt lat="41.8007980" lon="3.0152370">
        <ele>53.8</ele>
        <time>2023-01-02T10:19:24Z</time>
      </trkpt>
      <trkpt lat="41.8007770" lon="3.0152870">
        <ele>54.4</ele>
        <time>2023-01-02T10:19:26Z</time>
      </trkpt>
      <trkpt lat="41.8006950" lon="3.0154720">
        <ele>55.0</ele>
        <time>2023-01-02T10:19:33Z</time>
      </trkpt>
      <trkpt lat="41.8006880" lon="3.0154990">
        <ele>55.0</ele>
        <time>2023-01-02T10:19:34Z</time>
      </trkpt>
      <trkpt lat="41.8006550" lon="3.0156390">
        <ele>55.8</ele>
        <time>2023-01-02T10:19:40Z</time>
      </trkpt>
      <trkpt lat="41.8006550" lon="3.0156940">
        <ele>56.0</ele>
        <time>2023-01-02T10:19:42Z</time>
      </trkpt>
      <trkpt lat="41.8006560" lon="3.0158230">
        <ele>56.6</ele>
        <time>2023-01-02T10:19:46Z</time>
      </trkpt>
      <trkpt lat="41.8006510" lon="3.0160170">
        <ele>56.8</ele>
        <time>2023-01-02T10:19:51Z</time>
      </trkpt>
      <trkpt lat="41.8006590" lon="3.0160900">
        <ele>57.2</ele>
        <time>2023-01-02T10:19:53Z</time>
      </trkpt>
      <trkpt lat="41.8007140" lon="3.0162280">
        <ele>57.4</ele>
        <time>2023-01-02T10:19:57Z</time>
      </trkpt>
      <trkpt lat="41.8007680" lon="3.0164210">
        <ele>58.2</ele>
        <time>2023-01-02T10:20:03Z</time>
      </trkpt>
      <trkpt lat="41.8007830" lon="3.0164850">
        <ele>58.4</ele>
        <time>2023-01-02T10:20:05Z</time>
      </trkpt>
      <trkpt lat="41.8008410" lon="3.0167120">
        <ele>59.0</ele>
        <time>2023-01-02T10:20:12Z</time>
      </trkpt>
      <trkpt lat="41.8008530" lon="3.0167410">
        <ele>59.4</ele>
        <time>2023-01-02T10:20:13Z</time>
      </trkpt>
      <trkpt lat="41.8008980" lon="3.0169070">
        <ele>59.8</ele>
        <time>2023-01-02T10:20:18Z</time>
      </trkpt>
      <trkpt lat="41.8009420" lon="3.0170600">
        <ele>60.4</ele>
        <time>2023-01-02T10:20:22Z</time>
      </trkpt>
      <trkpt lat="41.8009540" lon="3.0172180">
        <ele>61.0</ele>
        <time>2023-01-02T10:20:26Z</time>
      </trkpt>
      <trkpt lat="41.8009350" lon="3.0174660">
        <ele>61.4</ele>
        <time>2023-01-02T10:20:33Z</time>
      </trkpt>
      <trkpt lat="41.8009300" lon="3.0175010">
        <ele>61.6</ele>
        <time>2023-01-02T10:20:34Z</time>
      </trkpt>
      <trkpt lat="41.8008430" lon="3.0177390">
        <ele>62.6</ele>
        <time>2023-01-02T10:20:41Z</time>
      </trkpt>
      <trkpt lat="41.8008260" lon="3.0177730">
        <ele>62.6</ele>
        <time>2023-01-02T10:20:42Z</time>
      </trkpt>
      <trkpt lat="41.8006930" lon="3.0179510">
        <ele>63.2</ele>
        <time>2023-01-02T10:20:48Z</time>
      </trkpt>
      <trkpt lat="41.8005700" lon="3.0180520">
        <ele>63.6</ele>
        <time>2023-01-02T10:20:53Z</time>
      </trkpt>
      <trkpt lat="41.8005430" lon="3.0180680">
        <ele>63.8</ele>
        <time>2023-01-02T10:20:54Z</time>
      </trkpt>
      <trkpt lat="41.8003420" lon="3.0181330">
        <ele>65.0</ele>
        <time>2023-01-02T10:21:01Z</time>
      </trkpt>
      <trkpt lat="41.8001390" lon="3.0181250">
        <ele>65.6</ele>
        <time>2023-01-02T10:21:08Z</time>
      </trkpt>
      <trkpt lat="41.8000220" lon="3.0181140">
        <ele>66.2</ele>
        <time>2023-01-02T10:21:12Z</time>
      </trkpt>
      <trkpt lat="41.7999390" lon="3.0181040">
        <ele>66.4</ele>
        <time>2023-01-02T10:21:15Z</time>
      </trkpt>
      <trkpt lat="41.7998010" lon="3.0180740">
        <ele>67.2</ele>
        <time>2023-01-02T10:21:20Z</time>
      </trkpt>
      <trkpt lat="41.7997250" lon="3.0180600">
        <ele>67.6</ele>
        <time>2023-01-02T10:21:23Z</time>
      </trkpt>
      <trkpt lat="41.7995640" lon="3.0180580">
        <ele>68.6</ele>
        <time>2023-01-02T10:21:29Z</time>
      </trkpt>
      <trkpt lat="41.7993690" lon="3.0180550">
        <ele>69.0</ele>
        <time>2023-01-02T10:21:36Z</time>
      </trkpt>
      <trkpt lat="41.7992500" lon="3.0180800">
        <ele>69.6</ele>
        <time>2023-01-02T10:21:40Z</time>
      </trkpt>
      <trkpt lat="41.7991270" lon="3.0181150">
        <ele>69.8</ele>
        <time>2023-01-02T10:21:44Z</time>
      </trkpt>
      <trkpt lat="41.7989210" lon="3.0181670">
        <ele>70.4</ele>
        <time>2023-01-02T10:21:51Z</time>
      </trkpt>
      <trkpt lat="41.7988450" lon="3.0181910">
        <ele>70.6</ele>
        <time>2023-01-02T10:21:54Z</time>
      </trkpt>
      <trkpt lat="41.7987930" lon="3.0181950">
        <ele>70.8</ele>
        <time>2023-01-02T10:21:56Z</time>
      </trkpt>
      <trkpt lat="41.7986700" lon="3.0182240">
        <ele>71.2</ele>
        <time>2023-01-02T10:22:01Z</time>
      </trkpt>
      <trkpt lat="41.7984930" lon="3.0182940">
        <ele>71.6</ele>
        <time>2023-01-02T10:22:06Z</time>
      </trkpt>
      <trkpt lat="41.7984630" lon="3.0183040">
        <ele>71.6</ele>
        <time>2023-01-02T10:22:07Z</time>
      </trkpt>
      <trkpt lat="41.7982710" lon="3.0183700">
        <ele>72.2</ele>
        <time>2023-01-02T10:22:13Z</time>
      </trkpt>
      <trkpt lat="41.7980820" lon="3.0184440">
        <ele>72.6</ele>
        <time>2023-01-02T10:22:19Z</time>
      </trkpt>
      <trkpt lat="41.7980550" lon="3.0184500">
        <ele>72.8</ele>
        <time>2023-01-02T10:22:20Z</time>
      </trkpt>
      <trkpt lat="41.7979320" lon="3.0184970">
        <ele>73.0</ele>
        <time>2023-01-02T10:22:24Z</time>
      </trkpt>
      <trkpt lat="41.7977300" lon="3.0185870">
        <ele>73.4</ele>
        <time>2023-01-02T10:22:30Z</time>
      </trkpt>
      <trkpt lat="41.7976220" lon="3.0186350">
        <ele>73.6</ele>
        <time>2023-01-02T10:22:34Z</time>
      </trkpt>
      <trkpt lat="41.7975950" lon="3.0186530">
        <ele>73.6</ele>
        <time>2023-01-02T10:22:35Z</time>
      </trkpt>
      <trkpt lat="41.7975700" lon="3.0186770">
        <ele>74.0</ele>
        <time>2023-01-02T10:22:36Z</time>
      </trkpt>
      <trkpt lat="41.7974640" lon="3.0187540">
        <ele>74.2</ele>
        <time>2023-01-02T10:22:40Z</time>
      </trkpt>
      <trkpt lat="41.7973070" lon="3.0187940">
        <ele>74.2</ele>
        <time>2023-01-02T10:22:45Z</time>
      </trkpt>
      <trkpt lat="41.7971050" lon="3.0188530">
        <ele>74.2</ele>
        <time>2023-01-02T10:22:50Z</time>
      </trkpt>
      <trkpt lat="41.7970680" lon="3.0188840">
        <ele>74.0</ele>
        <time>2023-01-02T10:22:51Z</time>
      </trkpt>
      <trkpt lat="41.7970410" lon="3.0189280">
        <ele>74.0</ele>
        <time>2023-01-02T10:22:52Z</time>
      </trkpt>
      <trkpt lat="41.7969760" lon="3.0190130">
        <ele>73.8</ele>
        <time>2023-01-02T10:22:54Z</time>
      </trkpt>
      <trkpt lat="41.7968920" lon="3.0190680">
        <ele>73.6</ele>
        <time>2023-01-02T10:22:56Z</time>
      </trkpt>
      <trkpt lat="41.7967930" lon="3.0191010">
        <ele>73.4</ele>
        <time>2023-01-02T10:22:58Z</time>
      </trkpt>
      <trkpt lat="41.7966880" lon="3.0191350">
        <ele>73.0</ele>
        <time>2023-01-02T10:23:00Z</time>
      </trkpt>
      <trkpt lat="41.7964230" lon="3.0192510">
        <ele>72.2</ele>
        <time>2023-01-02T10:23:05Z</time>
      </trkpt>
      <trkpt lat="41.7962670" lon="3.0193210">
        <ele>71.8</ele>
        <time>2023-01-02T10:23:08Z</time>
      </trkpt>
      <trkpt lat="41.7960480" lon="3.0194140">
        <ele>71.4</ele>
        <time>2023-01-02T10:23:12Z</time>
      </trkpt>
      <trkpt lat="41.7959250" lon="3.0194870">
        <ele>71.0</ele>
        <time>2023-01-02T10:23:14Z</time>
      </trkpt>
      <trkpt lat="41.7958670" lon="3.0195390">
        <ele>70.6</ele>
        <time>2023-01-02T10:23:15Z</time>
      </trkpt>
      <trkpt lat="41.7958090" lon="3.0195920">
        <ele>70.4</ele>
        <time>2023-01-02T10:23:16Z</time>
      </trkpt>
      <trkpt lat="41.7956590" lon="3.0197470">
        <ele>70.0</ele>
        <time>2023-01-02T10:23:19Z</time>
      </trkpt>
      <trkpt lat="41.7956400" lon="3.0198150">
        <ele>69.8</ele>
        <time>2023-01-02T10:23:20Z</time>
      </trkpt>
      <trkpt lat="41.7956380" lon="3.0198870">
        <ele>69.8</ele>
        <time>2023-01-02T10:23:21Z</time>
      </trkpt>
      <trkpt lat="41.7956770" lon="3.0199960">
        <ele>70.0</ele>
        <time>2023-01-02T10:23:23Z</time>
      </trkpt>
      <trkpt lat="41.7957830" lon="3.0201340">
        <ele>70.2</ele>
        <time>2023-01-02T10:23:27Z</time>
      </trkpt>
      <trkpt lat="41.7958180" lon="3.0203740">
        <ele>70.4</ele>
        <time>2023-01-02T10:23:32Z</time>
      </trkpt>
      <trkpt lat="41.7958380" lon="3.0206230">
        <ele>71.6</ele>
        <time>2023-01-02T10:23:38Z</time>
      </trkpt>
      <trkpt lat="41.7957910" lon="3.0207920">
        <ele>71.6</ele>
        <time>2023-01-02T10:23:42Z</time>
      </trkpt>
      <trkpt lat="41.7958130" lon="3.0208790">
        <ele>72.2</ele>
        <time>2023-01-02T10:23:44Z</time>
      </trkpt>
      <trkpt lat="41.7958350" lon="3.0209160">
        <ele>72.4</ele>
        <time>2023-01-02T10:23:45Z</time>
      </trkpt>
      <trkpt lat="41.7958770" lon="3.0210960">
        <ele>73.0</ele>
        <time>2023-01-02T10:23:49Z</time>
      </trkpt>
      <trkpt lat="41.7958640" lon="3.0211920">
        <ele>73.0</ele>
        <time>2023-01-02T10:23:51Z</time>
      </trkpt>
      <trkpt lat="41.7958310" lon="3.0212080">
        <ele>72.8</ele>
        <time>2023-01-02T10:23:52Z</time>
      </trkpt>
      <trkpt lat="41.7957130" lon="3.0211550">
        <ele>72.2</ele>
        <time>2023-01-02T10:23:55Z</time>
      </trkpt>
      <trkpt lat="41.7955560" lon="3.0212030">
        <ele>71.6</ele>
        <time>2023-01-02T10:23:58Z</time>
      </trkpt>
      <trkpt lat="41.7954210" lon="3.0212140">
        <ele>71.0</ele>
        <time>2023-01-02T10:24:00Z</time>
      </trkpt>
      <trkpt lat="41.7952690" lon="3.0212180">
        <ele>70.4</ele>
        <time>2023-01-02T10:24:02Z</time>
      </trkpt>
      <trkpt lat="41.7951030" lon="3.0212350">
        <ele>69.4</ele>
        <time>2023-01-02T10:24:04Z</time>
      </trkpt>
      <trkpt lat="41.7949230" lon="3.0212690">
        <ele>68.4</ele>
        <time>2023-01-02T10:24:06Z</time>
      </trkpt>
      <trkpt lat="41.7948300" lon="3.0212880">
        <ele>67.8</ele>
        <time>2023-01-02T10:24:07Z</time>
      </trkpt>
      <trkpt lat="41.7946400" lon="3.0213200">
        <ele>67.2</ele>
        <time>2023-01-02T10:24:09Z</time>
      </trkpt>
      <trkpt lat="41.7942540" lon="3.0213650">
        <ele>65.6</ele>
        <time>2023-01-02T10:24:13Z</time>
      </trkpt>
      <trkpt lat="41.7941610" lon="3.0213770">
        <ele>65.4</ele>
        <time>2023-01-02T10:24:14Z</time>
      </trkpt>
      <trkpt lat="41.7939340" lon="3.0213980">
        <ele>64.4</ele>
        <time>2023-01-02T10:24:17Z</time>
      </trkpt>
      <trkpt lat="41.7938710" lon="3.0213860">
        <ele>63.6</ele>
        <time>2023-01-02T10:24:18Z</time>
      </trkpt>
      <trkpt lat="41.7938090" lon="3.0213620">
        <ele>62.8</ele>
        <time>2023-01-02T10:24:19Z</time>
      </trkpt>
      <trkpt lat="41.7937460" lon="3.0213410">
        <ele>62.4</ele>
        <time>2023-01-02T10:24:20Z</time>
      </trkpt>
      <trkpt lat="41.7936180" lon="3.0213710">
        <ele>61.6</ele>
        <time>2023-01-02T10:24:22Z</time>
      </trkpt>
      <trkpt lat="41.7935010" lon="3.0214400">
        <ele>61.2</ele>
        <time>2023-01-02T10:24:24Z</time>
      </trkpt>
      <trkpt lat="41.7933650" lon="3.0214790">
        <ele>60.6</ele>
        <time>2023-01-02T10:24:26Z</time>
      </trkpt>
      <trkpt lat="41.7930310" lon="3.0215650">
        <ele>59.8</ele>
        <time>2023-01-02T10:24:31Z</time>
      </trkpt>
      <trkpt lat="41.7929740" lon="3.0215800">
        <ele>59.6</ele>
        <time>2023-01-02T10:24:32Z</time>
      </trkpt>
      <trkpt lat="41.7928130" lon="3.0216220">
        <ele>58.4</ele>
        <time>2023-01-02T10:24:35Z</time>
      </trkpt>
      <trkpt lat="41.7925870" lon="3.0216720">
        <ele>57.6</ele>
        <time>2023-01-02T10:24:39Z</time>
      </trkpt>
      <trkpt lat="41.7924080" lon="3.0217290">
        <ele>57.2</ele>
        <time>2023-01-02T10:24:42Z</time>
      </trkpt>
      <trkpt lat="41.7922240" lon="3.0218340">
        <ele>56.8</ele>
        <time>2023-01-02T10:24:45Z</time>
      </trkpt>
      <trkpt lat="41.7918240" lon="3.0221370">
        <ele>56.4</ele>
        <time>2023-01-02T10:24:51Z</time>
      </trkpt>
      <trkpt lat="41.7917520" lon="3.0221890">
        <ele>56.4</ele>
        <time>2023-01-02T10:24:52Z</time>
      </trkpt>
      <trkpt lat="41.7916790" lon="3.0222400">
        <ele>56.2</ele>
        <time>2023-01-02T10:24:53Z</time>
      </trkpt>
      <trkpt lat="41.7914630" lon="3.0223950">
        <ele>55.0</ele>
        <time>2023-01-02T10:24:56Z</time>
      </trkpt>
      <trkpt lat="41.7913360" lon="3.0224920">
        <ele>53.6</ele>
        <time>2023-01-02T10:24:58Z</time>
      </trkpt>
      <trkpt lat="41.7912830" lon="3.0225360">
        <ele>53.2</ele>
        <time>2023-01-02T10:24:59Z</time>
      </trkpt>
      <trkpt lat="41.7911960" lon="3.0226020">
        <ele>52.6</ele>
        <time>2023-01-02T10:25:01Z</time>
      </trkpt>
      <trkpt lat="41.7911680" lon="3.0226200">
        <ele>52.4</ele>
        <time>2023-01-02T10:25:02Z</time>
      </trkpt>
      <trkpt lat="41.7911200" lon="3.0226340">
        <ele>51.4</ele>
        <time>2023-01-02T10:25:04Z</time>
      </trkpt>
      <trkpt lat="41.7910550" lon="3.0226740">
        <ele>51.0</ele>
        <time>2023-01-02T10:25:06Z</time>
      </trkpt>
      <trkpt lat="41.7910130" lon="3.0227950">
        <ele>50.8</ele>
        <time>2023-01-02T10:25:09Z</time>
      </trkpt>
      <trkpt lat="41.7909350" lon="3.0230130">
        <ele>50.8</ele>
        <time>2023-01-02T10:25:15Z</time>
      </trkpt>
      <trkpt lat="41.7908200" lon="3.0231900">
        <ele>51.0</ele>
        <time>2023-01-02T10:25:20Z</time>
      </trkpt>
      <trkpt lat="41.7906550" lon="3.0234410">
        <ele>51.4</ele>
        <time>2023-01-02T10:25:26Z</time>
      </trkpt>
      <trkpt lat="41.7904560" lon="3.0236150">
        <ele>51.8</ele>
        <time>2023-01-02T10:25:31Z</time>
      </trkpt>
      <trkpt lat="41.7904160" lon="3.0236510">
        <ele>51.8</ele>
        <time>2023-01-02T10:25:32Z</time>
      </trkpt>
      <trkpt lat="41.7902860" lon="3.0237640">
        <ele>51.8</ele>
        <time>2023-01-02T10:25:35Z</time>
      </trkpt>
      <trkpt lat="41.7901290" lon="3.0239380">
        <ele>51.8</ele>
        <time>2023-01-02T10:25:39Z</time>
      </trkpt>
      <trkpt lat="41.7897720" lon="3.0243150">
        <ele>51.8</ele>
        <time>2023-01-02T10:25:46Z</time>
      </trkpt>
      <trkpt lat="41.7896580" lon="3.0244080">
        <ele>51.6</ele>
        <time>2023-01-02T10:25:48Z</time>
      </trkpt>
      <trkpt lat="41.7895690" lon="3.0244710">
        <ele>51.2</ele>
        <time>2023-01-02T10:25:50Z</time>
      </trkpt>
      <trkpt lat="41.7894330" lon="3.0245790">
        <ele>50.6</ele>
        <time>2023-01-02T10:25:54Z</time>
      </trkpt>
      <trkpt lat="41.7894000" lon="3.0246170">
        <ele>50.4</ele>
        <time>2023-01-02T10:25:55Z</time>
      </trkpt>
      <trkpt lat="41.7893720" lon="3.0246650">
        <ele>50.2</ele>
        <time>2023-01-02T10:25:56Z</time>
      </trkpt>
      <trkpt lat="41.7892840" lon="3.0248700">
        <ele>50.0</ele>
        <time>2023-01-02T10:26:00Z</time>
      </trkpt>
      <trkpt lat="41.7891700" lon="3.0250000">
        <ele>50.4</ele>
        <time>2023-01-02T10:26:03Z</time>
      </trkpt>
      <trkpt lat="41.7891370" lon="3.0250440">
        <ele>50.4</ele>
        <time>2023-01-02T10:26:04Z</time>
      </trkpt>
      <trkpt lat="41.7888870" lon="3.0253210">
        <ele>50.6</ele>
        <time>2023-01-02T10:26:10Z</time>
      </trkpt>
      <trkpt lat="41.7886170" lon="3.0256290">
        <ele>50.0</ele>
        <time>2023-01-02T10:26:16Z</time>
      </trkpt>
      <trkpt lat="41.7885690" lon="3.0256820">
        <ele>50.0</ele>
        <time>2023-01-02T10:26:17Z</time>
      </trkpt>
      <trkpt lat="41.7884810" lon="3.0258060">
        <ele>49.8</ele>
        <time>2023-01-02T10:26:19Z</time>
      </trkpt>
      <trkpt lat="41.7884090" lon="3.0259540">
        <ele>49.4</ele>
        <time>2023-01-02T10:26:21Z</time>
      </trkpt>
      <trkpt lat="41.7883100" lon="3.0262230">
        <ele>49.0</ele>
        <time>2023-01-02T10:26:24Z</time>
      </trkpt>
      <trkpt lat="41.7882410" lon="3.0264260">
        <ele>48.2</ele>
        <time>2023-01-02T10:26:26Z</time>
      </trkpt>
      <trkpt lat="41.7881660" lon="3.0266280">
        <ele>47.6</ele>
        <time>2023-01-02T10:26:28Z</time>
      </trkpt>
      <trkpt lat="41.7880370" lon="3.0269580">
        <ele>46.8</ele>
        <time>2023-01-02T10:26:31Z</time>
      </trkpt>
      <trkpt lat="41.7879930" lon="3.0270720">
        <ele>45.8</ele>
        <time>2023-01-02T10:26:32Z</time>
      </trkpt>
      <trkpt lat="41.7879070" lon="3.0272900">
        <ele>44.2</ele>
        <time>2023-01-02T10:26:34Z</time>
      </trkpt>
      <trkpt lat="41.7878620" lon="3.0273990">
        <ele>43.0</ele>
        <time>2023-01-02T10:26:35Z</time>
      </trkpt>
      <trkpt lat="41.7878150" lon="3.0275120">
        <ele>42.0</ele>
        <time>2023-01-02T10:26:36Z</time>
      </trkpt>
      <trkpt lat="41.7877690" lon="3.0276250">
        <ele>41.2</ele>
        <time>2023-01-02T10:26:37Z</time>
      </trkpt>
      <trkpt lat="41.7877220" lon="3.0277370">
        <ele>40.6</ele>
        <time>2023-01-02T10:26:38Z</time>
      </trkpt>
      <trkpt lat="41.7876760" lon="3.0278490">
        <ele>39.6</ele>
        <time>2023-01-02T10:26:39Z</time>
      </trkpt>
      <trkpt lat="41.7875850" lon="3.0280700">
        <ele>38.2</ele>
        <time>2023-01-02T10:26:41Z</time>
      </trkpt>
      <trkpt lat="41.7874950" lon="3.0282800">
        <ele>36.2</ele>
        <time>2023-01-02T10:26:43Z</time>
      </trkpt>
      <trkpt lat="41.7874210" lon="3.0284600">
        <ele>34.2</ele>
        <time>2023-01-02T10:26:45Z</time>
      </trkpt>
      <trkpt lat="41.7873860" lon="3.0285340">
        <ele>32.8</ele>
        <time>2023-01-02T10:26:46Z</time>
      </trkpt>
      <trkpt lat="41.7873500" lon="3.0285930">
        <ele>31.8</ele>
        <time>2023-01-02T10:26:47Z</time>
      </trkpt>
      <trkpt lat="41.7873110" lon="3.0286360">
        <ele>30.4</ele>
        <time>2023-01-02T10:26:48Z</time>
      </trkpt>
      <trkpt lat="41.7872710" lon="3.0286770">
        <ele>29.6</ele>
        <time>2023-01-02T10:26:49Z</time>
      </trkpt>
      <trkpt lat="41.7872370" lon="3.0287200">
        <ele>29.2</ele>
        <time>2023-01-02T10:26:50Z</time>
      </trkpt>
      <trkpt lat="41.7871840" lon="3.0287810">
        <ele>28.8</ele>
        <time>2023-01-02T10:26:52Z</time>
      </trkpt>
      <trkpt lat="41.7871470" lon="3.0288450">
        <ele>27.8</ele>
        <time>2023-01-02T10:26:54Z</time>
      </trkpt>
      <trkpt lat="41.7871260" lon="3.0289140">
        <ele>27.2</ele>
        <time>2023-01-02T10:26:56Z</time>
      </trkpt>
      <trkpt lat="41.7871370" lon="3.0289800">
        <ele>26.4</ele>
        <time>2023-01-02T10:26:58Z</time>
      </trkpt>
      <trkpt lat="41.7871570" lon="3.0290180">
        <ele>25.6</ele>
        <time>2023-01-02T10:27:00Z</time>
      </trkpt>
      <trkpt lat="41.7871730" lon="3.0290310">
        <ele>25.4</ele>
        <time>2023-01-02T10:27:01Z</time>
      </trkpt>
      <trkpt lat="41.7871970" lon="3.0290350">
        <ele>25.2</ele>
        <time>2023-01-02T10:27:02Z</time>
      </trkpt>
      <trkpt lat="41.7872240" lon="3.0290290">
        <ele>25.2</ele>
        <time>2023-01-02T10:27:03Z</time>
      </trkpt>
      <trkpt lat="41.7872480" lon="3.0290150">
        <ele>25.2</ele>
        <time>2023-01-02T10:27:04Z</time>
      </trkpt>
      <trkpt lat="41.7873140" lon="3.0289060">
        <ele>25.4</ele>
        <time>2023-01-02T10:27:09Z</time>
      </trkpt>
      <trkpt lat="41.7873340" lon="3.0288510">
        <ele>26.4</ele>
        <time>2023-01-02T10:27:11Z</time>
      </trkpt>
      <trkpt lat="41.7873650" lon="3.0287650">
        <ele>26.8</ele>
        <time>2023-01-02T10:27:14Z</time>
      </trkpt>
      <trkpt lat="41.7874080" lon="3.0286720">
        <ele>27.4</ele>
        <time>2023-01-02T10:27:17Z</time>
      </trkpt>
      <trkpt lat="41.7874850" lon="3.0285310">
        <ele>28.2</ele>
        <time>2023-01-02T10:27:22Z</time>
      </trkpt>
      <trkpt lat="41.7875010" lon="3.0285030">
        <ele>28.4</ele>
        <time>2023-01-02T10:27:23Z</time>
      </trkpt>
      <trkpt lat="41.7875200" lon="3.0284810">
        <ele>28.8</ele>
        <time>2023-01-02T10:27:24Z</time>
      </trkpt>
      <trkpt lat="41.7875960" lon="3.0284390">
        <ele>29.6</ele>
        <time>2023-01-02T10:27:27Z</time>
      </trkpt>
      <trkpt lat="41.7876190" lon="3.0284070">
        <ele>29.8</ele>
        <time>2023-01-02T10:27:28Z</time>
      </trkpt>
      <trkpt lat="41.7877070" lon="3.0283470">
        <ele>30.0</ele>
        <time>2023-01-02T10:27:32Z</time>
      </trkpt>
      <trkpt lat="41.7877210" lon="3.0283460">
        <ele>30.2</ele>
        <time>2023-01-02T10:27:33Z</time>
      </trkpt>
    </trkseg>
  </trk>
</gpx>
